Wetterdaten: Dienstag, 13.02.2018
Datum Zeit Temp. A. Feuchte A. Luftdruck Regen Wind Richtung Richtung Sonnenschein ET UV Solar Taupunkt Windchill Windböen
13.02.2018 00:00 -4,1 °C 90 % 1019,3 hPa 0,0 mm 2,3 km/h (1 Bft) SW 236 ° 0 min 0,000 mm 0,0 UV-I 0 W/m² -5,5 °C -4,1 °C 4,8 km/h (1 Bft)
13.02.2018 00:01 -4,1 °C 90 % 1019,2 hPa 0,0 mm 3,0 km/h (1 Bft) SW 223 ° 0 min 0,000 mm 0,0 UV-I 0 W/m² -5,5 °C -4,1 °C 4,8 km/h (1 Bft)
13.02.2018 00:02 -4,1 °C 90 % 1019,2 hPa 0,0 mm 0,9 km/h (0 Bft) SW 223 ° 0 min 0,000 mm 0,0 UV-I 0 W/m² -5,5 °C -4,1 °C 3,2 km/h (1 Bft)
13.02.2018 00:03 -4,1 °C 90 % 1019,3 hPa 0,0 mm 1,3 km/h (1 Bft) SW 223 ° 0 min 0,000 mm 0,0 UV-I 0 W/m² -5,5 °C -4,1 °C 3,2 km/h (1 Bft)
13.02.2018 00:04 -4,1 °C 90 % 1019,3 hPa 0,0 mm 0,0 km/h (0 Bft) SW 223 ° 0 min 0,000 mm 0,0 UV-I 0 W/m² -5,5 °C -4,1 °C 0,0 km/h (0 Bft)
13.02.2018 00:05 -4,1 °C 90 % 1019,3 hPa 0,0 mm 1,5 km/h (1 Bft) SW 221 ° 0 min 0,000 mm 0,0 UV-I 0 W/m² -5,5 °C -4,1 °C 4,8 km/h (1 Bft)
13.02.2018 00:06 -4,1 °C 90 % 1019,3 hPa 0,0 mm 4,9 km/h (1 Bft) W 280 ° 0 min 0,000 mm 0,0 UV-I 0 W/m² -5,5 °C -6,2 °C 6,4 km/h (2 Bft)
13.02.2018 00:07 -4,1 °C 90 % 1019,2 hPa 0,0 mm 3,0 km/h (1 Bft) W 261 ° 0 min 0,000 mm 0,0 UV-I 0 W/m² -5,5 °C -4,1 °C 4,8 km/h (1 Bft)
13.02.2018 00:08 -4,1 °C 90 % 1019,2 hPa 0,0 mm 2,9 km/h (1 Bft) W-SW 242 ° 0 min 0,000 mm 0,0 UV-I 0 W/m² -5,5 °C -4,1 °C 6,4 km/h (2 Bft)
13.02.2018 00:09 -4,1 °C 90 % 1019,3 hPa 0,0 mm 1,3 km/h (1 Bft) W-SW 242 ° 0 min 0,000 mm 0,0 UV-I 0 W/m² -5,5 °C -4,1 °C 3,2 km/h (1 Bft)
13.02.2018 00:10 -4,1 °C 90 % 1019,3 hPa 0,0 mm 0,1 km/h (0 Bft) W-SW 242 ° 0 min 0,000 mm 0,0 UV-I 0 W/m² -5,5 °C -4,1 °C 1,6 km/h (1 Bft)
13.02.2018 00:11 -4,1 °C 90 % 1019,2 hPa 0,0 mm 0,3 km/h (0 Bft) W-SW 242 ° 0 min 0,000 mm 0,0 UV-I 0 W/m² -5,5 °C -4,1 °C 1,6 km/h (1 Bft)
13.02.2018 00:12 -4,1 °C 90 % 1019,2 hPa 0,0 mm 1,9 km/h (1 Bft) W-SW 242 ° 0 min 0,000 mm 0,0 UV-I 0 W/m² -5,5 °C -4,1 °C 4,8 km/h (1 Bft)
13.02.2018 00:13 -4,1 °C 90 % 1019,2 hPa 0,0 mm 1,6 km/h (1 Bft) W-SW 240 ° 0 min 0,000 mm 0,0 UV-I 0 W/m² -5,5 °C -4,1 °C 3,2 km/h (1 Bft)
13.02.2018 00:14 -4,1 °C 90 % 1019,1 hPa 0,0 mm 0,5 km/h (0 Bft) W-SW 240 ° 0 min 0,000 mm 0,0 UV-I 0 W/m² -5,5 °C -4,1 °C 1,6 km/h (1 Bft)
13.02.2018 00:15 -4,1 °C 90 % 1019,1 hPa 0,0 mm 2,7 km/h (1 Bft) W-SW 240 ° 0 min 0,000 mm 0,0 UV-I 0 W/m² -5,5 °C -4,1 °C 4,8 km/h (1 Bft)
13.02.2018 00:16 -4,1 °C 90 % 1019,1 hPa 0,0 mm 1,7 km/h (1 Bft) W-SW 240 ° 0 min 0,000 mm 0,0 UV-I 0 W/m² -5,5 °C -4,1 °C 3,2 km/h (1 Bft)
13.02.2018 00:17 -4,1 °C 90 % 1019,1 hPa 0,0 mm 0,7 km/h (0 Bft) W-SW 240 ° 0 min 0,000 mm 0,0 UV-I 0 W/m² -5,5 °C -4,1 °C 1,6 km/h (1 Bft)
13.02.2018 00:18 -4,1 °C 90 % 1019,1 hPa 0,0 mm 1,8 km/h (1 Bft) W-SW 240 ° 0 min 0,000 mm 0,0 UV-I 0 W/m² -5,5 °C -4,1 °C 3,2 km/h (1 Bft)
13.02.2018 00:19 -4,1 °C 90 % 1019,1 hPa 0,0 mm 0,8 km/h (0 Bft) W-SW 240 ° 0 min 0,000 mm 0,0 UV-I 0 W/m² -5,5 °C -4,1 °C 3,2 km/h (1 Bft)
13.02.2018 00:20 -4,1 °C 90 % 1019,1 hPa 0,0 mm 0,1 km/h (0 Bft) W-SW 240 ° 0 min 0,000 mm 0,0 UV-I 0 W/m² -5,5 °C -4,1 °C 1,6 km/h (1 Bft)
13.02.2018 00:21 -4,1 °C 90 % 1019,1 hPa 0,0 mm 0,2 km/h (0 Bft) W-SW 240 ° 0 min 0,000 mm 0,0 UV-I 0 W/m² -5,5 °C -4,1 °C 1,6 km/h (1 Bft)
13.02.2018 00:22 -4,1 °C 90 % 1019,1 hPa 0,0 mm 0,8 km/h (0 Bft) W-SW 240 ° 0 min 0,000 mm 0,0 UV-I 0 W/m² -5,5 °C -4,1 °C 3,2 km/h (1 Bft)
13.02.2018 00:23 -4,1 °C 90 % 1019,1 hPa 0,0 mm 0,9 km/h (0 Bft) W-SW 240 ° 0 min 0,000 mm 0,0 UV-I 0 W/m² -5,5 °C -4,1 °C 1,6 km/h (1 Bft)
13.02.2018 00:24 -4,1 °C 90 % 1019,1 hPa 0,0 mm 0,7 km/h (0 Bft) W-SW 240 ° 0 min 0,000 mm 0,0 UV-I 0 W/m² -5,5 °C -4,1 °C 3,2 km/h (1 Bft)
13.02.2018 00:25 -4,1 °C 90 % 1019,1 hPa 0,0 mm 0,5 km/h (0 Bft) W-SW 240 ° 0 min 0,000 mm 0,0 UV-I 0 W/m² -5,5 °C -4,1 °C 1,6 km/h (1 Bft)
13.02.2018 00:26 -4,1 °C 90 % 1019,1 hPa 0,0 mm 0,3 km/h (0 Bft) W-SW 240 ° 0 min 0,000 mm 0,0 UV-I 0 W/m² -5,5 °C -4,1 °C 1,6 km/h (1 Bft)
13.02.2018 00:27 -4,1 °C 90 % 1019,1 hPa 0,0 mm 0,0 km/h (0 Bft) W-SW 240 ° 0 min 0,000 mm 0,0 UV-I 0 W/m² -5,5 °C -4,1 °C 0,0 km/h (0 Bft)
13.02.2018 00:28 -4,1 °C 90 % 1019,1 hPa 0,0 mm 0,0 km/h (0 Bft) W-SW 240 ° 0 min 0,000 mm 0,0 UV-I 0 W/m² -5,5 °C -4,1 °C 0,0 km/h (0 Bft)
13.02.2018 00:29 -4,1 °C 90 % 1019,1 hPa 0,0 mm 0,0 km/h (0 Bft) W-SW 240 ° 0 min 0,000 mm 0,0 UV-I 0 W/m² -5,5 °C -4,1 °C 0,0 km/h (0 Bft)
13.02.2018 00:30 -4,1 °C 90 % 1019,1 hPa 0,0 mm 0,0 km/h (0 Bft) W-SW 240 ° 0 min 0,000 mm 0,0 UV-I 0 W/m² -5,5 °C -4,1 °C 0,0 km/h (0 Bft)
13.02.2018 00:31 -4,1 °C 90 % 1019,1 hPa 0,0 mm 0,0 km/h (0 Bft) W-SW 240 ° 0 min 0,000 mm 0,0 UV-I 0 W/m² -5,5 °C -4,1 °C 0,0 km/h (0 Bft)
13.02.2018 00:32 -4,1 °C 90 % 1019,1 hPa 0,0 mm 0,0 km/h (0 Bft) W-SW 240 ° 0 min 0,000 mm 0,0 UV-I 0 W/m² -5,5 °C -4,1 °C 0,0 km/h (0 Bft)
13.02.2018 00:33 -4,1 °C 90 % 1019,1 hPa 0,0 mm 0,6 km/h (0 Bft) W-SW 240 ° 0 min 0,000 mm 0,0 UV-I 0 W/m² -5,5 °C -4,1 °C 1,6 km/h (1 Bft)
13.02.2018 00:34 -4,1 °C 90 % 1019,1 hPa 0,0 mm 0,1 km/h (0 Bft) W-SW 240 ° 0 min 0,000 mm 0,0 UV-I 0 W/m² -5,5 °C -4,1 °C 1,6 km/h (1 Bft)
13.02.2018 00:35 -4,1 °C 90 % 1019,1 hPa 0,0 mm 0,0 km/h (0 Bft) W-SW 240 ° 0 min 0,000 mm 0,0 UV-I 0 W/m² -5,5 °C -4,1 °C 0,0 km/h (0 Bft)
13.02.2018 00:36 -4,1 °C 90 % 1019,1 hPa 0,0 mm 0,0 km/h (0 Bft) W-SW 240 ° 0 min 0,000 mm 0,0 UV-I 0 W/m² -5,5 °C -4,1 °C 0,0 km/h (0 Bft)
13.02.2018 00:37 -4,1 °C 90 % 1019,1 hPa 0,0 mm 0,0 km/h (0 Bft) W-SW 240 ° 0 min 0,000 mm 0,0 UV-I 0 W/m² -5,5 °C -4,1 °C 0,0 km/h (0 Bft)
13.02.2018 00:38 -4,1 °C 90 % 1019,2 hPa 0,0 mm 0,3 km/h (0 Bft) W-SW 240 ° 0 min 0,000 mm 0,0 UV-I 0 W/m² -5,5 °C -4,1 °C 1,6 km/h (1 Bft)
13.02.2018 00:39 -4,1 °C 90 % 1019,2 hPa 0,0 mm 1,6 km/h (1 Bft) W-SW 240 ° 0 min 0,000 mm 0,0 UV-I 0 W/m² -5,5 °C -4,1 °C 3,2 km/h (1 Bft)
13.02.2018 00:40 -4,1 °C 90 % 1019,1 hPa 0,0 mm 1,4 km/h (1 Bft) W-SW 240 ° 0 min 0,000 mm 0,0 UV-I 0 W/m² -5,5 °C -4,1 °C 3,2 km/h (1 Bft)
13.02.2018 00:41 -4,1 °C 90 % 1019,2 hPa 0,0 mm 0,0 km/h (0 Bft) W-SW 240 ° 0 min 0,000 mm 0,0 UV-I 0 W/m² -5,5 °C -4,1 °C 0,0 km/h (0 Bft)
13.02.2018 00:42 -4,1 °C 90 % 1019,2 hPa 0,0 mm 0,0 km/h (0 Bft) W-SW 240 ° 0 min 0,000 mm 0,0 UV-I 0 W/m² -5,5 °C -4,1 °C 0,0 km/h (0 Bft)
13.02.2018 00:43 -4,1 °C 90 % 1019,2 hPa 0,0 mm 0,0 km/h (0 Bft) W-SW 240 ° 0 min 0,000 mm 0,0 UV-I 0 W/m² -5,5 °C -4,1 °C 0,0 km/h (0 Bft)
13.02.2018 00:44 -4,1 °C 90 % 1019,2 hPa 0,0 mm 0,0 km/h (0 Bft) W-SW 240 ° 0 min 0,000 mm 0,0 UV-I 0 W/m² -5,5 °C -4,1 °C 0,0 km/h (0 Bft)
13.02.2018 00:45 -4,1 °C 90 % 1019,2 hPa 0,0 mm 0,0 km/h (0 Bft) W-SW 240 ° 0 min 0,000 mm 0,0 UV-I 0 W/m² -5,5 °C -4,1 °C 0,0 km/h (0 Bft)
13.02.2018 00:46 -4,1 °C 90 % 1019,2 hPa 0,0 mm 2,5 km/h (1 Bft) W-SW 251 ° 0 min 0,000 mm 0,0 UV-I 0 W/m² -5,5 °C -4,1 °C 4,8 km/h (1 Bft)
13.02.2018 00:47 -4,1 °C 90 % 1019,2 hPa 0,0 mm 2,2 km/h (1 Bft) W-SW 251 ° 0 min 0,000 mm 0,0 UV-I 0 W/m² -5,5 °C -4,1 °C 4,8 km/h (1 Bft)
13.02.2018 00:48 -4,1 °C 90 % 1019,2 hPa 0,0 mm 2,1 km/h (1 Bft) W-SW 251 ° 0 min 0,000 mm 0,0 UV-I 0 W/m² -5,5 °C -4,1 °C 3,2 km/h (1 Bft)
13.02.2018 00:49 -4,1 °C 90 % 1019,2 hPa 0,0 mm 1,3 km/h (1 Bft) W-SW 251 ° 0 min 0,000 mm 0,0 UV-I 0 W/m² -5,5 °C -4,1 °C 3,2 km/h (1 Bft)
13.02.2018 00:50 -4,1 °C 90 % 1019,2 hPa 0,0 mm 1,3 km/h (1 Bft) W-SW 251 ° 0 min 0,000 mm 0,0 UV-I 0 W/m² -5,5 °C -4,1 °C 1,6 km/h (1 Bft)
13.02.2018 00:51 -4,1 °C 90 % 1019,2 hPa 0,0 mm 2,3 km/h (1 Bft) W-SW 251 ° 0 min 0,000 mm 0,0 UV-I 0 W/m² -5,5 °C -4,1 °C 3,2 km/h (1 Bft)
13.02.2018 00:52 -4,1 °C 90 % 1019,2 hPa 0,0 mm 3,5 km/h (1 Bft) W-SW 251 ° 0 min 0,000 mm 0,0 UV-I 0 W/m² -5,5 °C -4,1 °C 4,8 km/h (1 Bft)
13.02.2018 00:53 -4,1 °C 90 % 1019,2 hPa 0,0 mm 0,9 km/h (0 Bft) W-SW 251 ° 0 min 0,000 mm 0,0 UV-I 0 W/m² -5,5 °C -4,1 °C 1,6 km/h (1 Bft)
13.02.2018 00:54 -4,1 °C 90 % 1019,3 hPa 0,0 mm 0,4 km/h (0 Bft) W-SW 251 ° 0 min 0,000 mm 0,0 UV-I 0 W/m² -5,5 °C -4,1 °C 1,6 km/h (1 Bft)
13.02.2018 00:55 -4,1 °C 90 % 1019,3 hPa 0,0 mm 1,3 km/h (1 Bft) W-SW 251 ° 0 min 0,000 mm 0,0 UV-I 0 W/m² -5,5 °C -4,1 °C 3,2 km/h (1 Bft)
13.02.2018 00:56 -4,1 °C 90 % 1019,2 hPa 0,0 mm 2,1 km/h (1 Bft) W-SW 251 ° 0 min 0,000 mm 0,0 UV-I 0 W/m² -5,5 °C -4,1 °C 3,2 km/h (1 Bft)
13.02.2018 00:57 -4,1 °C 90 % 1019,2 hPa 0,0 mm 2,2 km/h (1 Bft) W-SW 250 ° 0 min 0,000 mm 0,0 UV-I 0 W/m² -5,5 °C -4,1 °C 4,8 km/h (1 Bft)
13.02.2018 00:58 -4,1 °C 90 % 1019,2 hPa 0,0 mm 3,2 km/h (1 Bft) SW 227 ° 0 min 0,000 mm 0,0 UV-I 0 W/m² -5,5 °C -4,1 °C 6,4 km/h (2 Bft)
13.02.2018 00:59 -4,1 °C 90 % 1019,2 hPa 0,0 mm 2,2 km/h (1 Bft) SW 222 ° 0 min 0,000 mm 0,0 UV-I 0 W/m² -5,5 °C -4,1 °C 3,2 km/h (1 Bft)
13.02.2018 01:00 -4,1 °C 90 % 1019,2 hPa 0,0 mm 3,0 km/h (1 Bft) W-SW 244 ° 0 min 0,000 mm 0,0 UV-I 0 W/m² -5,5 °C -4,1 °C 6,4 km/h (2 Bft)
13.02.2018 01:01 -4,1 °C 90 % 1019,2 hPa 0,0 mm 0,6 km/h (0 Bft) W-SW 244 ° 0 min 0,000 mm 0,0 UV-I 0 W/m² -5,5 °C -4,1 °C 3,2 km/h (1 Bft)
13.02.2018 01:02 -4,1 °C 90 % 1019,2 hPa 0,0 mm 1,0 km/h (0 Bft) W-SW 244 ° 0 min 0,000 mm 0,0 UV-I 0 W/m² -5,5 °C -4,1 °C 1,6 km/h (1 Bft)
13.02.2018 01:03 -4,1 °C 90 % 1019,2 hPa 0,0 mm 0,7 km/h (0 Bft) W-SW 244 ° 0 min 0,000 mm 0,0 UV-I 0 W/m² -5,5 °C -4,1 °C 3,2 km/h (1 Bft)
13.02.2018 01:04 -4,1 °C 90 % 1019,2 hPa 0,0 mm 2,3 km/h (1 Bft) W-SW 248 ° 0 min 0,000 mm 0,0 UV-I 0 W/m² -5,5 °C -4,1 °C 4,8 km/h (1 Bft)
13.02.2018 01:05 -4,1 °C 90 % 1019,3 hPa 0,0 mm 0,9 km/h (0 Bft) W-SW 248 ° 0 min 0,000 mm 0,0 UV-I 0 W/m² -5,5 °C -4,1 °C 3,2 km/h (1 Bft)
13.02.2018 01:06 -4,1 °C 90 % 1019,2 hPa 0,0 mm 2,7 km/h (1 Bft) W-SW 238 ° 0 min 0,000 mm 0,0 UV-I 0 W/m² -5,5 °C -4,1 °C 4,8 km/h (1 Bft)
13.02.2018 01:07 -4,1 °C 90 % 1019,2 hPa 0,0 mm 1,6 km/h (1 Bft) W-SW 238 ° 0 min 0,000 mm 0,0 UV-I 0 W/m² -5,5 °C -4,1 °C 3,2 km/h (1 Bft)
13.02.2018 01:08 -4,1 °C 90 % 1019,2 hPa 0,0 mm 1,5 km/h (1 Bft) W-SW 238 ° 0 min 0,000 mm 0,0 UV-I 0 W/m² -5,5 °C -4,1 °C 3,2 km/h (1 Bft)
13.02.2018 01:09 -4,1 °C 90 % 1019,2 hPa 0,0 mm 0,0 km/h (0 Bft) W-SW 238 ° 0 min 0,000 mm 0,0 UV-I 0 W/m² -5,5 °C -4,1 °C 0,0 km/h (0 Bft)
13.02.2018 01:10 -4,1 °C 90 % 1019,2 hPa 0,0 mm 0,5 km/h (0 Bft) W-SW 238 ° 0 min 0,000 mm 0,0 UV-I 0 W/m² -5,5 °C -4,1 °C 1,6 km/h (1 Bft)
13.02.2018 01:11 -4,1 °C 90 % 1019,2 hPa 0,0 mm 2,0 km/h (1 Bft) W-SW 240 ° 0 min 0,000 mm 0,0 UV-I 0 W/m² -5,5 °C -4,1 °C 3,2 km/h (1 Bft)
13.02.2018 01:12 -4,1 °C 90 % 1019,2 hPa 0,0 mm 1,8 km/h (1 Bft) W-SW 240 ° 0 min 0,000 mm 0,0 UV-I 0 W/m² -5,5 °C -4,1 °C 3,2 km/h (1 Bft)
13.02.2018 01:13 -4,1 °C 90 % 1019,2 hPa 0,0 mm 1,6 km/h (1 Bft) W-SW 241 ° 0 min 0,000 mm 0,0 UV-I 0 W/m² -5,5 °C -4,1 °C 4,8 km/h (1 Bft)
13.02.2018 01:14 -4,1 °C 90 % 1019,2 hPa 0,0 mm 1,1 km/h (1 Bft) W-SW 241 ° 0 min 0,000 mm 0,0 UV-I 0 W/m² -5,5 °C -4,1 °C 1,6 km/h (1 Bft)
13.02.2018 01:15 -4,1 °C 90 % 1019,2 hPa 0,0 mm 2,0 km/h (1 Bft) W-SW 241 ° 0 min 0,000 mm 0,0 UV-I 0 W/m² -5,5 °C -4,1 °C 3,2 km/h (1 Bft)
13.02.2018 01:16 -4,1 °C 90 % 1019,2 hPa 0,0 mm 1,1 km/h (1 Bft) W-SW 241 ° 0 min 0,000 mm 0,0 UV-I 0 W/m² -5,5 °C -4,1 °C 1,6 km/h (1 Bft)
13.02.2018 01:17 -4,1 °C 90 % 1019,2 hPa 0,0 mm 0,1 km/h (0 Bft) W-SW 241 ° 0 min 0,000 mm 0,0 UV-I 0 W/m² -5,5 °C -4,1 °C 1,6 km/h (1 Bft)
13.02.2018 01:18 -4,1 °C 90 % 1019,2 hPa 0,0 mm 1,5 km/h (1 Bft) W-SW 241 ° 0 min 0,000 mm 0,0 UV-I 0 W/m² -5,5 °C -4,1 °C 3,2 km/h (1 Bft)
13.02.2018 01:19 -4,1 °C 90 % 1019,2 hPa 0,0 mm 1,9 km/h (1 Bft) W-SW 241 ° 0 min 0,000 mm 0,0 UV-I 0 W/m² -5,5 °C -4,1 °C 3,2 km/h (1 Bft)
13.02.2018 01:20 -4,1 °C 90 % 1019,2 hPa 0,0 mm 2,9 km/h (1 Bft) W-SW 241 ° 0 min 0,000 mm 0,0 UV-I 0 W/m² -5,5 °C -4,1 °C 4,8 km/h (1 Bft)
13.02.2018 01:21 -4,1 °C 90 % 1019,2 hPa 0,0 mm 0,9 km/h (0 Bft) W-SW 241 ° 0 min 0,000 mm 0,0 UV-I 0 W/m² -5,5 °C -4,1 °C 3,2 km/h (1 Bft)
13.02.2018 01:22 -4,1 °C 90 % 1019,2 hPa 0,0 mm 1,4 km/h (1 Bft) W-SW 241 ° 0 min 0,000 mm 0,0 UV-I 0 W/m² -5,5 °C -4,1 °C 4,8 km/h (1 Bft)
13.02.2018 01:23 -4,1 °C 90 % 1019,2 hPa 0,0 mm 3,7 km/h (1 Bft) W-SW 252 ° 0 min 0,000 mm 0,0 UV-I 0 W/m² -5,5 °C -4,1 °C 4,8 km/h (1 Bft)
13.02.2018 01:24 -4,1 °C 90 % 1019,2 hPa 0,0 mm 3,7 km/h (1 Bft) W-SW 253 ° 0 min 0,000 mm 0,0 UV-I 0 W/m² -5,5 °C -4,1 °C 6,4 km/h (2 Bft)
13.02.2018 01:25 -4,1 °C 90 % 1019,2 hPa 0,0 mm 2,6 km/h (1 Bft) W-SW 253 ° 0 min 0,000 mm 0,0 UV-I 0 W/m² -5,5 °C -4,1 °C 3,2 km/h (1 Bft)
13.02.2018 01:26 -4,2 °C 90 % 1019,2 hPa 0,0 mm 1,8 km/h (1 Bft) W-SW 253 ° 0 min 0,000 mm 0,0 UV-I 0 W/m² -5,6 °C -4,2 °C 3,2 km/h (1 Bft)
13.02.2018 01:27 -4,2 °C 90 % 1019,2 hPa 0,0 mm 2,4 km/h (1 Bft) W-SW 253 ° 0 min 0,000 mm 0,0 UV-I 0 W/m² -5,6 °C -4,2 °C 3,2 km/h (1 Bft)
13.02.2018 01:28 -4,1 °C 90 % 1019,1 hPa 0,0 mm 0,9 km/h (0 Bft) W-SW 253 ° 0 min 0,000 mm 0,0 UV-I 0 W/m² -5,5 °C -4,1 °C 3,2 km/h (1 Bft)
13.02.2018 01:29 -4,2 °C 90 % 1019,1 hPa 0,0 mm 1,5 km/h (1 Bft) W-SW 252 ° 0 min 0,000 mm 0,0 UV-I 0 W/m² -5,6 °C -4,2 °C 3,2 km/h (1 Bft)
13.02.2018 01:30 -4,2 °C 90 % 1019,1 hPa 0,0 mm 2,9 km/h (1 Bft) W-SW 254 ° 0 min 0,000 mm 0,0 UV-I 0 W/m² -5,6 °C -4,2 °C 4,8 km/h (1 Bft)
13.02.2018 01:31 -4,2 °C 90 % 1019,1 hPa 0,0 mm 1,5 km/h (1 Bft) W-SW 254 ° 0 min 0,000 mm 0,0 UV-I 0 W/m² -5,6 °C -4,2 °C 3,2 km/h (1 Bft)
13.02.2018 01:32 -4,2 °C 90 % 1019,1 hPa 0,0 mm 4,0 km/h (1 Bft) W 259 ° 0 min 0,000 mm 0,0 UV-I 0 W/m² -5,6 °C -4,2 °C 6,4 km/h (2 Bft)
13.02.2018 01:33 -4,2 °C 90 % 1019,1 hPa 0,0 mm 3,4 km/h (1 Bft) W-SW 243 ° 0 min 0,000 mm 0,0 UV-I 0 W/m² -5,6 °C -4,2 °C 4,8 km/h (1 Bft)
13.02.2018 01:34 -4,2 °C 90 % 1019,1 hPa 0,0 mm 2,7 km/h (1 Bft) W-SW 244 ° 0 min 0,000 mm 0,0 UV-I 0 W/m² -5,6 °C -4,2 °C 3,2 km/h (1 Bft)
13.02.2018 01:35 -4,2 °C 90 % 1019,1 hPa 0,0 mm 1,5 km/h (1 Bft) W-SW 244 ° 0 min 0,000 mm 0,0 UV-I 0 W/m² -5,6 °C -4,2 °C 3,2 km/h (1 Bft)
13.02.2018 01:36 -4,2 °C 90 % 1019,1 hPa 0,0 mm 4,3 km/h (1 Bft) W 270 ° 0 min 0,000 mm 0,0 UV-I 0 W/m² -5,6 °C -4,2 °C 6,4 km/h (2 Bft)
13.02.2018 01:37 -4,2 °C 90 % 1019,1 hPa 0,0 mm 4,6 km/h (1 Bft) W 275 ° 0 min 0,000 mm 0,0 UV-I 0 W/m² -5,6 °C -6,1 °C 6,4 km/h (2 Bft)
13.02.2018 01:38 -4,2 °C 90 % 1019,1 hPa 0,0 mm 3,2 km/h (1 Bft) W 261 ° 0 min 0,000 mm 0,0 UV-I 0 W/m² -5,6 °C -4,2 °C 4,8 km/h (1 Bft)
13.02.2018 01:39 -4,2 °C 90 % 1019,1 hPa 0,0 mm 4,3 km/h (1 Bft) W-SW 256 ° 0 min 0,000 mm 0,0 UV-I 0 W/m² -5,6 °C -4,2 °C 6,4 km/h (2 Bft)
13.02.2018 01:40 -4,2 °C 90 % 1019,0 hPa 0,0 mm 3,4 km/h (1 Bft) W 261 ° 0 min 0,000 mm 0,0 UV-I 0 W/m² -5,6 °C -4,2 °C 4,8 km/h (1 Bft)
13.02.2018 01:41 -4,2 °C 90 % 1019,0 hPa 0,0 mm 2,7 km/h (1 Bft) W 261 ° 0 min 0,000 mm 0,0 UV-I 0 W/m² -5,6 °C -4,2 °C 4,8 km/h (1 Bft)
13.02.2018 01:42 -4,2 °C 90 % 1019,0 hPa 0,0 mm 4,0 km/h (1 Bft) W 263 ° 0 min 0,000 mm 0,0 UV-I 0 W/m² -5,6 °C -4,2 °C 4,8 km/h (1 Bft)
13.02.2018 01:43 -4,2 °C 90 % 1019,0 hPa 0,0 mm 1,9 km/h (1 Bft) SW 229 ° 0 min 0,000 mm 0,0 UV-I 0 W/m² -5,6 °C -4,2 °C 6,4 km/h (2 Bft)
13.02.2018 01:44 -4,2 °C 90 % 1019,0 hPa 0,0 mm 5,4 km/h (1 Bft) W 263 ° 0 min 0,000 mm 0,0 UV-I 0 W/m² -5,6 °C -6,6 °C 6,4 km/h (2 Bft)
13.02.2018 01:45 -4,2 °C 90 % 1019,1 hPa 0,0 mm 5,0 km/h (1 Bft) W-SW 254 ° 0 min 0,000 mm 0,0 UV-I 0 W/m² -5,6 °C -6,4 °C 6,4 km/h (2 Bft)
13.02.2018 01:46 -4,2 °C 90 % 1019,1 hPa 0,0 mm 2,3 km/h (1 Bft) W-SW 254 ° 0 min 0,000 mm 0,0 UV-I 0 W/m² -5,6 °C -4,2 °C 3,2 km/h (1 Bft)
13.02.2018 01:47 -4,2 °C 90 % 1019,1 hPa 0,0 mm 4,3 km/h (1 Bft) W-SW 255 ° 0 min 0,000 mm 0,0 UV-I 0 W/m² -5,6 °C -4,2 °C 6,4 km/h (2 Bft)
13.02.2018 01:48 -4,2 °C 90 % 1019,1 hPa 0,0 mm 3,3 km/h (1 Bft) W-SW 248 ° 0 min 0,000 mm 0,0 UV-I 0 W/m² -5,6 °C -4,2 °C 4,8 km/h (1 Bft)
13.02.2018 01:49 -4,2 °C 90 % 1019,1 hPa 0,0 mm 5,1 km/h (1 Bft) W 265 ° 0 min 0,000 mm 0,0 UV-I 0 W/m² -5,6 °C -6,4 °C 9,7 km/h (2 Bft)
13.02.2018 01:50 -4,2 °C 90 % 1019,1 hPa 0,0 mm 1,3 km/h (1 Bft) W 259 ° 0 min 0,000 mm 0,0 UV-I 0 W/m² -5,6 °C -4,2 °C 3,2 km/h (1 Bft)
13.02.2018 01:51 -4,2 °C 90 % 1019,1 hPa 0,0 mm 1,1 km/h (1 Bft) W 259 ° 0 min 0,000 mm 0,0 UV-I 0 W/m² -5,6 °C -4,2 °C 3,2 km/h (1 Bft)
13.02.2018 01:52 -4,2 °C 90 % 1019,0 hPa 0,0 mm 1,5 km/h (1 Bft) W-SW 237 ° 0 min 0,000 mm 0,0 UV-I 0 W/m² -5,6 °C -4,2 °C 3,2 km/h (1 Bft)
13.02.2018 01:53 -4,2 °C 90 % 1019,0 hPa 0,0 mm 1,7 km/h (1 Bft) W-SW 237 ° 0 min 0,000 mm 0,0 UV-I 0 W/m² -5,6 °C -4,2 °C 3,2 km/h (1 Bft)
13.02.2018 01:54 -4,2 °C 90 % 1019,1 hPa 0,0 mm 2,5 km/h (1 Bft) W-SW 237 ° 0 min 0,000 mm 0,0 UV-I 0 W/m² -5,6 °C -4,2 °C 4,8 km/h (1 Bft)
13.02.2018 01:55 -4,2 °C 90 % 1019,1 hPa 0,0 mm 1,2 km/h (1 Bft) W-SW 237 ° 0 min 0,000 mm 0,0 UV-I 0 W/m² -5,6 °C -4,2 °C 3,2 km/h (1 Bft)
13.02.2018 01:56 -4,2 °C 90 % 1019,1 hPa 0,0 mm 0,8 km/h (0 Bft) W-SW 237 ° 0 min 0,000 mm 0,0 UV-I 0 W/m² -5,6 °C -4,2 °C 3,2 km/h (1 Bft)
13.02.2018 01:57 -4,2 °C 90 % 1019,1 hPa 0,0 mm 0,0 km/h (0 Bft) W-SW 237 ° 0 min 0,000 mm 0,0 UV-I 0 W/m² -5,6 °C -4,2 °C 0,0 km/h (0 Bft)
13.02.2018 01:58 -4,2 °C 90 % 1019,0 hPa 0,0 mm 1,6 km/h (1 Bft) W 279 ° 0 min 0,000 mm 0,0 UV-I 0 W/m² -5,6 °C -4,2 °C 4,8 km/h (1 Bft)
13.02.2018 01:59 -4,2 °C 90 % 1019,0 hPa 0,0 mm 3,4 km/h (1 Bft) W-SW 244 ° 0 min 0,000 mm 0,0 UV-I 0 W/m² -5,6 °C -4,2 °C 4,8 km/h (1 Bft)
13.02.2018 02:00 -4,2 °C 90 % 1019,0 hPa 0,0 mm 3,8 km/h (1 Bft) W-SW 254 ° 0 min 0,000 mm 0,0 UV-I 0 W/m² -5,6 °C -4,2 °C 6,4 km/h (2 Bft)
13.02.2018 02:01 -4,2 °C 90 % 1019,1 hPa 0,0 mm 2,4 km/h (1 Bft) W-SW 254 ° 0 min 0,000 mm 0,0 UV-I 0 W/m² -5,6 °C -4,2 °C 4,8 km/h (1 Bft)
13.02.2018 02:02 -4,2 °C 90 % 1019,1 hPa 0,0 mm 2,7 km/h (1 Bft) W-SW 254 ° 0 min 0,000 mm 0,0 UV-I 0 W/m² -5,6 °C -4,2 °C 4,8 km/h (1 Bft)
13.02.2018 02:03 -4,2 °C 90 % 1019,0 hPa 0,0 mm 1,1 km/h (1 Bft) W-SW 254 ° 0 min 0,000 mm 0,0 UV-I 0 W/m² -5,6 °C -4,2 °C 3,2 km/h (1 Bft)
13.02.2018 02:04 -4,2 °C 90 % 1019,1 hPa 0,0 mm 3,8 km/h (1 Bft) W-SW 254 ° 0 min 0,000 mm 0,0 UV-I 0 W/m² -5,6 °C -4,2 °C 4,8 km/h (1 Bft)
13.02.2018 02:05 -4,2 °C 90 % 1019,1 hPa 0,0 mm 1,6 km/h (1 Bft) W-SW 254 ° 0 min 0,000 mm 0,0 UV-I 0 W/m² -5,6 °C -4,2 °C 3,2 km/h (1 Bft)
13.02.2018 02:06 -4,2 °C 90 % 1019,1 hPa 0,0 mm 3,2 km/h (1 Bft) W-SW 244 ° 0 min 0,000 mm 0,0 UV-I 0 W/m² -5,6 °C -4,2 °C 4,8 km/h (1 Bft)
13.02.2018 02:07 -4,2 °C 90 % 1019,0 hPa 0,0 mm 3,4 km/h (1 Bft) W 259 ° 0 min 0,000 mm 0,0 UV-I 0 W/m² -5,6 °C -4,2 °C 6,4 km/h (2 Bft)
13.02.2018 02:08 -4,2 °C 90 % 1019,1 hPa 0,0 mm 3,3 km/h (1 Bft) W 273 ° 0 min 0,000 mm 0,0 UV-I 0 W/m² -5,6 °C -4,2 °C 6,4 km/h (2 Bft)
13.02.2018 02:09 -4,2 °C 90 % 1019,1 hPa 0,0 mm 1,5 km/h (1 Bft) W 269 ° 0 min 0,000 mm 0,0 UV-I 0 W/m² -5,6 °C -4,2 °C 4,8 km/h (1 Bft)
13.02.2018 02:10 -4,2 °C 90 % 1019,1 hPa 0,0 mm 3,5 km/h (1 Bft) W 268 ° 0 min 0,000 mm 0,0 UV-I 0 W/m² -5,6 °C -4,2 °C 6,4 km/h (2 Bft)
13.02.2018 02:11 -4,2 °C 90 % 1019,1 hPa 0,0 mm 3,8 km/h (1 Bft) W 261 ° 0 min 0,000 mm 0,0 UV-I 0 W/m² -5,6 °C -4,2 °C 6,4 km/h (2 Bft)
13.02.2018 02:12 -4,2 °C 90 % 1019,1 hPa 0,0 mm 1,3 km/h (1 Bft) W 261 ° 0 min 0,000 mm 0,0 UV-I 0 W/m² -5,6 °C -4,2 °C 4,8 km/h (1 Bft)
13.02.2018 02:13 -4,2 °C 90 % 1019,1 hPa 0,0 mm 2,5 km/h (1 Bft) W 261 ° 0 min 0,000 mm 0,0 UV-I 0 W/m² -5,6 °C -4,2 °C 4,8 km/h (1 Bft)
13.02.2018 02:14 -4,2 °C 90 % 1019,1 hPa 0,0 mm 0,8 km/h (0 Bft) W-SW 255 ° 0 min 0,000 mm 0,0 UV-I 0 W/m² -5,6 °C -4,2 °C 1,6 km/h (1 Bft)
13.02.2018 02:15 -4,2 °C 90 % 1019,1 hPa 0,0 mm 2,5 km/h (1 Bft) W-SW 252 ° 0 min 0,000 mm 0,0 UV-I 0 W/m² -5,6 °C -4,2 °C 3,2 km/h (1 Bft)
13.02.2018 02:16 -4,2 °C 90 % 1019,1 hPa 0,0 mm 2,1 km/h (1 Bft) W-SW 252 ° 0 min 0,000 mm 0,0 UV-I 0 W/m² -5,6 °C -4,2 °C 3,2 km/h (1 Bft)
13.02.2018 02:17 -4,2 °C 90 % 1019,1 hPa 0,0 mm 2,4 km/h (1 Bft) W-SW 252 ° 0 min 0,000 mm 0,0 UV-I 0 W/m² -5,6 °C -4,2 °C 4,8 km/h (1 Bft)
13.02.2018 02:18 -4,2 °C 90 % 1019,1 hPa 0,0 mm 2,0 km/h (1 Bft) W-SW 252 ° 0 min 0,000 mm 0,0 UV-I 0 W/m² -5,6 °C -4,2 °C 3,2 km/h (1 Bft)
13.02.2018 02:19 -4,2 °C 90 % 1019,1 hPa 0,0 mm 3,5 km/h (1 Bft) SW 234 ° 0 min 0,000 mm 0,0 UV-I 0 W/m² -5,6 °C -4,2 °C 6,4 km/h (2 Bft)
13.02.2018 02:20 -4,2 °C 90 % 1019,1 hPa 0,0 mm 5,4 km/h (1 Bft) W-SW 240 ° 0 min 0,000 mm 0,0 UV-I 0 W/m² -5,6 °C -6,6 °C 11,3 km/h (2 Bft)
13.02.2018 02:21 -4,2 °C 90 % 1019,1 hPa 0,0 mm 1,1 km/h (1 Bft) W-SW 240 ° 0 min 0,000 mm 0,0 UV-I 0 W/m² -5,6 °C -4,2 °C 4,8 km/h (1 Bft)
13.02.2018 02:22 -4,2 °C 90 % 1019,0 hPa 0,0 mm 3,4 km/h (1 Bft) W-SW 240 ° 0 min 0,000 mm 0,0 UV-I 0 W/m² -5,6 °C -4,2 °C 4,8 km/h (1 Bft)
13.02.2018 02:23 -4,2 °C 90 % 1019,1 hPa 0,0 mm 0,5 km/h (0 Bft) W-SW 240 ° 0 min 0,000 mm 0,0 UV-I 0 W/m² -5,6 °C -4,2 °C 1,6 km/h (1 Bft)
13.02.2018 02:24 -4,2 °C 90 % 1019,1 hPa 0,0 mm 2,7 km/h (1 Bft) W-SW 240 ° 0 min 0,000 mm 0,0 UV-I 0 W/m² -5,6 °C -4,2 °C 4,8 km/h (1 Bft)
13.02.2018 02:25 -4,2 °C 90 % 1019,1 hPa 0,0 mm 1,4 km/h (1 Bft) W-SW 240 ° 0 min 0,000 mm 0,0 UV-I 0 W/m² -5,6 °C -4,2 °C 3,2 km/h (1 Bft)
13.02.2018 02:26 -4,2 °C 90 % 1019,0 hPa 0,0 mm 3,0 km/h (1 Bft) W-SW 240 ° 0 min 0,000 mm 0,0 UV-I 0 W/m² -5,6 °C -4,2 °C 4,8 km/h (1 Bft)
13.02.2018 02:27 -4,2 °C 90 % 1019,0 hPa 0,0 mm 2,5 km/h (1 Bft) W-SW 240 ° 0 min 0,000 mm 0,0 UV-I 0 W/m² -5,6 °C -4,2 °C 4,8 km/h (1 Bft)
13.02.2018 02:28 -4,2 °C 90 % 1019,0 hPa 0,0 mm 0,3 km/h (0 Bft) W-SW 240 ° 0 min 0,000 mm 0,0 UV-I 0 W/m² -5,6 °C -4,2 °C 1,6 km/h (1 Bft)
13.02.2018 02:29 -4,2 °C 90 % 1019,0 hPa 0,0 mm 1,0 km/h (0 Bft) W-SW 240 ° 0 min 0,000 mm 0,0 UV-I 0 W/m² -5,6 °C -4,2 °C 1,6 km/h (1 Bft)
13.02.2018 02:30 -4,2 °C 90 % 1019,0 hPa 0,0 mm 2,2 km/h (1 Bft) W-SW 240 ° 0 min 0,000 mm 0,0 UV-I 0 W/m² -5,6 °C -4,2 °C 3,2 km/h (1 Bft)
13.02.2018 02:31 -4,2 °C 90 % 1019,1 hPa 0,0 mm 0,6 km/h (0 Bft) W-SW 240 ° 0 min 0,000 mm 0,0 UV-I 0 W/m² -5,6 °C -4,2 °C 1,6 km/h (1 Bft)
13.02.2018 02:32 -4,2 °C 90 % 1019,0 hPa 0,0 mm 2,3 km/h (1 Bft) SW 227 ° 0 min 0,000 mm 0,0 UV-I 0 W/m² -5,6 °C -4,2 °C 4,8 km/h (1 Bft)
13.02.2018 02:33 -4,2 °C 90 % 1019,0 hPa 0,0 mm 3,1 km/h (1 Bft) SW 232 ° 0 min 0,000 mm 0,0 UV-I 0 W/m² -5,6 °C -4,2 °C 4,8 km/h (1 Bft)
13.02.2018 02:34 -4,2 °C 90 % 1019,0 hPa 0,0 mm 2,4 km/h (1 Bft) SW 229 ° 0 min 0,000 mm 0,0 UV-I 0 W/m² -5,6 °C -4,2 °C 4,8 km/h (1 Bft)
13.02.2018 02:35 -4,2 °C 90 % 1019,0 hPa 0,0 mm 2,5 km/h (1 Bft) SW 229 ° 0 min 0,000 mm 0,0 UV-I 0 W/m² -5,6 °C -4,2 °C 3,2 km/h (1 Bft)
13.02.2018 02:36 -4,2 °C 90 % 1019,1 hPa 0,0 mm 3,0 km/h (1 Bft) SW 229 ° 0 min 0,000 mm 0,0 UV-I 0 W/m² -5,6 °C -4,2 °C 4,8 km/h (1 Bft)
13.02.2018 02:37 -4,2 °C 90 % 1019,0 hPa 0,0 mm 2,5 km/h (1 Bft) SW 229 ° 0 min 0,000 mm 0,0 UV-I 0 W/m² -5,6 °C -4,2 °C 3,2 km/h (1 Bft)
13.02.2018 02:38 -4,2 °C 90 % 1019,0 hPa 0,0 mm 1,4 km/h (1 Bft) SW 229 ° 0 min 0,000 mm 0,0 UV-I 0 W/m² -5,6 °C -4,2 °C 3,2 km/h (1 Bft)
13.02.2018 02:39 -4,2 °C 90 % 1019,0 hPa 0,0 mm 1,3 km/h (1 Bft) SW 229 ° 0 min 0,000 mm 0,0 UV-I 0 W/m² -5,6 °C -4,2 °C 1,6 km/h (1 Bft)
13.02.2018 02:40 -4,2 °C 90 % 1019,0 hPa 0,0 mm 0,5 km/h (0 Bft) SW 229 ° 0 min 0,000 mm 0,0 UV-I 0 W/m² -5,6 °C -4,2 °C 1,6 km/h (1 Bft)
13.02.2018 02:41 -4,2 °C 90 % 1019,0 hPa 0,0 mm 0,8 km/h (0 Bft) SW 229 ° 0 min 0,000 mm 0,0 UV-I 0 W/m² -5,6 °C -4,2 °C 1,6 km/h (1 Bft)
13.02.2018 02:42 -4,2 °C 90 % 1018,9 hPa 0,0 mm 0,7 km/h (0 Bft) SW 229 ° 0 min 0,000 mm 0,0 UV-I 0 W/m² -5,6 °C -4,2 °C 1,6 km/h (1 Bft)
13.02.2018 02:43 -4,2 °C 90 % 1019,0 hPa 0,0 mm 1,9 km/h (1 Bft) SW 229 ° 0 min 0,000 mm 0,0 UV-I 0 W/m² -5,6 °C -4,2 °C 3,2 km/h (1 Bft)
13.02.2018 02:44 -4,2 °C 90 % 1018,9 hPa 0,0 mm 1,3 km/h (1 Bft) SW 229 ° 0 min 0,000 mm 0,0 UV-I 0 W/m² -5,6 °C -4,2 °C 3,2 km/h (1 Bft)
13.02.2018 02:45 -4,2 °C 90 % 1019,0 hPa 0,0 mm 0,7 km/h (0 Bft) SW 229 ° 0 min 0,000 mm 0,0 UV-I 0 W/m² -5,6 °C -4,2 °C 1,6 km/h (1 Bft)
13.02.2018 02:46 -4,2 °C 90 % 1019,0 hPa 0,0 mm 0,9 km/h (0 Bft) SW 229 ° 0 min 0,000 mm 0,0 UV-I 0 W/m² -5,6 °C -4,2 °C 3,2 km/h (1 Bft)
13.02.2018 02:47 -4,2 °C 90 % 1019,0 hPa 0,0 mm 0,3 km/h (0 Bft) SW 229 ° 0 min 0,000 mm 0,0 UV-I 0 W/m² -5,6 °C -4,2 °C 1,6 km/h (1 Bft)
13.02.2018 02:48 -4,2 °C 90 % 1019,0 hPa 0,0 mm 0,0 km/h (0 Bft) SW 229 ° 0 min 0,000 mm 0,0 UV-I 0 W/m² -5,6 °C -4,2 °C 0,0 km/h (0 Bft)
13.02.2018 02:49 -4,3 °C 90 % 1019,0 hPa 0,0 mm 2,2 km/h (1 Bft) W-NW 283 ° 0 min 0,000 mm 0,0 UV-I 0 W/m² -5,7 °C -4,3 °C 4,8 km/h (1 Bft)
13.02.2018 02:50 -4,3 °C 90 % 1018,9 hPa 0,0 mm 1,0 km/h (0 Bft) W-NW 283 ° 0 min 0,000 mm 0,0 UV-I 0 W/m² -5,7 °C -4,3 °C 3,2 km/h (1 Bft)
13.02.2018 02:51 -4,3 °C 90 % 1018,9 hPa 0,0 mm 0,0 km/h (0 Bft) W-NW 283 ° 0 min 0,000 mm 0,0 UV-I 0 W/m² -5,7 °C -4,3 °C 0,0 km/h (0 Bft)
13.02.2018 02:52 -4,3 °C 90 % 1019,0 hPa 0,0 mm 0,0 km/h (0 Bft) W-NW 283 ° 0 min 0,000 mm 0,0 UV-I 0 W/m² -5,7 °C -4,3 °C 0,0 km/h (0 Bft)
13.02.2018 02:53 -4,3 °C 90 % 1018,9 hPa 0,0 mm 0,0 km/h (0 Bft) W-NW 283 ° 0 min 0,000 mm 0,0 UV-I 0 W/m² -5,7 °C -4,3 °C 0,0 km/h (0 Bft)
13.02.2018 02:54 -4,3 °C 90 % 1018,9 hPa 0,0 mm 0,0 km/h (0 Bft) W-NW 283 ° 0 min 0,000 mm 0,0 UV-I 0 W/m² -5,7 °C -4,3 °C 0,0 km/h (0 Bft)
13.02.2018 02:55 -4,3 °C 90 % 1018,9 hPa 0,0 mm 0,0 km/h (0 Bft) W-NW 283 ° 0 min 0,000 mm 0,0 UV-I 0 W/m² -5,7 °C -4,3 °C 0,0 km/h (0 Bft)
13.02.2018 02:56 -4,3 °C 90 % 1018,9 hPa 0,0 mm 0,0 km/h (0 Bft) W-NW 283 ° 0 min 0,000 mm 0,0 UV-I 0 W/m² -5,7 °C -4,3 °C 0,0 km/h (0 Bft)
13.02.2018 02:57 -4,3 °C 90 % 1018,9 hPa 0,0 mm 0,0 km/h (0 Bft) W-NW 283 ° 0 min 0,000 mm 0,0 UV-I 0 W/m² -5,7 °C -4,3 °C 0,0 km/h (0 Bft)
13.02.2018 02:58 -4,3 °C 90 % 1018,9 hPa 0,0 mm 0,0 km/h (0 Bft) W-NW 283 ° 0 min 0,000 mm 0,0 UV-I 0 W/m² -5,7 °C -4,3 °C 0,0 km/h (0 Bft)
13.02.2018 02:59 -4,3 °C 90 % 1018,9 hPa 0,0 mm 0,0 km/h (0 Bft) W-NW 283 ° 0 min 0,000 mm 0,0 UV-I 0 W/m² -5,7 °C -4,3 °C 0,0 km/h (0 Bft)
13.02.2018 03:00 -4,3 °C 90 % 1018,9 hPa 0,0 mm 0,0 km/h (0 Bft) W-NW 283 ° 0 min 0,000 mm 0,0 UV-I 0 W/m² -5,7 °C -4,3 °C 0,0 km/h (0 Bft)
13.02.2018 03:01 -4,3 °C 90 % 1018,9 hPa 0,0 mm 0,0 km/h (0 Bft) W-NW 283 ° 0 min 0,000 mm 0,0 UV-I 0 W/m² -5,7 °C -4,3 °C 0,0 km/h (0 Bft)
13.02.2018 03:02 -4,3 °C 90 % 1018,9 hPa 0,0 mm 0,1 km/h (0 Bft) W-NW 283 ° 0 min 0,000 mm 0,0 UV-I 0 W/m² -5,7 °C -4,3 °C 1,6 km/h (1 Bft)
13.02.2018 03:03 -4,3 °C 90 % 1018,9 hPa 0,0 mm 0,0 km/h (0 Bft) W-NW 283 ° 0 min 0,000 mm 0,0 UV-I 0 W/m² -5,7 °C -4,3 °C 0,0 km/h (0 Bft)
13.02.2018 03:04 -4,3 °C 90 % 1018,9 hPa 0,0 mm 0,0 km/h (0 Bft) W-NW 283 ° 0 min 0,000 mm 0,0 UV-I 0 W/m² -5,7 °C -4,3 °C 0,0 km/h (0 Bft)
13.02.2018 03:05 -4,3 °C 90 % 1018,9 hPa 0,0 mm 0,0 km/h (0 Bft) W-NW 283 ° 0 min 0,000 mm 0,0 UV-I 0 W/m² -5,7 °C -4,3 °C 0,0 km/h (0 Bft)
13.02.2018 03:06 -4,3 °C 90 % 1018,9 hPa 0,0 mm 0,0 km/h (0 Bft) W-NW 283 ° 0 min 0,000 mm 0,0 UV-I 0 W/m² -5,7 °C -4,3 °C 0,0 km/h (0 Bft)
13.02.2018 03:07 -4,3 °C 90 % 1018,9 hPa 0,0 mm 0,0 km/h (0 Bft) W-NW 283 ° 0 min 0,000 mm 0,0 UV-I 0 W/m² -5,7 °C -4,3 °C 0,0 km/h (0 Bft)
13.02.2018 03:08 -4,3 °C 90 % 1018,9 hPa 0,0 mm 0,0 km/h (0 Bft) W-NW 283 ° 0 min 0,000 mm 0,0 UV-I 0 W/m² -5,7 °C -4,3 °C 0,0 km/h (0 Bft)
13.02.2018 03:09 -4,3 °C 90 % 1018,9 hPa 0,0 mm 0,0 km/h (0 Bft) W-NW 282 ° 0 min 0,000 mm 0,0 UV-I 0 W/m² -5,7 °C -4,3 °C 0,0 km/h (0 Bft)
13.02.2018 03:10 -4,3 °C 90 % 1018,9 hPa 0,0 mm 0,0 km/h (0 Bft) W-NW 283 ° 0 min 0,000 mm 0,0 UV-I 0 W/m² -5,7 °C -4,3 °C 0,0 km/h (0 Bft)
13.02.2018 03:11 -4,3 °C 90 % 1018,8 hPa 0,0 mm 0,0 km/h (0 Bft) W-NW 283 ° 0 min 0,000 mm 0,0 UV-I 0 W/m² -5,7 °C -4,3 °C 0,0 km/h (0 Bft)
13.02.2018 03:12 -4,4 °C 90 % 1018,8 hPa 0,0 mm 0,0 km/h (0 Bft) W-NW 283 ° 0 min 0,000 mm 0,0 UV-I 0 W/m² -5,8 °C -4,4 °C 0,0 km/h (0 Bft)
13.02.2018 03:13 -4,3 °C 90 % 1018,8 hPa 0,0 mm 0,0 km/h (0 Bft) W-NW 283 ° 0 min 0,000 mm 0,0 UV-I 0 W/m² -5,7 °C -4,3 °C 0,0 km/h (0 Bft)
13.02.2018 03:14 -4,3 °C 90 % 1018,8 hPa 0,0 mm 0,0 km/h (0 Bft) W-NW 283 ° 0 min 0,000 mm 0,0 UV-I 0 W/m² -5,7 °C -4,3 °C 0,0 km/h (0 Bft)
13.02.2018 03:15 -4,3 °C 90 % 1018,8 hPa 0,0 mm 1,1 km/h (1 Bft) W-NW 283 ° 0 min 0,000 mm 0,0 UV-I 0 W/m² -5,7 °C -4,3 °C 3,2 km/h (1 Bft)
13.02.2018 03:16 -4,4 °C 90 % 1018,8 hPa 0,0 mm 0,5 km/h (0 Bft) W-NW 283 ° 0 min 0,000 mm 0,0 UV-I 0 W/m² -5,8 °C -4,4 °C 1,6 km/h (1 Bft)
13.02.2018 03:17 -4,4 °C 90 % 1018,8 hPa 0,0 mm 0,1 km/h (0 Bft) W-NW 283 ° 0 min 0,000 mm 0,0 UV-I 0 W/m² -5,8 °C -4,4 °C 1,6 km/h (1 Bft)
13.02.2018 03:18 -4,4 °C 90 % 1018,8 hPa 0,0 mm 0,0 km/h (0 Bft) W-NW 283 ° 0 min 0,000 mm 0,0 UV-I 0 W/m² -5,8 °C -4,4 °C 0,0 km/h (0 Bft)
13.02.2018 03:19 -4,4 °C 90 % 1018,8 hPa 0,0 mm 1,3 km/h (1 Bft) W-NW 283 ° 0 min 0,000 mm 0,0 UV-I 0 W/m² -5,8 °C -4,4 °C 1,6 km/h (1 Bft)
13.02.2018 03:20 -4,4 °C 90 % 1018,8 hPa 0,0 mm 1,1 km/h (1 Bft) W-NW 283 ° 0 min 0,000 mm 0,0 UV-I 0 W/m² -5,8 °C -4,4 °C 1,6 km/h (1 Bft)
13.02.2018 03:21 -4,4 °C 90 % 1018,7 hPa 0,0 mm 0,2 km/h (0 Bft) W-NW 283 ° 0 min 0,000 mm 0,0 UV-I 0 W/m² -5,8 °C -4,4 °C 1,6 km/h (1 Bft)
13.02.2018 03:22 -4,4 °C 90 % 1018,8 hPa 0,0 mm 0,0 km/h (0 Bft) W-NW 283 ° 0 min 0,000 mm 0,0 UV-I 0 W/m² -5,8 °C -4,4 °C 0,0 km/h (0 Bft)
13.02.2018 03:23 -4,4 °C 90 % 1018,8 hPa 0,0 mm 0,0 km/h (0 Bft) W-NW 283 ° 0 min 0,000 mm 0,0 UV-I 0 W/m² -5,8 °C -4,4 °C 0,0 km/h (0 Bft)
13.02.2018 03:24 -4,4 °C 90 % 1018,8 hPa 0,0 mm 0,0 km/h (0 Bft) W-NW 283 ° 0 min 0,000 mm 0,0 UV-I 0 W/m² -5,8 °C -4,4 °C 0,0 km/h (0 Bft)
13.02.2018 03:25 -4,4 °C 90 % 1018,7 hPa 0,0 mm 0,0 km/h (0 Bft) W-NW 283 ° 0 min 0,000 mm 0,0 UV-I 0 W/m² -5,8 °C -4,4 °C 0,0 km/h (0 Bft)
13.02.2018 03:26 -4,4 °C 90 % 1018,8 hPa 0,0 mm 0,0 km/h (0 Bft) W-NW 283 ° 0 min 0,000 mm 0,0 UV-I 0 W/m² -5,8 °C -4,4 °C 0,0 km/h (0 Bft)
13.02.2018 03:27 -4,4 °C 90 % 1018,7 hPa 0,0 mm 0,0 km/h (0 Bft) W-NW 283 ° 0 min 0,000 mm 0,0 UV-I 0 W/m² -5,8 °C -4,4 °C 0,0 km/h (0 Bft)
13.02.2018 03:28 -4,4 °C 90 % 1018,7 hPa 0,0 mm 0,0 km/h (0 Bft) W-NW 283 ° 0 min 0,000 mm 0,0 UV-I 0 W/m² -5,8 °C -4,4 °C 0,0 km/h (0 Bft)
13.02.2018 03:29 -4,5 °C 90 % 1018,7 hPa 0,0 mm 1,5 km/h (1 Bft) W-NW 283 ° 0 min 0,000 mm 0,0 UV-I 0 W/m² -5,9 °C -4,5 °C 3,2 km/h (1 Bft)
13.02.2018 03:30 -4,5 °C 90 % 1018,7 hPa 0,0 mm 0,1 km/h (0 Bft) W-NW 283 ° 0 min 0,000 mm 0,0 UV-I 0 W/m² -5,9 °C -4,5 °C 1,6 km/h (1 Bft)
13.02.2018 03:31 -4,5 °C 90 % 1018,7 hPa 0,0 mm 1,0 km/h (0 Bft) W-SW 244 ° 0 min 0,000 mm 0,0 UV-I 0 W/m² -5,9 °C -4,5 °C 3,2 km/h (1 Bft)
13.02.2018 03:32 -4,5 °C 90 % 1018,7 hPa 0,0 mm 0,8 km/h (0 Bft) W-SW 244 ° 0 min 0,000 mm 0,0 UV-I 0 W/m² -5,9 °C -4,5 °C 1,6 km/h (1 Bft)
13.02.2018 03:33 -4,5 °C 90 % 1018,7 hPa 0,0 mm 1,6 km/h (1 Bft) W-SW 244 ° 0 min 0,000 mm 0,0 UV-I 0 W/m² -5,9 °C -4,5 °C 3,2 km/h (1 Bft)
13.02.2018 03:34 -4,5 °C 90 % 1018,7 hPa 0,0 mm 0,2 km/h (0 Bft) W-SW 244 ° 0 min 0,000 mm 0,0 UV-I 0 W/m² -5,9 °C -4,5 °C 1,6 km/h (1 Bft)
13.02.2018 03:35 -4,6 °C 90 % 1018,7 hPa 0,0 mm 0,9 km/h (0 Bft) W-SW 244 ° 0 min 0,000 mm 0,0 UV-I 0 W/m² -6,0 °C -4,6 °C 1,6 km/h (1 Bft)
13.02.2018 03:36 -4,6 °C 90 % 1018,7 hPa 0,0 mm 0,3 km/h (0 Bft) W-SW 244 ° 0 min 0,000 mm 0,0 UV-I 0 W/m² -6,0 °C -4,6 °C 1,6 km/h (1 Bft)
13.02.2018 03:37 -4,6 °C 90 % 1018,7 hPa 0,0 mm 1,0 km/h (0 Bft) W-SW 244 ° 0 min 0,000 mm 0,0 UV-I 0 W/m² -6,0 °C -4,6 °C 3,2 km/h (1 Bft)
13.02.2018 03:38 -4,6 °C 90 % 1018,7 hPa 0,0 mm 1,5 km/h (1 Bft) W-SW 244 ° 0 min 0,000 mm 0,0 UV-I 0 W/m² -6,0 °C -4,6 °C 3,2 km/h (1 Bft)
13.02.2018 03:39 -4,6 °C 89 % 1018,7 hPa 0,0 mm 1,5 km/h (1 Bft) W-SW 244 ° 0 min 0,000 mm 0,0 UV-I 0 W/m² -6,1 °C -4,6 °C 3,2 km/h (1 Bft)
13.02.2018 03:40 -4,6 °C 89 % 1018,7 hPa 0,0 mm 2,7 km/h (1 Bft) W-SW 244 ° 0 min 0,000 mm 0,0 UV-I 0 W/m² -6,1 °C -4,6 °C 4,8 km/h (1 Bft)
13.02.2018 03:41 -4,6 °C 89 % 1018,7 hPa 0,0 mm 0,5 km/h (0 Bft) W-SW 244 ° 0 min 0,000 mm 0,0 UV-I 0 W/m² -6,1 °C -4,6 °C 3,2 km/h (1 Bft)
13.02.2018 03:42 -4,7 °C 89 % 1018,7 hPa 0,0 mm 0,3 km/h (0 Bft) W-SW 244 ° 0 min 0,000 mm 0,0 UV-I 0 W/m² -6,2 °C -4,7 °C 1,6 km/h (1 Bft)
13.02.2018 03:43 -4,7 °C 89 % 1018,7 hPa 0,0 mm 0,0 km/h (0 Bft) W-SW 244 ° 0 min 0,000 mm 0,0 UV-I 0 W/m² -6,2 °C -4,7 °C 0,0 km/h (0 Bft)
13.02.2018 03:44 -4,7 °C 89 % 1018,7 hPa 0,0 mm 0,0 km/h (0 Bft) W-SW 244 ° 0 min 0,000 mm 0,0 UV-I 0 W/m² -6,2 °C -4,7 °C 0,0 km/h (0 Bft)
13.02.2018 03:45 -4,7 °C 89 % 1018,7 hPa 0,0 mm 0,0 km/h (0 Bft) W-SW 244 ° 0 min 0,000 mm 0,0 UV-I 0 W/m² -6,2 °C -4,7 °C 0,0 km/h (0 Bft)
13.02.2018 03:46 -4,7 °C 89 % 1018,7 hPa 0,0 mm 0,0 km/h (0 Bft) W-SW 244 ° 0 min 0,000 mm 0,0 UV-I 0 W/m² -6,2 °C -4,7 °C 0,0 km/h (0 Bft)
13.02.2018 03:47 -4,7 °C 89 % 1018,6 hPa 0,0 mm 0,0 km/h (0 Bft) W-SW 244 ° 0 min 0,000 mm 0,0 UV-I 0 W/m² -6,2 °C -4,7 °C 0,0 km/h (0 Bft)
13.02.2018 03:48 -4,7 °C 89 % 1018,6 hPa 0,0 mm 0,0 km/h (0 Bft) W-SW 244 ° 0 min 0,000 mm 0,0 UV-I 0 W/m² -6,2 °C -4,7 °C 0,0 km/h (0 Bft)
13.02.2018 03:49 -4,8 °C 89 % 1018,6 hPa 0,0 mm 0,0 km/h (0 Bft) W-SW 244 ° 0 min 0,000 mm 0,0 UV-I 0 W/m² -6,3 °C -4,8 °C 0,0 km/h (0 Bft)
13.02.2018 03:50 -4,8 °C 89 % 1018,6 hPa 0,0 mm 0,0 km/h (0 Bft) W-SW 244 ° 0 min 0,000 mm 0,0 UV-I 0 W/m² -6,3 °C -4,8 °C 0,0 km/h (0 Bft)
13.02.2018 03:51 -4,8 °C 89 % 1018,6 hPa 0,0 mm 0,0 km/h (0 Bft) W-SW 244 ° 0 min 0,000 mm 0,0 UV-I 0 W/m² -6,3 °C -4,8 °C 0,0 km/h (0 Bft)
13.02.2018 03:52 -4,8 °C 89 % 1018,6 hPa 0,0 mm 0,0 km/h (0 Bft) W-SW 244 ° 0 min 0,000 mm 0,0 UV-I 0 W/m² -6,3 °C -4,8 °C 0,0 km/h (0 Bft)
13.02.2018 03:53 -4,8 °C 89 % 1018,6 hPa 0,0 mm 0,0 km/h (0 Bft) W-SW 244 ° 0 min 0,000 mm 0,0 UV-I 0 W/m² -6,3 °C -4,8 °C 0,0 km/h (0 Bft)
13.02.2018 03:54 -4,8 °C 89 % 1018,6 hPa 0,0 mm 0,0 km/h (0 Bft) W-SW 244 ° 0 min 0,000 mm 0,0 UV-I 0 W/m² -6,3 °C -4,8 °C 0,0 km/h (0 Bft)
13.02.2018 03:55 -4,8 °C 89 % 1018,6 hPa 0,0 mm 0,0 km/h (0 Bft) W-SW 244 ° 0 min 0,000 mm 0,0 UV-I 0 W/m² -6,3 °C -4,8 °C 0,0 km/h (0 Bft)
13.02.2018 03:56 -4,8 °C 89 % 1018,6 hPa 0,0 mm 0,0 km/h (0 Bft) W-SW 244 ° 0 min 0,000 mm 0,0 UV-I 0 W/m² -6,3 °C -4,8 °C 0,0 km/h (0 Bft)
13.02.2018 03:57 -4,8 °C 89 % 1018,6 hPa 0,0 mm 0,0 km/h (0 Bft) W-SW 244 ° 0 min 0,000 mm 0,0 UV-I 0 W/m² -6,3 °C -4,8 °C 0,0 km/h (0 Bft)
13.02.2018 03:58 -4,9 °C 89 % 1018,6 hPa 0,0 mm 1,5 km/h (1 Bft) W-SW 244 ° 0 min 0,000 mm 0,0 UV-I 0 W/m² -6,4 °C -4,9 °C 3,2 km/h (1 Bft)
13.02.2018 03:59 -4,9 °C 89 % 1018,6 hPa 0,0 mm 1,0 km/h (0 Bft) W-SW 244 ° 0 min 0,000 mm 0,0 UV-I 0 W/m² -6,4 °C -4,9 °C 3,2 km/h (1 Bft)
13.02.2018 04:00 -4,9 °C 89 % 1018,6 hPa 0,0 mm 0,2 km/h (0 Bft) W-SW 244 ° 0 min 0,000 mm 0,0 UV-I 0 W/m² -6,4 °C -4,9 °C 1,6 km/h (1 Bft)
13.02.2018 04:01 -5,0 °C 89 % 1018,5 hPa 0,0 mm 0,0 km/h (0 Bft) W-SW 244 ° 0 min 0,000 mm 0,0 UV-I 0 W/m² -6,5 °C -5,0 °C 0,0 km/h (0 Bft)
13.02.2018 04:02 -5,0 °C 89 % 1018,5 hPa 0,0 mm 0,0 km/h (0 Bft) W-SW 244 ° 0 min 0,000 mm 0,0 UV-I 0 W/m² -6,5 °C -5,0 °C 0,0 km/h (0 Bft)
13.02.2018 04:03 -5,1 °C 89 % 1018,5 hPa 0,0 mm 0,0 km/h (0 Bft) W-SW 244 ° 0 min 0,000 mm 0,0 UV-I 0 W/m² -6,6 °C -5,1 °C 0,0 km/h (0 Bft)
13.02.2018 04:04 -5,1 °C 89 % 1018,5 hPa 0,0 mm 0,0 km/h (0 Bft) W-SW 244 ° 0 min 0,000 mm 0,0 UV-I 0 W/m² -6,6 °C -5,1 °C 0,0 km/h (0 Bft)
13.02.2018 04:05 -5,1 °C 89 % 1018,6 hPa 0,0 mm 0,0 km/h (0 Bft) W-SW 244 ° 0 min 0,000 mm 0,0 UV-I 0 W/m² -6,6 °C -5,1 °C 0,0 km/h (0 Bft)
13.02.2018 04:06 -5,1 °C 89 % 1018,6 hPa 0,0 mm 0,0 km/h (0 Bft) W-SW 244 ° 0 min 0,000 mm 0,0 UV-I 0 W/m² -6,6 °C -5,1 °C 0,0 km/h (0 Bft)
13.02.2018 04:07 -5,1 °C 89 % 1018,6 hPa 0,0 mm 0,0 km/h (0 Bft) W-SW 244 ° 0 min 0,000 mm 0,0 UV-I 0 W/m² -6,6 °C -5,1 °C 0,0 km/h (0 Bft)
13.02.2018 04:08 -5,1 °C 89 % 1018,5 hPa 0,0 mm 0,0 km/h (0 Bft) W-SW 244 ° 0 min 0,000 mm 0,0 UV-I 0 W/m² -6,6 °C -5,1 °C 0,0 km/h (0 Bft)
13.02.2018 04:09 -5,2 °C 89 % 1018,6 hPa 0,0 mm 0,0 km/h (0 Bft) W-SW 244 ° 0 min 0,000 mm 0,0 UV-I 0 W/m² -6,7 °C -5,2 °C 0,0 km/h (0 Bft)
13.02.2018 04:10 -5,2 °C 89 % 1018,6 hPa 0,0 mm 0,0 km/h (0 Bft) W-SW 244 ° 0 min 0,000 mm 0,0 UV-I 0 W/m² -6,7 °C -5,2 °C 0,0 km/h (0 Bft)
13.02.2018 04:11 -5,2 °C 89 % 1018,5 hPa 0,0 mm 0,0 km/h (0 Bft) W-SW 244 ° 0 min 0,000 mm 0,0 UV-I 0 W/m² -6,7 °C -5,2 °C 0,0 km/h (0 Bft)
13.02.2018 04:12 -5,2 °C 89 % 1018,5 hPa 0,0 mm 0,0 km/h (0 Bft) W-SW 244 ° 0 min 0,000 mm 0,0 UV-I 0 W/m² -6,7 °C -5,2 °C 0,0 km/h (0 Bft)
13.02.2018 04:13 -5,2 °C 89 % 1018,5 hPa 0,0 mm 0,0 km/h (0 Bft) W-SW 244 ° 0 min 0,000 mm 0,0 UV-I 0 W/m² -6,7 °C -5,2 °C 0,0 km/h (0 Bft)
13.02.2018 04:14 -5,2 °C 89 % 1018,5 hPa 0,0 mm 0,0 km/h (0 Bft) W-SW 244 ° 0 min 0,000 mm 0,0 UV-I 0 W/m² -6,7 °C -5,2 °C 0,0 km/h (0 Bft)
13.02.2018 04:15 -5,3 °C 89 % 1018,5 hPa 0,0 mm 0,0 km/h (0 Bft) W-SW 244 ° 0 min 0,000 mm 0,0 UV-I 0 W/m² -6,8 °C -5,3 °C 0,0 km/h (0 Bft)
13.02.2018 04:16 -5,3 °C 89 % 1018,5 hPa 0,0 mm 0,0 km/h (0 Bft) W-SW 244 ° 0 min 0,000 mm 0,0 UV-I 0 W/m² -6,8 °C -5,3 °C 0,0 km/h (0 Bft)
13.02.2018 04:17 -5,3 °C 89 % 1018,6 hPa 0,0 mm 0,0 km/h (0 Bft) W-SW 244 ° 0 min 0,000 mm 0,0 UV-I 0 W/m² -6,8 °C -5,3 °C 0,0 km/h (0 Bft)
13.02.2018 04:18 -5,3 °C 89 % 1018,6 hPa 0,0 mm 0,0 km/h (0 Bft) W-SW 244 ° 0 min 0,000 mm 0,0 UV-I 0 W/m² -6,8 °C -5,3 °C 0,0 km/h (0 Bft)
13.02.2018 04:19 -5,3 °C 89 % 1018,6 hPa 0,0 mm 0,0 km/h (0 Bft) W-SW 244 ° 0 min 0,000 mm 0,0 UV-I 0 W/m² -6,8 °C -5,3 °C 0,0 km/h (0 Bft)
13.02.2018 04:20 -5,3 °C 89 % 1018,6 hPa 0,0 mm 0,0 km/h (0 Bft) W-SW 244 ° 0 min 0,000 mm 0,0 UV-I 0 W/m² -6,8 °C -5,3 °C 0,0 km/h (0 Bft)
13.02.2018 04:21 -5,3 °C 89 % 1018,6 hPa 0,0 mm 0,0 km/h (0 Bft) W-SW 244 ° 0 min 0,000 mm 0,0 UV-I 0 W/m² -6,8 °C -5,3 °C 0,0 km/h (0 Bft)
13.02.2018 04:22 -5,3 °C 89 % 1018,6 hPa 0,0 mm 0,0 km/h (0 Bft) W-SW 244 ° 0 min 0,000 mm 0,0 UV-I 0 W/m² -6,8 °C -5,3 °C 0,0 km/h (0 Bft)
13.02.2018 04:23 -5,3 °C 89 % 1018,5 hPa 0,0 mm 0,0 km/h (0 Bft) W-SW 244 ° 0 min 0,000 mm 0,0 UV-I 0 W/m² -6,8 °C -5,3 °C 0,0 km/h (0 Bft)
13.02.2018 04:24 -5,3 °C 89 % 1018,6 hPa 0,0 mm 0,0 km/h (0 Bft) W-SW 244 ° 0 min 0,000 mm 0,0 UV-I 0 W/m² -6,8 °C -5,3 °C 0,0 km/h (0 Bft)
13.02.2018 04:25 -5,4 °C 89 % 1018,6 hPa 0,0 mm 0,0 km/h (0 Bft) W-SW 244 ° 0 min 0,000 mm 0,0 UV-I 0 W/m² -6,9 °C -5,4 °C 0,0 km/h (0 Bft)
13.02.2018 04:26 -5,4 °C 89 % 1018,6 hPa 0,0 mm 0,0 km/h (0 Bft) W-SW 244 ° 0 min 0,000 mm 0,0 UV-I 0 W/m² -6,9 °C -5,4 °C 0,0 km/h (0 Bft)
13.02.2018 04:27 -5,4 °C 89 % 1018,6 hPa 0,0 mm 0,0 km/h (0 Bft) W-SW 244 ° 0 min 0,000 mm 0,0 UV-I 0 W/m² -6,9 °C -5,4 °C 0,0 km/h (0 Bft)
13.02.2018 04:28 -5,4 °C 89 % 1018,6 hPa 0,0 mm 0,0 km/h (0 Bft) W-SW 244 ° 0 min 0,000 mm 0,0 UV-I 0 W/m² -6,9 °C -5,4 °C 0,0 km/h (0 Bft)
13.02.2018 04:29 -5,4 °C 89 % 1018,6 hPa 0,0 mm 0,0 km/h (0 Bft) W-SW 244 ° 0 min 0,000 mm 0,0 UV-I 0 W/m² -6,9 °C -5,4 °C 0,0 km/h (0 Bft)
13.02.2018 04:30 -5,4 °C 89 % 1018,5 hPa 0,0 mm 0,0 km/h (0 Bft) W-SW 244 ° 0 min 0,000 mm 0,0 UV-I 0 W/m² -6,9 °C -5,4 °C 0,0 km/h (0 Bft)
13.02.2018 04:31 -5,4 °C 89 % 1018,5 hPa 0,0 mm 0,0 km/h (0 Bft) W-SW 244 ° 0 min 0,000 mm 0,0 UV-I 0 W/m² -6,9 °C -5,4 °C 0,0 km/h (0 Bft)
13.02.2018 04:32 -5,4 °C 89 % 1018,5 hPa 0,0 mm 0,0 km/h (0 Bft) W-SW 244 ° 0 min 0,000 mm 0,0 UV-I 0 W/m² -6,9 °C -5,4 °C 0,0 km/h (0 Bft)
13.02.2018 04:33 -5,5 °C 89 % 1018,5 hPa 0,0 mm 0,0 km/h (0 Bft) W-SW 244 ° 0 min 0,000 mm 0,0 UV-I 0 W/m² -7,0 °C -5,5 °C 0,0 km/h (0 Bft)
13.02.2018 04:34 -5,5 °C 89 % 1018,5 hPa 0,0 mm 0,0 km/h (0 Bft) W-SW 244 ° 0 min 0,000 mm 0,0 UV-I 0 W/m² -7,0 °C -5,5 °C 0,0 km/h (0 Bft)
13.02.2018 04:35 -5,5 °C 89 % 1018,5 hPa 0,0 mm 0,0 km/h (0 Bft) W-SW 244 ° 0 min 0,000 mm 0,0 UV-I 0 W/m² -7,0 °C -5,5 °C 0,0 km/h (0 Bft)
13.02.2018 04:36 -5,5 °C 90 % 1018,5 hPa 0,0 mm 0,0 km/h (0 Bft) W-SW 244 ° 0 min 0,000 mm 0,0 UV-I 0 W/m² -6,9 °C -5,5 °C 0,0 km/h (0 Bft)
13.02.2018 04:37 -5,6 °C 89 % 1018,6 hPa 0,0 mm 0,0 km/h (0 Bft) W-SW 244 ° 0 min 0,000 mm 0,0 UV-I 0 W/m² -7,1 °C -5,6 °C 0,0 km/h (0 Bft)
13.02.2018 04:38 -5,6 °C 90 % 1018,5 hPa 0,0 mm 0,0 km/h (0 Bft) W-SW 244 ° 0 min 0,000 mm 0,0 UV-I 0 W/m² -7,0 °C -5,6 °C 0,0 km/h (0 Bft)
13.02.2018 04:39 -5,6 °C 90 % 1018,5 hPa 0,0 mm 0,0 km/h (0 Bft) W-SW 244 ° 0 min 0,000 mm 0,0 UV-I 0 W/m² -7,0 °C -5,6 °C 0,0 km/h (0 Bft)
13.02.2018 04:40 -5,6 °C 90 % 1018,5 hPa 0,0 mm 0,0 km/h (0 Bft) W-SW 244 ° 0 min 0,000 mm 0,0 UV-I 0 W/m² -7,0 °C -5,6 °C 0,0 km/h (0 Bft)
13.02.2018 04:41 -5,6 °C 90 % 1018,5 hPa 0,0 mm 0,0 km/h (0 Bft) W-SW 244 ° 0 min 0,000 mm 0,0 UV-I 0 W/m² -7,0 °C -5,6 °C 0,0 km/h (0 Bft)
13.02.2018 04:42 -5,6 °C 90 % 1018,5 hPa 0,0 mm 0,0 km/h (0 Bft) W-SW 244 ° 0 min 0,000 mm 0,0 UV-I 0 W/m² -7,0 °C -5,6 °C 0,0 km/h (0 Bft)
13.02.2018 04:43 -5,6 °C 90 % 1018,5 hPa 0,0 mm 0,0 km/h (0 Bft) W-SW 244 ° 0 min 0,000 mm 0,0 UV-I 0 W/m² -7,0 °C -5,6 °C 0,0 km/h (0 Bft)
13.02.2018 04:44 -5,6 °C 90 % 1018,5 hPa 0,0 mm 0,0 km/h (0 Bft) W-SW 244 ° 0 min 0,000 mm 0,0 UV-I 0 W/m² -7,0 °C -5,6 °C 0,0 km/h (0 Bft)
13.02.2018 04:45 -5,6 °C 90 % 1018,5 hPa 0,0 mm 0,0 km/h (0 Bft) W-SW 244 ° 0 min 0,000 mm 0,0 UV-I 0 W/m² -7,0 °C -5,6 °C 0,0 km/h (0 Bft)
13.02.2018 04:46 -5,6 °C 90 % 1018,5 hPa 0,0 mm 0,0 km/h (0 Bft) W-SW 244 ° 0 min 0,000 mm 0,0 UV-I 0 W/m² -7,0 °C -5,6 °C 0,0 km/h (0 Bft)
13.02.2018 04:47 -5,6 °C 90 % 1018,5 hPa 0,0 mm 0,0 km/h (0 Bft) W-SW 244 ° 0 min 0,000 mm 0,0 UV-I 0 W/m² -7,0 °C -5,6 °C 0,0 km/h (0 Bft)
13.02.2018 04:48 -5,6 °C 90 % 1018,5 hPa 0,0 mm 0,0 km/h (0 Bft) W-SW 244 ° 0 min 0,000 mm 0,0 UV-I 0 W/m² -7,0 °C -5,6 °C 0,0 km/h (0 Bft)
13.02.2018 04:49 -5,6 °C 90 % 1018,4 hPa 0,0 mm 0,0 km/h (0 Bft) W-SW 244 ° 0 min 0,000 mm 0,0 UV-I 0 W/m² -7,0 °C -5,6 °C 0,0 km/h (0 Bft)
13.02.2018 04:50 -5,6 °C 90 % 1018,4 hPa 0,0 mm 0,0 km/h (0 Bft) W-SW 244 ° 0 min 0,000 mm 0,0 UV-I 0 W/m² -7,0 °C -5,6 °C 0,0 km/h (0 Bft)
13.02.2018 04:51 -5,6 °C 90 % 1018,4 hPa 0,0 mm 0,0 km/h (0 Bft) W-SW 244 ° 0 min 0,000 mm 0,0 UV-I 0 W/m² -7,0 °C -5,6 °C 0,0 km/h (0 Bft)
13.02.2018 04:52 -5,6 °C 90 % 1018,5 hPa 0,0 mm 0,0 km/h (0 Bft) W-SW 244 ° 0 min 0,000 mm 0,0 UV-I 0 W/m² -7,0 °C -5,6 °C 0,0 km/h (0 Bft)
13.02.2018 04:53 -5,6 °C 90 % 1018,4 hPa 0,0 mm 0,0 km/h (0 Bft) W-SW 244 ° 0 min 0,000 mm 0,0 UV-I 0 W/m² -7,0 °C -5,6 °C 0,0 km/h (0 Bft)
13.02.2018 04:54 -5,6 °C 90 % 1018,4 hPa 0,0 mm 0,0 km/h (0 Bft) W-SW 244 ° 0 min 0,000 mm 0,0 UV-I 0 W/m² -7,0 °C -5,6 °C 0,0 km/h (0 Bft)
13.02.2018 04:55 -5,6 °C 90 % 1018,4 hPa 0,0 mm 0,0 km/h (0 Bft) W-SW 244 ° 0 min 0,000 mm 0,0 UV-I 0 W/m² -7,0 °C -5,6 °C 0,0 km/h (0 Bft)
13.02.2018 04:56 -5,6 °C 90 % 1018,4 hPa 0,0 mm 0,0 km/h (0 Bft) W-SW 244 ° 0 min 0,000 mm 0,0 UV-I 0 W/m² -7,0 °C -5,6 °C 0,0 km/h (0 Bft)
13.02.2018 04:57 -5,6 °C 90 % 1018,4 hPa 0,0 mm 0,0 km/h (0 Bft) W-SW 244 ° 0 min 0,000 mm 0,0 UV-I 0 W/m² -7,0 °C -5,6 °C 0,0 km/h (0 Bft)
13.02.2018 04:58 -5,6 °C 90 % 1018,4 hPa 0,0 mm 0,0 km/h (0 Bft) W-SW 244 ° 0 min 0,000 mm 0,0 UV-I 0 W/m² -7,0 °C -5,6 °C 0,0 km/h (0 Bft)
13.02.2018 04:59 -5,6 °C 90 % 1018,4 hPa 0,0 mm 0,0 km/h (0 Bft) W-SW 244 ° 0 min 0,000 mm 0,0 UV-I 0 W/m² -7,0 °C -5,6 °C 0,0 km/h (0 Bft)
13.02.2018 05:00 -5,6 °C 90 % 1018,4 hPa 0,0 mm 0,0 km/h (0 Bft) W-SW 244 ° 0 min 0,000 mm 0,0 UV-I 0 W/m² -7,0 °C -5,6 °C 0,0 km/h (0 Bft)
13.02.2018 05:01 -5,6 °C 90 % 1018,3 hPa 0,0 mm 0,0 km/h (0 Bft) W-SW 244 ° 0 min 0,000 mm 0,0 UV-I 0 W/m² -7,0 °C -5,6 °C 0,0 km/h (0 Bft)
13.02.2018 05:02 -5,6 °C 90 % 1018,3 hPa 0,0 mm 0,0 km/h (0 Bft) W-SW 244 ° 0 min 0,000 mm 0,0 UV-I 0 W/m² -7,0 °C -5,6 °C 0,0 km/h (0 Bft)
13.02.2018 05:03 -5,6 °C 90 % 1018,3 hPa 0,0 mm 0,0 km/h (0 Bft) W-SW 244 ° 0 min 0,000 mm 0,0 UV-I 0 W/m² -7,0 °C -5,6 °C 0,0 km/h (0 Bft)
13.02.2018 05:04 -5,6 °C 91 % 1018,3 hPa 0,0 mm 1,2 km/h (1 Bft) SW 227 ° 0 min 0,000 mm 0,0 UV-I 0 W/m² -6,8 °C -5,6 °C 4,8 km/h (1 Bft)
13.02.2018 05:05 -5,6 °C 90 % 1018,3 hPa 0,0 mm 5,6 km/h (1 Bft) SW 214 ° 0 min 0,000 mm 0,0 UV-I 0 W/m² -7,0 °C -8,3 °C 6,4 km/h (2 Bft)
13.02.2018 05:06 -5,6 °C 90 % 1018,4 hPa 0,0 mm 5,8 km/h (2 Bft) S-SW 213 ° 0 min 0,000 mm 0,0 UV-I 0 W/m² -7,0 °C -8,4 °C 8,0 km/h (2 Bft)
13.02.2018 05:07 -5,6 °C 90 % 1018,4 hPa 0,0 mm 4,7 km/h (1 Bft) S-SW 213 ° 0 min 0,000 mm 0,0 UV-I 0 W/m² -7,0 °C -7,8 °C 6,4 km/h (2 Bft)
13.02.2018 05:08 -5,6 °C 90 % 1018,4 hPa 0,0 mm 6,7 km/h (2 Bft) S-SW 202 ° 0 min 0,000 mm 0,0 UV-I 0 W/m² -7,0 °C -8,8 °C 8,0 km/h (2 Bft)
13.02.2018 05:09 -5,6 °C 90 % 1018,4 hPa 0,0 mm 8,1 km/h (2 Bft) S-SW 205 ° 0 min 0,000 mm 0,0 UV-I 0 W/m² -7,0 °C -9,4 °C 9,7 km/h (2 Bft)
13.02.2018 05:10 -5,6 °C 90 % 1018,4 hPa 0,0 mm 6,3 km/h (2 Bft) S-SW 205 ° 0 min 0,000 mm 0,0 UV-I 0 W/m² -7,0 °C -8,6 °C 8,0 km/h (2 Bft)
13.02.2018 05:11 -5,7 °C 90 % 1018,4 hPa 0,0 mm 7,8 km/h (2 Bft) S-SW 211 ° 0 min 0,000 mm 0,0 UV-I 0 W/m² -7,1 °C -9,4 °C 9,7 km/h (2 Bft)
13.02.2018 05:12 -5,6 °C 90 % 1018,4 hPa 0,0 mm 7,1 km/h (2 Bft) S-SW 201 ° 0 min 0,000 mm 0,0 UV-I 0 W/m² -7,0 °C -9,0 °C 8,0 km/h (2 Bft)
13.02.2018 05:13 -5,7 °C 90 % 1018,4 hPa 0,0 mm 6,5 km/h (2 Bft) S-SW 194 ° 0 min 0,000 mm 0,0 UV-I 0 W/m² -7,1 °C -8,8 °C 8,0 km/h (2 Bft)
13.02.2018 05:14 -5,7 °C 90 % 1018,4 hPa 0,0 mm 5,8 km/h (2 Bft) S 184 ° 0 min 0,000 mm 0,0 UV-I 0 W/m² -7,1 °C -8,5 °C 8,0 km/h (2 Bft)
13.02.2018 05:15 -5,7 °C 90 % 1018,4 hPa 0,0 mm 3,1 km/h (1 Bft) S-SW 194 ° 0 min 0,000 mm 0,0 UV-I 0 W/m² -7,1 °C -5,7 °C 8,0 km/h (2 Bft)
13.02.2018 05:16 -5,7 °C 90 % 1018,4 hPa 0,0 mm 3,2 km/h (1 Bft) S-SW 199 ° 0 min 0,000 mm 0,0 UV-I 0 W/m² -7,1 °C -5,7 °C 6,4 km/h (2 Bft)
13.02.2018 05:17 -5,7 °C 90 % 1018,4 hPa 0,0 mm 3,4 km/h (1 Bft) S-SW 202 ° 0 min 0,000 mm 0,0 UV-I 0 W/m² -7,1 °C -5,7 °C 4,8 km/h (1 Bft)
13.02.2018 05:18 -5,7 °C 90 % 1018,4 hPa 0,0 mm 3,4 km/h (1 Bft) S-SW 211 ° 0 min 0,000 mm 0,0 UV-I 0 W/m² -7,1 °C -5,7 °C 6,4 km/h (2 Bft)
13.02.2018 05:19 -5,7 °C 90 % 1018,4 hPa 0,0 mm 5,4 km/h (1 Bft) S-SW 205 ° 0 min 0,000 mm 0,0 UV-I 0 W/m² -7,1 °C -8,3 °C 6,4 km/h (2 Bft)
13.02.2018 05:20 -5,7 °C 90 % 1018,4 hPa 0,0 mm 4,2 km/h (1 Bft) S-SW 205 ° 0 min 0,000 mm 0,0 UV-I 0 W/m² -7,1 °C -5,7 °C 4,8 km/h (1 Bft)
13.02.2018 05:21 -5,8 °C 90 % 1018,4 hPa 0,0 mm 2,3 km/h (1 Bft) S-SW 205 ° 0 min 0,000 mm 0,0 UV-I 0 W/m² -7,2 °C -5,8 °C 3,2 km/h (1 Bft)
13.02.2018 05:22 -5,8 °C 90 % 1018,4 hPa 0,0 mm 0,7 km/h (0 Bft) S-SW 205 ° 0 min 0,000 mm 0,0 UV-I 0 W/m² -7,2 °C -5,8 °C 3,2 km/h (1 Bft)
13.02.2018 05:23 -5,8 °C 90 % 1018,4 hPa 0,0 mm 0,2 km/h (0 Bft) S-SW 205 ° 0 min 0,000 mm 0,0 UV-I 0 W/m² -7,2 °C -5,8 °C 1,6 km/h (1 Bft)
13.02.2018 05:24 -5,8 °C 90 % 1018,4 hPa 0,0 mm 0,1 km/h (0 Bft) S-SW 205 ° 0 min 0,000 mm 0,0 UV-I 0 W/m² -7,2 °C -5,8 °C 1,6 km/h (1 Bft)
13.02.2018 05:25 -5,8 °C 90 % 1018,4 hPa 0,0 mm 0,5 km/h (0 Bft) S-SW 205 ° 0 min 0,000 mm 0,0 UV-I 0 W/m² -7,2 °C -5,8 °C 1,6 km/h (1 Bft)
13.02.2018 05:26 -5,8 °C 90 % 1018,4 hPa 0,0 mm 1,5 km/h (1 Bft) S-SW 205 ° 0 min 0,000 mm 0,0 UV-I 0 W/m² -7,2 °C -5,8 °C 3,2 km/h (1 Bft)
13.02.2018 05:27 -5,8 °C 90 % 1018,4 hPa 0,0 mm 1,3 km/h (1 Bft) S-SW 205 ° 0 min 0,000 mm 0,0 UV-I 0 W/m² -7,2 °C -5,8 °C 3,2 km/h (1 Bft)
13.02.2018 05:28 -5,8 °C 90 % 1018,5 hPa 0,0 mm 1,1 km/h (1 Bft) S-SW 205 ° 0 min 0,000 mm 0,0 UV-I 0 W/m² -7,2 °C -5,8 °C 3,2 km/h (1 Bft)
13.02.2018 05:29 -5,9 °C 89 % 1018,4 hPa 0,0 mm 1,7 km/h (1 Bft) S-SW 205 ° 0 min 0,000 mm 0,0 UV-I 0 W/m² -7,4 °C -5,9 °C 3,2 km/h (1 Bft)
13.02.2018 05:30 -5,9 °C 89 % 1018,4 hPa 0,0 mm 0,6 km/h (0 Bft) S-SW 205 ° 0 min 0,000 mm 0,0 UV-I 0 W/m² -7,4 °C -5,9 °C 1,6 km/h (1 Bft)
13.02.2018 05:31 -5,9 °C 89 % 1018,5 hPa 0,0 mm 1,1 km/h (1 Bft) S-SW 205 ° 0 min 0,000 mm 0,0 UV-I 0 W/m² -7,4 °C -5,9 °C 3,2 km/h (1 Bft)
13.02.2018 05:32 -5,9 °C 89 % 1018,5 hPa 0,0 mm 0,8 km/h (0 Bft) S-SW 205 ° 0 min 0,000 mm 0,0 UV-I 0 W/m² -7,4 °C -5,9 °C 1,6 km/h (1 Bft)
13.02.2018 05:33 -6,0 °C 89 % 1018,4 hPa 0,0 mm 0,9 km/h (0 Bft) S-SW 205 ° 0 min 0,000 mm 0,0 UV-I 0 W/m² -7,5 °C -6,0 °C 1,6 km/h (1 Bft)
13.02.2018 05:34 -6,0 °C 89 % 1018,4 hPa 0,0 mm 1,4 km/h (1 Bft) S-SW 205 ° 0 min 0,000 mm 0,0 UV-I 0 W/m² -7,5 °C -6,0 °C 3,2 km/h (1 Bft)
13.02.2018 05:35 -6,0 °C 89 % 1018,4 hPa 0,0 mm 1,5 km/h (1 Bft) S-SW 205 ° 0 min 0,000 mm 0,0 UV-I 0 W/m² -7,5 °C -6,0 °C 3,2 km/h (1 Bft)
13.02.2018 05:36 -6,0 °C 89 % 1018,4 hPa 0,0 mm 1,4 km/h (1 Bft) S-SW 205 ° 0 min 0,000 mm 0,0 UV-I 0 W/m² -7,5 °C -6,0 °C 3,2 km/h (1 Bft)
13.02.2018 05:37 -6,1 °C 89 % 1018,4 hPa 0,0 mm 2,2 km/h (1 Bft) S-SW 205 ° 0 min 0,000 mm 0,0 UV-I 0 W/m² -7,6 °C -6,1 °C 3,2 km/h (1 Bft)
13.02.2018 05:38 -6,1 °C 89 % 1018,4 hPa 0,0 mm 1,1 km/h (1 Bft) S-SW 205 ° 0 min 0,000 mm 0,0 UV-I 0 W/m² -7,6 °C -6,1 °C 3,2 km/h (1 Bft)
13.02.2018 05:39 -6,1 °C 89 % 1018,4 hPa 0,0 mm 2,1 km/h (1 Bft) S-SW 205 ° 0 min 0,000 mm 0,0 UV-I 0 W/m² -7,6 °C -6,1 °C 4,8 km/h (1 Bft)
13.02.2018 05:40 -6,2 °C 89 % 1018,4 hPa 0,0 mm 2,1 km/h (1 Bft) S-SW 205 ° 0 min 0,000 mm 0,0 UV-I 0 W/m² -7,7 °C -6,2 °C 3,2 km/h (1 Bft)
13.02.2018 05:41 -6,1 °C 89 % 1018,4 hPa 0,0 mm 0,4 km/h (0 Bft) S-SW 205 ° 0 min 0,000 mm 0,0 UV-I 0 W/m² -7,6 °C -6,1 °C 1,6 km/h (1 Bft)
13.02.2018 05:42 -6,2 °C 89 % 1018,4 hPa 0,0 mm 0,5 km/h (0 Bft) S-SW 205 ° 0 min 0,000 mm 0,0 UV-I 0 W/m² -7,7 °C -6,2 °C 3,2 km/h (1 Bft)
13.02.2018 05:43 -6,2 °C 89 % 1018,4 hPa 0,0 mm 0,7 km/h (0 Bft) S-SW 205 ° 0 min 0,000 mm 0,0 UV-I 0 W/m² -7,7 °C -6,2 °C 1,6 km/h (1 Bft)
13.02.2018 05:44 -6,2 °C 88 % 1018,4 hPa 0,0 mm 0,3 km/h (0 Bft) S-SW 205 ° 0 min 0,000 mm 0,0 UV-I 0 W/m² -7,9 °C -6,2 °C 1,6 km/h (1 Bft)
13.02.2018 05:45 -6,2 °C 89 % 1018,4 hPa 0,0 mm 0,2 km/h (0 Bft) S-SW 205 ° 0 min 0,000 mm 0,0 UV-I 0 W/m² -7,7 °C -6,2 °C 1,6 km/h (1 Bft)
13.02.2018 05:46 -6,3 °C 89 % 1018,4 hPa 0,0 mm 0,0 km/h (0 Bft) S-SW 205 ° 0 min 0,000 mm 0,0 UV-I 0 W/m² -7,8 °C -6,3 °C 0,0 km/h (0 Bft)
13.02.2018 05:47 -6,3 °C 89 % 1018,4 hPa 0,0 mm 0,0 km/h (0 Bft) S-SW 205 ° 0 min 0,000 mm 0,0 UV-I 0 W/m² -7,8 °C -6,3 °C 0,0 km/h (0 Bft)
13.02.2018 05:48 -6,3 °C 88 % 1018,4 hPa 0,0 mm 0,0 km/h (0 Bft) S-SW 205 ° 0 min 0,000 mm 0,0 UV-I 0 W/m² -8,0 °C -6,3 °C 0,0 km/h (0 Bft)
13.02.2018 05:49 -6,3 °C 88 % 1018,4 hPa 0,0 mm 0,0 km/h (0 Bft) S-SW 205 ° 0 min 0,000 mm 0,0 UV-I 0 W/m² -8,0 °C -6,3 °C 0,0 km/h (0 Bft)
13.02.2018 05:50 -6,4 °C 88 % 1018,4 hPa 0,0 mm 0,0 km/h (0 Bft) S-SW 205 ° 0 min 0,000 mm 0,0 UV-I 0 W/m² -8,1 °C -6,4 °C 0,0 km/h (0 Bft)
13.02.2018 05:51 -6,4 °C 88 % 1018,4 hPa 0,0 mm 0,0 km/h (0 Bft) S-SW 205 ° 0 min 0,000 mm 0,0 UV-I 0 W/m² -8,1 °C -6,4 °C 0,0 km/h (0 Bft)
13.02.2018 05:52 -6,4 °C 88 % 1018,4 hPa 0,0 mm 0,0 km/h (0 Bft) S-SW 205 ° 0 min 0,000 mm 0,0 UV-I 0 W/m² -8,1 °C -6,4 °C 0,0 km/h (0 Bft)
13.02.2018 05:53 -6,4 °C 88 % 1018,4 hPa 0,0 mm 0,0 km/h (0 Bft) S-SW 205 ° 0 min 0,000 mm 0,0 UV-I 0 W/m² -8,1 °C -6,4 °C 0,0 km/h (0 Bft)
13.02.2018 05:54 -6,5 °C 88 % 1018,4 hPa 0,0 mm 0,0 km/h (0 Bft) S-SW 205 ° 0 min 0,000 mm 0,0 UV-I 0 W/m² -8,1 °C -6,5 °C 0,0 km/h (0 Bft)
13.02.2018 05:55 -6,6 °C 88 % 1018,4 hPa 0,0 mm 0,0 km/h (0 Bft) S-SW 205 ° 0 min 0,000 mm 0,0 UV-I 0 W/m² -8,2 °C -6,6 °C 0,0 km/h (0 Bft)
13.02.2018 05:56 -6,6 °C 88 % 1018,4 hPa 0,0 mm 0,0 km/h (0 Bft) S-SW 205 ° 0 min 0,000 mm 0,0 UV-I 0 W/m² -8,2 °C -6,6 °C 0,0 km/h (0 Bft)
13.02.2018 05:57 -6,6 °C 88 % 1018,4 hPa 0,0 mm 0,0 km/h (0 Bft) S-SW 205 ° 0 min 0,000 mm 0,0 UV-I 0 W/m² -8,2 °C -6,6 °C 0,0 km/h (0 Bft)
13.02.2018 05:58 -6,6 °C 88 % 1018,5 hPa 0,0 mm 0,0 km/h (0 Bft) S-SW 205 ° 0 min 0,000 mm 0,0 UV-I 0 W/m² -8,2 °C -6,6 °C 0,0 km/h (0 Bft)
13.02.2018 05:59 -6,6 °C 88 % 1018,4 hPa 0,0 mm 0,0 km/h (0 Bft) S-SW 205 ° 0 min 0,000 mm 0,0 UV-I 0 W/m² -8,2 °C -6,6 °C 0,0 km/h (0 Bft)
13.02.2018 06:00 -6,7 °C 88 % 1018,4 hPa 0,0 mm 0,0 km/h (0 Bft) S-SW 205 ° 0 min 0,000 mm 0,0 UV-I 0 W/m² -8,3 °C -6,7 °C 0,0 km/h (0 Bft)
13.02.2018 06:01 -6,7 °C 88 % 1018,5 hPa 0,0 mm 0,0 km/h (0 Bft) S-SW 205 ° 0 min 0,000 mm 0,0 UV-I 0 W/m² -8,3 °C -6,7 °C 0,0 km/h (0 Bft)
13.02.2018 06:02 -6,7 °C 88 % 1018,4 hPa 0,0 mm 0,0 km/h (0 Bft) S-SW 205 ° 0 min 0,000 mm 0,0 UV-I 0 W/m² -8,3 °C -6,7 °C 0,0 km/h (0 Bft)
13.02.2018 06:03 -6,7 °C 88 % 1018,5 hPa 0,0 mm 0,0 km/h (0 Bft) S-SW 205 ° 0 min 0,000 mm 0,0 UV-I 0 W/m² -8,3 °C -6,7 °C 0,0 km/h (0 Bft)
13.02.2018 06:04 -6,8 °C 88 % 1018,5 hPa 0,0 mm 0,0 km/h (0 Bft) S-SW 205 ° 0 min 0,000 mm 0,0 UV-I 0 W/m² -8,4 °C -6,8 °C 0,0 km/h (0 Bft)
13.02.2018 06:05 -6,8 °C 88 % 1018,4 hPa 0,0 mm 0,0 km/h (0 Bft) S-SW 205 ° 0 min 0,000 mm 0,0 UV-I 0 W/m² -8,4 °C -6,8 °C 0,0 km/h (0 Bft)
13.02.2018 06:06 -6,8 °C 88 % 1018,4 hPa 0,0 mm 0,0 km/h (0 Bft) S-SW 205 ° 0 min 0,000 mm 0,0 UV-I 0 W/m² -8,4 °C -6,8 °C 0,0 km/h (0 Bft)
13.02.2018 06:07 -6,8 °C 88 % 1018,4 hPa 0,0 mm 0,0 km/h (0 Bft) S-SW 205 ° 0 min 0,000 mm 0,0 UV-I 0 W/m² -8,4 °C -6,8 °C 0,0 km/h (0 Bft)
13.02.2018 06:08 -6,8 °C 88 % 1018,5 hPa 0,0 mm 0,0 km/h (0 Bft) S-SW 205 ° 0 min 0,000 mm 0,0 UV-I 0 W/m² -8,4 °C -6,8 °C 0,0 km/h (0 Bft)
13.02.2018 06:09 -6,8 °C 88 % 1018,4 hPa 0,0 mm 0,0 km/h (0 Bft) S-SW 205 ° 0 min 0,000 mm 0,0 UV-I 0 W/m² -8,4 °C -6,8 °C 0,0 km/h (0 Bft)
13.02.2018 06:10 -6,9 °C 88 % 1018,5 hPa 0,0 mm 0,0 km/h (0 Bft) S-SW 205 ° 0 min 0,000 mm 0,0 UV-I 0 W/m² -8,5 °C -6,9 °C 0,0 km/h (0 Bft)
13.02.2018 06:11 -6,9 °C 88 % 1018,4 hPa 0,0 mm 0,0 km/h (0 Bft) S-SW 205 ° 0 min 0,000 mm 0,0 UV-I 0 W/m² -8,5 °C -6,9 °C 0,0 km/h (0 Bft)
13.02.2018 06:12 -6,9 °C 87 % 1018,5 hPa 0,0 mm 0,0 km/h (0 Bft) S-SW 205 ° 0 min 0,000 mm 0,0 UV-I 0 W/m² -8,7 °C -6,9 °C 0,0 km/h (0 Bft)
13.02.2018 06:13 -7,0 °C 87 % 1018,4 hPa 0,0 mm 0,0 km/h (0 Bft) S-SW 205 ° 0 min 0,000 mm 0,0 UV-I 0 W/m² -8,8 °C -7,0 °C 0,0 km/h (0 Bft)
13.02.2018 06:14 -7,1 °C 87 % 1018,4 hPa 0,0 mm 0,0 km/h (0 Bft) S-SW 205 ° 0 min 0,000 mm 0,0 UV-I 0 W/m² -8,9 °C -7,1 °C 0,0 km/h (0 Bft)
13.02.2018 06:15 -7,1 °C 87 % 1018,4 hPa 0,0 mm 0,0 km/h (0 Bft) S-SW 205 ° 0 min 0,000 mm 0,0 UV-I 0 W/m² -8,9 °C -7,1 °C 0,0 km/h (0 Bft)
13.02.2018 06:16 -7,2 °C 87 % 1018,4 hPa 0,0 mm 0,0 km/h (0 Bft) S-SW 205 ° 0 min 0,000 mm 0,0 UV-I 0 W/m² -9,0 °C -7,2 °C 0,0 km/h (0 Bft)
13.02.2018 06:17 -7,2 °C 87 % 1018,4 hPa 0,0 mm 0,0 km/h (0 Bft) S-SW 205 ° 0 min 0,000 mm 0,0 UV-I 0 W/m² -9,0 °C -7,2 °C 0,0 km/h (0 Bft)
13.02.2018 06:18 -7,2 °C 87 % 1018,4 hPa 0,0 mm 0,0 km/h (0 Bft) S-SW 205 ° 0 min 0,000 mm 0,0 UV-I 0 W/m² -9,0 °C -7,2 °C 0,0 km/h (0 Bft)
13.02.2018 06:19 -7,3 °C 87 % 1018,5 hPa 0,0 mm 0,0 km/h (0 Bft) S-SW 205 ° 0 min 0,000 mm 0,0 UV-I 0 W/m² -9,1 °C -7,3 °C 0,0 km/h (0 Bft)
13.02.2018 06:20 -7,3 °C 87 % 1018,5 hPa 0,0 mm 0,0 km/h (0 Bft) S-SW 205 ° 0 min 0,000 mm 0,0 UV-I 0 W/m² -9,1 °C -7,3 °C 0,0 km/h (0 Bft)
13.02.2018 06:21 -7,3 °C 87 % 1018,5 hPa 0,0 mm 0,0 km/h (0 Bft) S-SW 205 ° 0 min 0,000 mm 0,0 UV-I 0 W/m² -9,1 °C -7,3 °C 0,0 km/h (0 Bft)
13.02.2018 06:22 -7,3 °C 87 % 1018,5 hPa 0,0 mm 0,0 km/h (0 Bft) S-SW 205 ° 0 min 0,000 mm 0,0 UV-I 0 W/m² -9,1 °C -7,3 °C 0,0 km/h (0 Bft)
13.02.2018 06:23 -7,4 °C 87 % 1018,5 hPa 0,0 mm 0,0 km/h (0 Bft) S-SW 205 ° 0 min 0,000 mm 0,0 UV-I 0 W/m² -9,2 °C -7,4 °C 0,0 km/h (0 Bft)
13.02.2018 06:24 -7,4 °C 87 % 1018,5 hPa 0,0 mm 0,0 km/h (0 Bft) S-SW 205 ° 0 min 0,000 mm 0,0 UV-I 0 W/m² -9,2 °C -7,4 °C 0,0 km/h (0 Bft)
13.02.2018 06:25 -7,4 °C 87 % 1018,5 hPa 0,0 mm 0,0 km/h (0 Bft) S-SW 205 ° 0 min 0,000 mm 0,0 UV-I 0 W/m² -9,2 °C -7,4 °C 0,0 km/h (0 Bft)
13.02.2018 06:26 -7,5 °C 87 % 1018,5 hPa 0,0 mm 0,0 km/h (0 Bft) S-SW 205 ° 0 min 0,000 mm 0,0 UV-I 0 W/m² -9,3 °C -7,5 °C 0,0 km/h (0 Bft)
13.02.2018 06:27 -7,6 °C 87 % 1018,5 hPa 0,0 mm 0,0 km/h (0 Bft) S-SW 205 ° 0 min 0,000 mm 0,0 UV-I 0 W/m² -9,4 °C -7,6 °C 0,0 km/h (0 Bft)
13.02.2018 06:28 -7,6 °C 87 % 1018,5 hPa 0,0 mm 0,0 km/h (0 Bft) S-SW 205 ° 0 min 0,000 mm 0,0 UV-I 0 W/m² -9,4 °C -7,6 °C 0,0 km/h (0 Bft)
13.02.2018 06:29 -7,6 °C 87 % 1018,5 hPa 0,0 mm 0,0 km/h (0 Bft) S-SW 205 ° 0 min 0,000 mm 0,0 UV-I 0 W/m² -9,4 °C -7,6 °C 0,0 km/h (0 Bft)
13.02.2018 06:30 -7,6 °C 87 % 1018,5 hPa 0,0 mm 0,0 km/h (0 Bft) S-SW 205 ° 0 min 0,000 mm 0,0 UV-I 0 W/m² -9,4 °C -7,6 °C 0,0 km/h (0 Bft)
13.02.2018 06:31 -7,7 °C 87 % 1018,5 hPa 0,0 mm 0,0 km/h (0 Bft) S-SW 205 ° 0 min 0,000 mm 0,0 UV-I 0 W/m² -9,5 °C -7,7 °C 0,0 km/h (0 Bft)
13.02.2018 06:32 -7,7 °C 87 % 1018,5 hPa 0,0 mm 0,0 km/h (0 Bft) S-SW 205 ° 0 min 0,000 mm 0,0 UV-I 0 W/m² -9,5 °C -7,7 °C 0,0 km/h (0 Bft)
13.02.2018 06:33 -7,7 °C 87 % 1018,5 hPa 0,0 mm 0,0 km/h (0 Bft) S-SW 205 ° 0 min 0,000 mm 0,0 UV-I 0 W/m² -9,5 °C -7,7 °C 0,0 km/h (0 Bft)
13.02.2018 06:34 -7,8 °C 87 % 1018,5 hPa 0,0 mm 0,0 km/h (0 Bft) S-SW 205 ° 0 min 0,000 mm 0,0 UV-I 0 W/m² -9,6 °C -7,8 °C 0,0 km/h (0 Bft)
13.02.2018 06:35 -7,8 °C 87 % 1018,5 hPa 0,0 mm 0,0 km/h (0 Bft) S-SW 205 ° 0 min 0,000 mm 0,0 UV-I 0 W/m² -9,6 °C -7,8 °C 0,0 km/h (0 Bft)
13.02.2018 06:36 -7,9 °C 87 % 1018,5 hPa 0,0 mm 0,0 km/h (0 Bft) S-SW 205 ° 0 min 0,000 mm 0,0 UV-I 0 W/m² -9,7 °C -7,9 °C 0,0 km/h (0 Bft)
13.02.2018 06:37 -7,9 °C 87 % 1018,5 hPa 0,0 mm 0,0 km/h (0 Bft) S-SW 205 ° 0 min 0,000 mm 0,0 UV-I 0 W/m² -9,7 °C -7,9 °C 0,0 km/h (0 Bft)
13.02.2018 06:38 -8,0 °C 87 % 1018,6 hPa 0,0 mm 0,0 km/h (0 Bft) S-SW 205 ° 0 min 0,000 mm 0,0 UV-I 0 W/m² -9,8 °C -8,0 °C 0,0 km/h (0 Bft)
13.02.2018 06:39 -8,0 °C 87 % 1018,6 hPa 0,0 mm 0,0 km/h (0 Bft) S-SW 205 ° 0 min 0,000 mm 0,0 UV-I 0 W/m² -9,8 °C -8,0 °C 0,0 km/h (0 Bft)
13.02.2018 06:40 -8,1 °C 88 % 1018,5 hPa 0,0 mm 0,0 km/h (0 Bft) S-SW 205 ° 0 min 0,000 mm 0,0 UV-I 0 W/m² -9,7 °C -8,1 °C 0,0 km/h (0 Bft)
13.02.2018 06:41 -8,1 °C 87 % 1018,5 hPa 0,0 mm 0,0 km/h (0 Bft) S-SW 205 ° 0 min 0,000 mm 0,0 UV-I 0 W/m² -9,9 °C -8,1 °C 0,0 km/h (0 Bft)
13.02.2018 06:42 -8,1 °C 88 % 1018,6 hPa 0,0 mm 0,0 km/h (0 Bft) S-SW 205 ° 0 min 0,000 mm 0,0 UV-I 0 W/m² -9,7 °C -8,1 °C 0,0 km/h (0 Bft)
13.02.2018 06:43 -8,2 °C 88 % 1018,6 hPa 0,0 mm 0,9 km/h (0 Bft) S-SW 205 ° 0 min 0,000 mm 0,0 UV-I 0 W/m² -9,8 °C -8,2 °C 1,6 km/h (1 Bft)
13.02.2018 06:44 -8,2 °C 88 % 1018,5 hPa 0,0 mm 2,6 km/h (1 Bft) S-SW 205 ° 0 min 0,000 mm 0,0 UV-I 0 W/m² -9,8 °C -8,2 °C 3,2 km/h (1 Bft)
13.02.2018 06:45 -8,2 °C 88 % 1018,5 hPa 0,0 mm 3,2 km/h (1 Bft) S-SW 205 ° 0 min 0,000 mm 0,0 UV-I 0 W/m² -9,8 °C -8,2 °C 4,8 km/h (1 Bft)
13.02.2018 06:46 -8,3 °C 88 % 1018,5 hPa 0,0 mm 3,6 km/h (1 Bft) S-SW 205 ° 0 min 0,000 mm 0,0 UV-I 0 W/m² -9,9 °C -8,3 °C 4,8 km/h (1 Bft)
13.02.2018 06:47 -8,3 °C 88 % 1018,5 hPa 0,0 mm 4,1 km/h (1 Bft) S-SW 205 ° 0 min 0,000 mm 0,0 UV-I 0 W/m² -9,9 °C -8,3 °C 4,8 km/h (1 Bft)
13.02.2018 06:48 -8,3 °C 88 % 1018,5 hPa 0,0 mm 3,7 km/h (1 Bft) S-SW 205 ° 0 min 0,000 mm 0,0 UV-I 0 W/m² -9,9 °C -8,3 °C 4,8 km/h (1 Bft)
13.02.2018 06:49 -8,4 °C 88 % 1018,5 hPa 0,0 mm 2,5 km/h (1 Bft) S-SW 205 ° 0 min 0,000 mm 0,0 UV-I 0 W/m² -10,0 °C -8,4 °C 3,2 km/h (1 Bft)
13.02.2018 06:50 -8,4 °C 88 % 1018,6 hPa 0,0 mm 0,9 km/h (0 Bft) S-SW 205 ° 0 min 0,000 mm 0,0 UV-I 0 W/m² -10,0 °C -8,4 °C 3,2 km/h (1 Bft)
13.02.2018 06:51 -8,4 °C 88 % 1018,6 hPa 0,0 mm 0,0 km/h (0 Bft) S-SW 205 ° 0 min 0,000 mm 0,0 UV-I 0 W/m² -10,0 °C -8,4 °C 0,0 km/h (0 Bft)
13.02.2018 06:52 -8,4 °C 88 % 1018,5 hPa 0,0 mm 0,0 km/h (0 Bft) S-SW 205 ° 0 min 0,000 mm 0,0 UV-I 0 W/m² -10,0 °C -8,4 °C 0,0 km/h (0 Bft)
13.02.2018 06:53 -8,4 °C 89 % 1018,5 hPa 0,0 mm 0,0 km/h (0 Bft) S-SW 205 ° 0 min 0,000 mm 0,0 UV-I 0 W/m² -9,9 °C -8,4 °C 0,0 km/h (0 Bft)
13.02.2018 06:54 -8,4 °C 89 % 1018,5 hPa 0,0 mm 0,0 km/h (0 Bft) S-SW 205 ° 0 min 0,000 mm 0,0 UV-I 0 W/m² -9,9 °C -8,4 °C 0,0 km/h (0 Bft)
13.02.2018 06:55 -8,4 °C 89 % 1018,6 hPa 0,0 mm 0,0 km/h (0 Bft) S-SW 205 ° 0 min 0,000 mm 0,0 UV-I 0 W/m² -9,9 °C -8,4 °C 0,0 km/h (0 Bft)
13.02.2018 06:56 -8,5 °C 89 % 1018,6 hPa 0,0 mm 0,0 km/h (0 Bft) S-SW 205 ° 0 min 0,000 mm 0,0 UV-I 0 W/m² -10,0 °C -8,5 °C 0,0 km/h (0 Bft)
13.02.2018 06:57 -8,5 °C 89 % 1018,5 hPa 0,0 mm 0,0 km/h (0 Bft) S-SW 205 ° 0 min 0,000 mm 0,0 UV-I 0 W/m² -10,0 °C -8,5 °C 0,0 km/h (0 Bft)
13.02.2018 06:58 -8,6 °C 89 % 1018,6 hPa 0,0 mm 0,0 km/h (0 Bft) S-SW 205 ° 0 min 0,000 mm 0,0 UV-I 0 W/m² -10,1 °C -8,6 °C 0,0 km/h (0 Bft)
13.02.2018 06:59 -8,6 °C 89 % 1018,6 hPa 0,0 mm 0,0 km/h (0 Bft) S-SW 205 ° 0 min 0,000 mm 0,0 UV-I 0 W/m² -10,1 °C -8,6 °C 0,0 km/h (0 Bft)
13.02.2018 07:00 -8,6 °C 89 % 1018,6 hPa 0,0 mm 0,0 km/h (0 Bft) S-SW 205 ° 0 min 0,000 mm 0,0 UV-I 0 W/m² -10,1 °C -8,6 °C 0,0 km/h (0 Bft)
13.02.2018 07:01 -8,6 °C 89 % 1018,6 hPa 0,0 mm 0,0 km/h (0 Bft) S-SW 205 ° 0 min 0,000 mm 0,0 UV-I 0 W/m² -10,1 °C -8,6 °C 0,0 km/h (0 Bft)
13.02.2018 07:02 -8,6 °C 89 % 1018,6 hPa 0,0 mm 0,0 km/h (0 Bft) S-SW 205 ° 0 min 0,000 mm 0,0 UV-I 0 W/m² -10,1 °C -8,6 °C 0,0 km/h (0 Bft)
13.02.2018 07:03 -8,6 °C 89 % 1018,6 hPa 0,0 mm 0,0 km/h (0 Bft) S-SW 205 ° 0 min 0,000 mm 0,0 UV-I 0 W/m² -10,1 °C -8,6 °C 0,0 km/h (0 Bft)
13.02.2018 07:04 -8,6 °C 89 % 1018,6 hPa 0,0 mm 0,0 km/h (0 Bft) S-SW 205 ° 0 min 0,000 mm 0,0 UV-I 0 W/m² -10,1 °C -8,6 °C 0,0 km/h (0 Bft)
13.02.2018 07:05 -8,6 °C 89 % 1018,6 hPa 0,0 mm 0,0 km/h (0 Bft) S-SW 205 ° 0 min 0,000 mm 0,0 UV-I 0 W/m² -10,1 °C -8,6 °C 0,0 km/h (0 Bft)
13.02.2018 07:06 -8,6 °C 89 % 1018,6 hPa 0,0 mm 0,0 km/h (0 Bft) S-SW 205 ° 0 min 0,000 mm 0,0 UV-I 0 W/m² -10,1 °C -8,6 °C 0,0 km/h (0 Bft)
13.02.2018 07:07 -8,7 °C 89 % 1018,5 hPa 0,0 mm 0,0 km/h (0 Bft) S-SW 205 ° 0 min 0,000 mm 0,0 UV-I 0 W/m² -10,2 °C -8,7 °C 0,0 km/h (0 Bft)
13.02.2018 07:08 -8,7 °C 89 % 1018,5 hPa 0,0 mm 0,0 km/h (0 Bft) S-SW 205 ° 0 min 0,000 mm 0,0 UV-I 0 W/m² -10,2 °C -8,7 °C 0,0 km/h (0 Bft)
13.02.2018 07:09 -8,7 °C 89 % 1018,5 hPa 0,0 mm 0,0 km/h (0 Bft) S-SW 205 ° 0 min 0,000 mm 0,0 UV-I 0 W/m² -10,2 °C -8,7 °C 0,0 km/h (0 Bft)
13.02.2018 07:10 -8,7 °C 89 % 1018,6 hPa 0,0 mm 0,0 km/h (0 Bft) S-SW 205 ° 0 min 0,000 mm 0,0 UV-I 0 W/m² -10,2 °C -8,7 °C 0,0 km/h (0 Bft)
13.02.2018 07:11 -8,7 °C 89 % 1018,5 hPa 0,0 mm 0,0 km/h (0 Bft) S-SW 205 ° 0 min 0,000 mm 0,0 UV-I 0 W/m² -10,2 °C -8,7 °C 0,0 km/h (0 Bft)
13.02.2018 07:12 -8,7 °C 89 % 1018,6 hPa 0,0 mm 0,0 km/h (0 Bft) S-SW 205 ° 0 min 0,000 mm 0,0 UV-I 0 W/m² -10,2 °C -8,7 °C 0,0 km/h (0 Bft)
13.02.2018 07:13 -8,7 °C 89 % 1018,6 hPa 0,0 mm 0,0 km/h (0 Bft) S-SW 205 ° 0 min 0,000 mm 0,0 UV-I 0 W/m² -10,2 °C -8,7 °C 0,0 km/h (0 Bft)
13.02.2018 07:14 -8,7 °C 89 % 1018,6 hPa 0,0 mm 0,9 km/h (0 Bft) S-SW 205 ° 0 min 0,000 mm 0,0 UV-I 0 W/m² -10,2 °C -8,7 °C 3,2 km/h (1 Bft)
13.02.2018 07:15 -8,7 °C 89 % 1018,5 hPa 0,0 mm 0,3 km/h (0 Bft) S-SW 205 ° 0 min 0,000 mm 0,0 UV-I 0 W/m² -10,2 °C -8,7 °C 1,6 km/h (1 Bft)
13.02.2018 07:16 -8,8 °C 89 % 1018,5 hPa 0,0 mm 0,0 km/h (0 Bft) S-SW 205 ° 0 min 0,000 mm 0,0 UV-I 0 W/m² -10,3 °C -8,8 °C 0,0 km/h (0 Bft)
13.02.2018 07:17 -8,8 °C 89 % 1018,5 hPa 0,0 mm 0,0 km/h (0 Bft) S-SW 205 ° 0 min 0,000 mm 0,0 UV-I 0 W/m² -10,3 °C -8,8 °C 0,0 km/h (0 Bft)
13.02.2018 07:18 -8,8 °C 89 % 1018,6 hPa 0,0 mm 0,0 km/h (0 Bft) S-SW 205 ° 0 min 0,000 mm 0,0 UV-I 0 W/m² -10,3 °C -8,8 °C 0,0 km/h (0 Bft)
13.02.2018 07:19 -8,8 °C 89 % 1018,6 hPa 0,0 mm 0,0 km/h (0 Bft) S-SW 205 ° 0 min 0,000 mm 0,0 UV-I 0 W/m² -10,3 °C -8,8 °C 0,0 km/h (0 Bft)
13.02.2018 07:20 -8,8 °C 89 % 1018,5 hPa 0,0 mm 0,0 km/h (0 Bft) S-SW 205 ° 0 min 0,000 mm 0,0 UV-I 0 W/m² -10,3 °C -8,8 °C 0,0 km/h (0 Bft)
13.02.2018 07:21 -8,8 °C 89 % 1018,6 hPa 0,0 mm 0,0 km/h (0 Bft) S-SW 205 ° 0 min 0,000 mm 0,0 UV-I 0 W/m² -10,3 °C -8,8 °C 0,0 km/h (0 Bft)
13.02.2018 07:22 -8,8 °C 89 % 1018,6 hPa 0,0 mm 0,0 km/h (0 Bft) S-SW 205 ° 0 min 0,000 mm 0,0 UV-I 0 W/m² -10,3 °C -8,8 °C 0,0 km/h (0 Bft)
13.02.2018 07:23 -8,8 °C 90 % 1018,6 hPa 0,0 mm 0,0 km/h (0 Bft) S-SW 205 ° 0 min 0,000 mm 0,0 UV-I 0 W/m² -10,1 °C -8,8 °C 0,0 km/h (0 Bft)
13.02.2018 07:24 -8,8 °C 90 % 1018,6 hPa 0,0 mm 0,0 km/h (0 Bft) S-SW 205 ° 0 min 0,000 mm 0,0 UV-I 0 W/m² -10,1 °C -8,8 °C 0,0 km/h (0 Bft)
13.02.2018 07:25 -8,8 °C 90 % 1018,6 hPa 0,0 mm 0,0 km/h (0 Bft) S-SW 205 ° 0 min 0,000 mm 0,0 UV-I 0 W/m² -10,1 °C -8,8 °C 0,0 km/h (0 Bft)
13.02.2018 07:26 -8,8 °C 90 % 1018,6 hPa 0,0 mm 0,0 km/h (0 Bft) S-SW 205 ° 0 min 0,000 mm 0,0 UV-I 0 W/m² -10,1 °C -8,8 °C 0,0 km/h (0 Bft)
13.02.2018 07:27 -8,7 °C 90 % 1018,6 hPa 0,0 mm 0,0 km/h (0 Bft) S-SW 205 ° 0 min 0,000 mm 0,0 UV-I 0 W/m² -10,0 °C -8,7 °C 0,0 km/h (0 Bft)
13.02.2018 07:28 -8,7 °C 90 % 1018,5 hPa 0,0 mm 0,0 km/h (0 Bft) S-SW 205 ° 0 min 0,000 mm 0,0 UV-I 0 W/m² -10,0 °C -8,7 °C 0,0 km/h (0 Bft)
13.02.2018 07:29 -8,7 °C 90 % 1018,5 hPa 0,0 mm 0,0 km/h (0 Bft) S-SW 205 ° 0 min 0,000 mm 0,0 UV-I 0 W/m² -10,0 °C -8,7 °C 0,0 km/h (0 Bft)
13.02.2018 07:30 -8,7 °C 90 % 1018,6 hPa 0,0 mm 0,0 km/h (0 Bft) S-SW 205 ° 0 min 0,000 mm 0,0 UV-I 0 W/m² -10,0 °C -8,7 °C 0,0 km/h (0 Bft)
13.02.2018 07:31 -8,7 °C 90 % 1018,6 hPa 0,0 mm 0,0 km/h (0 Bft) S-SW 205 ° 0 min 0,000 mm 0,0 UV-I 0 W/m² -10,0 °C -8,7 °C 0,0 km/h (0 Bft)
13.02.2018 07:32 -8,7 °C 90 % 1018,6 hPa 0,0 mm 0,0 km/h (0 Bft) S-SW 205 ° 0 min 0,000 mm 0,0 UV-I 0 W/m² -10,0 °C -8,7 °C 0,0 km/h (0 Bft)
13.02.2018 07:33 -8,7 °C 90 % 1018,6 hPa 0,0 mm 0,0 km/h (0 Bft) S-SW 205 ° 0 min 0,000 mm 0,0 UV-I 0 W/m² -10,0 °C -8,7 °C 0,0 km/h (0 Bft)
13.02.2018 07:34 -8,7 °C 90 % 1018,6 hPa 0,0 mm 0,0 km/h (0 Bft) S-SW 205 ° 0 min 0,000 mm 0,0 UV-I 0 W/m² -10,0 °C -8,7 °C 0,0 km/h (0 Bft)
13.02.2018 07:35 -8,7 °C 90 % 1018,6 hPa 0,0 mm 0,0 km/h (0 Bft) S-SW 205 ° 0 min 0,000 mm 0,0 UV-I 0 W/m² -10,0 °C -8,7 °C 0,0 km/h (0 Bft)
13.02.2018 07:36 -8,6 °C 90 % 1018,6 hPa 0,0 mm 0,0 km/h (0 Bft) S-SW 205 ° 0 min 0,000 mm 0,0 UV-I 0 W/m² -9,9 °C -8,6 °C 0,0 km/h (0 Bft)
13.02.2018 07:37 -8,6 °C 90 % 1018,6 hPa 0,0 mm 0,0 km/h (0 Bft) S-SW 205 ° 0 min 0,000 mm 0,0 UV-I 0 W/m² -9,9 °C -8,6 °C 0,0 km/h (0 Bft)
13.02.2018 07:38 -8,6 °C 90 % 1018,6 hPa 0,0 mm 0,0 km/h (0 Bft) S-SW 205 ° 0 min 0,000 mm 0,0 UV-I 0 W/m² -9,9 °C -8,6 °C 0,0 km/h (0 Bft)
13.02.2018 07:39 -8,6 °C 90 % 1018,6 hPa 0,0 mm 0,0 km/h (0 Bft) S-SW 205 ° 0 min 0,000 mm 0,0 UV-I 0 W/m² -9,9 °C -8,6 °C 0,0 km/h (0 Bft)
13.02.2018 07:40 -8,6 °C 90 % 1018,7 hPa 0,0 mm 0,0 km/h (0 Bft) S-SW 205 ° 0 min 0,000 mm 0,0 UV-I 0 W/m² -9,9 °C -8,6 °C 0,0 km/h (0 Bft)
13.02.2018 07:41 -8,6 °C 90 % 1018,7 hPa 0,0 mm 0,1 km/h (0 Bft) S-SW 205 ° 0 min 0,000 mm 0,0 UV-I 0 W/m² -9,9 °C -8,6 °C 1,6 km/h (1 Bft)
13.02.2018 07:42 -8,6 °C 90 % 1018,7 hPa 0,0 mm 0,0 km/h (0 Bft) S-SW 205 ° 0 min 0,000 mm 0,0 UV-I 0 W/m² -9,9 °C -8,6 °C 0,0 km/h (0 Bft)
13.02.2018 07:43 -8,6 °C 90 % 1018,7 hPa 0,0 mm 0,0 km/h (0 Bft) S-SW 205 ° 0 min 0,000 mm 0,0 UV-I 5 W/m² -9,9 °C -8,6 °C 0,0 km/h (0 Bft)
13.02.2018 07:44 -8,6 °C 90 % 1018,7 hPa 0,0 mm 0,0 km/h (0 Bft) S-SW 205 ° 0 min 0,000 mm 0,0 UV-I 5 W/m² -9,9 °C -8,6 °C 0,0 km/h (0 Bft)
13.02.2018 07:45 -8,6 °C 90 % 1018,7 hPa 0,0 mm 0,0 km/h (0 Bft) S-SW 205 ° 0 min 0,000 mm 0,0 UV-I 5 W/m² -9,9 °C -8,6 °C 0,0 km/h (0 Bft)
13.02.2018 07:46 -8,6 °C 90 % 1018,7 hPa 0,0 mm 0,0 km/h (0 Bft) S-SW 205 ° 0 min 0,000 mm 0,0 UV-I 5 W/m² -9,9 °C -8,6 °C 0,0 km/h (0 Bft)
13.02.2018 07:47 -8,6 °C 90 % 1018,8 hPa 0,0 mm 0,0 km/h (0 Bft) S-SW 205 ° 0 min 0,000 mm 0,0 UV-I 5 W/m² -9,9 °C -8,6 °C 0,0 km/h (0 Bft)
13.02.2018 07:48 -8,6 °C 90 % 1018,8 hPa 0,0 mm 0,0 km/h (0 Bft) S-SW 205 ° 0 min 0,000 mm 0,0 UV-I 5 W/m² -9,9 °C -8,6 °C 0,0 km/h (0 Bft)
13.02.2018 07:49 -8,6 °C 90 % 1018,7 hPa 0,0 mm 0,0 km/h (0 Bft) S-SW 205 ° 0 min 0,000 mm 0,0 UV-I 5 W/m² -9,9 °C -8,6 °C 0,0 km/h (0 Bft)
13.02.2018 07:50 -8,6 °C 90 % 1018,8 hPa 0,0 mm 0,0 km/h (0 Bft) S-SW 205 ° 0 min 0,000 mm 0,0 UV-I 5 W/m² -9,9 °C -8,6 °C 0,0 km/h (0 Bft)
13.02.2018 07:51 -8,7 °C 90 % 1018,8 hPa 0,0 mm 0,3 km/h (0 Bft) S-SW 205 ° 0 min 0,000 mm 0,0 UV-I 5 W/m² -10,0 °C -8,7 °C 1,6 km/h (1 Bft)
13.02.2018 07:52 -8,7 °C 90 % 1018,7 hPa 0,0 mm 1,3 km/h (1 Bft) S-SW 205 ° 0 min 0,000 mm 0,0 UV-I 5 W/m² -10,0 °C -8,7 °C 3,2 km/h (1 Bft)
13.02.2018 07:53 -8,7 °C 90 % 1018,8 hPa 0,0 mm 0,0 km/h (0 Bft) S-SW 205 ° 0 min 0,000 mm 0,0 UV-I 7 W/m² -10,0 °C -8,7 °C 0,0 km/h (0 Bft)
13.02.2018 07:54 -8,7 °C 90 % 1018,8 hPa 0,0 mm 0,9 km/h (0 Bft) S-SW 205 ° 0 min 0,000 mm 0,0 UV-I 7 W/m² -10,0 °C -8,7 °C 3,2 km/h (1 Bft)
13.02.2018 07:55 -8,7 °C 90 % 1018,8 hPa 0,0 mm 1,0 km/h (0 Bft) S-SW 205 ° 0 min 0,000 mm 0,0 UV-I 9 W/m² -10,0 °C -8,7 °C 3,2 km/h (1 Bft)
13.02.2018 07:56 -8,7 °C 90 % 1018,8 hPa 0,0 mm 0,1 km/h (0 Bft) S-SW 205 ° 0 min 0,000 mm 0,0 UV-I 9 W/m² -10,0 °C -8,7 °C 1,6 km/h (1 Bft)
13.02.2018 07:57 -8,7 °C 90 % 1018,7 hPa 0,0 mm 0,3 km/h (0 Bft) S-SW 205 ° 0 min 0,000 mm 0,0 UV-I 9 W/m² -10,0 °C -8,7 °C 1,6 km/h (1 Bft)
13.02.2018 07:58 -8,7 °C 90 % 1018,8 hPa 0,0 mm 0,0 km/h (0 Bft) S-SW 205 ° 0 min 0,000 mm 0,0 UV-I 9 W/m² -10,0 °C -8,7 °C 0,0 km/h (0 Bft)
13.02.2018 07:59 -8,7 °C 90 % 1018,7 hPa 0,0 mm 0,0 km/h (0 Bft) S-SW 205 ° 0 min 0,000 mm 0,0 UV-I 9 W/m² -10,0 °C -8,7 °C 0,0 km/h (0 Bft)
13.02.2018 08:00 -8,7 °C 90 % 1018,7 hPa 0,0 mm 0,0 km/h (0 Bft) S-SW 205 ° 0 min 0,000 mm 0,0 UV-I 9 W/m² -10,0 °C -8,7 °C 0,0 km/h (0 Bft)
13.02.2018 08:01 -8,7 °C 90 % 1018,7 hPa 0,0 mm 0,0 km/h (0 Bft) S-SW 205 ° 0 min 0,000 mm 0,0 UV-I 9 W/m² -10,0 °C -8,7 °C 0,0 km/h (0 Bft)
13.02.2018 08:02 -8,7 °C 90 % 1018,7 hPa 0,0 mm 0,0 km/h (0 Bft) S-SW 205 ° 0 min 0,000 mm 0,0 UV-I 9 W/m² -10,0 °C -8,7 °C 0,0 km/h (0 Bft)
13.02.2018 08:03 -8,7 °C 90 % 1018,8 hPa 0,0 mm 0,0 km/h (0 Bft) S-SW 205 ° 0 min 0,000 mm 0,0 UV-I 9 W/m² -10,0 °C -8,7 °C 0,0 km/h (0 Bft)
13.02.2018 08:04 -8,7 °C 90 % 1018,8 hPa 0,0 mm 0,0 km/h (0 Bft) S-SW 205 ° 0 min 0,000 mm 0,0 UV-I 11 W/m² -10,0 °C -8,7 °C 0,0 km/h (0 Bft)
13.02.2018 08:05 -8,7 °C 90 % 1018,8 hPa 0,0 mm 0,0 km/h (0 Bft) S-SW 205 ° 0 min 0,000 mm 0,0 UV-I 11 W/m² -10,0 °C -8,7 °C 0,0 km/h (0 Bft)
13.02.2018 08:06 -8,7 °C 90 % 1018,8 hPa 0,0 mm 0,0 km/h (0 Bft) S-SW 205 ° 0 min 0,000 mm 0,0 UV-I 11 W/m² -10,0 °C -8,7 °C 0,0 km/h (0 Bft)
13.02.2018 08:07 -8,7 °C 90 % 1018,8 hPa 0,0 mm 0,0 km/h (0 Bft) S-SW 205 ° 0 min 0,000 mm 0,0 UV-I 11 W/m² -10,0 °C -8,7 °C 0,0 km/h (0 Bft)
13.02.2018 08:08 -8,6 °C 90 % 1018,8 hPa 0,0 mm 0,0 km/h (0 Bft) S-SW 205 ° 0 min 0,000 mm 0,0 UV-I 11 W/m² -9,9 °C -8,6 °C 0,0 km/h (0 Bft)
13.02.2018 08:09 -8,7 °C 90 % 1018,9 hPa 0,0 mm 0,0 km/h (0 Bft) S-SW 205 ° 0 min 0,000 mm 0,0 UV-I 11 W/m² -10,0 °C -8,7 °C 0,0 km/h (0 Bft)
13.02.2018 08:10 -8,7 °C 90 % 1018,8 hPa 0,0 mm 0,0 km/h (0 Bft) S-SW 205 ° 0 min 0,000 mm 0,0 UV-I 11 W/m² -10,0 °C -8,7 °C 0,0 km/h (0 Bft)
13.02.2018 08:11 -8,7 °C 90 % 1018,9 hPa 0,0 mm 0,0 km/h (0 Bft) S-SW 205 ° 0 min 0,000 mm 0,0 UV-I 11 W/m² -10,0 °C -8,7 °C 0,0 km/h (0 Bft)
13.02.2018 08:12 -8,7 °C 90 % 1018,9 hPa 0,0 mm 0,0 km/h (0 Bft) S-SW 205 ° 0 min 0,000 mm 0,0 UV-I 11 W/m² -10,0 °C -8,7 °C 0,0 km/h (0 Bft)
13.02.2018 08:13 -8,7 °C 90 % 1018,9 hPa 0,0 mm 0,0 km/h (0 Bft) S-SW 205 ° 0 min 0,000 mm 0,0 UV-I 11 W/m² -10,0 °C -8,7 °C 0,0 km/h (0 Bft)
13.02.2018 08:14 -8,7 °C 90 % 1018,9 hPa 0,0 mm 0,0 km/h (0 Bft) S-SW 205 ° 0 min 0,000 mm 0,0 UV-I 11 W/m² -10,0 °C -8,7 °C 0,0 km/h (0 Bft)
13.02.2018 08:15 -8,7 °C 90 % 1018,9 hPa 0,0 mm 0,0 km/h (0 Bft) S-SW 205 ° 0 min 0,000 mm 0,0 UV-I 11 W/m² -10,0 °C -8,7 °C 0,0 km/h (0 Bft)
13.02.2018 08:16 -8,7 °C 90 % 1018,9 hPa 0,0 mm 0,0 km/h (0 Bft) S-SW 205 ° 0 min 0,000 mm 0,0 UV-I 11 W/m² -10,0 °C -8,7 °C 0,0 km/h (0 Bft)
13.02.2018 08:17 -8,7 °C 90 % 1018,9 hPa 0,0 mm 0,0 km/h (0 Bft) S-SW 205 ° 0 min 0,000 mm 0,0 UV-I 11 W/m² -10,0 °C -8,7 °C 0,0 km/h (0 Bft)
13.02.2018 08:18 -8,7 °C 90 % 1018,9 hPa 0,0 mm 0,0 km/h (0 Bft) S-SW 205 ° 0 min 0,000 mm 0,0 UV-I 11 W/m² -10,0 °C -8,7 °C 0,0 km/h (0 Bft)
13.02.2018 08:19 -8,7 °C 90 % 1018,9 hPa 0,0 mm 0,0 km/h (0 Bft) S-SW 205 ° 0 min 0,000 mm 0,0 UV-I 12 W/m² -10,0 °C -8,7 °C 0,0 km/h (0 Bft)
13.02.2018 08:20 -8,7 °C 90 % 1018,9 hPa 0,0 mm 0,0 km/h (0 Bft) S-SW 205 ° 0 min 0,000 mm 0,0 UV-I 12 W/m² -10,0 °C -8,7 °C 0,0 km/h (0 Bft)
13.02.2018 08:21 -8,7 °C 90 % 1018,9 hPa 0,0 mm 0,0 km/h (0 Bft) S-SW 205 ° 0 min 0,000 mm 0,0 UV-I 12 W/m² -10,0 °C -8,7 °C 0,0 km/h (0 Bft)
13.02.2018 08:22 -8,7 °C 90 % 1018,8 hPa 0,0 mm 0,0 km/h (0 Bft) S-SW 205 ° 0 min 0,000 mm 0,0 UV-I 12 W/m² -10,0 °C -8,7 °C 0,0 km/h (0 Bft)
13.02.2018 08:23 -8,7 °C 90 % 1018,9 hPa 0,0 mm 0,0 km/h (0 Bft) S-SW 205 ° 0 min 0,000 mm 0,0 UV-I 12 W/m² -10,0 °C -8,7 °C 0,0 km/h (0 Bft)
13.02.2018 08:24 -8,7 °C 90 % 1018,8 hPa 0,0 mm 0,0 km/h (0 Bft) S-SW 205 ° 0 min 0,000 mm 0,0 UV-I 12 W/m² -10,0 °C -8,7 °C 0,0 km/h (0 Bft)
13.02.2018 08:25 -8,7 °C 90 % 1018,8 hPa 0,0 mm 0,0 km/h (0 Bft) S-SW 205 ° 0 min 0,000 mm 0,0 UV-I 12 W/m² -10,0 °C -8,7 °C 0,0 km/h (0 Bft)
13.02.2018 08:26 -8,7 °C 90 % 1018,8 hPa 0,0 mm 0,0 km/h (0 Bft) S-SW 205 ° 0 min 0,000 mm 0,0 UV-I 12 W/m² -10,0 °C -8,7 °C 0,0 km/h (0 Bft)
13.02.2018 08:27 -8,7 °C 90 % 1018,8 hPa 0,0 mm 0,0 km/h (0 Bft) S-SW 205 ° 0 min 0,000 mm 0,0 UV-I 12 W/m² -10,0 °C -8,7 °C 0,0 km/h (0 Bft)
13.02.2018 08:28 -8,7 °C 90 % 1018,8 hPa 0,0 mm 0,0 km/h (0 Bft) S-SW 205 ° 0 min 0,000 mm 0,0 UV-I 14 W/m² -10,0 °C -8,7 °C 0,0 km/h (0 Bft)
13.02.2018 08:29 -8,7 °C 90 % 1018,8 hPa 0,0 mm 0,0 km/h (0 Bft) S-SW 205 ° 0 min 0,000 mm 0,0 UV-I 14 W/m² -10,0 °C -8,7 °C 0,0 km/h (0 Bft)
13.02.2018 08:30 -8,7 °C 90 % 1018,8 hPa 0,0 mm 0,0 km/h (0 Bft) S-SW 205 ° 0 min 0,000 mm 0,0 UV-I 14 W/m² -10,0 °C -8,7 °C 0,0 km/h (0 Bft)
13.02.2018 08:31 -8,7 °C 90 % 1018,8 hPa 0,0 mm 0,0 km/h (0 Bft) S-SW 205 ° 0 min 0,000 mm 0,0 UV-I 16 W/m² -10,0 °C -8,7 °C 0,0 km/h (0 Bft)
13.02.2018 08:32 -8,6 °C 90 % 1018,8 hPa 0,0 mm 0,0 km/h (0 Bft) S-SW 205 ° 0 min 0,000 mm 0,0 UV-I 18 W/m² -9,9 °C -8,6 °C 0,0 km/h (0 Bft)
13.02.2018 08:33 -8,6 °C 90 % 1018,8 hPa 0,0 mm 0,0 km/h (0 Bft) S-SW 205 ° 0 min 0,000 mm 0,0 UV-I 19 W/m² -9,9 °C -8,6 °C 0,0 km/h (0 Bft)
13.02.2018 08:34 -8,6 °C 90 % 1018,8 hPa 0,0 mm 0,0 km/h (0 Bft) S-SW 205 ° 0 min 0,000 mm 0,0 UV-I 19 W/m² -9,9 °C -8,6 °C 0,0 km/h (0 Bft)
13.02.2018 08:35 -8,6 °C 90 % 1018,8 hPa 0,0 mm 0,0 km/h (0 Bft) S-SW 205 ° 0 min 0,000 mm 0,0 UV-I 19 W/m² -9,9 °C -8,6 °C 0,0 km/h (0 Bft)
13.02.2018 08:36 -8,6 °C 90 % 1018,8 hPa 0,0 mm 0,0 km/h (0 Bft) S-SW 205 ° 0 min 0,000 mm 0,0 UV-I 21 W/m² -9,9 °C -8,6 °C 0,0 km/h (0 Bft)
13.02.2018 08:37 -8,6 °C 90 % 1018,7 hPa 0,0 mm 0,0 km/h (0 Bft) S-SW 205 ° 0 min 0,000 mm 0,0 UV-I 21 W/m² -9,9 °C -8,6 °C 0,0 km/h (0 Bft)
13.02.2018 08:38 -8,6 °C 90 % 1018,8 hPa 0,0 mm 0,0 km/h (0 Bft) S-SW 205 ° 0 min 0,000 mm 0,0 UV-I 21 W/m² -9,9 °C -8,6 °C 0,0 km/h (0 Bft)
13.02.2018 08:39 -8,6 °C 90 % 1018,8 hPa 0,0 mm 0,0 km/h (0 Bft) S-SW 205 ° 0 min 0,000 mm 0,0 UV-I 21 W/m² -9,9 °C -8,6 °C 0,0 km/h (0 Bft)
13.02.2018 08:40 -8,6 °C 90 % 1018,8 hPa 0,0 mm 0,0 km/h (0 Bft) S-SW 205 ° 0 min 0,000 mm 0,0 UV-I 21 W/m² -9,9 °C -8,6 °C 0,0 km/h (0 Bft)
13.02.2018 08:41 -8,5 °C 90 % 1018,7 hPa 0,0 mm 0,0 km/h (0 Bft) S-SW 205 ° 0 min 0,000 mm 0,0 UV-I 21 W/m² -9,8 °C -8,5 °C 0,0 km/h (0 Bft)
13.02.2018 08:42 -8,4 °C 91 % 1018,7 hPa 0,0 mm 0,0 km/h (0 Bft) S-SW 205 ° 0 min 0,000 mm 0,0 UV-I 23 W/m² -9,6 °C -8,4 °C 0,0 km/h (0 Bft)
13.02.2018 08:43 -8,4 °C 90 % 1018,7 hPa 0,0 mm 0,0 km/h (0 Bft) S-SW 205 ° 0 min 0,000 mm 0,0 UV-I 23 W/m² -9,7 °C -8,4 °C 0,0 km/h (0 Bft)
13.02.2018 08:44 -8,4 °C 91 % 1018,7 hPa 0,0 mm 0,0 km/h (0 Bft) S-SW 205 ° 0 min 0,000 mm 0,0 UV-I 25 W/m² -9,6 °C -8,4 °C 0,0 km/h (0 Bft)
13.02.2018 08:45 -8,4 °C 91 % 1018,7 hPa 0,0 mm 0,0 km/h (0 Bft) S-SW 205 ° 0 min 0,000 mm 0,0 UV-I 25 W/m² -9,6 °C -8,4 °C 0,0 km/h (0 Bft)
13.02.2018 08:46 -8,4 °C 91 % 1018,7 hPa 0,0 mm 0,0 km/h (0 Bft) S-SW 205 ° 0 min 0,000 mm 0,0 UV-I 25 W/m² -9,6 °C -8,4 °C 0,0 km/h (0 Bft)
13.02.2018 08:47 -8,4 °C 91 % 1018,7 hPa 0,0 mm 0,1 km/h (0 Bft) S-SW 205 ° 0 min 0,000 mm 0,0 UV-I 25 W/m² -9,6 °C -8,4 °C 1,6 km/h (1 Bft)
13.02.2018 08:48 -8,3 °C 91 % 1018,7 hPa 0,0 mm 0,0 km/h (0 Bft) S-SW 205 ° 0 min 0,000 mm 0,0 UV-I 26 W/m² -9,5 °C -8,3 °C 0,0 km/h (0 Bft)
13.02.2018 08:49 -8,3 °C 91 % 1018,7 hPa 0,0 mm 0,0 km/h (0 Bft) S-SW 205 ° 0 min 0,000 mm 0,0 UV-I 28 W/m² -9,5 °C -8,3 °C 0,0 km/h (0 Bft)
13.02.2018 08:50 -8,3 °C 91 % 1018,7 hPa 0,0 mm 0,0 km/h (0 Bft) S-SW 205 ° 0 min 0,000 mm 0,0 UV-I 30 W/m² -9,5 °C -8,3 °C 0,0 km/h (0 Bft)
13.02.2018 08:51 -8,2 °C 91 % 1018,8 hPa 0,0 mm 0,0 km/h (0 Bft) S-SW 205 ° 0 min 0,000 mm 0,0 UV-I 33 W/m² -9,4 °C -8,2 °C 0,0 km/h (0 Bft)
13.02.2018 08:52 -8,2 °C 91 % 1018,7 hPa 0,0 mm 0,0 km/h (0 Bft) S-SW 205 ° 0 min 0,000 mm 0,0 UV-I 37 W/m² -9,4 °C -8,2 °C 0,0 km/h (0 Bft)
13.02.2018 08:53 -8,2 °C 91 % 1018,7 hPa 0,0 mm 0,1 km/h (0 Bft) S-SW 205 ° 0 min 0,000 mm 0,0 UV-I 42 W/m² -9,4 °C -8,2 °C 1,6 km/h (1 Bft)
13.02.2018 08:54 -8,1 °C 91 % 1018,7 hPa 0,0 mm 0,0 km/h (0 Bft) S-SW 205 ° 0 min 0,000 mm 0,0 UV-I 51 W/m² -9,3 °C -8,1 °C 0,0 km/h (0 Bft)
13.02.2018 08:55 -8,1 °C 91 % 1018,7 hPa 0,0 mm 0,1 km/h (0 Bft) S-SW 205 ° 0 min 0,000 mm 0,0 UV-I 54 W/m² -9,3 °C -8,1 °C 1,6 km/h (1 Bft)
13.02.2018 08:56 -8,0 °C 91 % 1018,6 hPa 0,0 mm 0,1 km/h (0 Bft) S-SW 205 ° 0 min 0,000 mm 0,0 UV-I 58 W/m² -9,2 °C -8,0 °C 1,6 km/h (1 Bft)
13.02.2018 08:57 -7,9 °C 91 % 1018,6 hPa 0,0 mm 0,0 km/h (0 Bft) S-SW 205 ° 0 min 0,000 mm 0,0 UV-I 62 W/m² -9,1 °C -7,9 °C 0,0 km/h (0 Bft)
13.02.2018 08:58 -7,9 °C 91 % 1018,7 hPa 0,0 mm 0,0 km/h (0 Bft) S-SW 205 ° 0 min 0,000 mm 0,0 UV-I 67 W/m² -9,1 °C -7,9 °C 0,0 km/h (0 Bft)
13.02.2018 08:59 -7,8 °C 91 % 1018,6 hPa 0,0 mm 0,2 km/h (0 Bft) S-SW 205 ° 0 min 0,000 mm 0,0 UV-I 72 W/m² -9,0 °C -7,8 °C 1,6 km/h (1 Bft)
13.02.2018 09:00 -7,7 °C 91 % 1018,6 hPa 0,0 mm 0,8 km/h (0 Bft) S-SW 205 ° 0 min 0,000 mm 0,0 UV-I 76 W/m² -8,9 °C -7,7 °C 1,6 km/h (1 Bft)
13.02.2018 09:01 -7,7 °C 91 % 1018,6 hPa 0,0 mm 0,0 km/h (0 Bft) S-SW 205 ° 0 min 0,000 mm 0,0 UV-I 70 W/m² -8,9 °C -7,7 °C 0,0 km/h (0 Bft)
13.02.2018 09:02 -7,6 °C 92 % 1018,5 hPa 0,0 mm 0,0 km/h (0 Bft) S-SW 205 ° 0 min 0,000 mm 0,0 UV-I 67 W/m² -8,7 °C -7,6 °C 0,0 km/h (0 Bft)
13.02.2018 09:03 -7,5 °C 92 % 1018,6 hPa 0,0 mm 0,0 km/h (0 Bft) S-SW 205 ° 0 min 0,000 mm 0,0 UV-I 65 W/m² -8,6 °C -7,5 °C 0,0 km/h (0 Bft)
13.02.2018 09:04 -7,4 °C 91 % 1018,5 hPa 0,0 mm 0,0 km/h (0 Bft) S-SW 205 ° 0 min 0,000 mm 0,0 UV-I 69 W/m² -8,6 °C -7,4 °C 0,0 km/h (0 Bft)
13.02.2018 09:05 -7,4 °C 91 % 1018,6 hPa 0,0 mm 0,1 km/h (0 Bft) S-SW 205 ° 0 min 0,000 mm 0,0 UV-I 76 W/m² -8,6 °C -7,4 °C 1,6 km/h (1 Bft)
13.02.2018 09:06 -7,4 °C 91 % 1018,5 hPa 0,0 mm 0,0 km/h (0 Bft) S-SW 205 ° 0 min 0,000 mm 0,0 UV-I 70 W/m² -8,6 °C -7,4 °C 0,0 km/h (0 Bft)
13.02.2018 09:07 -7,3 °C 91 % 1018,6 hPa 0,0 mm 0,0 km/h (0 Bft) S-SW 205 ° 0 min 0,000 mm 0,0 UV-I 65 W/m² -8,5 °C -7,3 °C 0,0 km/h (0 Bft)
13.02.2018 09:08 -7,3 °C 91 % 1018,5 hPa 0,0 mm 0,0 km/h (0 Bft) S-SW 205 ° 0 min 0,000 mm 0,0 UV-I 56 W/m² -8,5 °C -7,3 °C 0,0 km/h (0 Bft)
13.02.2018 09:09 -7,3 °C 92 % 1018,5 hPa 0,0 mm 0,0 km/h (0 Bft) S-SW 205 ° 0 min 0,000 mm 0,0 UV-I 47 W/m² -8,4 °C -7,3 °C 0,0 km/h (0 Bft)
13.02.2018 09:10 -7,2 °C 92 % 1018,5 hPa 0,0 mm 0,0 km/h (0 Bft) S-SW 205 ° 0 min 0,000 mm 0,0 UV-I 39 W/m² -8,3 °C -7,2 °C 0,0 km/h (0 Bft)
13.02.2018 09:11 -7,2 °C 91 % 1018,6 hPa 0,0 mm 0,0 km/h (0 Bft) S-SW 205 ° 0 min 0,000 mm 0,0 UV-I 33 W/m² -8,4 °C -7,2 °C 0,0 km/h (0 Bft)
13.02.2018 09:12 -7,2 °C 91 % 1018,6 hPa 0,0 mm 0,0 km/h (0 Bft) S-SW 205 ° 0 min 0,000 mm 0,0 UV-I 26 W/m² -8,4 °C -7,2 °C 0,0 km/h (0 Bft)
13.02.2018 09:13 -7,1 °C 91 % 1018,6 hPa 0,0 mm 0,0 km/h (0 Bft) S-SW 205 ° 0 min 0,000 mm 0,0 UV-I 26 W/m² -8,3 °C -7,1 °C 0,0 km/h (0 Bft)
13.02.2018 09:14 -7,1 °C 91 % 1018,6 hPa 0,0 mm 0,0 km/h (0 Bft) S-SW 205 ° 0 min 0,000 mm 0,0 UV-I 25 W/m² -8,3 °C -7,1 °C 0,0 km/h (0 Bft)
13.02.2018 09:15 -7,1 °C 91 % 1018,6 hPa 0,0 mm 0,0 km/h (0 Bft) S-SW 205 ° 0 min 0,000 mm 0,0 UV-I 25 W/m² -8,3 °C -7,1 °C 0,0 km/h (0 Bft)
13.02.2018 09:16 -7,1 °C 92 % 1018,6 hPa 0,0 mm 0,0 km/h (0 Bft) S-SW 205 ° 0 min 0,000 mm 0,0 UV-I 25 W/m² -8,2 °C -7,1 °C 0,0 km/h (0 Bft)
13.02.2018 09:17 -7,1 °C 91 % 1018,6 hPa 0,0 mm 0,0 km/h (0 Bft) S-SW 205 ° 0 min 0,000 mm 0,0 UV-I 26 W/m² -8,3 °C -7,1 °C 0,0 km/h (0 Bft)
13.02.2018 09:18 -7,0 °C 91 % 1018,6 hPa 0,0 mm 0,0 km/h (0 Bft) S-SW 205 ° 0 min 0,000 mm 0,0 UV-I 26 W/m² -8,2 °C -7,0 °C 0,0 km/h (0 Bft)
13.02.2018 09:19 -6,9 °C 91 % 1018,6 hPa 0,0 mm 0,0 km/h (0 Bft) S-SW 205 ° 0 min 0,000 mm 0,0 UV-I 25 W/m² -8,1 °C -6,9 °C 0,0 km/h (0 Bft)
13.02.2018 09:20 -6,9 °C 91 % 1018,6 hPa 0,0 mm 0,0 km/h (0 Bft) S-SW 205 ° 0 min 0,000 mm 0,0 UV-I 25 W/m² -8,1 °C -6,9 °C 0,0 km/h (0 Bft)
13.02.2018 09:21 -6,9 °C 91 % 1018,6 hPa 0,0 mm 0,0 km/h (0 Bft) S-SW 205 ° 0 min 0,000 mm 0,0 UV-I 25 W/m² -8,1 °C -6,9 °C 0,0 km/h (0 Bft)
13.02.2018 09:22 -6,9 °C 91 % 1018,6 hPa 0,0 mm 0,0 km/h (0 Bft) S-SW 205 ° 0 min 0,000 mm 0,0 UV-I 23 W/m² -8,1 °C -6,9 °C 0,0 km/h (0 Bft)
13.02.2018 09:23 -6,9 °C 91 % 1018,6 hPa 0,0 mm 0,0 km/h (0 Bft) S-SW 205 ° 0 min 0,000 mm 0,0 UV-I 23 W/m² -8,1 °C -6,9 °C 0,0 km/h (0 Bft)
13.02.2018 09:24 -6,9 °C 91 % 1018,5 hPa 0,0 mm 0,0 km/h (0 Bft) S-SW 205 ° 0 min 0,000 mm 0,0 UV-I 21 W/m² -8,1 °C -6,9 °C 0,0 km/h (0 Bft)
13.02.2018 09:25 -6,9 °C 91 % 1018,5 hPa 0,0 mm 0,0 km/h (0 Bft) S-SW 205 ° 0 min 0,000 mm 0,0 UV-I 23 W/m² -8,1 °C -6,9 °C 0,0 km/h (0 Bft)
13.02.2018 09:26 -6,9 °C 91 % 1018,6 hPa 0,0 mm 0,0 km/h (0 Bft) S-SW 205 ° 0 min 0,000 mm 0,0 UV-I 23 W/m² -8,1 °C -6,9 °C 0,0 km/h (0 Bft)
13.02.2018 09:27 -6,9 °C 91 % 1018,6 hPa 0,0 mm 0,0 km/h (0 Bft) S-SW 205 ° 0 min 0,000 mm 0,0 UV-I 23 W/m² -8,1 °C -6,9 °C 0,0 km/h (0 Bft)
13.02.2018 09:28 -6,9 °C 90 % 1018,6 hPa 0,0 mm 0,0 km/h (0 Bft) S-SW 205 ° 0 min 0,000 mm 0,0 UV-I 23 W/m² -8,3 °C -6,9 °C 0,0 km/h (0 Bft)
13.02.2018 09:29 -6,9 °C 90 % 1018,6 hPa 0,0 mm 0,0 km/h (0 Bft) S-SW 205 ° 0 min 0,000 mm 0,0 UV-I 25 W/m² -8,3 °C -6,9 °C 0,0 km/h (0 Bft)
13.02.2018 09:30 -6,9 °C 90 % 1018,6 hPa 0,0 mm 0,0 km/h (0 Bft) S-SW 205 ° 0 min 0,000 mm 0,0 UV-I 26 W/m² -8,3 °C -6,9 °C 0,0 km/h (0 Bft)
13.02.2018 09:31 -6,9 °C 90 % 1018,6 hPa 0,0 mm 0,0 km/h (0 Bft) S-SW 205 ° 0 min 0,000 mm 0,0 UV-I 28 W/m² -8,3 °C -6,9 °C 0,0 km/h (0 Bft)
13.02.2018 09:32 -6,9 °C 90 % 1018,6 hPa 0,0 mm 0,0 km/h (0 Bft) S-SW 205 ° 0 min 0,000 mm 0,0 UV-I 30 W/m² -8,3 °C -6,9 °C 0,0 km/h (0 Bft)
13.02.2018 09:33 -6,9 °C 90 % 1018,6 hPa 0,0 mm 0,0 km/h (0 Bft) S-SW 205 ° 0 min 0,000 mm 0,0 UV-I 28 W/m² -8,3 °C -6,9 °C 0,0 km/h (0 Bft)
13.02.2018 09:34 -6,9 °C 90 % 1018,6 hPa 0,0 mm 0,0 km/h (0 Bft) S-SW 205 ° 0 min 0,000 mm 0,0 UV-I 25 W/m² -8,3 °C -6,9 °C 0,0 km/h (0 Bft)
13.02.2018 09:35 -6,9 °C 90 % 1018,6 hPa 0,0 mm 0,0 km/h (0 Bft) S-SW 205 ° 0 min 0,000 mm 0,0 UV-I 21 W/m² -8,3 °C -6,9 °C 0,0 km/h (0 Bft)
13.02.2018 09:36 -6,9 °C 90 % 1018,5 hPa 0,0 mm 0,0 km/h (0 Bft) S-SW 205 ° 0 min 0,000 mm 0,0 UV-I 21 W/m² -8,3 °C -6,9 °C 0,0 km/h (0 Bft)
13.02.2018 09:37 -6,9 °C 89 % 1018,5 hPa 0,0 mm 0,0 km/h (0 Bft) S-SW 205 ° 0 min 0,000 mm 0,0 UV-I 21 W/m² -8,4 °C -6,9 °C 0,0 km/h (0 Bft)
13.02.2018 09:38 -6,9 °C 89 % 1018,5 hPa 0,0 mm 0,0 km/h (0 Bft) S-SW 205 ° 0 min 0,000 mm 0,0 UV-I 23 W/m² -8,4 °C -6,9 °C 0,0 km/h (0 Bft)
13.02.2018 09:39 -6,9 °C 89 % 1018,5 hPa 0,0 mm 0,0 km/h (0 Bft) S-SW 205 ° 0 min 0,000 mm 0,0 UV-I 25 W/m² -8,4 °C -6,9 °C 0,0 km/h (0 Bft)
13.02.2018 09:40 -6,9 °C 89 % 1018,5 hPa 0,0 mm 0,0 km/h (0 Bft) S-SW 205 ° 0 min 0,000 mm 0,0 UV-I 23 W/m² -8,4 °C -6,9 °C 0,0 km/h (0 Bft)
13.02.2018 09:41 -6,9 °C 89 % 1018,4 hPa 0,0 mm 0,0 km/h (0 Bft) S-SW 205 ° 0 min 0,000 mm 0,0 UV-I 25 W/m² -8,4 °C -6,9 °C 0,0 km/h (0 Bft)
13.02.2018 09:42 -6,9 °C 89 % 1018,5 hPa 0,0 mm 0,0 km/h (0 Bft) S-SW 205 ° 0 min 0,000 mm 0,0 UV-I 26 W/m² -8,4 °C -6,9 °C 0,0 km/h (0 Bft)
13.02.2018 09:43 -6,9 °C 89 % 1018,5 hPa 0,0 mm 0,0 km/h (0 Bft) S-SW 205 ° 0 min 0,000 mm 0,0 UV-I 28 W/m² -8,4 °C -6,9 °C 0,0 km/h (0 Bft)
13.02.2018 09:44 -6,9 °C 89 % 1018,5 hPa 0,0 mm 0,0 km/h (0 Bft) S-SW 205 ° 0 min 0,000 mm 0,0 UV-I 26 W/m² -8,4 °C -6,9 °C 0,0 km/h (0 Bft)
13.02.2018 09:45 -6,9 °C 89 % 1018,5 hPa 0,0 mm 0,0 km/h (0 Bft) S-SW 205 ° 0 min 0,000 mm 0,0 UV-I 25 W/m² -8,4 °C -6,9 °C 0,0 km/h (0 Bft)
13.02.2018 09:46 -6,9 °C 89 % 1018,5 hPa 0,0 mm 0,0 km/h (0 Bft) S-SW 205 ° 0 min 0,000 mm 0,0 UV-I 23 W/m² -8,4 °C -6,9 °C 0,0 km/h (0 Bft)
13.02.2018 09:47 -6,9 °C 89 % 1018,5 hPa 0,0 mm 0,0 km/h (0 Bft) S-SW 205 ° 0 min 0,000 mm 0,0 UV-I 21 W/m² -8,4 °C -6,9 °C 0,0 km/h (0 Bft)
13.02.2018 09:48 -6,9 °C 89 % 1018,4 hPa 0,0 mm 0,0 km/h (0 Bft) S-SW 205 ° 0 min 0,000 mm 0,0 UV-I 21 W/m² -8,4 °C -6,9 °C 0,0 km/h (0 Bft)
13.02.2018 09:49 -6,9 °C 89 % 1018,4 hPa 0,0 mm 0,0 km/h (0 Bft) S-SW 205 ° 0 min 0,000 mm 0,0 UV-I 21 W/m² -8,4 °C -6,9 °C 0,0 km/h (0 Bft)
13.02.2018 09:50 -6,9 °C 88 % 1018,4 hPa 0,0 mm 0,0 km/h (0 Bft) S-SW 205 ° 0 min 0,000 mm 0,0 UV-I 21 W/m² -8,5 °C -6,9 °C 0,0 km/h (0 Bft)
13.02.2018 09:51 -6,9 °C 89 % 1018,4 hPa 0,0 mm 0,0 km/h (0 Bft) S-SW 205 ° 0 min 0,000 mm 0,0 UV-I 21 W/m² -8,4 °C -6,9 °C 0,0 km/h (0 Bft)
13.02.2018 09:52 -6,9 °C 89 % 1018,3 hPa 0,0 mm 0,0 km/h (0 Bft) S-SW 205 ° 0 min 0,000 mm 0,0 UV-I 21 W/m² -8,4 °C -6,9 °C 0,0 km/h (0 Bft)
13.02.2018 09:53 -6,9 °C 88 % 1018,3 hPa 0,0 mm 0,0 km/h (0 Bft) S-SW 205 ° 0 min 0,000 mm 0,0 UV-I 21 W/m² -8,5 °C -6,9 °C 0,0 km/h (0 Bft)
13.02.2018 09:54 -6,9 °C 88 % 1018,2 hPa 0,0 mm 0,0 km/h (0 Bft) S-SW 205 ° 0 min 0,000 mm 0,0 UV-I 21 W/m² -8,5 °C -6,9 °C 0,0 km/h (0 Bft)
13.02.2018 09:55 -6,9 °C 88 % 1018,3 hPa 0,0 mm 0,0 km/h (0 Bft) S-SW 205 ° 0 min 0,000 mm 0,0 UV-I 21 W/m² -8,5 °C -6,9 °C 0,0 km/h (0 Bft)
13.02.2018 09:56 -6,9 °C 88 % 1018,3 hPa 0,0 mm 0,0 km/h (0 Bft) S-SW 205 ° 0 min 0,000 mm 0,0 UV-I 21 W/m² -8,5 °C -6,9 °C 0,0 km/h (0 Bft)
13.02.2018 09:57 -6,9 °C 88 % 1018,3 hPa 0,0 mm 0,0 km/h (0 Bft) S-SW 205 ° 0 min 0,000 mm 0,0 UV-I 21 W/m² -8,5 °C -6,9 °C 0,0 km/h (0 Bft)
13.02.2018 09:58 -6,9 °C 88 % 1018,2 hPa 0,0 mm 0,0 km/h (0 Bft) S-SW 205 ° 0 min 0,000 mm 0,0 UV-I 21 W/m² -8,5 °C -6,9 °C 0,0 km/h (0 Bft)
13.02.2018 09:59 -6,9 °C 88 % 1018,3 hPa 0,0 mm 0,0 km/h (0 Bft) S-SW 205 ° 0 min 0,000 mm 0,0 UV-I 21 W/m² -8,5 °C -6,9 °C 0,0 km/h (0 Bft)
13.02.2018 10:00 -6,9 °C 88 % 1018,2 hPa 0,0 mm 0,0 km/h (0 Bft) S-SW 205 ° 0 min 0,000 mm 0,0 UV-I 21 W/m² -8,5 °C -6,9 °C 0,0 km/h (0 Bft)
13.02.2018 10:01 -6,9 °C 88 % 1018,2 hPa 0,0 mm 0,0 km/h (0 Bft) S-SW 205 ° 0 min 0,000 mm 0,0 UV-I 21 W/m² -8,5 °C -6,9 °C 0,0 km/h (0 Bft)
13.02.2018 10:02 -6,9 °C 88 % 1018,3 hPa 0,0 mm 0,0 km/h (0 Bft) S-SW 205 ° 0 min 0,000 mm 0,0 UV-I 21 W/m² -8,5 °C -6,9 °C 0,0 km/h (0 Bft)
13.02.2018 10:03 -6,9 °C 88 % 1018,3 hPa 0,0 mm 0,0 km/h (0 Bft) S-SW 205 ° 0 min 0,000 mm 0,0 UV-I 21 W/m² -8,5 °C -6,9 °C 0,0 km/h (0 Bft)
13.02.2018 10:04 -6,9 °C 88 % 1018,3 hPa 0,0 mm 0,0 km/h (0 Bft) S-SW 205 ° 0 min 0,000 mm 0,0 UV-I 23 W/m² -8,5 °C -6,9 °C 0,0 km/h (0 Bft)
13.02.2018 10:05 -6,9 °C 88 % 1018,2 hPa 0,0 mm 0,0 km/h (0 Bft) S-SW 205 ° 0 min 0,000 mm 0,0 UV-I 23 W/m² -8,5 °C -6,9 °C 0,0 km/h (0 Bft)
13.02.2018 10:06 -6,9 °C 88 % 1018,2 hPa 0,0 mm 0,0 km/h (0 Bft) S-SW 205 ° 0 min 0,000 mm 0,0 UV-I 23 W/m² -8,5 °C -6,9 °C 0,0 km/h (0 Bft)
13.02.2018 10:07 -6,9 °C 88 % 1018,2 hPa 0,0 mm 0,0 km/h (0 Bft) S-SW 205 ° 0 min 0,000 mm 0,0 UV-I 23 W/m² -8,5 °C -6,9 °C 0,0 km/h (0 Bft)
13.02.2018 10:08 -6,9 °C 88 % 1018,2 hPa 0,0 mm 0,0 km/h (0 Bft) S-SW 205 ° 0 min 0,000 mm 0,0 UV-I 25 W/m² -8,5 °C -6,9 °C 0,0 km/h (0 Bft)
13.02.2018 10:09 -6,9 °C 88 % 1018,2 hPa 0,0 mm 0,0 km/h (0 Bft) S-SW 205 ° 0 min 0,000 mm 0,0 UV-I 25 W/m² -8,5 °C -6,9 °C 0,0 km/h (0 Bft)
13.02.2018 10:10 -6,9 °C 88 % 1018,1 hPa 0,0 mm 0,0 km/h (0 Bft) S-SW 205 ° 0 min 0,000 mm 0,0 UV-I 28 W/m² -8,5 °C -6,9 °C 0,0 km/h (0 Bft)
13.02.2018 10:11 -6,9 °C 88 % 1018,1 hPa 0,0 mm 0,0 km/h (0 Bft) S-SW 205 ° 0 min 0,000 mm 0,0 UV-I 28 W/m² -8,5 °C -6,9 °C 0,0 km/h (0 Bft)
13.02.2018 10:12 -6,9 °C 88 % 1018,1 hPa 0,0 mm 0,0 km/h (0 Bft) S-SW 205 ° 0 min 0,000 mm 0,0 UV-I 26 W/m² -8,5 °C -6,9 °C 0,0 km/h (0 Bft)
13.02.2018 10:13 -6,9 °C 88 % 1018,0 hPa 0,0 mm 0,0 km/h (0 Bft) S-SW 205 ° 0 min 0,000 mm 0,0 UV-I 26 W/m² -8,5 °C -6,9 °C 0,0 km/h (0 Bft)
13.02.2018 10:14 -6,9 °C 88 % 1018,1 hPa 0,0 mm 0,0 km/h (0 Bft) S-SW 205 ° 0 min 0,000 mm 0,0 UV-I 26 W/m² -8,5 °C -6,9 °C 0,0 km/h (0 Bft)
13.02.2018 10:15 -6,8 °C 88 % 1018,1 hPa 0,0 mm 0,0 km/h (0 Bft) S-SW 205 ° 0 min 0,000 mm 0,0 UV-I 26 W/m² -8,4 °C -6,8 °C 0,0 km/h (0 Bft)
13.02.2018 10:16 -6,8 °C 88 % 1018,1 hPa 0,0 mm 0,0 km/h (0 Bft) S-SW 205 ° 0 min 0,000 mm 0,0 UV-I 28 W/m² -8,4 °C -6,8 °C 0,0 km/h (0 Bft)
13.02.2018 10:17 -6,8 °C 88 % 1018,1 hPa 0,0 mm 0,0 km/h (0 Bft) S-SW 205 ° 0 min 0,000 mm 0,0 UV-I 30 W/m² -8,4 °C -6,8 °C 0,0 km/h (0 Bft)
13.02.2018 10:18 -6,8 °C 88 % 1018,1 hPa 0,0 mm 0,0 km/h (0 Bft) S-SW 205 ° 0 min 0,000 mm 0,0 UV-I 30 W/m² -8,4 °C -6,8 °C 0,0 km/h (0 Bft)
13.02.2018 10:19 -6,8 °C 88 % 1018,1 hPa 0,0 mm 0,0 km/h (0 Bft) S-SW 205 ° 0 min 0,000 mm 0,0 UV-I 30 W/m² -8,4 °C -6,8 °C 0,0 km/h (0 Bft)
13.02.2018 10:20 -6,8 °C 88 % 1018,1 hPa 0,0 mm 1,1 km/h (1 Bft) S-SW 205 ° 0 min 0,000 mm 0,0 UV-I 32 W/m² -8,4 °C -6,8 °C 1,6 km/h (1 Bft)
13.02.2018 10:21 -6,7 °C 88 % 1018,1 hPa 0,0 mm 0,9 km/h (0 Bft) S-SW 205 ° 0 min 0,000 mm 0,0 UV-I 32 W/m² -8,3 °C -6,7 °C 1,6 km/h (1 Bft)
13.02.2018 10:22 -6,7 °C 88 % 1018,0 hPa 0,0 mm 0,0 km/h (0 Bft) S-SW 205 ° 0 min 0,000 mm 0,0 UV-I 33 W/m² -8,3 °C -6,7 °C 0,0 km/h (0 Bft)
13.02.2018 10:23 -6,7 °C 88 % 1018,1 hPa 0,0 mm 0,0 km/h (0 Bft) S-SW 205 ° 0 min 0,000 mm 0,0 UV-I 39 W/m² -8,3 °C -6,7 °C 0,0 km/h (0 Bft)
13.02.2018 10:24 -6,7 °C 88 % 1018,1 hPa 0,0 mm 0,0 km/h (0 Bft) S-SW 205 ° 0 min 0,000 mm 0,0 UV-I 44 W/m² -8,3 °C -6,7 °C 0,0 km/h (0 Bft)
13.02.2018 10:25 -6,7 °C 88 % 1018,0 hPa 0,0 mm 0,0 km/h (0 Bft) S-SW 205 ° 0 min 0,000 mm 0,0 UV-I 42 W/m² -8,3 °C -6,7 °C 0,0 km/h (0 Bft)
13.02.2018 10:26 -6,6 °C 88 % 1018,0 hPa 0,0 mm 0,0 km/h (0 Bft) S-SW 205 ° 0 min 0,000 mm 0,0 UV-I 42 W/m² -8,2 °C -6,6 °C 0,0 km/h (0 Bft)
13.02.2018 10:27 -6,6 °C 88 % 1018,0 hPa 0,0 mm 0,0 km/h (0 Bft) S-SW 205 ° 0 min 0,000 mm 0,0 UV-I 42 W/m² -8,2 °C -6,6 °C 0,0 km/h (0 Bft)
13.02.2018 10:28 -6,6 °C 88 % 1018,0 hPa 0,0 mm 0,0 km/h (0 Bft) S-SW 205 ° 0 min 0,000 mm 0,0 UV-I 32 W/m² -8,2 °C -6,6 °C 0,0 km/h (0 Bft)
13.02.2018 10:29 -6,6 °C 88 % 1018,0 hPa 0,0 mm 0,0 km/h (0 Bft) S-SW 205 ° 0 min 0,000 mm 0,0 UV-I 32 W/m² -8,2 °C -6,6 °C 0,0 km/h (0 Bft)
13.02.2018 10:30 -6,6 °C 89 % 1018,0 hPa 0,0 mm 0,0 km/h (0 Bft) S-SW 205 ° 0 min 0,000 mm 0,0 UV-I 35 W/m² -8,1 °C -6,6 °C 0,0 km/h (0 Bft)
13.02.2018 10:31 -6,5 °C 89 % 1018,0 hPa 0,0 mm 0,0 km/h (0 Bft) S-SW 205 ° 0 min 0,000 mm 0,0 UV-I 35 W/m² -8,0 °C -6,5 °C 0,0 km/h (0 Bft)
13.02.2018 10:32 -6,4 °C 89 % 1018,0 hPa 0,0 mm 0,0 km/h (0 Bft) S-SW 205 ° 0 min 0,000 mm 0,0 UV-I 37 W/m² -7,9 °C -6,4 °C 0,0 km/h (0 Bft)
13.02.2018 10:33 -6,4 °C 89 % 1018,0 hPa 0,0 mm 0,0 km/h (0 Bft) S-SW 205 ° 0 min 0,000 mm 0,0 UV-I 37 W/m² -7,9 °C -6,4 °C 0,0 km/h (0 Bft)
13.02.2018 10:34 -6,4 °C 89 % 1018,0 hPa 0,0 mm 0,0 km/h (0 Bft) S-SW 205 ° 0 min 0,000 mm 0,0 UV-I 32 W/m² -7,9 °C -6,4 °C 0,0 km/h (0 Bft)
13.02.2018 10:35 -6,4 °C 89 % 1017,9 hPa 0,0 mm 0,0 km/h (0 Bft) S-SW 205 ° 0 min 0,000 mm 0,0 UV-I 33 W/m² -7,9 °C -6,4 °C 0,0 km/h (0 Bft)
13.02.2018 10:36 -6,3 °C 89 % 1017,9 hPa 0,0 mm 0,0 km/h (0 Bft) S-SW 205 ° 0 min 0,000 mm 0,0 UV-I 33 W/m² -7,8 °C -6,3 °C 0,0 km/h (0 Bft)
13.02.2018 10:37 -6,3 °C 89 % 1017,9 hPa 0,0 mm 0,0 km/h (0 Bft) S-SW 205 ° 0 min 0,000 mm 0,0 UV-I 32 W/m² -7,8 °C -6,3 °C 0,0 km/h (0 Bft)
13.02.2018 10:38 -6,3 °C 89 % 1017,8 hPa 0,0 mm 0,0 km/h (0 Bft) S-SW 205 ° 0 min 0,000 mm 0,0 UV-I 30 W/m² -7,8 °C -6,3 °C 0,0 km/h (0 Bft)
13.02.2018 10:39 -6,3 °C 89 % 1017,8 hPa 0,0 mm 0,0 km/h (0 Bft) S-SW 205 ° 0 min 0,000 mm 0,0 UV-I 28 W/m² -7,8 °C -6,3 °C 0,0 km/h (0 Bft)
13.02.2018 10:40 -6,2 °C 89 % 1017,8 hPa 0,0 mm 0,0 km/h (0 Bft) S-SW 205 ° 0 min 0,000 mm 0,0 UV-I 26 W/m² -7,7 °C -6,2 °C 0,0 km/h (0 Bft)
13.02.2018 10:41 -6,2 °C 89 % 1017,7 hPa 0,0 mm 0,0 km/h (0 Bft) S-SW 205 ° 0 min 0,000 mm 0,0 UV-I 26 W/m² -7,7 °C -6,2 °C 0,0 km/h (0 Bft)
13.02.2018 10:42 -6,2 °C 89 % 1017,7 hPa 0,0 mm 0,0 km/h (0 Bft) S-SW 205 ° 0 min 0,000 mm 0,0 UV-I 26 W/m² -7,7 °C -6,2 °C 0,0 km/h (0 Bft)
13.02.2018 10:43 -6,2 °C 89 % 1017,7 hPa 0,0 mm 0,6 km/h (0 Bft) S-SW 205 ° 0 min 0,000 mm 0,0 UV-I 28 W/m² -7,7 °C -6,2 °C 1,6 km/h (1 Bft)
13.02.2018 10:44 -6,1 °C 89 % 1017,7 hPa 0,0 mm 0,4 km/h (0 Bft) S-SW 205 ° 0 min 0,000 mm 0,0 UV-I 28 W/m² -7,6 °C -6,1 °C 1,6 km/h (1 Bft)
13.02.2018 10:45 -6,1 °C 89 % 1017,6 hPa 0,0 mm 2,0 km/h (1 Bft) O 85 ° 0 min 0,000 mm 0,0 UV-I 30 W/m² -7,6 °C -6,1 °C 3,2 km/h (1 Bft)
13.02.2018 10:46 -5,9 °C 89 % 1017,6 hPa 0,0 mm 4,4 km/h (1 Bft) O-NO 67 ° 0 min 0,000 mm 0,0 UV-I 30 W/m² -7,4 °C -5,9 °C 8,0 km/h (2 Bft)
13.02.2018 10:47 -5,9 °C 89 % 1017,6 hPa 0,0 mm 6,4 km/h (2 Bft) O 90 ° 0 min 0,000 mm 0,0 UV-I 30 W/m² -7,4 °C -9,0 °C 9,7 km/h (2 Bft)
13.02.2018 10:48 -5,8 °C 90 % 1017,6 hPa 0,0 mm 2,0 km/h (1 Bft) O 90 ° 0 min 0,000 mm 0,0 UV-I 30 W/m² -7,2 °C -5,8 °C 4,8 km/h (1 Bft)
13.02.2018 10:49 -5,8 °C 90 % 1017,6 hPa 0,0 mm 3,0 km/h (1 Bft) NO 45 ° 0 min 0,000 mm 0,0 UV-I 32 W/m² -7,2 °C -5,8 °C 4,8 km/h (1 Bft)
13.02.2018 10:50 -5,7 °C 90 % 1017,6 hPa 0,0 mm 4,8 km/h (1 Bft) O-NO 61 ° 0 min 0,000 mm 0,0 UV-I 32 W/m² -7,1 °C -7,9 °C 6,4 km/h (2 Bft)
13.02.2018 10:51 -5,7 °C 90 % 1017,6 hPa 0,0 mm 2,0 km/h (1 Bft) O-NO 62 ° 0 min 0,000 mm 0,0 UV-I 35 W/m² -7,1 °C -5,7 °C 3,2 km/h (1 Bft)
13.02.2018 10:52 -5,6 °C 89 % 1017,6 hPa 0,0 mm 3,8 km/h (1 Bft) SO 133 ° 0 min 0,000 mm 0,0 UV-I 33 W/m² -7,1 °C -5,6 °C 6,4 km/h (2 Bft)
13.02.2018 10:53 -5,6 °C 89 % 1017,5 hPa 0,0 mm 4,2 km/h (1 Bft) O-NO 70 ° 0 min 0,000 mm 0,0 UV-I 30 W/m² -7,1 °C -5,6 °C 8,0 km/h (2 Bft)
13.02.2018 10:54 -5,5 °C 89 % 1017,6 hPa 0,0 mm 2,7 km/h (1 Bft) O-NO 70 ° 0 min 0,000 mm 0,0 UV-I 28 W/m² -7,0 °C -5,5 °C 4,8 km/h (1 Bft)
13.02.2018 10:55 -5,4 °C 90 % 1017,6 hPa 0,0 mm 2,8 km/h (1 Bft) SO 128 ° 0 min 0,000 mm 0,0 UV-I 30 W/m² -6,8 °C -5,4 °C 6,4 km/h (2 Bft)
13.02.2018 10:56 -5,4 °C 89 % 1017,5 hPa 0,0 mm 1,0 km/h (0 Bft) O 80 ° 0 min 0,000 mm 0,0 UV-I 30 W/m² -6,9 °C -5,4 °C 4,8 km/h (1 Bft)
13.02.2018 10:57 -5,3 °C 89 % 1017,5 hPa 0,0 mm 3,6 km/h (1 Bft) O-NO 75 ° 0 min 0,000 mm 0,0 UV-I 28 W/m² -6,8 °C -5,3 °C 4,8 km/h (1 Bft)
13.02.2018 10:58 -5,3 °C 89 % 1017,4 hPa 0,0 mm 5,4 km/h (1 Bft) O-NO 78 ° 0 min 0,000 mm 0,0 UV-I 28 W/m² -6,8 °C -7,8 °C 11,3 km/h (2 Bft)
13.02.2018 10:59 -5,2 °C 89 % 1017,4 hPa 0,0 mm 3,4 km/h (1 Bft) O-NO 66 ° 0 min 0,000 mm 0,0 UV-I 28 W/m² -6,7 °C -5,2 °C 6,4 km/h (2 Bft)
13.02.2018 11:00 -5,2 °C 89 % 1017,4 hPa 0,0 mm 2,7 km/h (1 Bft) O-NO 66 ° 0 min 0,000 mm 0,0 UV-I 28 W/m² -6,7 °C -5,2 °C 4,8 km/h (1 Bft)
13.02.2018 11:01 -5,1 °C 89 % 1017,5 hPa 0,0 mm 3,7 km/h (1 Bft) O-NO 58 ° 0 min 0,000 mm 0,0 UV-I 30 W/m² -6,6 °C -5,1 °C 8,0 km/h (2 Bft)
13.02.2018 11:02 -5,1 °C 89 % 1017,4 hPa 0,0 mm 6,4 km/h (2 Bft) NO 54 ° 0 min 0,000 mm 0,0 UV-I 32 W/m² -6,6 °C -8,1 °C 9,7 km/h (2 Bft)
13.02.2018 11:03 -5,0 °C 89 % 1017,5 hPa 0,0 mm 6,0 km/h (2 Bft) O-NO 76 ° 0 min 0,000 mm 0,0 UV-I 47 W/m² -6,5 °C -7,8 °C 9,7 km/h (2 Bft)
13.02.2018 11:04 -4,9 °C 88 % 1017,5 hPa 0,0 mm 4,6 km/h (1 Bft) O-NO 70 ° 0 min 0,000 mm 0,6 UV-I 72 W/m² -6,6 °C -6,9 °C 6,4 km/h (2 Bft)
13.02.2018 11:05 -4,9 °C 88 % 1017,4 hPa 0,0 mm 4,8 km/h (1 Bft) O-NO 61 ° 0 min 0,000 mm 0,6 UV-I 72 W/m² -6,6 °C -7,0 °C 6,4 km/h (2 Bft)
13.02.2018 11:06 -4,8 °C 88 % 1017,4 hPa 0,0 mm 4,3 km/h (1 Bft) O-NO 63 ° 0 min 0,000 mm 0,6 UV-I 139 W/m² -6,5 °C -4,8 °C 8,0 km/h (2 Bft)
13.02.2018 11:07 -4,8 °C 87 % 1017,5 hPa 0,0 mm 6,4 km/h (2 Bft) O 82 ° 0 min 0,000 mm 0,7 UV-I 162 W/m² -6,6 °C -7,7 °C 11,3 km/h (2 Bft)
13.02.2018 11:08 -4,8 °C 87 % 1017,4 hPa 0,0 mm 5,0 km/h (1 Bft) O-NO 69 ° 0 min 0,000 mm 0,7 UV-I 141 W/m² -6,6 °C -7,0 °C 6,4 km/h (2 Bft)
13.02.2018 11:09 -4,7 °C 87 % 1017,4 hPa 0,0 mm 3,8 km/h (1 Bft) O 101 ° 0 min 0,000 mm 0,7 UV-I 169 W/m² -6,5 °C -4,7 °C 4,8 km/h (1 Bft)
13.02.2018 11:10 -4,7 °C 86 % 1017,4 hPa 0,0 mm 3,1 km/h (1 Bft) O-SO 119 ° 0 min 0,000 mm 0,6 UV-I 74 W/m² -6,7 °C -4,7 °C 4,8 km/h (1 Bft)
13.02.2018 11:11 -4,6 °C 86 % 1017,4 hPa 0,0 mm 0,4 km/h (0 Bft) O 90 ° 0 min 0,000 mm 0,7 UV-I 74 W/m² -6,6 °C -4,6 °C 1,6 km/h (1 Bft)
13.02.2018 11:12 -4,6 °C 85 % 1017,3 hPa 0,0 mm 2,3 km/h (1 Bft) O 90 ° 0 min 0,000 mm 0,7 UV-I 207 W/m² -6,7 °C -4,6 °C 3,2 km/h (1 Bft)
13.02.2018 11:13 -4,6 °C 85 % 1017,3 hPa 0,0 mm 5,2 km/h (1 Bft) O-SO 109 ° 0 min 0,000 mm 0,7 UV-I 207 W/m² -6,7 °C -6,9 °C 8,0 km/h (2 Bft)
13.02.2018 11:14 -4,5 °C 85 % 1017,3 hPa 0,0 mm 3,1 km/h (1 Bft) O-NO 72 ° 0 min 0,000 mm 0,7 UV-I 142 W/m² -6,6 °C -4,5 °C 4,8 km/h (1 Bft)
13.02.2018 11:15 -4,5 °C 85 % 1017,3 hPa 0,0 mm 4,6 km/h (1 Bft) O-NO 59 ° 0 min 0,000 mm 0,6 UV-I 40 W/m² -6,6 °C -6,5 °C 9,7 km/h (2 Bft)
13.02.2018 11:16 -4,4 °C 85 % 1017,3 hPa 0,0 mm 8,4 km/h (2 Bft) NO 49 ° 0 min 0,000 mm 0,0 UV-I 37 W/m² -6,5 °C -8,0 °C 12,9 km/h (3 Bft)
13.02.2018 11:17 -4,4 °C 84 % 1017,3 hPa 0,0 mm 8,5 km/h (2 Bft) O-NO 78 ° 0 min 0,000 mm 0,0 UV-I 35 W/m² -6,7 °C -8,1 °C 12,9 km/h (3 Bft)
13.02.2018 11:18 -4,4 °C 84 % 1017,2 hPa 0,0 mm 3,9 km/h (1 Bft) O-SO 106 ° 0 min 0,000 mm 0,0 UV-I 35 W/m² -6,7 °C -4,4 °C 6,4 km/h (2 Bft)
13.02.2018 11:19 -4,3 °C 84 % 1017,2 hPa 0,0 mm 4,5 km/h (1 Bft) O-SO 115 ° 0 min 0,000 mm 0,0 UV-I 46 W/m² -6,6 °C -4,3 °C 6,4 km/h (2 Bft)
13.02.2018 11:20 -4,3 °C 84 % 1017,2 hPa 0,0 mm 2,1 km/h (1 Bft) O-SO 115 ° 0 min 0,000 mm 0,0 UV-I 39 W/m² -6,6 °C -4,3 °C 3,2 km/h (1 Bft)
13.02.2018 11:21 -4,3 °C 84 % 1017,2 hPa 0,0 mm 4,3 km/h (1 Bft) SO 139 ° 0 min 0,000 mm 0,0 UV-I 42 W/m² -6,6 °C -4,3 °C 16,1 km/h (3 Bft)
13.02.2018 11:22 -4,2 °C 84 % 1017,3 hPa 0,0 mm 6,6 km/h (2 Bft) O 88 ° 0 min 0,000 mm 0,0 UV-I 53 W/m² -6,5 °C -7,1 °C 12,9 km/h (3 Bft)
13.02.2018 11:23 -4,2 °C 84 % 1017,2 hPa 0,0 mm 2,8 km/h (1 Bft) O-NO 63 ° 0 min 0,000 mm 0,0 UV-I 46 W/m² -6,5 °C -4,2 °C 4,8 km/h (1 Bft)
13.02.2018 11:24 -4,2 °C 84 % 1017,2 hPa 0,0 mm 0,6 km/h (0 Bft) O-NO 63 ° 0 min 0,000 mm 0,6 UV-I 60 W/m² -6,5 °C -4,2 °C 1,6 km/h (1 Bft)
13.02.2018 11:25 -4,2 °C 84 % 1017,2 hPa 0,0 mm 1,8 km/h (1 Bft) O-NO 63 ° 0 min 0,000 mm 0,0 UV-I 42 W/m² -6,5 °C -4,2 °C 3,2 km/h (1 Bft)
13.02.2018 11:26 -4,1 °C 84 % 1017,2 hPa 0,0 mm 4,7 km/h (1 Bft) O-NO 76 ° 0 min 0,000 mm 0,0 UV-I 63 W/m² -6,4 °C -6,1 °C 8,0 km/h (2 Bft)
13.02.2018 11:27 -4,1 °C 84 % 1017,2 hPa 0,0 mm 6,6 km/h (2 Bft) O 80 ° 0 min 0,000 mm 0,6 UV-I 84 W/m² -6,4 °C -7,0 °C 11,3 km/h (2 Bft)
13.02.2018 11:28 -4,1 °C 83 % 1017,1 hPa 0,0 mm 5,6 km/h (1 Bft) NO 53 ° 0 min 0,000 mm 0,6 UV-I 93 W/m² -6,5 °C -6,5 °C 8,0 km/h (2 Bft)
13.02.2018 11:29 -4,1 °C 84 % 1017,1 hPa 0,0 mm 4,4 km/h (1 Bft) O-NO 62 ° 0 min 0,000 mm 0,7 UV-I 93 W/m² -6,4 °C -4,1 °C 6,4 km/h (2 Bft)
13.02.2018 11:30 -4,0 °C 83 % 1017,1 hPa 0,0 mm 5,9 km/h (2 Bft) NO 55 ° 0 min 0,000 mm 0,7 UV-I 104 W/m² -6,4 °C -6,6 °C 9,7 km/h (2 Bft)
13.02.2018 11:31 -3,9 °C 83 % 1017,1 hPa 0,0 mm 8,3 km/h (2 Bft) O-NO 62 ° 0 min 0,000 mm 0,6 UV-I 79 W/m² -6,4 °C -7,4 °C 12,9 km/h (3 Bft)
13.02.2018 11:32 -3,9 °C 83 % 1017,0 hPa 0,0 mm 7,4 km/h (2 Bft) O-NO 69 ° 0 min 0,000 mm 0,6 UV-I 95 W/m² -6,4 °C -7,1 °C 11,3 km/h (2 Bft)
13.02.2018 11:33 -3,9 °C 83 % 1017,0 hPa 0,0 mm 5,6 km/h (1 Bft) O-NO 59 ° 0 min 0,000 mm 0,6 UV-I 90 W/m² -6,4 °C -6,3 °C 9,7 km/h (2 Bft)
13.02.2018 11:34 -3,8 °C 83 % 1017,0 hPa 0,0 mm 7,1 km/h (2 Bft) O-NO 71 ° 0 min 0,000 mm 0,6 UV-I 86 W/m² -6,3 °C -6,9 °C 14,5 km/h (3 Bft)
13.02.2018 11:35 -3,8 °C 83 % 1017,0 hPa 0,0 mm 5,1 km/h (1 Bft) O 95 ° 0 min 0,000 mm 0,6 UV-I 91 W/m² -6,3 °C -6,0 °C 8,0 km/h (2 Bft)
13.02.2018 11:36 -3,8 °C 83 % 1016,9 hPa 0,0 mm 2,5 km/h (1 Bft) O 97 ° 0 min 0,000 mm 0,7 UV-I 100 W/m² -6,3 °C -3,8 °C 9,7 km/h (2 Bft)
13.02.2018 11:37 -3,7 °C 83 % 1017,0 hPa 0,0 mm 6,7 km/h (2 Bft) NO 55 ° 0 min 0,000 mm 0,7 UV-I 93 W/m² -6,2 °C -6,6 °C 11,3 km/h (2 Bft)
13.02.2018 11:38 -3,7 °C 83 % 1016,9 hPa 0,0 mm 9,9 km/h (2 Bft) O 82 ° 0 min 0,000 mm 0,7 UV-I 77 W/m² -6,2 °C -7,7 °C 14,5 km/h (3 Bft)
13.02.2018 11:39 -3,7 °C 83 % 1017,0 hPa 0,0 mm 5,2 km/h (1 Bft) O 80 ° 0 min 0,000 mm 0,7 UV-I 88 W/m² -6,2 °C -5,9 °C 9,7 km/h (2 Bft)
13.02.2018 11:40 -3,6 °C 83 % 1016,9 hPa 0,0 mm 6,5 km/h (2 Bft) NO 49 ° 0 min 0,000 mm 0,7 UV-I 111 W/m² -6,1 °C -6,4 °C 14,5 km/h (3 Bft)
13.02.2018 11:41 -3,6 °C 83 % 1016,9 hPa 0,0 mm 7,6 km/h (2 Bft) O-NO 65 ° 0 min 0,000 mm 0,7 UV-I 120 W/m² -6,1 °C -6,8 °C 12,9 km/h (3 Bft)
13.02.2018 11:42 -3,5 °C 83 % 1016,8 hPa 0,0 mm 7,6 km/h (2 Bft) O-NO 78 ° 0 min 0,000 mm 0,8 UV-I 156 W/m² -6,0 °C -6,7 °C 14,5 km/h (3 Bft)
13.02.2018 11:43 -3,4 °C 83 % 1016,9 hPa 0,0 mm 3,4 km/h (1 Bft) O 92 ° 0 min 0,000 mm 0,8 UV-I 169 W/m² -5,9 °C -3,4 °C 4,8 km/h (1 Bft)
13.02.2018 11:44 -3,4 °C 82 % 1016,8 hPa 0,0 mm 7,4 km/h (2 Bft) N-NO 28 ° 0 min 0,000 mm 0,8 UV-I 271 W/m² -6,0 °C -6,5 °C 11,3 km/h (2 Bft)
13.02.2018 11:45 -3,3 °C 82 % 1016,8 hPa 0,0 mm 3,6 km/h (1 Bft) NO 49 ° 0 min 0,000 mm 0,9 UV-I 272 W/m² -5,9 °C -3,3 °C 6,4 km/h (2 Bft)
13.02.2018 11:46 -3,3 °C 82 % 1016,8 hPa 0,0 mm 6,2 km/h (2 Bft) NO 44 ° 0 min 0,000 mm 0,8 UV-I 272 W/m² -5,9 °C -5,9 °C 11,3 km/h (2 Bft)
13.02.2018 11:47 -3,2 °C 82 % 1016,8 hPa 0,0 mm 7,8 km/h (2 Bft) NO 51 ° 0 min 0,000 mm 0,7 UV-I 77 W/m² -5,8 °C -6,4 °C 14,5 km/h (3 Bft)
13.02.2018 11:48 -3,2 °C 82 % 1016,8 hPa 0,0 mm 8,4 km/h (2 Bft) NO 38 ° 0 min 0,000 mm 0,7 UV-I 77 W/m² -5,8 °C -6,6 °C 11,3 km/h (2 Bft)
13.02.2018 11:49 -3,1 °C 81 % 1016,8 hPa 0,0 mm 8,0 km/h (2 Bft) N 11 ° 0 min 0,000 mm 0,7 UV-I 70 W/m² -5,9 °C -6,4 °C 12,9 km/h (3 Bft)
13.02.2018 11:50 -3,1 °C 81 % 1016,7 hPa 0,0 mm 5,8 km/h (2 Bft) O-NO 57 ° 0 min 0,000 mm 0,7 UV-I 67 W/m² -5,9 °C -5,5 °C 8,0 km/h (2 Bft)
13.02.2018 11:51 -3,1 °C 81 % 1016,7 hPa 0,0 mm 6,5 km/h (2 Bft) N-NO 28 ° 0 min 0,000 mm 0,7 UV-I 65 W/m² -5,9 °C -5,8 °C 9,7 km/h (2 Bft)
13.02.2018 11:52 -3,1 °C 81 % 1016,7 hPa 0,0 mm 3,4 km/h (1 Bft) NO 38 ° 0 min 0,000 mm 0,7 UV-I 69 W/m² -5,9 °C -3,1 °C 6,4 km/h (2 Bft)
13.02.2018 11:53 -3,1 °C 81 % 1016,6 hPa 0,0 mm 5,6 km/h (1 Bft) O 86 ° 0 min 0,000 mm 0,7 UV-I 86 W/m² -5,9 °C -5,4 °C 8,0 km/h (2 Bft)
13.02.2018 11:54 -3,1 °C 81 % 1016,7 hPa 0,0 mm 8,6 km/h (2 Bft) O 95 ° 0 min 0,000 mm 0,7 UV-I 98 W/m² -5,9 °C -6,6 °C 12,9 km/h (3 Bft)
13.02.2018 11:55 -3,1 °C 81 % 1016,7 hPa 0,0 mm 7,6 km/h (2 Bft) O-NO 76 ° 0 min 0,000 mm 0,7 UV-I 118 W/m² -5,9 °C -6,2 °C 9,7 km/h (2 Bft)
13.02.2018 11:56 -3,0 °C 81 % 1016,6 hPa 0,0 mm 6,4 km/h (2 Bft) O 82 ° 0 min 0,000 mm 0,7 UV-I 60 W/m² -5,8 °C -5,6 °C 9,7 km/h (2 Bft)
13.02.2018 11:57 -3,0 °C 81 % 1016,6 hPa 0,0 mm 9,4 km/h (2 Bft) O-NO 69 ° 0 min 0,000 mm 0,7 UV-I 62 W/m² -5,8 °C -6,7 °C 14,5 km/h (3 Bft)
13.02.2018 11:58 -2,9 °C 81 % 1016,6 hPa 0,0 mm 6,6 km/h (2 Bft) O-NO 68 ° 0 min 0,000 mm 0,7 UV-I 77 W/m² -5,7 °C -5,6 °C 9,7 km/h (2 Bft)
13.02.2018 11:59 -2,9 °C 81 % 1016,5 hPa 0,0 mm 6,0 km/h (2 Bft) NO 50 ° 0 min 0,000 mm 0,7 UV-I 81 W/m² -5,7 °C -5,4 °C 8,0 km/h (2 Bft)
13.02.2018 12:00 -2,9 °C 81 % 1016,5 hPa 0,0 mm 5,9 km/h (2 Bft) O-NO 65 ° 0 min 0,000 mm 0,7 UV-I 79 W/m² -5,7 °C -5,3 °C 6,4 km/h (2 Bft)
13.02.2018 12:01 -2,9 °C 81 % 1016,5 hPa 0,0 mm 8,6 km/h (2 Bft) NO 56 ° 0 min 0,025 mm 0,7 UV-I 74 W/m² -5,7 °C -6,3 °C 11,3 km/h (2 Bft)
13.02.2018 12:02 -2,9 °C 81 % 1016,5 hPa 0,0 mm 7,5 km/h (2 Bft) O-NO 72 ° 0 min 0,000 mm 0,7 UV-I 93 W/m² -5,7 °C -6,0 °C 11,3 km/h (2 Bft)
13.02.2018 12:03 -2,8 °C 81 % 1016,5 hPa 0,0 mm 5,0 km/h (1 Bft) NO 53 ° 0 min 0,000 mm 0,8 UV-I 121 W/m² -5,6 °C -4,8 °C 8,0 km/h (2 Bft)
13.02.2018 12:04 -2,8 °C 81 % 1016,4 hPa 0,0 mm 5,8 km/h (2 Bft) NO 51 ° 0 min 0,000 mm 0,8 UV-I 134 W/m² -5,6 °C -5,2 °C 9,7 km/h (2 Bft)
13.02.2018 12:05 -2,7 °C 82 % 1016,5 hPa 0,0 mm 6,6 km/h (2 Bft) NO 40 ° 0 min 0,000 mm 0,8 UV-I 137 W/m² -5,3 °C -5,4 °C 9,7 km/h (2 Bft)
13.02.2018 12:06 -2,7 °C 82 % 1016,5 hPa 0,0 mm 7,4 km/h (2 Bft) NO 54 ° 0 min 0,000 mm 0,8 UV-I 123 W/m² -5,3 °C -5,7 °C 11,3 km/h (2 Bft)
13.02.2018 12:07 -2,6 °C 82 % 1016,3 hPa 0,0 mm 8,4 km/h (2 Bft) N-NO 30 ° 0 min 0,000 mm 0,8 UV-I 132 W/m² -5,2 °C -5,9 °C 12,9 km/h (3 Bft)
13.02.2018 12:08 -2,6 °C 81 % 1016,3 hPa 0,0 mm 11,6 km/h (2 Bft) N-NO 15 ° 0 min 0,000 mm 0,8 UV-I 134 W/m² -5,4 °C -6,9 °C 16,1 km/h (3 Bft)
13.02.2018 12:09 -2,6 °C 81 % 1016,3 hPa 0,0 mm 11,2 km/h (2 Bft) O-NO 59 ° 0 min 0,000 mm 0,8 UV-I 146 W/m² -5,4 °C -6,7 °C 16,1 km/h (3 Bft)
13.02.2018 12:10 -2,6 °C 81 % 1016,3 hPa 0,0 mm 8,4 km/h (2 Bft) NO 53 ° 0 min 0,000 mm 0,8 UV-I 151 W/m² -5,4 °C -5,9 °C 14,5 km/h (3 Bft)
13.02.2018 12:11 -2,6 °C 80 % 1016,2 hPa 0,0 mm 9,5 km/h (2 Bft) NO 47 ° 0 min 0,000 mm 0,8 UV-I 171 W/m² -5,6 °C -6,3 °C 14,5 km/h (3 Bft)
13.02.2018 12:12 -2,6 °C 80 % 1016,2 hPa 0,0 mm 10,8 km/h (2 Bft) N-NO 28 ° 0 min 0,000 mm 0,8 UV-I 163 W/m² -5,6 °C -6,6 °C 16,1 km/h (3 Bft)
13.02.2018 12:13 -2,6 °C 80 % 1016,2 hPa 0,0 mm 8,5 km/h (2 Bft) N-NO 31 ° 0 min 0,000 mm 0,8 UV-I 127 W/m² -5,6 °C -6,0 °C 12,9 km/h (3 Bft)
13.02.2018 12:14 -2,7 °C 80 % 1016,1 hPa 0,0 mm 10,3 km/h (2 Bft) O-NO 62 ° 0 min 0,000 mm 0,8 UV-I 113 W/m² -5,7 °C -6,6 °C 14,5 km/h (3 Bft)
13.02.2018 12:15 -2,7 °C 80 % 1016,1 hPa 0,0 mm 7,2 km/h (2 Bft) NO 34 ° 0 min 0,000 mm 0,7 UV-I 97 W/m² -5,7 °C -5,6 °C 16,1 km/h (3 Bft)
13.02.2018 12:16 -2,7 °C 80 % 1016,1 hPa 0,0 mm 9,1 km/h (2 Bft) NO 36 ° 0 min 0,000 mm 0,7 UV-I 83 W/m² -5,7 °C -6,3 °C 14,5 km/h (3 Bft)
13.02.2018 12:17 -2,8 °C 80 % 1016,0 hPa 0,0 mm 8,1 km/h (2 Bft) O 82 ° 0 min 0,000 mm 0,7 UV-I 86 W/m² -5,8 °C -6,1 °C 14,5 km/h (3 Bft)
13.02.2018 12:18 -2,8 °C 80 % 1016,1 hPa 0,0 mm 5,9 km/h (2 Bft) NO 46 ° 0 min 0,000 mm 0,7 UV-I 104 W/m² -5,8 °C -5,2 °C 11,3 km/h (2 Bft)
13.02.2018 12:19 -2,9 °C 81 % 1016,0 hPa 0,0 mm 8,0 km/h (2 Bft) NO 56 ° 0 min 0,000 mm 0,7 UV-I 132 W/m² -5,7 °C -6,1 °C 11,3 km/h (2 Bft)
13.02.2018 12:20 -2,9 °C 81 % 1016,0 hPa 0,0 mm 5,0 km/h (1 Bft) O-NO 76 ° 0 min 0,000 mm 0,8 UV-I 146 W/m² -5,7 °C -4,9 °C 9,7 km/h (2 Bft)
13.02.2018 12:21 -2,9 °C 81 % 1016,0 hPa 0,0 mm 8,3 km/h (2 Bft) O-NO 71 ° 0 min 0,000 mm 0,8 UV-I 146 W/m² -5,7 °C -6,2 °C 12,9 km/h (3 Bft)
13.02.2018 12:22 -3,0 °C 81 % 1015,9 hPa 0,0 mm 6,6 km/h (2 Bft) O 82 ° 0 min 0,000 mm 0,8 UV-I 141 W/m² -5,8 °C -5,7 °C 9,7 km/h (2 Bft)
13.02.2018 12:23 -3,0 °C 81 % 1016,0 hPa 0,0 mm 7,8 km/h (2 Bft) NO 49 ° 0 min 0,000 mm 0,8 UV-I 146 W/m² -5,8 °C -6,2 °C 11,3 km/h (2 Bft)
13.02.2018 12:24 -3,1 °C 81 % 1015,9 hPa 0,0 mm 8,4 km/h (2 Bft) N-NO 33 ° 0 min 0,000 mm 0,7 UV-I 127 W/m² -5,9 °C -6,5 °C 14,5 km/h (3 Bft)
13.02.2018 12:25 -3,1 °C 82 % 1015,9 hPa 0,0 mm 5,3 km/h (1 Bft) N-NO 32 ° 0 min 0,000 mm 0,7 UV-I 88 W/m² -5,7 °C -5,3 °C 9,7 km/h (2 Bft)
13.02.2018 12:26 -3,1 °C 81 % 1015,9 hPa 0,0 mm 5,7 km/h (1 Bft) NO 55 ° 0 min 0,000 mm 0,7 UV-I 84 W/m² -5,9 °C -5,5 °C 9,7 km/h (2 Bft)
13.02.2018 12:27 -3,2 °C 81 % 1015,9 hPa 0,0 mm 6,2 km/h (2 Bft) N-NO 28 ° 0 min 0,000 mm 0,7 UV-I 63 W/m² -6,0 °C -5,8 °C 8,0 km/h (2 Bft)
13.02.2018 12:28 -3,2 °C 81 % 1015,8 hPa 0,0 mm 6,0 km/h (2 Bft) O-NO 78 ° 0 min 0,000 mm 0,0 UV-I 51 W/m² -6,0 °C -5,7 °C 8,0 km/h (2 Bft)
13.02.2018 12:29 -3,2 °C 81 % 1015,9 hPa 0,0 mm 5,7 km/h (1 Bft) O 86 ° 0 min 0,000 mm 0,7 UV-I 62 W/m² -6,0 °C -5,6 °C 8,0 km/h (2 Bft)
13.02.2018 12:30 -3,2 °C 81 % 1015,9 hPa 0,0 mm 4,5 km/h (1 Bft) N-NO 30 ° 0 min 0,000 mm 0,7 UV-I 60 W/m² -6,0 °C -3,2 °C 6,4 km/h (2 Bft)
13.02.2018 12:31 -3,3 °C 81 % 1015,9 hPa 0,0 mm 4,7 km/h (1 Bft) NO 53 ° 0 min 0,000 mm 0,0 UV-I 51 W/m² -6,1 °C -5,2 °C 6,4 km/h (2 Bft)
13.02.2018 12:32 -3,3 °C 81 % 1015,8 hPa 0,0 mm 4,2 km/h (1 Bft) O-NO 76 ° 0 min 0,000 mm 0,0 UV-I 42 W/m² -6,1 °C -3,3 °C 6,4 km/h (2 Bft)
13.02.2018 12:33 -3,2 °C 82 % 1015,9 hPa 0,0 mm 5,8 km/h (2 Bft) O-NO 61 ° 0 min 0,000 mm 0,0 UV-I 39 W/m² -5,8 °C -5,6 °C 12,9 km/h (3 Bft)
13.02.2018 12:34 -3,3 °C 82 % 1015,8 hPa 0,0 mm 6,4 km/h (2 Bft) NO 42 ° 0 min 0,000 mm 0,0 UV-I 39 W/m² -5,9 °C -6,0 °C 12,9 km/h (3 Bft)
13.02.2018 12:35 -3,2 °C 82 % 1015,7 hPa 0,0 mm 7,4 km/h (2 Bft) O-NO 74 ° 0 min 0,000 mm 0,0 UV-I 42 W/m² -5,8 °C -6,3 °C 11,3 km/h (2 Bft)
13.02.2018 12:36 -3,2 °C 81 % 1015,8 hPa 0,0 mm 6,5 km/h (2 Bft) NO 40 ° 0 min 0,000 mm 0,0 UV-I 40 W/m² -6,0 °C -5,9 °C 8,0 km/h (2 Bft)
13.02.2018 12:37 -3,2 °C 81 % 1015,7 hPa 0,0 mm 5,7 km/h (1 Bft) NO 45 ° 0 min 0,000 mm 0,0 UV-I 35 W/m² -6,0 °C -5,6 °C 9,7 km/h (2 Bft)
13.02.2018 12:38 -3,2 °C 81 % 1015,8 hPa 0,0 mm 9,3 km/h (2 Bft) NO 38 ° 0 min 0,000 mm 0,0 UV-I 37 W/m² -6,0 °C -6,9 °C 14,5 km/h (3 Bft)
13.02.2018 12:39 -3,2 °C 81 % 1015,7 hPa 0,0 mm 9,3 km/h (2 Bft) NO 44 ° 0 min 0,000 mm 0,0 UV-I 40 W/m² -6,0 °C -6,9 °C 14,5 km/h (3 Bft)
13.02.2018 12:40 -3,2 °C 81 % 1015,7 hPa 0,0 mm 5,7 km/h (1 Bft) NO 56 ° 0 min 0,000 mm 0,0 UV-I 35 W/m² -6,0 °C -5,6 °C 8,0 km/h (2 Bft)
13.02.2018 12:41 -3,2 °C 81 % 1015,7 hPa 0,0 mm 9,1 km/h (2 Bft) N-NO 22 ° 0 min 0,000 mm 0,0 UV-I 33 W/m² -6,0 °C -6,9 °C 12,9 km/h (3 Bft)
13.02.2018 12:42 -3,1 °C 81 % 1015,7 hPa 0,0 mm 8,0 km/h (2 Bft) NO 55 ° 0 min 0,000 mm 0,0 UV-I 33 W/m² -5,9 °C -6,4 °C 12,9 km/h (3 Bft)
13.02.2018 12:43 -3,1 °C 81 % 1015,7 hPa 0,0 mm 7,5 km/h (2 Bft) O 85 ° 0 min 0,000 mm 0,0 UV-I 35 W/m² -5,9 °C -6,2 °C 9,7 km/h (2 Bft)
13.02.2018 12:44 -3,1 °C 81 % 1015,7 hPa 0,0 mm 7,4 km/h (2 Bft) N-NO 30 ° 0 min 0,000 mm 0,0 UV-I 39 W/m² -5,9 °C -6,2 °C 9,7 km/h (2 Bft)
13.02.2018 12:45 -3,1 °C 81 % 1015,6 hPa 0,0 mm 6,8 km/h (2 Bft) NO 52 ° 0 min 0,000 mm 0,0 UV-I 37 W/m² -5,9 °C -5,9 °C 11,3 km/h (2 Bft)
13.02.2018 12:46 -3,1 °C 81 % 1015,7 hPa 0,0 mm 8,0 km/h (2 Bft) NO 55 ° 0 min 0,000 mm 0,0 UV-I 37 W/m² -5,9 °C -6,4 °C 14,5 km/h (3 Bft)
13.02.2018 12:47 -3,1 °C 81 % 1015,7 hPa 0,0 mm 10,5 km/h (2 Bft) O 95 ° 0 min 0,000 mm 0,0 UV-I 37 W/m² -5,9 °C -7,2 °C 17,7 km/h (3 Bft)
13.02.2018 12:48 -3,1 °C 81 % 1015,6 hPa 0,0 mm 7,1 km/h (2 Bft) O-NO 78 ° 0 min 0,000 mm 0,0 UV-I 42 W/m² -5,9 °C -6,0 °C 11,3 km/h (2 Bft)
13.02.2018 12:49 -3,1 °C 80 % 1015,6 hPa 0,0 mm 7,1 km/h (2 Bft) O 79 ° 0 min 0,000 mm 0,0 UV-I 54 W/m² -6,0 °C -6,0 °C 11,3 km/h (2 Bft)
13.02.2018 12:50 -3,1 °C 80 % 1015,6 hPa 0,0 mm 6,0 km/h (2 Bft) O-NO 57 ° 0 min 0,000 mm 0,7 UV-I 62 W/m² -6,0 °C -5,6 °C 12,9 km/h (3 Bft)
13.02.2018 12:51 -3,1 °C 80 % 1015,6 hPa 0,0 mm 8,6 km/h (2 Bft) O 80 ° 0 min 0,000 mm 0,7 UV-I 60 W/m² -6,0 °C -6,6 °C 12,9 km/h (3 Bft)
13.02.2018 12:52 -3,1 °C 80 % 1015,5 hPa 0,0 mm 8,2 km/h (2 Bft) NO 40 ° 0 min 0,000 mm 0,7 UV-I 58 W/m² -6,0 °C -6,4 °C 11,3 km/h (2 Bft)
13.02.2018 12:53 -3,1 °C 80 % 1015,5 hPa 0,0 mm 7,5 km/h (2 Bft) O-NO 61 ° 0 min 0,000 mm 0,0 UV-I 53 W/m² -6,0 °C -6,2 °C 12,9 km/h (3 Bft)
13.02.2018 12:54 -3,1 °C 80 % 1015,5 hPa 0,0 mm 8,7 km/h (2 Bft) O-NO 67 ° 0 min 0,000 mm 0,0 UV-I 39 W/m² -6,0 °C -6,6 °C 12,9 km/h (3 Bft)
13.02.2018 12:55 -3,1 °C 80 % 1015,5 hPa 0,0 mm 7,5 km/h (2 Bft) O 83 ° 0 min 0,000 mm 0,0 UV-I 39 W/m² -6,0 °C -6,2 °C 11,3 km/h (2 Bft)
13.02.2018 12:56 -3,1 °C 80 % 1015,4 hPa 0,0 mm 11,8 km/h (2 Bft) NO 55 ° 0 min 0,000 mm 0,0 UV-I 37 W/m² -6,0 °C -7,5 °C 16,1 km/h (3 Bft)
13.02.2018 12:57 -3,1 °C 80 % 1015,4 hPa 0,0 mm 10,6 km/h (2 Bft) NO 52 ° 0 min 0,000 mm 0,0 UV-I 39 W/m² -6,0 °C -7,2 °C 16,1 km/h (3 Bft)
13.02.2018 12:58 -3,1 °C 80 % 1015,4 hPa 0,0 mm 5,2 km/h (1 Bft) O-NO 74 ° 0 min 0,000 mm 0,0 UV-I 46 W/m² -6,0 °C -5,2 °C 8,0 km/h (2 Bft)
13.02.2018 12:59 -3,1 °C 80 % 1015,4 hPa 0,0 mm 4,9 km/h (1 Bft) O-NO 63 ° 0 min 0,000 mm 0,0 UV-I 40 W/m² -6,0 °C -5,1 °C 6,4 km/h (2 Bft)
13.02.2018 13:00 -3,0 °C 80 % 1015,4 hPa 0,0 mm 7,4 km/h (2 Bft) NO 55 ° 0 min 0,000 mm 0,0 UV-I 40 W/m² -6,0 °C -6,0 °C 12,9 km/h (3 Bft)
13.02.2018 13:01 -3,1 °C 80 % 1015,4 hPa 0,0 mm 6,4 km/h (2 Bft) O-NO 67 ° 0 min 0,026 mm 0,0 UV-I 46 W/m² -6,0 °C -5,8 °C 12,9 km/h (3 Bft)
13.02.2018 13:02 -3,0 °C 80 % 1015,4 hPa 0,0 mm 5,9 km/h (2 Bft) O-NO 61 ° 0 min 0,000 mm 0,0 UV-I 47 W/m² -6,0 °C -5,4 °C 9,7 km/h (2 Bft)
13.02.2018 13:03 -3,0 °C 80 % 1015,4 hPa 0,0 mm 6,4 km/h (2 Bft) O-NO 60 ° 0 min 0,000 mm 0,0 UV-I 46 W/m² -6,0 °C -5,6 °C 8,0 km/h (2 Bft)
13.02.2018 13:04 -2,9 °C 80 % 1015,3 hPa 0,0 mm 7,6 km/h (2 Bft) NO 51 ° 0 min 0,000 mm 0,0 UV-I 49 W/m² -5,9 °C -6,0 °C 9,7 km/h (2 Bft)
13.02.2018 13:05 -2,9 °C 80 % 1015,3 hPa 0,0 mm 8,1 km/h (2 Bft) NO 46 ° 0 min 0,000 mm 0,7 UV-I 69 W/m² -5,9 °C -6,2 °C 14,5 km/h (3 Bft)
13.02.2018 13:06 -2,9 °C 80 % 1015,3 hPa 0,0 mm 7,9 km/h (2 Bft) O-NO 58 ° 0 min 0,000 mm 0,0 UV-I 42 W/m² -5,9 °C -6,1 °C 14,5 km/h (3 Bft)
13.02.2018 13:07 -2,9 °C 80 % 1015,3 hPa 0,0 mm 9,5 km/h (2 Bft) O 96 ° 0 min 0,000 mm 0,0 UV-I 40 W/m² -5,9 °C -6,6 °C 16,1 km/h (3 Bft)
13.02.2018 13:08 -2,9 °C 80 % 1015,3 hPa 0,0 mm 11,0 km/h (2 Bft) O-NO 69 ° 0 min 0,000 mm 0,0 UV-I 40 W/m² -5,9 °C -7,1 °C 12,9 km/h (3 Bft)
13.02.2018 13:09 -2,9 °C 80 % 1015,2 hPa 0,0 mm 12,7 km/h (3 Bft) NO 53 ° 0 min 0,000 mm 0,0 UV-I 42 W/m² -5,9 °C -7,5 °C 19,3 km/h (3 Bft)
13.02.2018 13:10 -2,9 °C 80 % 1015,2 hPa 0,0 mm 7,8 km/h (2 Bft) NO 42 ° 0 min 0,000 mm 0,7 UV-I 70 W/m² -5,9 °C -6,1 °C 14,5 km/h (3 Bft)
13.02.2018 13:11 -2,9 °C 80 % 1015,1 hPa 0,0 mm 8,0 km/h (2 Bft) O 101 ° 0 min 0,000 mm 0,8 UV-I 123 W/m² -5,9 °C -6,1 °C 12,9 km/h (3 Bft)
13.02.2018 13:12 -2,9 °C 80 % 1015,2 hPa 0,0 mm 4,6 km/h (1 Bft) O-NO 59 ° 0 min 0,000 mm 0,8 UV-I 130 W/m² -5,9 °C -4,7 °C 9,7 km/h (2 Bft)
13.02.2018 13:13 -2,9 °C 80 % 1015,1 hPa 0,0 mm 6,5 km/h (2 Bft) O 80 ° 0 min 0,000 mm 0,8 UV-I 195 W/m² -5,9 °C -5,6 °C 11,3 km/h (2 Bft)
13.02.2018 13:14 -2,9 °C 80 % 1015,1 hPa 0,0 mm 6,2 km/h (2 Bft) O-NO 61 ° 0 min 0,000 mm 0,9 UV-I 190 W/m² -5,9 °C -5,4 °C 11,3 km/h (2 Bft)
13.02.2018 13:15 -2,9 °C 79 % 1015,1 hPa 0,0 mm 4,8 km/h (1 Bft) O-NO 58 ° 0 min 0,000 mm 0,7 UV-I 190 W/m² -6,0 °C -4,8 °C 6,4 km/h (2 Bft)
13.02.2018 13:17 -2,9 °C 79 % 1015,0 hPa 0,0 mm 9,3 km/h (2 Bft) O-SO 103 ° 0 min 0,000 mm 0,0 UV-I 42 W/m² -6,0 °C -6,6 °C 11,3 km/h (2 Bft)
13.02.2018 13:18 -2,9 °C 79 % 1015,1 hPa 0,0 mm 8,4 km/h (2 Bft) O-NO 68 ° 0 min 0,000 mm 0,0 UV-I 42 W/m² -6,0 °C -6,3 °C 11,3 km/h (2 Bft)
13.02.2018 13:19 -2,8 °C 79 % 1015,0 hPa 0,0 mm 6,9 km/h (2 Bft) O 81 ° 0 min 0,000 mm 0,0 UV-I 42 W/m² -5,9 °C -5,6 °C 8,0 km/h (2 Bft)
13.02.2018 13:20 -2,8 °C 79 % 1015,0 hPa 0,0 mm 8,0 km/h (2 Bft) O-SO 102 ° 0 min 0,000 mm 0,0 UV-I 42 W/m² -5,9 °C -6,0 °C 14,5 km/h (3 Bft)
13.02.2018 13:21 -2,8 °C 79 % 1015,0 hPa 0,0 mm 6,0 km/h (2 Bft) NO 42 ° 0 min 0,000 mm 0,0 UV-I 42 W/m² -5,9 °C -5,2 °C 9,7 km/h (2 Bft)
13.02.2018 13:22 -2,8 °C 79 % 1015,0 hPa 0,0 mm 10,6 km/h (2 Bft) O 88 ° 0 min 0,000 mm 0,0 UV-I 44 W/m² -5,9 °C -6,8 °C 16,1 km/h (3 Bft)
13.02.2018 13:23 -2,8 °C 79 % 1015,0 hPa 0,0 mm 9,7 km/h (2 Bft) O 80 ° 0 min 0,000 mm 0,0 UV-I 44 W/m² -5,9 °C -6,6 °C 12,9 km/h (3 Bft)
13.02.2018 13:24 -2,7 °C 79 % 1015,0 hPa 0,0 mm 8,6 km/h (2 Bft) O 81 ° 0 min 0,000 mm 0,0 UV-I 51 W/m² -5,8 °C -6,1 °C 12,9 km/h (3 Bft)
13.02.2018 13:25 -2,7 °C 79 % 1015,0 hPa 0,0 mm 8,5 km/h (2 Bft) O 81 ° 0 min 0,000 mm 0,7 UV-I 123 W/m² -5,8 °C -6,1 °C 14,5 km/h (3 Bft)
13.02.2018 13:26 -2,6 °C 79 % 1014,9 hPa 0,0 mm 7,1 km/h (2 Bft) O-NO 72 ° 0 min 0,000 mm 0,8 UV-I 204 W/m² -5,7 °C -5,5 °C 11,3 km/h (2 Bft)
13.02.2018 13:27 -2,6 °C 79 % 1014,9 hPa 0,0 mm 8,3 km/h (2 Bft) O-NO 72 ° 0 min 0,000 mm 0,8 UV-I 139 W/m² -5,7 °C -5,9 °C 12,9 km/h (3 Bft)
13.02.2018 13:28 -2,6 °C 79 % 1014,9 hPa 0,0 mm 4,8 km/h (1 Bft) O-NO 74 ° 0 min 0,000 mm 0,7 UV-I 63 W/m² -5,7 °C -4,4 °C 11,3 km/h (2 Bft)
13.02.2018 13:29 -2,6 °C 80 % 1014,8 hPa 0,0 mm 2,8 km/h (1 Bft) NO 56 ° 0 min 0,000 mm 0,0 UV-I 62 W/m² -5,6 °C -2,6 °C 4,8 km/h (1 Bft)
13.02.2018 13:30 -2,6 °C 79 % 1014,9 hPa 0,0 mm 5,1 km/h (1 Bft) O-NO 59 ° 0 min 0,000 mm 0,7 UV-I 62 W/m² -5,7 °C -4,6 °C 6,4 km/h (2 Bft)
13.02.2018 13:31 -2,7 °C 79 % 1014,9 hPa 0,0 mm 4,6 km/h (1 Bft) O-NO 74 ° 0 min 0,000 mm 0,7 UV-I 56 W/m² -5,8 °C -4,4 °C 6,4 km/h (2 Bft)
13.02.2018 13:32 -2,7 °C 79 % 1014,9 hPa 0,0 mm 4,5 km/h (1 Bft) O-NO 69 ° 0 min 0,000 mm 0,7 UV-I 60 W/m² -5,8 °C -2,7 °C 6,4 km/h (2 Bft)
13.02.2018 13:33 -2,6 °C 80 % 1014,8 hPa 0,0 mm 5,2 km/h (1 Bft) NO 52 ° 0 min 0,000 mm 0,7 UV-I 60 W/m² -5,6 °C -4,6 °C 6,4 km/h (2 Bft)
13.02.2018 13:34 -2,7 °C 80 % 1014,8 hPa 0,0 mm 7,5 km/h (2 Bft) NO 46 ° 0 min 0,000 mm 0,7 UV-I 72 W/m² -5,7 °C -5,7 °C 9,7 km/h (2 Bft)
13.02.2018 13:35 -2,6 °C 79 % 1014,8 hPa 0,0 mm 4,3 km/h (1 Bft) O-NO 71 ° 0 min 0,000 mm 0,7 UV-I 153 W/m² -5,7 °C -2,6 °C 8,0 km/h (2 Bft)
13.02.2018 13:36 -2,6 °C 79 % 1014,8 hPa 0,0 mm 5,7 km/h (1 Bft) O 84 ° 0 min 0,000 mm 0,7 UV-I 155 W/m² -5,7 °C -4,9 °C 8,0 km/h (2 Bft)
13.02.2018 13:37 -2,6 °C 80 % 1014,8 hPa 0,0 mm 8,9 km/h (2 Bft) O 93 ° 0 min 0,000 mm 1,0 UV-I 155 W/m² -5,6 °C -6,1 °C 12,9 km/h (3 Bft)
13.02.2018 13:38 -2,6 °C 79 % 1014,8 hPa 0,0 mm 10,3 km/h (2 Bft) N-NO 20 ° 0 min 0,000 mm 1,1 UV-I 155 W/m² -5,7 °C -6,5 °C 16,1 km/h (3 Bft)
13.02.2018 13:39 -2,6 °C 79 % 1014,7 hPa 0,0 mm 7,4 km/h (2 Bft) O-NO 59 ° 1 min 0,000 mm 1,1 UV-I 513 W/m² -5,7 °C -5,6 °C 9,7 km/h (2 Bft)
13.02.2018 13:40 -2,5 °C 79 % 1014,8 hPa 0,0 mm 8,4 km/h (2 Bft) O-NO 57 ° 1 min 0,000 mm 1,1 UV-I 504 W/m² -5,6 °C -5,8 °C 12,9 km/h (3 Bft)
13.02.2018 13:41 -2,4 °C 79 % 1014,7 hPa 0,0 mm 6,0 km/h (2 Bft) O 85 ° 1 min 0,000 mm 1,1 UV-I 496 W/m² -5,5 °C -4,8 °C 9,7 km/h (2 Bft)
13.02.2018 13:42 -2,4 °C 79 % 1014,7 hPa 0,0 mm 8,3 km/h (2 Bft) NO 47 ° 1 min 0,000 mm 1,1 UV-I 512 W/m² -5,5 °C -5,7 °C 14,5 km/h (3 Bft)
13.02.2018 13:43 -2,4 °C 79 % 1014,7 hPa 0,0 mm 10,7 km/h (2 Bft) O 88 ° 1 min 0,000 mm 1,1 UV-I 512 W/m² -5,5 °C -6,4 °C 14,5 km/h (3 Bft)
13.02.2018 13:44 -2,3 °C 79 % 1014,7 hPa 0,0 mm 7,0 km/h (2 Bft) O 79 ° 1 min 0,000 mm 1,1 UV-I 508 W/m² -5,4 °C -5,1 °C 11,3 km/h (2 Bft)
13.02.2018 13:45 -2,3 °C 79 % 1014,6 hPa 0,0 mm 7,3 km/h (2 Bft) O-NO 66 ° 1 min 0,000 mm 1,1 UV-I 517 W/m² -5,4 °C -5,2 °C 14,5 km/h (3 Bft)
13.02.2018 13:46 -2,3 °C 79 % 1014,6 hPa 0,0 mm 8,9 km/h (2 Bft) O-NO 59 ° 1 min 0,000 mm 1,1 UV-I 522 W/m² -5,4 °C -5,7 °C 14,5 km/h (3 Bft)
13.02.2018 13:47 -2,3 °C 79 % 1014,6 hPa 0,0 mm 8,9 km/h (2 Bft) O 84 ° 1 min 0,000 mm 1,1 UV-I 534 W/m² -5,4 °C -5,7 °C 17,7 km/h (3 Bft)
13.02.2018 13:48 -2,4 °C 79 % 1014,6 hPa 0,0 mm 5,1 km/h (1 Bft) SO 141 ° 1 min 0,000 mm 1,0 UV-I 469 W/m² -5,5 °C -4,4 °C 8,0 km/h (2 Bft)
13.02.2018 13:49 -2,4 °C 78 % 1014,6 hPa 0,0 mm 7,2 km/h (2 Bft) O-NO 66 ° 1 min 0,000 mm 1,0 UV-I 469 W/m² -5,7 °C -5,3 °C 11,3 km/h (2 Bft)
13.02.2018 13:50 -2,4 °C 78 % 1014,6 hPa 0,0 mm 9,4 km/h (2 Bft) NO 42 ° 1 min 0,000 mm 1,2 UV-I 469 W/m² -5,7 °C -6,0 °C 14,5 km/h (3 Bft)
13.02.2018 13:51 -2,4 °C 78 % 1014,5 hPa 0,0 mm 10,1 km/h (2 Bft) O-NO 64 ° 1 min 0,000 mm 1,2 UV-I 541 W/m² -5,7 °C -6,2 °C 14,5 km/h (3 Bft)
13.02.2018 13:52 -2,3 °C 78 % 1014,5 hPa 0,0 mm 7,2 km/h (2 Bft) O 80 ° 1 min 0,000 mm 1,2 UV-I 540 W/m² -5,6 °C -5,2 °C 9,7 km/h (2 Bft)
13.02.2018 13:53 -2,3 °C 78 % 1014,5 hPa 0,0 mm 8,5 km/h (2 Bft) NO 39 ° 1 min 0,000 mm 1,2 UV-I 545 W/m² -5,6 °C -5,6 °C 12,9 km/h (3 Bft)
13.02.2018 13:54 -2,3 °C 77 % 1014,5 hPa 0,0 mm 7,8 km/h (2 Bft) NO 44 ° 1 min 0,000 mm 1,2 UV-I 545 W/m² -5,8 °C -5,4 °C 14,5 km/h (3 Bft)
13.02.2018 13:55 -2,2 °C 77 % 1014,5 hPa 0,0 mm 8,7 km/h (2 Bft) NO 47 ° 1 min 0,000 mm 1,2 UV-I 476 W/m² -5,7 °C -5,6 °C 14,5 km/h (3 Bft)
13.02.2018 13:56 -2,3 °C 78 % 1014,5 hPa 0,0 mm 4,9 km/h (1 Bft) O 91 ° 1 min 0,000 mm 1,1 UV-I 401 W/m² -5,6 °C -4,1 °C 9,7 km/h (2 Bft)
13.02.2018 13:57 -2,3 °C 78 % 1014,4 hPa 0,0 mm 6,5 km/h (2 Bft) O-NO 57 ° 1 min 0,000 mm 1,1 UV-I 401 W/m² -5,6 °C -4,9 °C 12,9 km/h (3 Bft)
13.02.2018 13:58 -2,3 °C 78 % 1014,4 hPa 0,0 mm 7,8 km/h (2 Bft) O 83 ° 1 min 0,000 mm 0,9 UV-I 401 W/m² -5,6 °C -5,4 °C 12,9 km/h (3 Bft)
13.02.2018 13:59 -2,4 °C 78 % 1014,4 hPa 0,0 mm 5,0 km/h (1 Bft) O-NO 71 ° 1 min 0,000 mm 0,9 UV-I 401 W/m² -5,7 °C -4,3 °C 8,0 km/h (2 Bft)
13.02.2018 14:00 -2,4 °C 78 % 1014,4 hPa 0,0 mm 6,5 km/h (2 Bft) O-NO 61 ° 1 min 0,076 mm 1,2 UV-I 401 W/m² -5,7 °C -5,0 °C 12,9 km/h (3 Bft)
13.02.2018 14:01 -2,4 °C 78 % 1014,4 hPa 0,0 mm 3,8 km/h (1 Bft) O-NO 60 ° 1 min 0,000 mm 1,2 UV-I 566 W/m² -5,7 °C -2,4 °C 11,3 km/h (2 Bft)
13.02.2018 14:02 -2,4 °C 79 % 1014,3 hPa 0,0 mm 6,7 km/h (2 Bft) O-NO 61 ° 1 min 0,000 mm 1,2 UV-I 568 W/m² -5,5 °C -5,1 °C 11,3 km/h (2 Bft)
13.02.2018 14:03 -2,3 °C 78 % 1014,3 hPa 0,0 mm 7,5 km/h (2 Bft) O-NO 74 ° 1 min 0,000 mm 1,2 UV-I 573 W/m² -5,6 °C -5,3 °C 11,3 km/h (2 Bft)
13.02.2018 14:04 -2,2 °C 78 % 1014,3 hPa 0,0 mm 5,4 km/h (1 Bft) NO 53 ° 1 min 0,000 mm 1,3 UV-I 578 W/m² -5,5 °C -4,3 °C 8,0 km/h (2 Bft)
13.02.2018 14:05 -2,2 °C 78 % 1014,3 hPa 0,0 mm 5,4 km/h (1 Bft) NO 53 ° 1 min 0,000 mm 1,3 UV-I 554 W/m² -5,5 °C -4,3 °C 11,3 km/h (2 Bft)
13.02.2018 14:06 -2,2 °C 78 % 1014,3 hPa 0,0 mm 7,6 km/h (2 Bft) NO 53 ° 1 min 0,000 mm 1,3 UV-I 554 W/m² -5,5 °C -5,2 °C 12,9 km/h (3 Bft)
13.02.2018 14:07 -2,1 °C 78 % 1014,3 hPa 0,0 mm 8,2 km/h (2 Bft) NO 49 ° 1 min 0,000 mm 1,1 UV-I 554 W/m² -5,4 °C -5,3 °C 12,9 km/h (3 Bft)
13.02.2018 14:08 -2,1 °C 78 % 1014,3 hPa 0,0 mm 6,6 km/h (2 Bft) O 84 ° 1 min 0,000 mm 0,9 UV-I 554 W/m² -5,4 °C -4,7 °C 12,9 km/h (3 Bft)
13.02.2018 14:09 -2,2 °C 77 % 1014,3 hPa 0,0 mm 2,5 km/h (1 Bft) O 84 ° 1 min 0,000 mm 1,1 UV-I 554 W/m² -5,7 °C -2,2 °C 4,8 km/h (1 Bft)
13.02.2018 14:10 -2,3 °C 77 % 1014,3 hPa 0,0 mm 5,0 km/h (1 Bft) O-NO 71 ° 1 min 0,000 mm 0,9 UV-I 385 W/m² -5,8 °C -4,2 °C 11,3 km/h (2 Bft)
13.02.2018 14:11 -2,3 °C 77 % 1014,3 hPa 0,0 mm 8,5 km/h (2 Bft) O 82 ° 1 min 0,000 mm 1,2 UV-I 376 W/m² -5,8 °C -5,6 °C 12,9 km/h (3 Bft)
13.02.2018 14:12 -2,4 °C 77 % 1014,3 hPa 0,0 mm 6,0 km/h (2 Bft) O-NO 75 ° 0 min 0,000 mm 0,8 UV-I 116 W/m² -5,9 °C -4,8 °C 11,3 km/h (2 Bft)
13.02.2018 14:13 -2,4 °C 77 % 1014,2 hPa 0,0 mm 9,8 km/h (2 Bft) O 94 ° 0 min 0,000 mm 0,8 UV-I 100 W/m² -5,9 °C -6,1 °C 14,5 km/h (3 Bft)
13.02.2018 14:14 -2,4 °C 76 % 1014,2 hPa 0,0 mm 6,8 km/h (2 Bft) NO 46 ° 0 min 0,000 mm 1,1 UV-I 155 W/m² -6,0 °C -5,1 °C 12,9 km/h (3 Bft)
13.02.2018 14:15 -2,4 °C 76 % 1014,2 hPa 0,0 mm 6,6 km/h (2 Bft) NO 52 ° 0 min 0,000 mm 1,3 UV-I 155 W/m² -6,0 °C -5,0 °C 12,9 km/h (3 Bft)
13.02.2018 14:16 -2,3 °C 77 % 1014,2 hPa 0,0 mm 5,6 km/h (1 Bft) NO 51 ° 1 min 0,000 mm 1,3 UV-I 563 W/m² -5,8 °C -4,5 °C 8,0 km/h (2 Bft)
13.02.2018 14:17 -2,4 °C 78 % 1014,2 hPa 0,0 mm 7,1 km/h (2 Bft) O 83 ° 1 min 0,000 mm 1,3 UV-I 563 W/m² -5,7 °C -5,2 °C 9,7 km/h (2 Bft)
13.02.2018 14:18 -2,4 °C 78 % 1014,2 hPa 0,0 mm 3,6 km/h (1 Bft) NO 51 ° 1 min 0,000 mm 1,3 UV-I 543 W/m² -5,7 °C -2,4 °C 9,7 km/h (2 Bft)
13.02.2018 14:19 -2,3 °C 77 % 1014,2 hPa 0,0 mm 3,6 km/h (1 Bft) O-NO 62 ° 1 min 0,000 mm 1,3 UV-I 538 W/m² -5,8 °C -2,3 °C 6,4 km/h (2 Bft)
13.02.2018 14:20 -2,4 °C 78 % 1014,1 hPa 0,0 mm 4,3 km/h (1 Bft) O 89 ° 1 min 0,000 mm 1,3 UV-I 524 W/m² -5,7 °C -2,4 °C 11,3 km/h (2 Bft)
13.02.2018 14:21 -2,3 °C 78 % 1014,2 hPa 0,0 mm 6,7 km/h (2 Bft) O-NO 70 ° 1 min 0,000 mm 1,3 UV-I 522 W/m² -5,6 °C -5,0 °C 14,5 km/h (3 Bft)
13.02.2018 14:22 -2,3 °C 77 % 1014,1 hPa 0,0 mm 5,8 km/h (2 Bft) O-NO 68 ° 1 min 0,000 mm 1,3 UV-I 557 W/m² -5,8 °C -4,6 °C 11,3 km/h (2 Bft)
13.02.2018 14:23 -2,3 °C 76 % 1014,0 hPa 0,0 mm 5,8 km/h (2 Bft) O-NO 69 ° 1 min 0,000 mm 1,2 UV-I 566 W/m² -5,9 °C -4,6 °C 8,0 km/h (2 Bft)
13.02.2018 14:24 -2,2 °C 76 % 1014,0 hPa 0,0 mm 7,6 km/h (2 Bft) O-NO 70 ° 1 min 0,000 mm 1,3 UV-I 478 W/m² -5,8 °C -5,2 °C 14,5 km/h (3 Bft)
13.02.2018 14:25 -2,2 °C 76 % 1014,0 hPa 0,0 mm 9,2 km/h (2 Bft) O-NO 65 ° 1 min 0,000 mm 1,3 UV-I 519 W/m² -5,8 °C -5,7 °C 11,3 km/h (2 Bft)
13.02.2018 14:26 -2,2 °C 77 % 1014,0 hPa 0,0 mm 6,2 km/h (2 Bft) O-NO 74 ° 1 min 0,000 mm 1,3 UV-I 504 W/m² -5,7 °C -4,6 °C 9,7 km/h (2 Bft)
13.02.2018 14:27 -2,3 °C 78 % 1014,0 hPa 0,0 mm 2,4 km/h (1 Bft) O-NO 74 ° 1 min 0,000 mm 1,2 UV-I 464 W/m² -5,6 °C -2,3 °C 6,4 km/h (2 Bft)
13.02.2018 14:28 -2,4 °C 78 % 1014,0 hPa 0,0 mm 2,1 km/h (1 Bft) O-NO 57 ° 0 min 0,000 mm 1,0 UV-I 278 W/m² -5,7 °C -2,4 °C 4,8 km/h (1 Bft)
13.02.2018 14:29 -2,4 °C 78 % 1014,0 hPa 0,0 mm 1,9 km/h (1 Bft) O-NO 57 ° 0 min 0,000 mm 1,3 UV-I 278 W/m² -5,7 °C -2,4 °C 4,8 km/h (1 Bft)
13.02.2018 14:30 -2,4 °C 78 % 1014,0 hPa 0,2 mm 5,2 km/h (1 Bft) N-NO 19 ° 1 min 0,000 mm 1,3 UV-I 480 W/m² -5,7 °C -4,4 °C 11,3 km/h (2 Bft)
13.02.2018 14:31 -2,3 °C 77 % 1014,0 hPa 0,0 mm 6,0 km/h (2 Bft) O 92 ° 1 min 0,000 mm 1,3 UV-I 483 W/m² -5,8 °C -4,7 °C 12,9 km/h (3 Bft)
13.02.2018 14:32 -2,3 °C 77 % 1014,0 hPa 0,0 mm 7,7 km/h (2 Bft) O-NO 74 ° 1 min 0,000 mm 1,2 UV-I 483 W/m² -5,8 °C -5,3 °C 12,9 km/h (3 Bft)
13.02.2018 14:33 -2,2 °C 77 % 1014,0 hPa 0,0 mm 5,0 km/h (1 Bft) O-NO 72 ° 1 min 0,000 mm 1,2 UV-I 483 W/m² -5,7 °C -4,1 °C 11,3 km/h (2 Bft)
13.02.2018 14:34 -2,2 °C 77 % 1013,9 hPa 0,0 mm 6,4 km/h (2 Bft) O-NO 76 ° 1 min 0,000 mm 1,3 UV-I 436 W/m² -5,7 °C -4,7 °C 11,3 km/h (2 Bft)
13.02.2018 14:35 -2,3 °C 77 % 1013,9 hPa 0,0 mm 6,5 km/h (2 Bft) NO 40 ° 1 min 0,000 mm 1,2 UV-I 436 W/m² -5,8 °C -4,9 °C 9,7 km/h (2 Bft)
13.02.2018 14:36 -2,4 °C 78 % 1013,9 hPa 0,0 mm 6,6 km/h (2 Bft) O 90 ° 1 min 0,000 mm 1,3 UV-I 403 W/m² -5,7 °C -5,0 °C 11,3 km/h (2 Bft)
13.02.2018 14:37 -2,5 °C 78 % 1013,9 hPa 0,0 mm 6,7 km/h (2 Bft) O-NO 63 ° 1 min 0,000 mm 1,3 UV-I 397 W/m² -5,8 °C -5,2 °C 14,5 km/h (3 Bft)
13.02.2018 14:38 -2,5 °C 78 % 1013,9 hPa 0,0 mm 11,6 km/h (2 Bft) O 86 ° 1 min 0,000 mm 1,3 UV-I 394 W/m² -5,8 °C -6,7 °C 16,1 km/h (3 Bft)
13.02.2018 14:39 -2,4 °C 77 % 1013,9 hPa 0,0 mm 7,4 km/h (2 Bft) O 81 ° 1 min 0,000 mm 1,3 UV-I 385 W/m² -5,9 °C -5,3 °C 9,7 km/h (2 Bft)
13.02.2018 14:40 -2,4 °C 77 % 1013,9 hPa 0,0 mm 4,6 km/h (1 Bft) O 85 ° 1 min 0,000 mm 1,4 UV-I 381 W/m² -5,9 °C -4,1 °C 11,3 km/h (2 Bft)
13.02.2018 14:41 -2,4 °C 78 % 1013,8 hPa 0,0 mm 3,5 km/h (1 Bft) O-NO 78 ° 1 min 0,000 mm 1,4 UV-I 383 W/m² -5,7 °C -2,4 °C 6,4 km/h (2 Bft)
13.02.2018 14:42 -2,4 °C 78 % 1013,8 hPa 0,0 mm 5,1 km/h (1 Bft) O-NO 74 ° 1 min 0,000 mm 1,4 UV-I 374 W/m² -5,7 °C -4,4 °C 6,4 km/h (2 Bft)
13.02.2018 14:43 -2,4 °C 77 % 1013,8 hPa 0,0 mm 4,8 km/h (1 Bft) O 80 ° 1 min 0,000 mm 1,2 UV-I 374 W/m² -5,9 °C -4,2 °C 6,4 km/h (2 Bft)
13.02.2018 14:44 -2,4 °C 78 % 1013,8 hPa 0,0 mm 6,6 km/h (2 Bft) O-NO 75 ° 1 min 0,000 mm 1,4 UV-I 374 W/m² -5,7 °C -5,0 °C 9,7 km/h (2 Bft)
13.02.2018 14:45 -2,4 °C 78 % 1013,8 hPa 0,0 mm 5,0 km/h (1 Bft) O-NO 71 ° 1 min 0,000 mm 1,4 UV-I 399 W/m² -5,7 °C -4,3 °C 8,0 km/h (2 Bft)
13.02.2018 14:46 -2,4 °C 78 % 1013,8 hPa 0,0 mm 5,7 km/h (1 Bft) O-NO 61 ° 1 min 0,000 mm 1,4 UV-I 408 W/m² -5,7 °C -4,6 °C 8,0 km/h (2 Bft)
13.02.2018 14:47 -2,3 °C 78 % 1013,8 hPa 0,0 mm 4,3 km/h (1 Bft) O 81 ° 1 min 0,000 mm 1,5 UV-I 417 W/m² -5,6 °C -2,3 °C 8,0 km/h (2 Bft)
13.02.2018 14:48 -2,2 °C 77 % 1013,8 hPa 0,0 mm 4,9 km/h (1 Bft) O-NO 74 ° 1 min 0,000 mm 1,5 UV-I 420 W/m² -5,7 °C -4,0 °C 6,4 km/h (2 Bft)
13.02.2018 14:49 -2,3 °C 77 % 1013,8 hPa 0,0 mm 3,3 km/h (1 Bft) O-NO 71 ° 1 min 0,000 mm 1,5 UV-I 330 W/m² -5,8 °C -2,3 °C 4,8 km/h (1 Bft)
13.02.2018 14:50 -2,3 °C 77 % 1013,8 hPa 0,0 mm 5,5 km/h (1 Bft) O-NO 60 ° 1 min 0,000 mm 1,5 UV-I 420 W/m² -5,8 °C -4,4 °C 12,9 km/h (3 Bft)
13.02.2018 14:51 -2,3 °C 77 % 1013,7 hPa 0,0 mm 5,1 km/h (1 Bft) NO 47 ° 1 min 0,000 mm 1,5 UV-I 420 W/m² -5,8 °C -4,2 °C 12,9 km/h (3 Bft)
13.02.2018 14:52 -2,2 °C 76 % 1013,7 hPa 0,0 mm 6,5 km/h (2 Bft) O-NO 62 ° 1 min 0,000 mm 1,4 UV-I 420 W/m² -5,8 °C -4,8 °C 11,3 km/h (2 Bft)
13.02.2018 14:53 -2,1 °C 75 % 1013,7 hPa 0,0 mm 6,3 km/h (2 Bft) O-NO 69 ° 1 min 0,000 mm 1,2 UV-I 420 W/m² -5,9 °C -4,6 °C 9,7 km/h (2 Bft)
13.02.2018 14:54 -2,1 °C 76 % 1013,7 hPa 0,0 mm 6,7 km/h (2 Bft) NO 51 ° 1 min 0,000 mm 1,1 UV-I 420 W/m² -5,7 °C -4,7 °C 14,5 km/h (3 Bft)
13.02.2018 14:55 -2,2 °C 77 % 1013,7 hPa 0,0 mm 6,6 km/h (2 Bft) O-SO 105 ° 0 min 0,000 mm 1,2 UV-I 102 W/m² -5,7 °C -4,8 °C 9,7 km/h (2 Bft)
13.02.2018 14:56 -2,3 °C 77 % 1013,7 hPa 0,0 mm 1,8 km/h (1 Bft) SO 137 ° 0 min 0,000 mm 1,3 UV-I 200 W/m² -5,8 °C -2,3 °C 4,8 km/h (1 Bft)
13.02.2018 14:57 -2,3 °C 77 % 1013,6 hPa 0,0 mm 2,7 km/h (1 Bft) O 82 ° 1 min 0,000 mm 1,3 UV-I 387 W/m² -5,8 °C -2,3 °C 4,8 km/h (1 Bft)
13.02.2018 14:58 -2,4 °C 78 % 1013,6 hPa 0,0 mm 4,2 km/h (1 Bft) O 100 ° 1 min 0,000 mm 1,5 UV-I 387 W/m² -5,7 °C -2,4 °C 9,7 km/h (2 Bft)
13.02.2018 14:59 -2,5 °C 78 % 1013,7 hPa 0,0 mm 1,1 km/h (1 Bft) O 100 ° 1 min 0,000 mm 1,4 UV-I 387 W/m² -5,8 °C -2,5 °C 3,2 km/h (1 Bft)
13.02.2018 15:00 -2,4 °C 77 % 1013,7 hPa 0,0 mm 3,2 km/h (1 Bft) O-NO 65 ° 1 min 0,000 mm 1,4 UV-I 387 W/m² -5,9 °C -2,4 °C 4,8 km/h (1 Bft)
13.02.2018 15:01 -2,3 °C 78 % 1013,6 hPa 0,0 mm 4,2 km/h (1 Bft) NO 36 ° 1 min 0,127 mm 1,4 UV-I 387 W/m² -5,6 °C -2,3 °C 8,0 km/h (2 Bft)
13.02.2018 15:02 -2,2 °C 77 % 1013,6 hPa 0,0 mm 5,8 km/h (2 Bft) O-NO 67 ° 1 min 0,000 mm 1,4 UV-I 376 W/m² -5,7 °C -4,5 °C 8,0 km/h (2 Bft)
13.02.2018 15:03 -2,2 °C 77 % 1013,6 hPa 0,0 mm 4,6 km/h (1 Bft) NO 50 ° 1 min 0,000 mm 1,3 UV-I 350 W/m² -5,7 °C -3,9 °C 6,4 km/h (2 Bft)
13.02.2018 15:04 -2,1 °C 76 % 1013,6 hPa 0,0 mm 4,7 km/h (1 Bft) NO 53 ° 1 min 0,000 mm 1,4 UV-I 345 W/m² -5,7 °C -3,8 °C 6,4 km/h (2 Bft)
13.02.2018 15:05 -2,1 °C 77 % 1013,6 hPa 0,0 mm 3,6 km/h (1 Bft) O-NO 58 ° 1 min 0,000 mm 1,3 UV-I 345 W/m² -5,6 °C -2,1 °C 4,8 km/h (1 Bft)
13.02.2018 15:06 -2,1 °C 76 % 1013,6 hPa 0,0 mm 2,5 km/h (1 Bft) O 92 ° 1 min 0,000 mm 1,3 UV-I 350 W/m² -5,7 °C -2,1 °C 9,7 km/h (2 Bft)
13.02.2018 15:07 -2,1 °C 77 % 1013,6 hPa 0,0 mm 4,9 km/h (1 Bft) O-NO 73 ° 1 min 0,000 mm 1,3 UV-I 353 W/m² -5,6 °C -3,9 °C 6,4 km/h (2 Bft)
13.02.2018 15:08 -2,2 °C 78 % 1013,6 hPa 0,0 mm 5,0 km/h (1 Bft) O 90 ° 1 min 0,000 mm 1,3 UV-I 346 W/m² -5,5 °C -4,1 °C 11,3 km/h (2 Bft)
13.02.2018 15:09 -2,2 °C 77 % 1013,5 hPa 0,0 mm 3,7 km/h (1 Bft) O-NO 76 ° 0 min 0,000 mm 1,2 UV-I 287 W/m² -5,7 °C -2,2 °C 4,8 km/h (1 Bft)
13.02.2018 15:10 -2,2 °C 77 % 1013,5 hPa 0,0 mm 3,1 km/h (1 Bft) O-NO 76 ° 1 min 0,000 mm 1,2 UV-I 332 W/m² -5,7 °C -2,2 °C 4,8 km/h (1 Bft)
13.02.2018 15:11 -2,1 °C 77 % 1013,5 hPa 0,0 mm 3,9 km/h (1 Bft) O 83 ° 0 min 0,000 mm 1,2 UV-I 248 W/m² -5,6 °C -2,1 °C 11,3 km/h (2 Bft)
13.02.2018 15:12 -2,1 °C 77 % 1013,5 hPa 0,0 mm 3,8 km/h (1 Bft) O-NO 67 ° 0 min 0,000 mm 1,2 UV-I 274 W/m² -5,6 °C -2,1 °C 6,4 km/h (2 Bft)
13.02.2018 15:13 -2,2 °C 78 % 1013,5 hPa 0,0 mm 3,2 km/h (1 Bft) O 90 ° 1 min 0,000 mm 1,3 UV-I 318 W/m² -5,5 °C -2,2 °C 6,4 km/h (2 Bft)
13.02.2018 15:14 -2,2 °C 77 % 1013,5 hPa 0,0 mm 3,0 km/h (1 Bft) NO 47 ° 0 min 0,000 mm 1,3 UV-I 283 W/m² -5,7 °C -2,2 °C 6,4 km/h (2 Bft)
13.02.2018 15:15 -2,2 °C 76 % 1013,5 hPa 0,0 mm 3,3 km/h (1 Bft) O-NO 71 ° 1 min 0,000 mm 1,3 UV-I 311 W/m² -5,8 °C -2,2 °C 6,4 km/h (2 Bft)
13.02.2018 15:16 -2,3 °C 77 % 1013,5 hPa 0,0 mm 3,8 km/h (1 Bft) NO 49 ° 1 min 0,000 mm 1,2 UV-I 304 W/m² -5,8 °C -2,3 °C 8,0 km/h (2 Bft)
13.02.2018 15:17 -2,3 °C 77 % 1013,5 hPa 0,0 mm 7,2 km/h (2 Bft) NO 54 ° 1 min 0,000 mm 1,2 UV-I 309 W/m² -5,8 °C -5,2 °C 14,5 km/h (3 Bft)
13.02.2018 15:18 -2,3 °C 77 % 1013,4 hPa 0,0 mm 6,0 km/h (2 Bft) O 99 ° 1 min 0,000 mm 1,2 UV-I 302 W/m² -5,8 °C -4,7 °C 11,3 km/h (2 Bft)
13.02.2018 15:19 -2,3 °C 77 % 1013,5 hPa 0,0 mm 4,4 km/h (1 Bft) NO 45 ° 1 min 0,000 mm 1,2 UV-I 301 W/m² -5,8 °C -2,3 °C 9,7 km/h (2 Bft)
13.02.2018 15:20 -2,2 °C 77 % 1013,4 hPa 0,0 mm 5,7 km/h (1 Bft) O-NO 76 ° 1 min 0,000 mm 1,2 UV-I 297 W/m² -5,7 °C -4,4 °C 11,3 km/h (2 Bft)
13.02.2018 15:21 -2,2 °C 76 % 1013,4 hPa 0,0 mm 7,7 km/h (2 Bft) O-NO 57 ° 0 min 0,000 mm 1,1 UV-I 250 W/m² -5,8 °C -5,2 °C 11,3 km/h (2 Bft)
13.02.2018 15:22 -2,2 °C 76 % 1013,5 hPa 0,0 mm 9,0 km/h (2 Bft) O-NO 71 ° 1 min 0,000 mm 1,1 UV-I 297 W/m² -5,8 °C -5,6 °C 12,9 km/h (3 Bft)
13.02.2018 15:23 -2,2 °C 76 % 1013,5 hPa 0,0 mm 6,6 km/h (2 Bft) N-NO 31 ° 1 min 0,000 mm 1,1 UV-I 290 W/m² -5,8 °C -4,8 °C 14,5 km/h (3 Bft)
13.02.2018 15:24 -2,2 °C 76 % 1013,4 hPa 0,0 mm 10,4 km/h (2 Bft) O-NO 63 ° 0 min 0,000 mm 1,1 UV-I 278 W/m² -5,8 °C -6,1 °C 17,7 km/h (3 Bft)
13.02.2018 15:25 -2,2 °C 76 % 1013,4 hPa 0,0 mm 7,8 km/h (2 Bft) O 98 ° 0 min 0,000 mm 1,1 UV-I 253 W/m² -5,8 °C -5,3 °C 12,9 km/h (3 Bft)
13.02.2018 15:26 -2,2 °C 76 % 1013,5 hPa 0,0 mm 5,9 km/h (2 Bft) O-NO 61 ° 0 min 0,000 mm 1,1 UV-I 248 W/m² -5,8 °C -4,5 °C 11,3 km/h (2 Bft)
13.02.2018 15:27 -2,2 °C 76 % 1013,5 hPa 0,0 mm 9,5 km/h (2 Bft) O 88 ° 0 min 0,000 mm 1,1 UV-I 255 W/m² -5,8 °C -5,8 °C 14,5 km/h (3 Bft)
13.02.2018 15:28 -2,2 °C 77 % 1013,4 hPa 0,0 mm 8,9 km/h (2 Bft) NO 51 ° 0 min 0,000 mm 1,1 UV-I 269 W/m² -5,7 °C -5,6 °C 11,3 km/h (2 Bft)
13.02.2018 15:29 -2,3 °C 77 % 1013,4 hPa 0,0 mm 4,1 km/h (1 Bft) O 86 ° 0 min 0,000 mm 1,1 UV-I 278 W/m² -5,8 °C -2,3 °C 8,0 km/h (2 Bft)
13.02.2018 15:30 -2,3 °C 77 % 1013,4 hPa 0,0 mm 5,5 km/h (1 Bft) O-NO 74 ° 0 min 0,000 mm 1,1 UV-I 267 W/m² -5,8 °C -4,4 °C 8,0 km/h (2 Bft)
13.02.2018 15:31 -2,3 °C 78 % 1013,4 hPa 0,0 mm 10,9 km/h (2 Bft) O 84 ° 0 min 0,000 mm 1,0 UV-I 241 W/m² -5,6 °C -6,3 °C 16,1 km/h (3 Bft)
13.02.2018 15:32 -2,3 °C 78 % 1013,4 hPa 0,0 mm 7,4 km/h (2 Bft) O 91 ° 0 min 0,000 mm 1,0 UV-I 134 W/m² -5,6 °C -5,2 °C 12,9 km/h (3 Bft)
13.02.2018 15:33 -2,2 °C 78 % 1013,3 hPa 0,0 mm 7,6 km/h (2 Bft) O 98 ° 0 min 0,000 mm 0,9 UV-I 142 W/m² -5,5 °C -5,2 °C 12,9 km/h (3 Bft)
13.02.2018 15:34 -2,2 °C 78 % 1013,3 hPa 0,0 mm 9,5 km/h (2 Bft) NO 51 ° 0 min 0,000 mm 0,9 UV-I 160 W/m² -5,5 °C -5,8 °C 16,1 km/h (3 Bft)
13.02.2018 15:35 -2,2 °C 78 % 1013,3 hPa 0,0 mm 10,2 km/h (2 Bft) O-NO 61 ° 0 min 0,000 mm 0,9 UV-I 148 W/m² -5,5 °C -6,0 °C 17,7 km/h (3 Bft)
13.02.2018 15:36 -2,2 °C 77 % 1013,2 hPa 0,0 mm 11,3 km/h (2 Bft) N-NO 29 ° 0 min 0,000 mm 0,9 UV-I 155 W/m² -5,7 °C -6,3 °C 17,7 km/h (3 Bft)
13.02.2018 15:37 -2,2 °C 77 % 1013,2 hPa 0,0 mm 8,6 km/h (2 Bft) NO 42 ° 0 min 0,000 mm 0,9 UV-I 232 W/m² -5,7 °C -5,5 °C 12,9 km/h (3 Bft)
13.02.2018 15:38 -2,1 °C 77 % 1013,3 hPa 0,0 mm 6,6 km/h (2 Bft) NO 54 ° 0 min 0,000 mm 0,9 UV-I 232 W/m² -5,6 °C -4,7 °C 11,3 km/h (2 Bft)
13.02.2018 15:39 -2,1 °C 77 % 1013,2 hPa 0,0 mm 5,1 km/h (1 Bft) O-NO 67 ° 0 min 0,000 mm 0,9 UV-I 255 W/m² -5,6 °C -4,0 °C 11,3 km/h (2 Bft)
13.02.2018 15:40 -2,2 °C 77 % 1013,2 hPa 0,0 mm 5,6 km/h (1 Bft) NO 53 ° 0 min 0,000 mm 0,9 UV-I 253 W/m² -5,7 °C -4,4 °C 8,0 km/h (2 Bft)
13.02.2018 15:41 -2,2 °C 77 % 1013,2 hPa 0,0 mm 5,2 km/h (1 Bft) O-NO 59 ° 0 min 0,000 mm 0,9 UV-I 211 W/m² -5,7 °C -4,2 °C 6,4 km/h (2 Bft)
13.02.2018 15:42 -2,3 °C 78 % 1013,2 hPa 0,0 mm 3,4 km/h (1 Bft) O 79 ° 0 min 0,000 mm 0,9 UV-I 211 W/m² -5,6 °C -2,3 °C 6,4 km/h (2 Bft)
13.02.2018 15:43 -2,3 °C 78 % 1013,2 hPa 0,0 mm 6,9 km/h (2 Bft) O-NO 77 ° 0 min 0,000 mm 0,9 UV-I 197 W/m² -5,6 °C -5,0 °C 14,5 km/h (3 Bft)
13.02.2018 15:44 -2,3 °C 77 % 1013,2 hPa 0,0 mm 6,6 km/h (2 Bft) O-NO 73 ° 0 min 0,000 mm 0,9 UV-I 167 W/m² -5,8 °C -4,9 °C 9,7 km/h (2 Bft)
13.02.2018 15:45 -2,3 °C 77 % 1013,2 hPa 0,0 mm 9,7 km/h (2 Bft) O-NO 76 ° 0 min 0,000 mm 0,8 UV-I 137 W/m² -5,8 °C -6,0 °C 14,5 km/h (3 Bft)
13.02.2018 15:46 -2,3 °C 77 % 1013,2 hPa 0,0 mm 5,2 km/h (1 Bft) NO 44 ° 0 min 0,000 mm 0,8 UV-I 97 W/m² -5,8 °C -4,3 °C 6,4 km/h (2 Bft)
13.02.2018 15:47 -2,3 °C 78 % 1013,2 hPa 0,0 mm 5,8 km/h (2 Bft) O-NO 64 ° 0 min 0,000 mm 0,0 UV-I 53 W/m² -5,6 °C -4,6 °C 14,5 km/h (3 Bft)
13.02.2018 15:48 -2,4 °C 78 % 1013,2 hPa 0,0 mm 6,5 km/h (2 Bft) NO 40 ° 0 min 0,000 mm 0,0 UV-I 42 W/m² -5,7 °C -5,0 °C 11,3 km/h (2 Bft)
13.02.2018 15:49 -2,4 °C 78 % 1013,2 hPa 0,0 mm 5,6 km/h (1 Bft) O 80 ° 0 min 0,000 mm 0,0 UV-I 40 W/m² -5,7 °C -4,6 °C 8,0 km/h (2 Bft)
13.02.2018 15:50 -2,5 °C 78 % 1013,2 hPa 0,0 mm 5,5 km/h (1 Bft) O-NO 71 ° 0 min 0,000 mm 0,0 UV-I 39 W/m² -5,8 °C -4,7 °C 9,7 km/h (2 Bft)
13.02.2018 15:51 -2,5 °C 78 % 1013,2 hPa 0,0 mm 5,0 km/h (1 Bft) O 86 ° 0 min 0,000 mm 0,0 UV-I 39 W/m² -5,8 °C -4,4 °C 11,3 km/h (2 Bft)
13.02.2018 15:52 -2,6 °C 79 % 1013,2 hPa 0,0 mm 4,7 km/h (1 Bft) O-NO 65 ° 0 min 0,000 mm 0,0 UV-I 40 W/m² -5,7 °C -4,4 °C 8,0 km/h (2 Bft)
13.02.2018 15:53 -2,7 °C 79 % 1013,2 hPa 0,0 mm 4,7 km/h (1 Bft) NO 53 ° 0 min 0,000 mm 0,0 UV-I 46 W/m² -5,8 °C -4,5 °C 6,4 km/h (2 Bft)
13.02.2018 15:54 -2,8 °C 80 % 1013,2 hPa 0,0 mm 2,2 km/h (1 Bft) NO 53 ° 0 min 0,000 mm 0,0 UV-I 46 W/m² -5,8 °C -2,8 °C 3,2 km/h (1 Bft)
13.02.2018 15:55 -2,8 °C 80 % 1013,2 hPa 0,0 mm 3,5 km/h (1 Bft) O 91 ° 0 min 0,000 mm 0,0 UV-I 44 W/m² -5,8 °C -2,8 °C 4,8 km/h (1 Bft)
13.02.2018 15:56 -2,8 °C 80 % 1013,2 hPa 0,0 mm 4,5 km/h (1 Bft) O-NO 65 ° 0 min 0,000 mm 0,0 UV-I 39 W/m² -5,8 °C -2,8 °C 9,7 km/h (2 Bft)
13.02.2018 15:57 -2,9 °C 80 % 1013,2 hPa 0,0 mm 4,5 km/h (1 Bft) O-NO 70 ° 0 min 0,000 mm 0,0 UV-I 49 W/m² -5,9 °C -2,9 °C 8,0 km/h (2 Bft)
13.02.2018 15:58 -2,9 °C 80 % 1013,2 hPa 0,0 mm 6,2 km/h (2 Bft) O 98 ° 0 min 0,000 mm 0,0 UV-I 47 W/m² -5,9 °C -5,4 °C 9,7 km/h (2 Bft)
13.02.2018 15:59 -3,1 °C 80 % 1013,2 hPa 0,0 mm 5,9 km/h (2 Bft) O 88 ° 0 min 0,000 mm 0,0 UV-I 39 W/m² -6,0 °C -5,5 °C 9,7 km/h (2 Bft)
13.02.2018 16:00 -3,1 °C 81 % 1013,2 hPa 0,0 mm 3,3 km/h (1 Bft) NO 53 ° 0 min 0,000 mm 0,0 UV-I 37 W/m² -5,9 °C -3,1 °C 6,4 km/h (2 Bft)
13.02.2018 16:01 -3,1 °C 81 % 1013,2 hPa 0,0 mm 1,3 km/h (1 Bft) NO 53 ° 0 min 0,076 mm 0,0 UV-I 37 W/m² -5,9 °C -3,1 °C 3,2 km/h (1 Bft)
13.02.2018 16:02 -3,0 °C 81 % 1013,2 hPa 0,0 mm 0,0 km/h (0 Bft) NO 53 ° 0 min 0,000 mm 0,0 UV-I 42 W/m² -5,8 °C -3,0 °C 0,0 km/h (0 Bft)
13.02.2018 16:03 -3,1 °C 81 % 1013,2 hPa 0,0 mm 2,4 km/h (1 Bft) NO 53 ° 0 min 0,000 mm 0,0 UV-I 44 W/m² -5,9 °C -3,1 °C 4,8 km/h (1 Bft)
13.02.2018 16:04 -3,1 °C 81 % 1013,1 hPa 0,0 mm 0,8 km/h (0 Bft) NO 53 ° 0 min 0,000 mm 0,0 UV-I 51 W/m² -5,9 °C -3,1 °C 3,2 km/h (1 Bft)
13.02.2018 16:05 -3,1 °C 81 % 1013,1 hPa 0,0 mm 2,4 km/h (1 Bft) O-NO 74 ° 0 min 0,000 mm 0,6 UV-I 56 W/m² -5,9 °C -3,1 °C 8,0 km/h (2 Bft)
13.02.2018 16:06 -3,1 °C 81 % 1013,1 hPa 0,0 mm 5,5 km/h (1 Bft) O 90 ° 0 min 0,000 mm 0,6 UV-I 62 W/m² -5,9 °C -5,4 °C 8,0 km/h (2 Bft)
13.02.2018 16:07 -3,1 °C 81 % 1013,1 hPa 0,0 mm 3,2 km/h (1 Bft) O 89 ° 0 min 0,000 mm 0,6 UV-I 62 W/m² -5,9 °C -3,1 °C 6,4 km/h (2 Bft)
13.02.2018 16:08 -3,2 °C 81 % 1013,1 hPa 0,0 mm 5,3 km/h (1 Bft) O 88 ° 0 min 0,000 mm 0,6 UV-I 54 W/m² -6,0 °C -5,4 °C 6,4 km/h (2 Bft)
13.02.2018 16:09 -3,2 °C 82 % 1013,1 hPa 0,0 mm 7,4 km/h (2 Bft) O 80 ° 0 min 0,000 mm 0,0 UV-I 53 W/m² -5,8 °C -6,3 °C 12,9 km/h (3 Bft)
13.02.2018 16:10 -3,2 °C 82 % 1013,1 hPa 0,0 mm 7,8 km/h (2 Bft) O-NO 65 ° 0 min 0,000 mm 0,0 UV-I 49 W/m² -5,8 °C -6,4 °C 11,3 km/h (2 Bft)
13.02.2018 16:11 -3,1 °C 81 % 1013,1 hPa 0,0 mm 5,7 km/h (1 Bft) O-NO 71 ° 0 min 0,000 mm 0,0 UV-I 42 W/m² -5,9 °C -5,5 °C 9,7 km/h (2 Bft)
13.02.2018 16:12 -3,0 °C 80 % 1013,1 hPa 0,0 mm 6,2 km/h (2 Bft) NO 51 ° 0 min 0,000 mm 0,0 UV-I 35 W/m² -6,0 °C -5,6 °C 12,9 km/h (3 Bft)
13.02.2018 16:13 -2,8 °C 80 % 1013,1 hPa 0,0 mm 6,1 km/h (2 Bft) N-NO 30 ° 0 min 0,000 mm 0,0 UV-I 32 W/m² -5,8 °C -5,3 °C 14,5 km/h (3 Bft)
13.02.2018 16:14 -2,8 °C 80 % 1013,1 hPa 0,0 mm 6,6 km/h (2 Bft) O-NO 77 ° 0 min 0,000 mm 0,0 UV-I 32 W/m² -5,8 °C -5,5 °C 14,5 km/h (3 Bft)
13.02.2018 16:15 -2,8 °C 80 % 1013,1 hPa 0,0 mm 5,6 km/h (1 Bft) NO 38 ° 0 min 0,000 mm 0,0 UV-I 32 W/m² -5,8 °C -5,1 °C 8,0 km/h (2 Bft)
13.02.2018 16:16 -2,8 °C 80 % 1013,1 hPa 0,0 mm 4,8 km/h (1 Bft) NO 56 ° 0 min 0,000 mm 0,0 UV-I 30 W/m² -5,8 °C -4,7 °C 6,4 km/h (2 Bft)
13.02.2018 16:17 -2,8 °C 79 % 1013,1 hPa 0,0 mm 2,1 km/h (1 Bft) O-NO 67 ° 0 min 0,000 mm 0,0 UV-I 28 W/m² -5,9 °C -2,8 °C 6,4 km/h (2 Bft)
13.02.2018 16:18 -2,8 °C 79 % 1013,1 hPa 0,0 mm 1,5 km/h (1 Bft) O-NO 70 ° 0 min 0,000 mm 0,0 UV-I 26 W/m² -5,9 °C -2,8 °C 3,2 km/h (1 Bft)
13.02.2018 16:19 -3,0 °C 80 % 1013,0 hPa 0,0 mm 8,6 km/h (2 Bft) O 86 ° 0 min 0,000 mm 0,0 UV-I 26 W/m² -6,0 °C -6,5 °C 12,9 km/h (3 Bft)
13.02.2018 16:20 -3,1 °C 80 % 1013,1 hPa 0,0 mm 3,2 km/h (1 Bft) O 90 ° 0 min 0,000 mm 0,0 UV-I 25 W/m² -6,0 °C -3,1 °C 8,0 km/h (2 Bft)
13.02.2018 16:21 -3,1 °C 80 % 1013,0 hPa 0,0 mm 3,3 km/h (1 Bft) O-NO 69 ° 0 min 0,000 mm 0,0 UV-I 25 W/m² -6,0 °C -3,1 °C 8,0 km/h (2 Bft)
13.02.2018 16:22 -3,2 °C 80 % 1012,9 hPa 0,0 mm 0,1 km/h (0 Bft) O-NO 69 ° 0 min 0,000 mm 0,0 UV-I 25 W/m² -6,1 °C -3,2 °C 1,6 km/h (1 Bft)
13.02.2018 16:23 -3,3 °C 81 % 1013,0 hPa 0,0 mm 3,0 km/h (1 Bft) NO 50 ° 0 min 0,000 mm 0,0 UV-I 25 W/m² -6,1 °C -3,3 °C 6,4 km/h (2 Bft)
13.02.2018 16:24 -3,3 °C 81 % 1013,0 hPa 0,0 mm 1,0 km/h (0 Bft) NO 50 ° 0 min 0,000 mm 0,0 UV-I 25 W/m² -6,1 °C -3,3 °C 1,6 km/h (1 Bft)
13.02.2018 16:25 -3,3 °C 81 % 1013,0 hPa 0,0 mm 3,9 km/h (1 Bft) O-NO 71 ° 0 min 0,000 mm 0,0 UV-I 25 W/m² -6,1 °C -3,3 °C 6,4 km/h (2 Bft)
13.02.2018 16:26 -3,3 °C 81 % 1012,9 hPa 0,0 mm 2,7 km/h (1 Bft) N-NO 29 ° 0 min 0,000 mm 0,0 UV-I 25 W/m² -6,1 °C -3,3 °C 4,8 km/h (1 Bft)
13.02.2018 16:27 -3,3 °C 82 % 1012,9 hPa 0,0 mm 3,3 km/h (1 Bft) NO 42 ° 0 min 0,000 mm 0,0 UV-I 25 W/m² -5,9 °C -3,3 °C 6,4 km/h (2 Bft)
13.02.2018 16:28 -3,5 °C 81 % 1012,9 hPa 0,0 mm 3,9 km/h (1 Bft) O 92 ° 0 min 0,000 mm 0,0 UV-I 25 W/m² -6,3 °C -3,5 °C 6,4 km/h (2 Bft)
13.02.2018 16:29 -3,6 °C 82 % 1012,9 hPa 0,0 mm 7,8 km/h (2 Bft) O-NO 62 ° 0 min 0,000 mm 0,0 UV-I 23 W/m² -6,2 °C -6,9 °C 14,5 km/h (3 Bft)
13.02.2018 16:30 -3,6 °C 82 % 1012,8 hPa 0,0 mm 6,2 km/h (2 Bft) O 80 ° 0 min 0,000 mm 0,0 UV-I 23 W/m² -6,2 °C -6,3 °C 11,3 km/h (2 Bft)
13.02.2018 16:31 -3,6 °C 82 % 1012,8 hPa 0,0 mm 4,5 km/h (1 Bft) O 81 ° 0 min 0,000 mm 0,0 UV-I 23 W/m² -6,2 °C -3,6 °C 8,0 km/h (2 Bft)
13.02.2018 16:32 -3,6 °C 82 % 1012,8 hPa 0,0 mm 7,5 km/h (2 Bft) O-NO 66 ° 0 min 0,000 mm 0,0 UV-I 23 W/m² -6,2 °C -6,8 °C 11,3 km/h (2 Bft)
13.02.2018 16:33 -3,6 °C 82 % 1012,8 hPa 0,0 mm 5,4 km/h (1 Bft) O 80 ° 0 min 0,000 mm 0,0 UV-I 21 W/m² -6,2 °C -5,9 °C 9,7 km/h (2 Bft)
13.02.2018 16:34 -3,6 °C 82 % 1012,8 hPa 0,0 mm 6,5 km/h (2 Bft) O 90 ° 0 min 0,000 mm 0,0 UV-I 21 W/m² -6,2 °C -6,4 °C 9,7 km/h (2 Bft)
13.02.2018 16:35 -3,7 °C 82 % 1012,8 hPa 0,0 mm 4,1 km/h (1 Bft) O 91 ° 0 min 0,000 mm 0,0 UV-I 21 W/m² -6,3 °C -3,7 °C 9,7 km/h (2 Bft)
13.02.2018 16:36 -3,7 °C 82 % 1012,8 hPa 0,0 mm 4,2 km/h (1 Bft) O-NO 58 ° 0 min 0,000 mm 0,0 UV-I 21 W/m² -6,3 °C -3,7 °C 8,0 km/h (2 Bft)
13.02.2018 16:37 -3,7 °C 82 % 1012,8 hPa 0,0 mm 4,8 km/h (1 Bft) O 80 ° 0 min 0,000 mm 0,0 UV-I 21 W/m² -6,3 °C -5,7 °C 8,0 km/h (2 Bft)
13.02.2018 16:38 -3,7 °C 82 % 1012,8 hPa 0,0 mm 1,5 km/h (1 Bft) O 80 ° 0 min 0,000 mm 0,0 UV-I 21 W/m² -6,3 °C -3,7 °C 3,2 km/h (1 Bft)
13.02.2018 16:39 -3,8 °C 82 % 1012,8 hPa 0,0 mm 2,7 km/h (1 Bft) O-NO 72 ° 0 min 0,000 mm 0,0 UV-I 21 W/m² -6,4 °C -3,8 °C 4,8 km/h (1 Bft)
13.02.2018 16:40 -3,8 °C 82 % 1012,7 hPa 0,0 mm 5,6 km/h (1 Bft) O-NO 76 ° 0 min 0,000 mm 0,0 UV-I 21 W/m² -6,4 °C -6,2 °C 11,3 km/h (2 Bft)
13.02.2018 16:41 -3,8 °C 82 % 1012,7 hPa 0,0 mm 6,0 km/h (2 Bft) O 83 ° 0 min 0,000 mm 0,0 UV-I 21 W/m² -6,4 °C -6,4 °C 8,0 km/h (2 Bft)
13.02.2018 16:42 -3,8 °C 82 % 1012,8 hPa 0,0 mm 1,7 km/h (1 Bft) O 83 ° 0 min 0,000 mm 0,0 UV-I 21 W/m² -6,4 °C -3,8 °C 3,2 km/h (1 Bft)
13.02.2018 16:43 -3,7 °C 83 % 1012,8 hPa 0,0 mm 1,6 km/h (1 Bft) O-NO 69 ° 0 min 0,000 mm 0,0 UV-I 21 W/m² -6,2 °C -3,7 °C 6,4 km/h (2 Bft)
13.02.2018 16:44 -3,7 °C 82 % 1012,7 hPa 0,0 mm 5,0 km/h (1 Bft) O 81 ° 0 min 0,000 mm 0,0 UV-I 21 W/m² -6,3 °C -5,8 °C 11,3 km/h (2 Bft)
13.02.2018 16:45 -3,8 °C 82 % 1012,8 hPa 0,0 mm 1,9 km/h (1 Bft) O-NO 69 ° 0 min 0,000 mm 0,0 UV-I 19 W/m² -6,4 °C -3,8 °C 6,4 km/h (2 Bft)
13.02.2018 16:46 -3,8 °C 82 % 1012,8 hPa 0,0 mm 5,3 km/h (1 Bft) NO 46 ° 0 min 0,000 mm 0,0 UV-I 19 W/m² -6,4 °C -6,1 °C 11,3 km/h (2 Bft)
13.02.2018 16:47 -3,9 °C 82 % 1012,7 hPa 0,0 mm 2,5 km/h (1 Bft) O-NO 76 ° 0 min 0,000 mm 0,0 UV-I 19 W/m² -6,5 °C -3,9 °C 4,8 km/h (1 Bft)
13.02.2018 16:48 -3,9 °C 83 % 1012,8 hPa 0,0 mm 0,2 km/h (0 Bft) NO 41 ° 0 min 0,000 mm 0,0 UV-I 19 W/m² -6,4 °C -3,9 °C 1,6 km/h (1 Bft)
13.02.2018 16:49 -3,9 °C 83 % 1012,6 hPa 0,0 mm 4,6 km/h (1 Bft) O-NO 74 ° 0 min 0,000 mm 0,0 UV-I 19 W/m² -6,4 °C -5,8 °C 6,4 km/h (2 Bft)
13.02.2018 16:50 -4,1 °C 83 % 1012,6 hPa 0,0 mm 2,9 km/h (1 Bft) O 79 ° 0 min 0,000 mm 0,0 UV-I 19 W/m² -6,5 °C -4,1 °C 4,8 km/h (1 Bft)
13.02.2018 16:51 -4,1 °C 83 % 1012,6 hPa 0,0 mm 3,1 km/h (1 Bft) O 96 ° 0 min 0,000 mm 0,0 UV-I 19 W/m² -6,5 °C -4,1 °C 9,7 km/h (2 Bft)
13.02.2018 16:52 -4,2 °C 83 % 1012,6 hPa 0,0 mm 3,9 km/h (1 Bft) O 84 ° 0 min 0,000 mm 0,0 UV-I 19 W/m² -6,6 °C -4,2 °C 6,4 km/h (2 Bft)
13.02.2018 16:53 -4,2 °C 83 % 1012,6 hPa 0,0 mm 3,5 km/h (1 Bft) O 96 ° 0 min 0,000 mm 0,0 UV-I 18 W/m² -6,6 °C -4,2 °C 9,7 km/h (2 Bft)
13.02.2018 16:54 -4,2 °C 83 % 1012,6 hPa 0,0 mm 6,0 km/h (2 Bft) O 92 ° 0 min 0,000 mm 0,0 UV-I 18 W/m² -6,6 °C -6,9 °C 9,7 km/h (2 Bft)
13.02.2018 16:55 -4,2 °C 84 % 1012,6 hPa 0,0 mm 6,6 km/h (2 Bft) O 97 ° 0 min 0,000 mm 0,0 UV-I 18 W/m² -6,5 °C -7,1 °C 14,5 km/h (3 Bft)
13.02.2018 16:56 -4,2 °C 84 % 1012,6 hPa 0,0 mm 5,5 km/h (1 Bft) O-NO 70 ° 0 min 0,000 mm 0,0 UV-I 18 W/m² -6,5 °C -6,6 °C 9,7 km/h (2 Bft)
13.02.2018 16:57 -4,2 °C 84 % 1012,6 hPa 0,0 mm 3,5 km/h (1 Bft) O-NO 71 ° 0 min 0,000 mm 0,0 UV-I 18 W/m² -6,5 °C -4,2 °C 6,4 km/h (2 Bft)
13.02.2018 16:58 -4,3 °C 83 % 1012,6 hPa 0,0 mm 6,1 km/h (2 Bft) NO 48 ° 0 min 0,000 mm 0,0 UV-I 18 W/m² -6,7 °C -7,0 °C 11,3 km/h (2 Bft)
13.02.2018 16:59 -4,3 °C 83 % 1012,6 hPa 0,0 mm 3,4 km/h (1 Bft) O-NO 74 ° 0 min 0,000 mm 0,0 UV-I 18 W/m² -6,7 °C -4,3 °C 6,4 km/h (2 Bft)
13.02.2018 17:00 -4,3 °C 84 % 1012,7 hPa 0,0 mm 1,8 km/h (1 Bft) O 80 ° 0 min 0,026 mm 0,0 UV-I 16 W/m² -6,6 °C -4,3 °C 3,2 km/h (1 Bft)
13.02.2018 17:01 -4,3 °C 84 % 1012,6 hPa 0,0 mm 0,3 km/h (0 Bft) O-NO 75 ° 0 min 0,000 mm 0,0 UV-I 16 W/m² -6,6 °C -4,3 °C 3,2 km/h (1 Bft)
13.02.2018 17:02 -4,3 °C 83 % 1012,7 hPa 0,0 mm 5,8 km/h (2 Bft) O 80 ° 0 min 0,000 mm 0,0 UV-I 16 W/m² -6,7 °C -6,9 °C 8,0 km/h (2 Bft)
13.02.2018 17:03 -4,2 °C 83 % 1012,7 hPa 0,0 mm 3,4 km/h (1 Bft) O-NO 69 ° 0 min 0,000 mm 0,0 UV-I 16 W/m² -6,6 °C -4,2 °C 6,4 km/h (2 Bft)
13.02.2018 17:04 -4,2 °C 84 % 1012,7 hPa 0,0 mm 0,9 km/h (0 Bft) O-NO 69 ° 0 min 0,000 mm 0,0 UV-I 16 W/m² -6,5 °C -4,2 °C 1,6 km/h (1 Bft)
13.02.2018 17:05 -4,2 °C 83 % 1012,7 hPa 0,0 mm 0,0 km/h (0 Bft) O-NO 69 ° 0 min 0,000 mm 0,0 UV-I 16 W/m² -6,6 °C -4,2 °C 0,0 km/h (0 Bft)
13.02.2018 17:06 -4,1 °C 83 % 1012,7 hPa 0,0 mm 0,0 km/h (0 Bft) O-NO 69 ° 0 min 0,000 mm 0,0 UV-I 14 W/m² -6,5 °C -4,1 °C 0,0 km/h (0 Bft)
13.02.2018 17:07 -4,1 °C 83 % 1012,7 hPa 0,0 mm 1,1 km/h (1 Bft) O-NO 71 ° 0 min 0,000 mm 0,0 UV-I 14 W/m² -6,5 °C -4,1 °C 4,8 km/h (1 Bft)
13.02.2018 17:08 -4,1 °C 82 % 1012,7 hPa 0,0 mm 5,4 km/h (1 Bft) O-NO 69 ° 0 min 0,000 mm 0,0 UV-I 14 W/m² -6,7 °C -6,4 °C 8,0 km/h (2 Bft)
13.02.2018 17:09 -4,1 °C 83 % 1012,7 hPa 0,0 mm 2,3 km/h (1 Bft) O-NO 77 ° 0 min 0,000 mm 0,0 UV-I 14 W/m² -6,5 °C -4,1 °C 4,8 km/h (1 Bft)
13.02.2018 17:10 -4,2 °C 83 % 1012,7 hPa 0,0 mm 3,9 km/h (1 Bft) O-NO 65 ° 0 min 0,000 mm 0,0 UV-I 14 W/m² -6,6 °C -4,2 °C 6,4 km/h (2 Bft)
13.02.2018 17:11 -4,2 °C 84 % 1012,7 hPa 0,0 mm 2,8 km/h (1 Bft) O-NO 74 ° 0 min 0,000 mm 0,0 UV-I 14 W/m² -6,5 °C -4,2 °C 6,4 km/h (2 Bft)
13.02.2018 17:12 -4,3 °C 84 % 1012,7 hPa 0,0 mm 4,6 km/h (1 Bft) NO 55 ° 0 min 0,000 mm 0,0 UV-I 12 W/m² -6,6 °C -6,2 °C 12,9 km/h (3 Bft)
13.02.2018 17:13 -4,3 °C 84 % 1012,7 hPa 0,0 mm 3,6 km/h (1 Bft) O-NO 61 ° 0 min 0,000 mm 0,0 UV-I 12 W/m² -6,6 °C -4,3 °C 9,7 km/h (2 Bft)
13.02.2018 17:14 -4,4 °C 84 % 1012,7 hPa 0,0 mm 2,0 km/h (1 Bft) O-NO 61 ° 0 min 0,000 mm 0,0 UV-I 12 W/m² -6,7 °C -4,4 °C 3,2 km/h (1 Bft)
13.02.2018 17:15 -4,3 °C 84 % 1012,7 hPa 0,0 mm 0,5 km/h (0 Bft) O-NO 61 ° 0 min 0,000 mm 0,0 UV-I 12 W/m² -6,6 °C -4,3 °C 3,2 km/h (1 Bft)
13.02.2018 17:16 -4,4 °C 83 % 1012,7 hPa 0,0 mm 0,3 km/h (0 Bft) O 82 ° 0 min 0,000 mm 0,0 UV-I 12 W/m² -6,8 °C -4,4 °C 1,6 km/h (1 Bft)
13.02.2018 17:17 -4,4 °C 84 % 1012,8 hPa 0,0 mm 3,3 km/h (1 Bft) O-NO 57 ° 0 min 0,000 mm 0,0 UV-I 12 W/m² -6,7 °C -4,4 °C 8,0 km/h (2 Bft)
13.02.2018 17:18 -4,5 °C 84 % 1012,7 hPa 0,0 mm 3,0 km/h (1 Bft) O-NO 67 ° 0 min 0,000 mm 0,0 UV-I 11 W/m² -6,8 °C -4,5 °C 6,4 km/h (2 Bft)
13.02.2018 17:19 -4,5 °C 83 % 1012,7 hPa 0,0 mm 0,9 km/h (0 Bft) O-NO 63 ° 0 min 0,000 mm 0,0 UV-I 11 W/m² -6,9 °C -4,5 °C 4,8 km/h (1 Bft)
13.02.2018 17:20 -4,5 °C 84 % 1012,8 hPa 0,0 mm 2,3 km/h (1 Bft) O-NO 74 ° 0 min 0,000 mm 0,0 UV-I 11 W/m² -6,8 °C -4,5 °C 6,4 km/h (2 Bft)
13.02.2018 17:21 -4,6 °C 84 % 1012,8 hPa 0,0 mm 2,1 km/h (1 Bft) O-NO 74 ° 0 min 0,000 mm 0,0 UV-I 11 W/m² -6,9 °C -4,6 °C 4,8 km/h (1 Bft)
13.02.2018 17:22 -4,7 °C 85 % 1012,8 hPa 0,0 mm 1,2 km/h (1 Bft) O-NO 74 ° 0 min 0,000 mm 0,0 UV-I 11 W/m² -6,8 °C -4,7 °C 3,2 km/h (1 Bft)
13.02.2018 17:23 -4,7 °C 85 % 1012,7 hPa 0,0 mm 1,0 km/h (0 Bft) O-NO 75 ° 0 min 0,000 mm 0,0 UV-I 9 W/m² -6,8 °C -4,7 °C 3,2 km/h (1 Bft)
13.02.2018 17:24 -4,8 °C 85 % 1012,7 hPa 0,0 mm 3,4 km/h (1 Bft) O-NO 75 ° 0 min 0,000 mm 0,0 UV-I 9 W/m² -6,9 °C -4,8 °C 4,8 km/h (1 Bft)
13.02.2018 17:25 -4,7 °C 85 % 1012,7 hPa 0,0 mm 0,7 km/h (0 Bft) O-NO 75 ° 0 min 0,000 mm 0,0 UV-I 9 W/m² -6,8 °C -4,7 °C 1,6 km/h (1 Bft)
13.02.2018 17:26 -4,8 °C 85 % 1012,7 hPa 0,0 mm 1,7 km/h (1 Bft) O-NO 76 ° 0 min 0,000 mm 0,0 UV-I 9 W/m² -6,9 °C -4,8 °C 3,2 km/h (1 Bft)
13.02.2018 17:27 -4,8 °C 84 % 1012,7 hPa 0,0 mm 2,1 km/h (1 Bft) O 81 ° 0 min 0,000 mm 0,0 UV-I 7 W/m² -7,1 °C -4,8 °C 3,2 km/h (1 Bft)
13.02.2018 17:28 -4,9 °C 85 % 1012,7 hPa 0,0 mm 1,4 km/h (1 Bft) O 81 ° 0 min 0,000 mm 0,0 UV-I 7 W/m² -7,0 °C -4,9 °C 3,2 km/h (1 Bft)
13.02.2018 17:29 -4,9 °C 85 % 1012,7 hPa 0,0 mm 0,2 km/h (0 Bft) O 80 ° 0 min 0,000 mm 0,0 UV-I 7 W/m² -7,0 °C -4,9 °C 1,6 km/h (1 Bft)
13.02.2018 17:30 -4,9 °C 85 % 1012,7 hPa 0,0 mm 1,7 km/h (1 Bft) O 80 ° 0 min 0,000 mm 0,0 UV-I 7 W/m² -7,0 °C -4,9 °C 3,2 km/h (1 Bft)
13.02.2018 17:31 -4,9 °C 86 % 1012,6 hPa 0,0 mm 3,2 km/h (1 Bft) O-NO 74 ° 0 min 0,000 mm 0,0 UV-I 5 W/m² -6,9 °C -4,9 °C 8,0 km/h (2 Bft)
13.02.2018 17:32 -5,1 °C 85 % 1012,6 hPa 0,0 mm 4,4 km/h (1 Bft) O 89 ° 0 min 0,000 mm 0,0 UV-I 5 W/m² -7,2 °C -5,1 °C 6,4 km/h (2 Bft)
13.02.2018 17:33 -5,1 °C 85 % 1012,6 hPa 0,0 mm 3,5 km/h (1 Bft) O-NO 63 ° 0 min 0,000 mm 0,0 UV-I 5 W/m² -7,2 °C -5,1 °C 6,4 km/h (2 Bft)
13.02.2018 17:34 -5,1 °C 85 % 1012,6 hPa 0,0 mm 2,3 km/h (1 Bft) O-NO 78 ° 0 min 0,000 mm 0,0 UV-I 5 W/m² -7,2 °C -5,1 °C 4,8 km/h (1 Bft)
13.02.2018 17:35 -5,0 °C 86 % 1012,6 hPa 0,0 mm 0,5 km/h (0 Bft) O-NO 78 ° 0 min 0,000 mm 0,0 UV-I 5 W/m² -7,0 °C -5,0 °C 1,6 km/h (1 Bft)
13.02.2018 17:36 -5,0 °C 86 % 1012,7 hPa 0,0 mm 1,4 km/h (1 Bft) O-NO 74 ° 0 min 0,000 mm 0,0 UV-I 0 W/m² -7,0 °C -5,0 °C 4,8 km/h (1 Bft)
13.02.2018 17:37 -5,1 °C 85 % 1012,6 hPa 0,0 mm 2,2 km/h (1 Bft) O-NO 74 ° 0 min 0,000 mm 0,0 UV-I 0 W/m² -7,2 °C -5,1 °C 3,2 km/h (1 Bft)
13.02.2018 17:38 -5,0 °C 85 % 1012,7 hPa 0,0 mm 0,7 km/h (0 Bft) O-NO 74 ° 0 min 0,000 mm 0,0 UV-I 0 W/m² -7,1 °C -5,0 °C 1,6 km/h (1 Bft)
13.02.2018 17:39 -5,1 °C 85 % 1012,7 hPa 0,0 mm 0,0 km/h (0 Bft) O-NO 74 ° 0 min 0,000 mm 0,0 UV-I 0 W/m² -7,2 °C -5,1 °C 0,0 km/h (0 Bft)
13.02.2018 17:40 -5,1 °C 85 % 1012,7 hPa 0,0 mm 1,2 km/h (1 Bft) O-NO 74 ° 0 min 0,000 mm 0,0 UV-I 0 W/m² -7,2 °C -5,1 °C 3,2 km/h (1 Bft)
13.02.2018 17:41 -5,1 °C 85 % 1012,7 hPa 0,0 mm 0,0 km/h (0 Bft) O-NO 74 ° 0 min 0,000 mm 0,0 UV-I 0 W/m² -7,2 °C -5,1 °C 0,0 km/h (0 Bft)
13.02.2018 17:42 -5,2 °C 85 % 1012,7 hPa 0,0 mm 1,1 km/h (1 Bft) O-NO 74 ° 0 min 0,000 mm 0,0 UV-I 0 W/m² -7,3 °C -5,2 °C 3,2 km/h (1 Bft)
13.02.2018 17:43 -5,2 °C 85 % 1012,7 hPa 0,0 mm 1,3 km/h (1 Bft) O-NO 74 ° 0 min 0,000 mm 0,0 UV-I 0 W/m² -7,3 °C -5,2 °C 3,2 km/h (1 Bft)
13.02.2018 17:44 -5,1 °C 86 % 1012,7 hPa 0,0 mm 0,3 km/h (0 Bft) O-NO 74 ° 0 min 0,000 mm 0,0 UV-I 0 W/m² -7,1 °C -5,1 °C 1,6 km/h (1 Bft)
13.02.2018 17:45 -5,1 °C 86 % 1012,7 hPa 0,0 mm 0,1 km/h (0 Bft) O-NO 74 ° 0 min 0,000 mm 0,0 UV-I 0 W/m² -7,1 °C -5,1 °C 1,6 km/h (1 Bft)
13.02.2018 17:46 -5,1 °C 86 % 1012,7 hPa 0,0 mm 0,8 km/h (0 Bft) O-NO 74 ° 0 min 0,000 mm 0,0 UV-I 0 W/m² -7,1 °C -5,1 °C 1,6 km/h (1 Bft)
13.02.2018 17:47 -4,9 °C 86 % 1012,7 hPa 0,0 mm 1,7 km/h (1 Bft) O-NO 74 ° 0 min 0,000 mm 0,0 UV-I 0 W/m² -6,9 °C -4,9 °C 3,2 km/h (1 Bft)
13.02.2018 17:48 -5,0 °C 86 % 1012,7 hPa 0,0 mm 2,1 km/h (1 Bft) O 88 ° 0 min 0,000 mm 0,0 UV-I 0 W/m² -7,0 °C -5,0 °C 3,2 km/h (1 Bft)
13.02.2018 17:49 -5,1 °C 85 % 1012,7 hPa 0,0 mm 0,5 km/h (0 Bft) O 88 ° 0 min 0,000 mm 0,0 UV-I 0 W/m² -7,2 °C -5,1 °C 3,2 km/h (1 Bft)
13.02.2018 17:50 -5,1 °C 85 % 1012,7 hPa 0,0 mm 0,9 km/h (0 Bft) O 88 ° 0 min 0,000 mm 0,0 UV-I 0 W/m² -7,2 °C -5,1 °C 3,2 km/h (1 Bft)
13.02.2018 17:51 -5,2 °C 85 % 1012,7 hPa 0,0 mm 1,1 km/h (1 Bft) O 88 ° 0 min 0,000 mm 0,0 UV-I 0 W/m² -7,3 °C -5,2 °C 3,2 km/h (1 Bft)
13.02.2018 17:52 -5,1 °C 86 % 1012,7 hPa 0,0 mm 0,0 km/h (0 Bft) O 88 ° 0 min 0,000 mm 0,0 UV-I 0 W/m² -7,1 °C -5,1 °C 0,0 km/h (0 Bft)
13.02.2018 17:53 -5,1 °C 85 % 1012,7 hPa 0,0 mm 0,7 km/h (0 Bft) O 88 ° 0 min 0,000 mm 0,0 UV-I 0 W/m² -7,2 °C -5,1 °C 3,2 km/h (1 Bft)
13.02.2018 17:54 -5,1 °C 86 % 1012,7 hPa 0,0 mm 0,3 km/h (0 Bft) O 88 ° 0 min 0,000 mm 0,0 UV-I 0 W/m² -7,1 °C -5,1 °C 1,6 km/h (1 Bft)
13.02.2018 17:55 -5,2 °C 85 % 1012,7 hPa 0,0 mm 0,6 km/h (0 Bft) O 88 ° 0 min 0,000 mm 0,0 UV-I 0 W/m² -7,3 °C -5,2 °C 1,6 km/h (1 Bft)
13.02.2018 17:56 -5,2 °C 85 % 1012,8 hPa 0,0 mm 0,7 km/h (0 Bft) O 88 ° 0 min 0,000 mm 0,0 UV-I 0 W/m² -7,3 °C -5,2 °C 3,2 km/h (1 Bft)
13.02.2018 17:57 -5,2 °C 85 % 1012,7 hPa 0,0 mm 0,0 km/h (0 Bft) O 88 ° 0 min 0,000 mm 0,0 UV-I 0 W/m² -7,3 °C -5,2 °C 0,0 km/h (0 Bft)
13.02.2018 17:58 -5,3 °C 84 % 1012,7 hPa 0,0 mm 1,7 km/h (1 Bft) O 92 ° 0 min 0,000 mm 0,0 UV-I 0 W/m² -7,6 °C -5,3 °C 4,8 km/h (1 Bft)
13.02.2018 17:59 -5,4 °C 85 % 1012,7 hPa 0,0 mm 0,3 km/h (0 Bft) O 92 ° 0 min 0,000 mm 0,0 UV-I 0 W/m² -7,5 °C -5,4 °C 1,6 km/h (1 Bft)
13.02.2018 18:00 -5,4 °C 85 % 1012,7 hPa 0,0 mm 0,8 km/h (0 Bft) O 92 ° 0 min 0,000 mm 0,0 UV-I 0 W/m² -7,5 °C -5,4 °C 1,6 km/h (1 Bft)
13.02.2018 18:01 -5,4 °C 85 % 1012,7 hPa 0,0 mm 0,0 km/h (0 Bft) O 92 ° 0 min 0,000 mm 0,0 UV-I 0 W/m² -7,5 °C -5,4 °C 0,0 km/h (0 Bft)
13.02.2018 18:02 -5,6 °C 85 % 1012,7 hPa 0,0 mm 1,7 km/h (1 Bft) O 97 ° 0 min 0,000 mm 0,0 UV-I 0 W/m² -7,7 °C -5,6 °C 6,4 km/h (2 Bft)
13.02.2018 18:03 -5,6 °C 85 % 1012,6 hPa 0,0 mm 1,2 km/h (1 Bft) O 97 ° 0 min 0,000 mm 0,0 UV-I 0 W/m² -7,7 °C -5,6 °C 3,2 km/h (1 Bft)
13.02.2018 18:04 -5,6 °C 86 % 1012,6 hPa 0,0 mm 1,5 km/h (1 Bft) O 97 ° 0 min 0,000 mm 0,0 UV-I 0 W/m² -7,6 °C -5,6 °C 3,2 km/h (1 Bft)
13.02.2018 18:05 -5,6 °C 86 % 1012,6 hPa 0,0 mm 0,0 km/h (0 Bft) O 97 ° 0 min 0,000 mm 0,0 UV-I 0 W/m² -7,6 °C -5,6 °C 0,0 km/h (0 Bft)
13.02.2018 18:06 -5,5 °C 86 % 1012,6 hPa 0,0 mm 1,0 km/h (0 Bft) O 98 ° 0 min 0,000 mm 0,0 UV-I 0 W/m² -7,5 °C -5,5 °C 3,2 km/h (1 Bft)
13.02.2018 18:07 -5,4 °C 86 % 1012,6 hPa 0,0 mm 0,0 km/h (0 Bft) O 98 ° 0 min 0,000 mm 0,0 UV-I 0 W/m² -7,4 °C -5,4 °C 0,0 km/h (0 Bft)
13.02.2018 18:08 -5,3 °C 86 % 1012,6 hPa 0,0 mm 3,5 km/h (1 Bft) O 97 ° 0 min 0,000 mm 0,0 UV-I 0 W/m² -7,3 °C -5,3 °C 6,4 km/h (2 Bft)
13.02.2018 18:09 -5,4 °C 85 % 1012,7 hPa 0,0 mm 1,2 km/h (1 Bft) O 97 ° 0 min 0,000 mm 0,0 UV-I 0 W/m² -7,5 °C -5,4 °C 3,2 km/h (1 Bft)
13.02.2018 18:10 -5,4 °C 85 % 1012,6 hPa 0,0 mm 0,1 km/h (0 Bft) O 97 ° 0 min 0,000 mm 0,0 UV-I 0 W/m² -7,5 °C -5,4 °C 1,6 km/h (1 Bft)
13.02.2018 18:11 -5,4 °C 85 % 1012,6 hPa 0,0 mm 1,1 km/h (1 Bft) O 97 ° 0 min 0,000 mm 0,0 UV-I 0 W/m² -7,5 °C -5,4 °C 3,2 km/h (1 Bft)
13.02.2018 18:12 -5,4 °C 86 % 1012,7 hPa 0,0 mm 1,7 km/h (1 Bft) NO 55 ° 0 min 0,000 mm 0,0 UV-I 0 W/m² -7,4 °C -5,4 °C 4,8 km/h (1 Bft)
13.02.2018 18:13 -5,3 °C 86 % 1012,7 hPa 0,0 mm 0,1 km/h (0 Bft) NO 55 ° 0 min 0,000 mm 0,0 UV-I 0 W/m² -7,3 °C -5,3 °C 1,6 km/h (1 Bft)
13.02.2018 18:14 -5,4 °C 85 % 1012,6 hPa 0,0 mm 0,0 km/h (0 Bft) NO 55 ° 0 min 0,000 mm 0,0 UV-I 0 W/m² -7,5 °C -5,4 °C 0,0 km/h (0 Bft)
13.02.2018 18:15 -5,4 °C 85 % 1012,6 hPa 0,0 mm 0,0 km/h (0 Bft) NO 55 ° 0 min 0,000 mm 0,0 UV-I 0 W/m² -7,5 °C -5,4 °C 0,0 km/h (0 Bft)
13.02.2018 18:16 -5,6 °C 84 % 1012,6 hPa 0,0 mm 0,2 km/h (0 Bft) NO 55 ° 0 min 0,000 mm 0,0 UV-I 0 W/m² -7,9 °C -5,6 °C 1,6 km/h (1 Bft)
13.02.2018 18:17 -5,6 °C 85 % 1012,6 hPa 0,0 mm 0,3 km/h (0 Bft) NO 55 ° 0 min 0,000 mm 0,0 UV-I 0 W/m² -7,7 °C -5,6 °C 1,6 km/h (1 Bft)
13.02.2018 18:18 -5,5 °C 85 % 1012,6 hPa 0,0 mm 0,0 km/h (0 Bft) NO 55 ° 0 min 0,000 mm 0,0 UV-I 0 W/m² -7,6 °C -5,5 °C 0,0 km/h (0 Bft)
13.02.2018 18:19 -5,5 °C 86 % 1012,6 hPa 0,0 mm 0,2 km/h (0 Bft) NO 55 ° 0 min 0,000 mm 0,0 UV-I 0 W/m² -7,5 °C -5,5 °C 1,6 km/h (1 Bft)
13.02.2018 18:20 -5,6 °C 85 % 1012,6 hPa 0,0 mm 0,0 km/h (0 Bft) NO 55 ° 0 min 0,000 mm 0,0 UV-I 0 W/m² -7,7 °C -5,6 °C 0,0 km/h (0 Bft)
13.02.2018 18:21 -5,6 °C 86 % 1012,6 hPa 0,0 mm 0,0 km/h (0 Bft) NO 55 ° 0 min 0,000 mm 0,0 UV-I 0 W/m² -7,6 °C -5,6 °C 0,0 km/h (0 Bft)
13.02.2018 18:22 -5,5 °C 86 % 1012,7 hPa 0,0 mm 0,0 km/h (0 Bft) NO 55 ° 0 min 0,000 mm 0,0 UV-I 0 W/m² -7,5 °C -5,5 °C 0,0 km/h (0 Bft)
13.02.2018 18:23 -5,4 °C 86 % 1012,7 hPa 0,0 mm 0,0 km/h (0 Bft) NO 55 ° 0 min 0,000 mm 0,0 UV-I 0 W/m² -7,4 °C -5,4 °C 0,0 km/h (0 Bft)
13.02.2018 18:24 -5,3 °C 86 % 1012,7 hPa 0,0 mm 0,0 km/h (0 Bft) NO 55 ° 0 min 0,000 mm 0,0 UV-I 0 W/m² -7,3 °C -5,3 °C 0,0 km/h (0 Bft)
13.02.2018 18:25 -5,4 °C 85 % 1012,7 hPa 0,0 mm 0,0 km/h (0 Bft) NO 55 ° 0 min 0,000 mm 0,0 UV-I 0 W/m² -7,5 °C -5,4 °C 0,0 km/h (0 Bft)
13.02.2018 18:26 -5,4 °C 85 % 1012,7 hPa 0,0 mm 0,9 km/h (0 Bft) NO 55 ° 0 min 0,000 mm 0,0 UV-I 0 W/m² -7,5 °C -5,4 °C 3,2 km/h (1 Bft)
13.02.2018 18:27 -5,5 °C 84 % 1012,7 hPa 0,0 mm 0,3 km/h (0 Bft) NO 55 ° 0 min 0,000 mm 0,0 UV-I 0 W/m² -7,8 °C -5,5 °C 1,6 km/h (1 Bft)
13.02.2018 18:28 -5,6 °C 84 % 1012,7 hPa 0,0 mm 0,0 km/h (0 Bft) NO 55 ° 0 min 0,000 mm 0,0 UV-I 0 W/m² -7,9 °C -5,6 °C 0,0 km/h (0 Bft)
13.02.2018 18:29 -5,6 °C 85 % 1012,6 hPa 0,0 mm 0,1 km/h (0 Bft) NO 55 ° 0 min 0,000 mm 0,0 UV-I 0 W/m² -7,7 °C -5,6 °C 1,6 km/h (1 Bft)
13.02.2018 18:30 -5,5 °C 85 % 1012,6 hPa 0,0 mm 0,2 km/h (0 Bft) NO 55 ° 0 min 0,000 mm 0,0 UV-I 0 W/m² -7,6 °C -5,5 °C 1,6 km/h (1 Bft)
13.02.2018 18:31 -5,4 °C 86 % 1012,6 hPa 0,0 mm 0,1 km/h (0 Bft) NO 55 ° 0 min 0,000 mm 0,0 UV-I 0 W/m² -7,4 °C -5,4 °C 1,6 km/h (1 Bft)
13.02.2018 18:32 -5,4 °C 86 % 1012,6 hPa 0,0 mm 0,6 km/h (0 Bft) NO 55 ° 0 min 0,000 mm 0,0 UV-I 0 W/m² -7,4 °C -5,4 °C 1,6 km/h (1 Bft)
13.02.2018 18:33 -5,4 °C 85 % 1012,7 hPa 0,0 mm 1,1 km/h (1 Bft) O 101 ° 0 min 0,000 mm 0,0 UV-I 0 W/m² -7,5 °C -5,4 °C 3,2 km/h (1 Bft)
13.02.2018 18:34 -5,4 °C 85 % 1012,6 hPa 0,0 mm 1,4 km/h (1 Bft) O 101 ° 0 min 0,000 mm 0,0 UV-I 0 W/m² -7,5 °C -5,4 °C 3,2 km/h (1 Bft)
13.02.2018 18:35 -5,4 °C 85 % 1012,6 hPa 0,0 mm 0,2 km/h (0 Bft) O 101 ° 0 min 0,000 mm 0,0 UV-I 0 W/m² -7,5 °C -5,4 °C 1,6 km/h (1 Bft)
13.02.2018 18:36 -5,5 °C 85 % 1012,6 hPa 0,0 mm 0,6 km/h (0 Bft) O 101 ° 0 min 0,000 mm 0,0 UV-I 0 W/m² -7,6 °C -5,5 °C 3,2 km/h (1 Bft)
13.02.2018 18:37 -5,6 °C 84 % 1012,7 hPa 0,0 mm 1,7 km/h (1 Bft) O 101 ° 0 min 0,000 mm 0,0 UV-I 0 W/m² -7,9 °C -5,6 °C 3,2 km/h (1 Bft)
13.02.2018 18:38 -5,6 °C 85 % 1012,7 hPa 0,0 mm 1,2 km/h (1 Bft) O 101 ° 0 min 0,000 mm 0,0 UV-I 0 W/m² -7,7 °C -5,6 °C 3,2 km/h (1 Bft)
13.02.2018 18:39 -5,6 °C 85 % 1012,7 hPa 0,0 mm 0,8 km/h (0 Bft) O 101 ° 0 min 0,000 mm 0,0 UV-I 0 W/m² -7,7 °C -5,6 °C 3,2 km/h (1 Bft)
13.02.2018 18:40 -5,6 °C 85 % 1012,7 hPa 0,0 mm 2,6 km/h (1 Bft) O 101 ° 0 min 0,000 mm 0,0 UV-I 0 W/m² -7,7 °C -5,6 °C 4,8 km/h (1 Bft)
13.02.2018 18:41 -5,7 °C 85 % 1012,7 hPa 0,0 mm 2,6 km/h (1 Bft) O 101 ° 0 min 0,000 mm 0,0 UV-I 0 W/m² -7,8 °C -5,7 °C 4,8 km/h (1 Bft)
13.02.2018 18:42 -5,7 °C 85 % 1012,7 hPa 0,0 mm 1,7 km/h (1 Bft) O 101 ° 0 min 0,000 mm 0,0 UV-I 0 W/m² -7,8 °C -5,7 °C 3,2 km/h (1 Bft)
13.02.2018 18:43 -5,8 °C 85 % 1012,7 hPa 0,0 mm 1,9 km/h (1 Bft) O 101 ° 0 min 0,000 mm 0,0 UV-I 0 W/m² -7,9 °C -5,8 °C 3,2 km/h (1 Bft)
13.02.2018 18:44 -5,8 °C 85 % 1012,8 hPa 0,0 mm 2,0 km/h (1 Bft) O 101 ° 0 min 0,000 mm 0,0 UV-I 0 W/m² -7,9 °C -5,8 °C 3,2 km/h (1 Bft)
13.02.2018 18:45 -5,8 °C 86 % 1012,8 hPa 0,0 mm 1,3 km/h (1 Bft) O 101 ° 0 min 0,000 mm 0,0 UV-I 0 W/m² -7,8 °C -5,8 °C 1,6 km/h (1 Bft)
13.02.2018 18:46 -5,9 °C 86 % 1012,7 hPa 0,0 mm 2,1 km/h (1 Bft) O 101 ° 0 min 0,000 mm 0,0 UV-I 0 W/m² -7,9 °C -5,9 °C 3,2 km/h (1 Bft)
13.02.2018 18:47 -5,9 °C 86 % 1012,8 hPa 0,0 mm 0,7 km/h (0 Bft) O 101 ° 0 min 0,000 mm 0,0 UV-I 0 W/m² -7,9 °C -5,9 °C 1,6 km/h (1 Bft)
13.02.2018 18:48 -5,9 °C 86 % 1012,7 hPa 0,0 mm 1,1 km/h (1 Bft) O 101 ° 0 min 0,000 mm 0,0 UV-I 0 W/m² -7,9 °C -5,9 °C 3,2 km/h (1 Bft)
13.02.2018 18:49 -5,9 °C 86 % 1012,7 hPa 0,0 mm 1,6 km/h (1 Bft) O 101 ° 0 min 0,000 mm 0,0 UV-I 0 W/m² -7,9 °C -5,9 °C 1,6 km/h (1 Bft)
13.02.2018 18:50 -5,9 °C 86 % 1012,7 hPa 0,0 mm 1,1 km/h (1 Bft) O 101 ° 0 min 0,000 mm 0,0 UV-I 0 W/m² -7,9 °C -5,9 °C 3,2 km/h (1 Bft)
13.02.2018 18:51 -6,0 °C 86 % 1012,7 hPa 0,0 mm 0,0 km/h (0 Bft) O 101 ° 0 min 0,000 mm 0,0 UV-I 0 W/m² -8,0 °C -6,0 °C 0,0 km/h (0 Bft)
13.02.2018 18:52 -6,0 °C 87 % 1012,7 hPa 0,0 mm 0,0 km/h (0 Bft) O 101 ° 0 min 0,000 mm 0,0 UV-I 0 W/m² -7,8 °C -6,0 °C 0,0 km/h (0 Bft)
13.02.2018 18:53 -6,0 °C 87 % 1012,7 hPa 0,0 mm 0,3 km/h (0 Bft) O 101 ° 0 min 0,000 mm 0,0 UV-I 0 W/m² -7,8 °C -6,0 °C 1,6 km/h (1 Bft)
13.02.2018 18:54 -6,1 °C 87 % 1012,7 hPa 0,0 mm 0,6 km/h (0 Bft) O 101 ° 0 min 0,000 mm 0,0 UV-I 0 W/m² -7,9 °C -6,1 °C 1,6 km/h (1 Bft)
13.02.2018 18:55 -6,1 °C 87 % 1012,7 hPa 0,0 mm 1,1 km/h (1 Bft) O 101 ° 0 min 0,000 mm 0,0 UV-I 0 W/m² -7,9 °C -6,1 °C 1,6 km/h (1 Bft)
13.02.2018 18:56 -6,1 °C 87 % 1012,7 hPa 0,0 mm 0,5 km/h (0 Bft) O 101 ° 0 min 0,000 mm 0,0 UV-I 0 W/m² -7,9 °C -6,1 °C 1,6 km/h (1 Bft)
13.02.2018 18:57 -6,1 °C 87 % 1012,7 hPa 0,0 mm 0,6 km/h (0 Bft) O 101 ° 0 min 0,000 mm 0,0 UV-I 0 W/m² -7,9 °C -6,1 °C 1,6 km/h (1 Bft)
13.02.2018 18:58 -6,1 °C 87 % 1012,7 hPa 0,0 mm 0,3 km/h (0 Bft) O 101 ° 0 min 0,000 mm 0,0 UV-I 0 W/m² -7,9 °C -6,1 °C 1,6 km/h (1 Bft)
13.02.2018 18:59 -6,1 °C 87 % 1012,7 hPa 0,0 mm 0,0 km/h (0 Bft) O 101 ° 0 min 0,000 mm 0,0 UV-I 0 W/m² -7,9 °C -6,1 °C 0,0 km/h (0 Bft)
13.02.2018 19:00 -6,1 °C 87 % 1012,7 hPa 0,0 mm 0,0 km/h (0 Bft) O 101 ° 0 min 0,000 mm 0,0 UV-I 0 W/m² -7,9 °C -6,1 °C 0,0 km/h (0 Bft)
13.02.2018 19:01 -6,1 °C 87 % 1012,7 hPa 0,0 mm 0,3 km/h (0 Bft) O 101 ° 0 min 0,000 mm 0,0 UV-I 0 W/m² -7,9 °C -6,1 °C 1,6 km/h (1 Bft)
13.02.2018 19:02 -6,1 °C 87 % 1012,7 hPa 0,0 mm 0,1 km/h (0 Bft) O 101 ° 0 min 0,000 mm 0,0 UV-I 0 W/m² -7,9 °C -6,1 °C 1,6 km/h (1 Bft)
13.02.2018 19:03 -6,2 °C 87 % 1012,7 hPa 0,0 mm 0,0 km/h (0 Bft) O 101 ° 0 min 0,000 mm 0,0 UV-I 0 W/m² -8,0 °C -6,2 °C 0,0 km/h (0 Bft)
13.02.2018 19:04 -6,2 °C 87 % 1012,7 hPa 0,0 mm 1,5 km/h (1 Bft) O 101 ° 0 min 0,000 mm 0,0 UV-I 0 W/m² -8,0 °C -6,2 °C 3,2 km/h (1 Bft)
13.02.2018 19:05 -6,2 °C 87 % 1012,7 hPa 0,0 mm 0,0 km/h (0 Bft) O 101 ° 0 min 0,000 mm 0,0 UV-I 0 W/m² -8,0 °C -6,2 °C 0,0 km/h (0 Bft)
13.02.2018 19:06 -6,2 °C 87 % 1012,7 hPa 0,0 mm 0,0 km/h (0 Bft) O 101 ° 0 min 0,000 mm 0,0 UV-I 0 W/m² -8,0 °C -6,2 °C 0,0 km/h (0 Bft)
13.02.2018 19:07 -6,2 °C 87 % 1012,7 hPa 0,0 mm 0,0 km/h (0 Bft) O 101 ° 0 min 0,000 mm 0,0 UV-I 0 W/m² -8,0 °C -6,2 °C 0,0 km/h (0 Bft)
13.02.2018 19:08 -6,2 °C 87 % 1012,7 hPa 0,0 mm 0,0 km/h (0 Bft) O 101 ° 0 min 0,000 mm 0,0 UV-I 0 W/m² -8,0 °C -6,2 °C 0,0 km/h (0 Bft)
13.02.2018 19:09 -6,2 °C 87 % 1012,7 hPa 0,0 mm 0,0 km/h (0 Bft) O 101 ° 0 min 0,000 mm 0,0 UV-I 0 W/m² -8,0 °C -6,2 °C 0,0 km/h (0 Bft)
13.02.2018 19:10 -6,2 °C 87 % 1012,7 hPa 0,0 mm 0,0 km/h (0 Bft) O 101 ° 0 min 0,000 mm 0,0 UV-I 0 W/m² -8,0 °C -6,2 °C 0,0 km/h (0 Bft)
13.02.2018 19:11 -6,2 °C 87 % 1012,7 hPa 0,0 mm 0,0 km/h (0 Bft) O 101 ° 0 min 0,000 mm 0,0 UV-I 0 W/m² -8,0 °C -6,2 °C 0,0 km/h (0 Bft)
13.02.2018 19:12 -6,2 °C 87 % 1012,7 hPa 0,0 mm 0,0 km/h (0 Bft) O 101 ° 0 min 0,000 mm 0,0 UV-I 0 W/m² -8,0 °C -6,2 °C 0,0 km/h (0 Bft)
13.02.2018 19:13 -6,2 °C 87 % 1012,7 hPa 0,0 mm 0,0 km/h (0 Bft) O 101 ° 0 min 0,000 mm 0,0 UV-I 0 W/m² -8,0 °C -6,2 °C 0,0 km/h (0 Bft)
13.02.2018 19:14 -6,3 °C 87 % 1012,7 hPa 0,0 mm 0,0 km/h (0 Bft) O 101 ° 0 min 0,000 mm 0,0 UV-I 0 W/m² -8,1 °C -6,3 °C 0,0 km/h (0 Bft)
13.02.2018 19:15 -6,2 °C 87 % 1012,7 hPa 0,0 mm 0,0 km/h (0 Bft) O 101 ° 0 min 0,000 mm 0,0 UV-I 0 W/m² -8,0 °C -6,2 °C 0,0 km/h (0 Bft)
13.02.2018 19:16 -6,3 °C 87 % 1012,7 hPa 0,0 mm 0,0 km/h (0 Bft) O 101 ° 0 min 0,000 mm 0,0 UV-I 0 W/m² -8,1 °C -6,3 °C 0,0 km/h (0 Bft)
13.02.2018 19:17 -6,4 °C 87 % 1012,7 hPa 0,0 mm 0,0 km/h (0 Bft) O 101 ° 0 min 0,000 mm 0,0 UV-I 0 W/m² -8,2 °C -6,4 °C 0,0 km/h (0 Bft)
13.02.2018 19:18 -6,7 °C 86 % 1012,7 hPa 0,0 mm 0,0 km/h (0 Bft) O 101 ° 0 min 0,000 mm 0,0 UV-I 0 W/m² -8,6 °C -6,7 °C 0,0 km/h (0 Bft)
13.02.2018 19:19 -6,8 °C 86 % 1012,7 hPa 0,0 mm 0,0 km/h (0 Bft) O 101 ° 0 min 0,000 mm 0,0 UV-I 0 W/m² -8,7 °C -6,8 °C 0,0 km/h (0 Bft)
13.02.2018 19:20 -6,8 °C 87 % 1012,7 hPa 0,0 mm 0,0 km/h (0 Bft) O 101 ° 0 min 0,000 mm 0,0 UV-I 0 W/m² -8,6 °C -6,8 °C 0,0 km/h (0 Bft)
13.02.2018 19:21 -6,7 °C 88 % 1012,7 hPa 0,0 mm 0,0 km/h (0 Bft) O 101 ° 0 min 0,000 mm 0,0 UV-I 0 W/m² -8,3 °C -6,7 °C 0,0 km/h (0 Bft)
13.02.2018 19:22 -6,7 °C 88 % 1012,7 hPa 0,0 mm 0,0 km/h (0 Bft) O 101 ° 0 min 0,000 mm 0,0 UV-I 0 W/m² -8,3 °C -6,7 °C 0,0 km/h (0 Bft)
13.02.2018 19:23 -6,7 °C 88 % 1012,8 hPa 0,0 mm 0,0 km/h (0 Bft) O 101 ° 0 min 0,000 mm 0,0 UV-I 0 W/m² -8,3 °C -6,7 °C 0,0 km/h (0 Bft)
13.02.2018 19:24 -6,8 °C 87 % 1012,7 hPa 0,0 mm 0,0 km/h (0 Bft) O 101 ° 0 min 0,000 mm 0,0 UV-I 0 W/m² -8,6 °C -6,8 °C 0,0 km/h (0 Bft)
13.02.2018 19:25 -6,8 °C 88 % 1012,7 hPa 0,0 mm 0,0 km/h (0 Bft) O 101 ° 0 min 0,000 mm 0,0 UV-I 0 W/m² -8,4 °C -6,8 °C 0,0 km/h (0 Bft)
13.02.2018 19:26 -6,8 °C 88 % 1012,7 hPa 0,0 mm 0,0 km/h (0 Bft) O 101 ° 0 min 0,000 mm 0,0 UV-I 0 W/m² -8,4 °C -6,8 °C 0,0 km/h (0 Bft)
13.02.2018 19:27 -7,1 °C 87 % 1012,6 hPa 0,0 mm 0,0 km/h (0 Bft) O 101 ° 0 min 0,000 mm 0,0 UV-I 0 W/m² -8,9 °C -7,1 °C 0,0 km/h (0 Bft)
13.02.2018 19:28 -7,3 °C 86 % 1012,7 hPa 0,0 mm 0,0 km/h (0 Bft) O 101 ° 0 min 0,000 mm 0,0 UV-I 0 W/m² -9,2 °C -7,3 °C 0,0 km/h (0 Bft)
13.02.2018 19:29 -7,6 °C 86 % 1012,6 hPa 0,0 mm 0,0 km/h (0 Bft) O 101 ° 0 min 0,000 mm 0,0 UV-I 0 W/m² -9,5 °C -7,6 °C 0,0 km/h (0 Bft)
13.02.2018 19:30 -7,7 °C 86 % 1012,6 hPa 0,0 mm 0,0 km/h (0 Bft) O 101 ° 0 min 0,000 mm 0,0 UV-I 0 W/m² -9,6 °C -7,7 °C 0,0 km/h (0 Bft)
13.02.2018 19:31 -7,8 °C 87 % 1012,6 hPa 0,0 mm 0,0 km/h (0 Bft) O 101 ° 0 min 0,000 mm 0,0 UV-I 0 W/m² -9,6 °C -7,8 °C 0,0 km/h (0 Bft)
13.02.2018 19:32 -7,9 °C 88 % 1012,6 hPa 0,0 mm 0,0 km/h (0 Bft) O 101 ° 0 min 0,000 mm 0,0 UV-I 0 W/m² -9,5 °C -7,9 °C 0,0 km/h (0 Bft)
13.02.2018 19:33 -7,9 °C 88 % 1012,6 hPa 0,0 mm 0,0 km/h (0 Bft) O 101 ° 0 min 0,000 mm 0,0 UV-I 0 W/m² -9,5 °C -7,9 °C 0,0 km/h (0 Bft)
13.02.2018 19:34 -8,1 °C 88 % 1012,6 hPa 0,0 mm 0,0 km/h (0 Bft) O 101 ° 0 min 0,000 mm 0,0 UV-I 0 W/m² -9,7 °C -8,1 °C 0,0 km/h (0 Bft)
13.02.2018 19:35 -8,0 °C 88 % 1012,6 hPa 0,0 mm 0,0 km/h (0 Bft) O 101 ° 0 min 0,000 mm 0,0 UV-I 0 W/m² -9,6 °C -8,0 °C 0,0 km/h (0 Bft)
13.02.2018 19:36 -8,0 °C 89 % 1012,6 hPa 0,0 mm 0,0 km/h (0 Bft) O 101 ° 0 min 0,000 mm 0,0 UV-I 0 W/m² -9,5 °C -8,0 °C 0,0 km/h (0 Bft)
13.02.2018 19:37 -8,0 °C 89 % 1012,7 hPa 0,0 mm 0,0 km/h (0 Bft) O 101 ° 0 min 0,000 mm 0,0 UV-I 0 W/m² -9,5 °C -8,0 °C 0,0 km/h (0 Bft)
13.02.2018 19:38 -7,9 °C 89 % 1012,6 hPa 0,0 mm 0,0 km/h (0 Bft) O 101 ° 0 min 0,000 mm 0,0 UV-I 0 W/m² -9,4 °C -7,9 °C 0,0 km/h (0 Bft)
13.02.2018 19:39 -7,9 °C 89 % 1012,7 hPa 0,0 mm 0,0 km/h (0 Bft) O 101 ° 0 min 0,000 mm 0,0 UV-I 0 W/m² -9,4 °C -7,9 °C 0,0 km/h (0 Bft)
13.02.2018 19:40 -7,8 °C 89 % 1012,7 hPa 0,0 mm 0,0 km/h (0 Bft) O 101 ° 0 min 0,000 mm 0,0 UV-I 0 W/m² -9,3 °C -7,8 °C 0,0 km/h (0 Bft)
13.02.2018 19:41 -7,8 °C 89 % 1012,7 hPa 0,0 mm 0,0 km/h (0 Bft) O 101 ° 0 min 0,000 mm 0,0 UV-I 0 W/m² -9,3 °C -7,8 °C 0,0 km/h (0 Bft)
13.02.2018 19:42 -7,9 °C 89 % 1012,7 hPa 0,0 mm 0,0 km/h (0 Bft) O 101 ° 0 min 0,000 mm 0,0 UV-I 0 W/m² -9,4 °C -7,9 °C 0,0 km/h (0 Bft)
13.02.2018 19:43 -7,9 °C 89 % 1012,7 hPa 0,0 mm 0,0 km/h (0 Bft) O 101 ° 0 min 0,000 mm 0,0 UV-I 0 W/m² -9,4 °C -7,9 °C 0,0 km/h (0 Bft)
13.02.2018 19:44 -8,1 °C 88 % 1012,7 hPa 0,0 mm 0,0 km/h (0 Bft) O 101 ° 0 min 0,000 mm 0,0 UV-I 0 W/m² -9,7 °C -8,1 °C 0,0 km/h (0 Bft)
13.02.2018 19:45 -8,1 °C 88 % 1012,7 hPa 0,0 mm 0,0 km/h (0 Bft) O 101 ° 0 min 0,000 mm 0,0 UV-I 0 W/m² -9,7 °C -8,1 °C 0,0 km/h (0 Bft)
13.02.2018 19:46 -8,1 °C 89 % 1012,7 hPa 0,0 mm 0,0 km/h (0 Bft) O 101 ° 0 min 0,000 mm 0,0 UV-I 0 W/m² -9,6 °C -8,1 °C 0,0 km/h (0 Bft)
13.02.2018 19:47 -8,1 °C 89 % 1012,7 hPa 0,0 mm 0,0 km/h (0 Bft) O 101 ° 0 min 0,000 mm 0,0 UV-I 0 W/m² -9,6 °C -8,1 °C 0,0 km/h (0 Bft)
13.02.2018 19:48 -7,9 °C 90 % 1012,7 hPa 0,0 mm 0,0 km/h (0 Bft) O 101 ° 0 min 0,000 mm 0,0 UV-I 0 W/m² -9,2 °C -7,9 °C 0,0 km/h (0 Bft)
13.02.2018 19:49 -7,9 °C 90 % 1012,7 hPa 0,0 mm 0,0 km/h (0 Bft) O 101 ° 0 min 0,000 mm 0,0 UV-I 0 W/m² -9,2 °C -7,9 °C 0,0 km/h (0 Bft)
13.02.2018 19:50 -7,8 °C 90 % 1012,7 hPa 0,0 mm 0,0 km/h (0 Bft) O 101 ° 0 min 0,000 mm 0,0 UV-I 0 W/m² -9,1 °C -7,8 °C 0,0 km/h (0 Bft)
13.02.2018 19:51 -7,8 °C 90 % 1012,7 hPa 0,0 mm 0,0 km/h (0 Bft) O 101 ° 0 min 0,000 mm 0,0 UV-I 0 W/m² -9,1 °C -7,8 °C 0,0 km/h (0 Bft)
13.02.2018 19:52 -7,7 °C 90 % 1012,7 hPa 0,0 mm 0,0 km/h (0 Bft) O 101 ° 0 min 0,000 mm 0,0 UV-I 0 W/m² -9,0 °C -7,7 °C 0,0 km/h (0 Bft)
13.02.2018 19:53 -7,7 °C 90 % 1012,7 hPa 0,0 mm 0,0 km/h (0 Bft) O 101 ° 0 min 0,000 mm 0,0 UV-I 0 W/m² -9,0 °C -7,7 °C 0,0 km/h (0 Bft)
13.02.2018 19:54 -7,6 °C 90 % 1012,7 hPa 0,0 mm 0,0 km/h (0 Bft) O 101 ° 0 min 0,000 mm 0,0 UV-I 0 W/m² -8,9 °C -7,6 °C 0,0 km/h (0 Bft)
13.02.2018 19:55 -7,5 °C 90 % 1012,7 hPa 0,0 mm 1,1 km/h (1 Bft) O 101 ° 0 min 0,000 mm 0,0 UV-I 0 W/m² -8,8 °C -7,5 °C 1,6 km/h (1 Bft)
13.02.2018 19:56 -7,5 °C 90 % 1012,7 hPa 0,0 mm 0,0 km/h (0 Bft) O 101 ° 0 min 0,000 mm 0,0 UV-I 0 W/m² -8,8 °C -7,5 °C 0,0 km/h (0 Bft)
13.02.2018 19:57 -7,5 °C 90 % 1012,7 hPa 0,0 mm 0,0 km/h (0 Bft) O 101 ° 0 min 0,000 mm 0,0 UV-I 0 W/m² -8,8 °C -7,5 °C 0,0 km/h (0 Bft)
13.02.2018 19:58 -7,6 °C 89 % 1012,8 hPa 0,0 mm 0,0 km/h (0 Bft) O 101 ° 0 min 0,000 mm 0,0 UV-I 0 W/m² -9,1 °C -7,6 °C 0,0 km/h (0 Bft)
13.02.2018 19:59 -7,8 °C 89 % 1012,7 hPa 0,0 mm 0,0 km/h (0 Bft) O 101 ° 0 min 0,000 mm 0,0 UV-I 0 W/m² -9,3 °C -7,8 °C 0,0 km/h (0 Bft)
13.02.2018 20:00 -7,8 °C 89 % 1012,7 hPa 0,0 mm 0,0 km/h (0 Bft) O 101 ° 0 min 0,000 mm 0,0 UV-I 0 W/m² -9,3 °C -7,8 °C 0,0 km/h (0 Bft)
13.02.2018 20:01 -7,9 °C 89 % 1012,8 hPa 0,0 mm 0,0 km/h (0 Bft) O 101 ° 0 min 0,000 mm 0,0 UV-I 0 W/m² -9,4 °C -7,9 °C 0,0 km/h (0 Bft)
13.02.2018 20:02 -8,0 °C 89 % 1012,8 hPa 0,0 mm 0,0 km/h (0 Bft) O 101 ° 0 min 0,000 mm 0,0 UV-I 0 W/m² -9,5 °C -8,0 °C 0,0 km/h (0 Bft)
13.02.2018 20:03 -8,1 °C 89 % 1012,8 hPa 0,0 mm 0,0 km/h (0 Bft) O 101 ° 0 min 0,000 mm 0,0 UV-I 0 W/m² -9,6 °C -8,1 °C 0,0 km/h (0 Bft)
13.02.2018 20:04 -8,1 °C 89 % 1012,8 hPa 0,0 mm 0,0 km/h (0 Bft) O 101 ° 0 min 0,000 mm 0,0 UV-I 0 W/m² -9,6 °C -8,1 °C 0,0 km/h (0 Bft)
13.02.2018 20:05 -8,1 °C 89 % 1012,8 hPa 0,0 mm 0,0 km/h (0 Bft) O 101 ° 0 min 0,000 mm 0,0 UV-I 0 W/m² -9,6 °C -8,1 °C 0,0 km/h (0 Bft)
13.02.2018 20:06 -8,3 °C 89 % 1012,8 hPa 0,0 mm 0,0 km/h (0 Bft) O 101 ° 0 min 0,000 mm 0,0 UV-I 0 W/m² -9,8 °C -8,3 °C 0,0 km/h (0 Bft)
13.02.2018 20:07 -8,4 °C 88 % 1012,8 hPa 0,0 mm 0,0 km/h (0 Bft) O 101 ° 0 min 0,000 mm 0,0 UV-I 0 W/m² -10,0 °C -8,4 °C 0,0 km/h (0 Bft)
13.02.2018 20:08 -8,4 °C 89 % 1012,8 hPa 0,0 mm 0,0 km/h (0 Bft) O 101 ° 0 min 0,000 mm 0,0 UV-I 0 W/m² -9,9 °C -8,4 °C 0,0 km/h (0 Bft)
13.02.2018 20:09 -8,6 °C 89 % 1012,8 hPa 0,0 mm 0,0 km/h (0 Bft) O 101 ° 0 min 0,000 mm 0,0 UV-I 0 W/m² -10,1 °C -8,6 °C 0,0 km/h (0 Bft)
13.02.2018 20:10 -8,7 °C 88 % 1012,8 hPa 0,0 mm 0,0 km/h (0 Bft) O 101 ° 0 min 0,000 mm 0,0 UV-I 0 W/m² -10,3 °C -8,7 °C 0,0 km/h (0 Bft)
13.02.2018 20:11 -8,7 °C 89 % 1012,9 hPa 0,0 mm 0,0 km/h (0 Bft) O 101 ° 0 min 0,000 mm 0,0 UV-I 0 W/m² -10,2 °C -8,7 °C 0,0 km/h (0 Bft)
13.02.2018 20:12 -8,7 °C 89 % 1012,9 hPa 0,0 mm 0,0 km/h (0 Bft) O 101 ° 0 min 0,000 mm 0,0 UV-I 0 W/m² -10,2 °C -8,7 °C 0,0 km/h (0 Bft)
13.02.2018 20:13 -8,8 °C 89 % 1012,8 hPa 0,0 mm 0,0 km/h (0 Bft) O 101 ° 0 min 0,000 mm 0,0 UV-I 0 W/m² -10,3 °C -8,8 °C 0,0 km/h (0 Bft)
13.02.2018 20:14 -8,9 °C 89 % 1012,9 hPa 0,0 mm 0,0 km/h (0 Bft) O 101 ° 0 min 0,000 mm 0,0 UV-I 0 W/m² -10,4 °C -8,9 °C 0,0 km/h (0 Bft)
13.02.2018 20:15 -8,9 °C 89 % 1012,9 hPa 0,0 mm 0,0 km/h (0 Bft) O 101 ° 0 min 0,000 mm 0,0 UV-I 0 W/m² -10,4 °C -8,9 °C 0,0 km/h (0 Bft)
13.02.2018 20:16 -9,0 °C 89 % 1012,9 hPa 0,0 mm 0,0 km/h (0 Bft) O 101 ° 0 min 0,000 mm 0,0 UV-I 0 W/m² -10,5 °C -9,0 °C 0,0 km/h (0 Bft)
13.02.2018 20:17 -9,0 °C 90 % 1012,9 hPa 0,0 mm 0,0 km/h (0 Bft) O 101 ° 0 min 0,000 mm 0,0 UV-I 0 W/m² -10,3 °C -9,0 °C 0,0 km/h (0 Bft)
13.02.2018 20:18 -8,8 °C 90 % 1012,9 hPa 0,0 mm 0,0 km/h (0 Bft) O 101 ° 0 min 0,000 mm 0,0 UV-I 0 W/m² -10,1 °C -8,8 °C 0,0 km/h (0 Bft)
13.02.2018 20:19 -8,7 °C 91 % 1012,9 hPa 0,0 mm 0,0 km/h (0 Bft) O 101 ° 0 min 0,000 mm 0,0 UV-I 0 W/m² -9,9 °C -8,7 °C 0,0 km/h (0 Bft)
13.02.2018 20:20 -8,6 °C 91 % 1012,9 hPa 0,0 mm 0,0 km/h (0 Bft) O 101 ° 0 min 0,000 mm 0,0 UV-I 0 W/m² -9,8 °C -8,6 °C 0,0 km/h (0 Bft)
13.02.2018 20:21 -8,5 °C 91 % 1012,9 hPa 0,0 mm 0,0 km/h (0 Bft) O 101 ° 0 min 0,000 mm 0,0 UV-I 0 W/m² -9,7 °C -8,5 °C 0,0 km/h (0 Bft)
13.02.2018 20:22 -8,4 °C 91 % 1012,9 hPa 0,0 mm 0,0 km/h (0 Bft) O 101 ° 0 min 0,000 mm 0,0 UV-I 0 W/m² -9,6 °C -8,4 °C 0,0 km/h (0 Bft)
13.02.2018 20:23 -8,4 °C 90 % 1012,9 hPa 0,0 mm 0,0 km/h (0 Bft) O 101 ° 0 min 0,000 mm 0,0 UV-I 0 W/m² -9,7 °C -8,4 °C 0,0 km/h (0 Bft)
13.02.2018 20:24 -8,3 °C 91 % 1013,0 hPa 0,0 mm 0,0 km/h (0 Bft) O 101 ° 0 min 0,000 mm 0,0 UV-I 0 W/m² -9,5 °C -8,3 °C 0,0 km/h (0 Bft)
13.02.2018 20:25 -8,3 °C 91 % 1013,0 hPa 0,0 mm 0,4 km/h (0 Bft) O 101 ° 0 min 0,000 mm 0,0 UV-I 0 W/m² -9,5 °C -8,3 °C 1,6 km/h (1 Bft)
13.02.2018 20:26 -8,3 °C 91 % 1012,9 hPa 0,0 mm 1,0 km/h (0 Bft) O 101 ° 0 min 0,000 mm 0,0 UV-I 0 W/m² -9,5 °C -8,3 °C 3,2 km/h (1 Bft)
13.02.2018 20:27 -8,3 °C 90 % 1013,0 hPa 0,0 mm 1,1 km/h (1 Bft) O 101 ° 0 min 0,000 mm 0,0 UV-I 0 W/m² -9,6 °C -8,3 °C 3,2 km/h (1 Bft)
13.02.2018 20:28 -8,2 °C 90 % 1012,9 hPa 0,0 mm 1,1 km/h (1 Bft) O 101 ° 0 min 0,000 mm 0,0 UV-I 0 W/m² -9,5 °C -8,2 °C 1,6 km/h (1 Bft)
13.02.2018 20:29 -8,3 °C 90 % 1012,9 hPa 0,0 mm 0,8 km/h (0 Bft) O 101 ° 0 min 0,000 mm 0,0 UV-I 0 W/m² -9,6 °C -8,3 °C 1,6 km/h (1 Bft)
13.02.2018 20:30 -8,3 °C 90 % 1012,9 hPa 0,0 mm 1,6 km/h (1 Bft) O 101 ° 0 min 0,000 mm 0,0 UV-I 0 W/m² -9,6 °C -8,3 °C 3,2 km/h (1 Bft)
13.02.2018 20:31 -8,3 °C 90 % 1013,0 hPa 0,0 mm 2,3 km/h (1 Bft) O 101 ° 0 min 0,000 mm 0,0 UV-I 0 W/m² -9,6 °C -8,3 °C 4,8 km/h (1 Bft)
13.02.2018 20:32 -8,3 °C 90 % 1012,9 hPa 0,0 mm 3,1 km/h (1 Bft) SO 142 ° 0 min 0,000 mm 0,0 UV-I 0 W/m² -9,6 °C -8,3 °C 4,8 km/h (1 Bft)
13.02.2018 20:33 -8,3 °C 90 % 1012,9 hPa 0,0 mm 0,5 km/h (0 Bft) SO 142 ° 0 min 0,000 mm 0,0 UV-I 0 W/m² -9,6 °C -8,3 °C 1,6 km/h (1 Bft)
13.02.2018 20:34 -8,2 °C 90 % 1012,9 hPa 0,0 mm 1,1 km/h (1 Bft) SO 142 ° 0 min 0,000 mm 0,0 UV-I 0 W/m² -9,5 °C -8,2 °C 1,6 km/h (1 Bft)
13.02.2018 20:35 -8,2 °C 90 % 1012,9 hPa 0,0 mm 1,7 km/h (1 Bft) SO 144 ° 0 min 0,000 mm 0,0 UV-I 0 W/m² -9,5 °C -8,2 °C 3,2 km/h (1 Bft)
13.02.2018 20:36 -8,2 °C 90 % 1013,0 hPa 0,0 mm 1,2 km/h (1 Bft) SO 144 ° 0 min 0,000 mm 0,0 UV-I 0 W/m² -9,5 °C -8,2 °C 3,2 km/h (1 Bft)
13.02.2018 20:37 -8,3 °C 90 % 1012,9 hPa 0,0 mm 0,6 km/h (0 Bft) SO 144 ° 0 min 0,000 mm 0,0 UV-I 0 W/m² -9,6 °C -8,3 °C 1,6 km/h (1 Bft)
13.02.2018 20:38 -8,3 °C 90 % 1012,9 hPa 0,0 mm 0,9 km/h (0 Bft) SO 144 ° 0 min 0,000 mm 0,0 UV-I 0 W/m² -9,6 °C -8,3 °C 1,6 km/h (1 Bft)
13.02.2018 20:39 -8,2 °C 90 % 1012,9 hPa 0,0 mm 1,2 km/h (1 Bft) SO 144 ° 0 min 0,000 mm 0,0 UV-I 0 W/m² -9,5 °C -8,2 °C 1,6 km/h (1 Bft)
13.02.2018 20:40 -8,2 °C 90 % 1012,9 hPa 0,0 mm 1,4 km/h (1 Bft) SO 144 ° 0 min 0,000 mm 0,0 UV-I 0 W/m² -9,5 °C -8,2 °C 3,2 km/h (1 Bft)
13.02.2018 20:41 -8,2 °C 90 % 1012,9 hPa 0,0 mm 2,2 km/h (1 Bft) SO 144 ° 0 min 0,000 mm 0,0 UV-I 0 W/m² -9,5 °C -8,2 °C 3,2 km/h (1 Bft)
13.02.2018 20:42 -8,1 °C 90 % 1012,9 hPa 0,0 mm 0,9 km/h (0 Bft) SO 144 ° 0 min 0,000 mm 0,0 UV-I 0 W/m² -9,4 °C -8,1 °C 3,2 km/h (1 Bft)
13.02.2018 20:43 -8,0 °C 91 % 1012,9 hPa 0,0 mm 2,1 km/h (1 Bft) SO 144 ° 0 min 0,000 mm 0,0 UV-I 0 W/m² -9,2 °C -8,0 °C 3,2 km/h (1 Bft)
13.02.2018 20:44 -8,0 °C 91 % 1013,0 hPa 0,0 mm 0,7 km/h (0 Bft) SO 144 ° 0 min 0,000 mm 0,0 UV-I 0 W/m² -9,2 °C -8,0 °C 3,2 km/h (1 Bft)
13.02.2018 20:45 -8,1 °C 90 % 1013,0 hPa 0,0 mm 0,8 km/h (0 Bft) SO 144 ° 0 min 0,000 mm 0,0 UV-I 0 W/m² -9,4 °C -8,1 °C 1,6 km/h (1 Bft)
13.02.2018 20:46 -8,1 °C 90 % 1013,0 hPa 0,0 mm 1,3 km/h (1 Bft) SO 144 ° 0 min 0,000 mm 0,0 UV-I 0 W/m² -9,4 °C -8,1 °C 3,2 km/h (1 Bft)
13.02.2018 20:47 -8,1 °C 90 % 1013,0 hPa 0,0 mm 1,3 km/h (1 Bft) SO 144 ° 0 min 0,000 mm 0,0 UV-I 0 W/m² -9,4 °C -8,1 °C 3,2 km/h (1 Bft)
13.02.2018 20:48 -8,2 °C 90 % 1013,0 hPa 0,0 mm 1,8 km/h (1 Bft) SO 146 ° 0 min 0,000 mm 0,0 UV-I 0 W/m² -9,5 °C -8,2 °C 4,8 km/h (1 Bft)
13.02.2018 20:49 -8,2 °C 90 % 1012,9 hPa 0,0 mm 1,7 km/h (1 Bft) SO 146 ° 0 min 0,000 mm 0,0 UV-I 0 W/m² -9,5 °C -8,2 °C 3,2 km/h (1 Bft)
13.02.2018 20:50 -8,2 °C 90 % 1013,0 hPa 0,0 mm 0,1 km/h (0 Bft) SO 146 ° 0 min 0,000 mm 0,0 UV-I 0 W/m² -9,5 °C -8,2 °C 1,6 km/h (1 Bft)
13.02.2018 20:51 -8,3 °C 90 % 1013,0 hPa 0,0 mm 1,4 km/h (1 Bft) SO 146 ° 0 min 0,000 mm 0,0 UV-I 0 W/m² -9,6 °C -8,3 °C 4,8 km/h (1 Bft)
13.02.2018 20:52 -8,3 °C 89 % 1013,0 hPa 0,0 mm 0,7 km/h (0 Bft) SO 146 ° 0 min 0,000 mm 0,0 UV-I 0 W/m² -9,8 °C -8,3 °C 3,2 km/h (1 Bft)
13.02.2018 20:53 -8,3 °C 90 % 1013,0 hPa 0,0 mm 0,1 km/h (0 Bft) SO 146 ° 0 min 0,000 mm 0,0 UV-I 0 W/m² -9,6 °C -8,3 °C 1,6 km/h (1 Bft)
13.02.2018 20:54 -8,3 °C 90 % 1012,9 hPa 0,0 mm 0,4 km/h (0 Bft) SO 146 ° 0 min 0,000 mm 0,0 UV-I 0 W/m² -9,6 °C -8,3 °C 1,6 km/h (1 Bft)
13.02.2018 20:55 -8,3 °C 90 % 1013,0 hPa 0,0 mm 0,7 km/h (0 Bft) SO 146 ° 0 min 0,000 mm 0,0 UV-I 0 W/m² -9,6 °C -8,3 °C 3,2 km/h (1 Bft)
13.02.2018 20:56 -8,3 °C 90 % 1013,0 hPa 0,0 mm 0,4 km/h (0 Bft) SO 146 ° 0 min 0,000 mm 0,0 UV-I 0 W/m² -9,6 °C -8,3 °C 1,6 km/h (1 Bft)
13.02.2018 20:57 -8,3 °C 90 % 1012,9 hPa 0,0 mm 0,3 km/h (0 Bft) SO 146 ° 0 min 0,000 mm 0,0 UV-I 0 W/m² -9,6 °C -8,3 °C 1,6 km/h (1 Bft)
13.02.2018 20:58 -8,3 °C 90 % 1013,0 hPa 0,0 mm 0,9 km/h (0 Bft) SO 146 ° 0 min 0,000 mm 0,0 UV-I 0 W/m² -9,6 °C -8,3 °C 3,2 km/h (1 Bft)
13.02.2018 20:59 -8,3 °C 90 % 1013,0 hPa 0,0 mm 0,0 km/h (0 Bft) SO 146 ° 0 min 0,000 mm 0,0 UV-I 0 W/m² -9,6 °C -8,3 °C 0,0 km/h (0 Bft)
13.02.2018 21:00 -8,3 °C 90 % 1013,0 hPa 0,0 mm 0,0 km/h (0 Bft) SO 146 ° 0 min 0,000 mm 0,0 UV-I 0 W/m² -9,6 °C -8,3 °C 0,0 km/h (0 Bft)
13.02.2018 21:01 -8,2 °C 90 % 1012,9 hPa 0,0 mm 0,0 km/h (0 Bft) SO 146 ° 0 min 0,000 mm 0,0 UV-I 0 W/m² -9,5 °C -8,2 °C 0,0 km/h (0 Bft)
13.02.2018 21:02 -8,2 °C 90 % 1012,9 hPa 0,0 mm 0,0 km/h (0 Bft) SO 146 ° 0 min 0,000 mm 0,0 UV-I 0 W/m² -9,5 °C -8,2 °C 0,0 km/h (0 Bft)
13.02.2018 21:03 -8,2 °C 90 % 1012,9 hPa 0,0 mm 1,1 km/h (1 Bft) SO 146 ° 0 min 0,000 mm 0,0 UV-I 0 W/m² -9,5 °C -8,2 °C 1,6 km/h (1 Bft)
13.02.2018 21:04 -8,2 °C 90 % 1012,9 hPa 0,0 mm 0,3 km/h (0 Bft) SO 146 ° 0 min 0,000 mm 0,0 UV-I 0 W/m² -9,5 °C -8,2 °C 1,6 km/h (1 Bft)
13.02.2018 21:05 -8,2 °C 90 % 1013,0 hPa 0,0 mm 0,5 km/h (0 Bft) SO 146 ° 0 min 0,000 mm 0,0 UV-I 0 W/m² -9,5 °C -8,2 °C 1,6 km/h (1 Bft)
13.02.2018 21:06 -8,2 °C 90 % 1013,0 hPa 0,0 mm 1,0 km/h (0 Bft) SO 146 ° 0 min 0,000 mm 0,0 UV-I 0 W/m² -9,5 °C -8,2 °C 1,6 km/h (1 Bft)
13.02.2018 21:07 -8,2 °C 90 % 1013,0 hPa 0,0 mm 0,6 km/h (0 Bft) SO 146 ° 0 min 0,000 mm 0,0 UV-I 0 W/m² -9,5 °C -8,2 °C 3,2 km/h (1 Bft)
13.02.2018 21:08 -8,3 °C 89 % 1013,0 hPa 0,0 mm 0,0 km/h (0 Bft) SO 146 ° 0 min 0,000 mm 0,0 UV-I 0 W/m² -9,8 °C -8,3 °C 0,0 km/h (0 Bft)
13.02.2018 21:09 -8,3 °C 89 % 1013,0 hPa 0,0 mm 0,0 km/h (0 Bft) SO 146 ° 0 min 0,000 mm 0,0 UV-I 0 W/m² -9,8 °C -8,3 °C 0,0 km/h (0 Bft)
13.02.2018 21:10 -8,3 °C 90 % 1013,0 hPa 0,0 mm 0,0 km/h (0 Bft) SO 146 ° 0 min 0,000 mm 0,0 UV-I 0 W/m² -9,6 °C -8,3 °C 0,0 km/h (0 Bft)
13.02.2018 21:11 -8,3 °C 90 % 1013,0 hPa 0,0 mm 0,0 km/h (0 Bft) SO 146 ° 0 min 0,000 mm 0,0 UV-I 0 W/m² -9,6 °C -8,3 °C 0,0 km/h (0 Bft)
13.02.2018 21:12 -8,3 °C 90 % 1013,0 hPa 0,0 mm 0,0 km/h (0 Bft) SO 146 ° 0 min 0,000 mm 0,0 UV-I 0 W/m² -9,6 °C -8,3 °C 0,0 km/h (0 Bft)
13.02.2018 21:13 -8,3 °C 90 % 1013,0 hPa 0,0 mm 0,0 km/h (0 Bft) SO 146 ° 0 min 0,000 mm 0,0 UV-I 0 W/m² -9,6 °C -8,3 °C 0,0 km/h (0 Bft)
13.02.2018 21:14 -8,3 °C 90 % 1013,0 hPa 0,0 mm 0,0 km/h (0 Bft) SO 146 ° 0 min 0,000 mm 0,0 UV-I 0 W/m² -9,6 °C -8,3 °C 0,0 km/h (0 Bft)
13.02.2018 21:15 -8,5 °C 89 % 1013,0 hPa 0,0 mm 0,0 km/h (0 Bft) SO 146 ° 0 min 0,000 mm 0,0 UV-I 0 W/m² -10,0 °C -8,5 °C 0,0 km/h (0 Bft)
13.02.2018 21:16 -8,7 °C 88 % 1013,0 hPa 0,0 mm 0,0 km/h (0 Bft) SO 146 ° 0 min 0,000 mm 0,0 UV-I 0 W/m² -10,3 °C -8,7 °C 0,0 km/h (0 Bft)
13.02.2018 21:17 -8,9 °C 88 % 1013,0 hPa 0,0 mm 0,0 km/h (0 Bft) SO 146 ° 0 min 0,000 mm 0,0 UV-I 0 W/m² -10,5 °C -8,9 °C 0,0 km/h (0 Bft)
13.02.2018 21:18 -9,1 °C 88 % 1012,9 hPa 0,0 mm 0,0 km/h (0 Bft) SO 146 ° 0 min 0,000 mm 0,0 UV-I 0 W/m² -10,7 °C -9,1 °C 0,0 km/h (0 Bft)
13.02.2018 21:19 -9,3 °C 88 % 1013,0 hPa 0,0 mm 0,0 km/h (0 Bft) SO 146 ° 0 min 0,000 mm 0,0 UV-I 0 W/m² -10,9 °C -9,3 °C 0,0 km/h (0 Bft)
13.02.2018 21:20 -9,4 °C 88 % 1012,9 hPa 0,0 mm 0,0 km/h (0 Bft) SO 146 ° 0 min 0,000 mm 0,0 UV-I 0 W/m² -11,0 °C -9,4 °C 0,0 km/h (0 Bft)
13.02.2018 21:21 -9,6 °C 88 % 1013,0 hPa 0,0 mm 0,0 km/h (0 Bft) SO 146 ° 0 min 0,000 mm 0,0 UV-I 0 W/m² -11,2 °C -9,6 °C 0,0 km/h (0 Bft)
13.02.2018 21:22 -9,6 °C 88 % 1013,0 hPa 0,0 mm 0,0 km/h (0 Bft) SO 146 ° 0 min 0,000 mm 0,0 UV-I 0 W/m² -11,2 °C -9,6 °C 0,0 km/h (0 Bft)
13.02.2018 21:23 -9,7 °C 89 % 1013,0 hPa 0,0 mm 0,0 km/h (0 Bft) SO 146 ° 0 min 0,000 mm 0,0 UV-I 0 W/m² -11,2 °C -9,7 °C 0,0 km/h (0 Bft)
13.02.2018 21:24 -9,8 °C 89 % 1013,0 hPa 0,0 mm 0,0 km/h (0 Bft) SO 146 ° 0 min 0,000 mm 0,0 UV-I 0 W/m² -11,3 °C -9,8 °C 0,0 km/h (0 Bft)
13.02.2018 21:25 -9,8 °C 89 % 1013,0 hPa 0,0 mm 0,0 km/h (0 Bft) SO 146 ° 0 min 0,000 mm 0,0 UV-I 0 W/m² -11,3 °C -9,8 °C 0,0 km/h (0 Bft)
13.02.2018 21:26 -9,8 °C 89 % 1013,1 hPa 0,0 mm 0,0 km/h (0 Bft) SO 146 ° 0 min 0,000 mm 0,0 UV-I 0 W/m² -11,3 °C -9,8 °C 0,0 km/h (0 Bft)
13.02.2018 21:27 -9,7 °C 90 % 1013,0 hPa 0,0 mm 0,0 km/h (0 Bft) SO 146 ° 0 min 0,000 mm 0,0 UV-I 0 W/m² -11,0 °C -9,7 °C 0,0 km/h (0 Bft)
13.02.2018 21:28 -9,7 °C 90 % 1013,1 hPa 0,0 mm 0,0 km/h (0 Bft) SO 146 ° 0 min 0,000 mm 0,0 UV-I 0 W/m² -11,0 °C -9,7 °C 0,0 km/h (0 Bft)
13.02.2018 21:29 -9,7 °C 90 % 1013,1 hPa 0,0 mm 0,0 km/h (0 Bft) SO 146 ° 0 min 0,000 mm 0,0 UV-I 0 W/m² -11,0 °C -9,7 °C 0,0 km/h (0 Bft)
13.02.2018 21:30 -9,7 °C 90 % 1013,0 hPa 0,0 mm 0,0 km/h (0 Bft) SO 146 ° 0 min 0,000 mm 0,0 UV-I 0 W/m² -11,0 °C -9,7 °C 0,0 km/h (0 Bft)
13.02.2018 21:31 -9,8 °C 90 % 1013,1 hPa 0,0 mm 0,7 km/h (0 Bft) SO 146 ° 0 min 0,000 mm 0,0 UV-I 0 W/m² -11,1 °C -9,8 °C 1,6 km/h (1 Bft)
13.02.2018 21:32 -9,8 °C 89 % 1013,0 hPa 0,0 mm 2,4 km/h (1 Bft) SO 146 ° 0 min 0,000 mm 0,0 UV-I 0 W/m² -11,3 °C -9,8 °C 4,8 km/h (1 Bft)
13.02.2018 21:33 -9,8 °C 90 % 1013,0 hPa 0,0 mm 0,3 km/h (0 Bft) SO 146 ° 0 min 0,000 mm 0,0 UV-I 0 W/m² -11,1 °C -9,8 °C 1,6 km/h (1 Bft)
13.02.2018 21:34 -9,8 °C 90 % 1013,0 hPa 0,0 mm 0,0 km/h (0 Bft) SO 146 ° 0 min 0,000 mm 0,0 UV-I 0 W/m² -11,1 °C -9,8 °C 0,0 km/h (0 Bft)
13.02.2018 21:35 -9,8 °C 90 % 1013,1 hPa 0,0 mm 0,0 km/h (0 Bft) S-SO 147 ° 0 min 0,000 mm 0,0 UV-I 0 W/m² -11,1 °C -9,8 °C 0,0 km/h (0 Bft)
13.02.2018 21:36 -9,9 °C 90 % 1013,0 hPa 0,0 mm 0,0 km/h (0 Bft) S-SO 147 ° 0 min 0,000 mm 0,0 UV-I 0 W/m² -11,2 °C -9,9 °C 0,0 km/h (0 Bft)
13.02.2018 21:37 -9,9 °C 90 % 1013,0 hPa 0,0 mm 0,0 km/h (0 Bft) S-SO 147 ° 0 min 0,000 mm 0,0 UV-I 0 W/m² -11,2 °C -9,9 °C 0,0 km/h (0 Bft)
13.02.2018 21:38 -9,9 °C 90 % 1013,0 hPa 0,0 mm 0,0 km/h (0 Bft) S-SO 147 ° 0 min 0,000 mm 0,0 UV-I 0 W/m² -11,2 °C -9,9 °C 0,0 km/h (0 Bft)
13.02.2018 21:39 -10,0 °C 90 % 1013,1 hPa 0,0 mm 0,0 km/h (0 Bft) S-SO 147 ° 0 min 0,000 mm 0,0 UV-I 0 W/m² -11,3 °C -10,0 °C 0,0 km/h (0 Bft)
13.02.2018 21:40 -10,0 °C 90 % 1013,1 hPa 0,0 mm 0,0 km/h (0 Bft) S-SO 147 ° 0 min 0,000 mm 0,0 UV-I 0 W/m² -11,3 °C -10,0 °C 0,0 km/h (0 Bft)
13.02.2018 21:41 -9,9 °C 90 % 1013,1 hPa 0,0 mm 0,0 km/h (0 Bft) S-SO 147 ° 0 min 0,000 mm 0,0 UV-I 0 W/m² -11,2 °C -9,9 °C 0,0 km/h (0 Bft)
13.02.2018 21:42 -9,8 °C 90 % 1013,1 hPa 0,0 mm 0,0 km/h (0 Bft) S-SO 147 ° 0 min 0,000 mm 0,0 UV-I 0 W/m² -11,1 °C -9,8 °C 0,0 km/h (0 Bft)
13.02.2018 21:43 -9,9 °C 90 % 1013,1 hPa 0,0 mm 0,0 km/h (0 Bft) S-SO 147 ° 0 min 0,000 mm 0,0 UV-I 0 W/m² -11,2 °C -9,9 °C 0,0 km/h (0 Bft)
13.02.2018 21:44 -9,8 °C 90 % 1013,1 hPa 0,0 mm 0,0 km/h (0 Bft) S-SO 147 ° 0 min 0,000 mm 0,0 UV-I 0 W/m² -11,1 °C -9,8 °C 0,0 km/h (0 Bft)
13.02.2018 21:45 -9,9 °C 90 % 1013,1 hPa 0,0 mm 0,0 km/h (0 Bft) S-SO 147 ° 0 min 0,000 mm 0,0 UV-I 0 W/m² -11,2 °C -9,9 °C 0,0 km/h (0 Bft)
13.02.2018 21:46 -9,9 °C 90 % 1013,1 hPa 0,0 mm 0,0 km/h (0 Bft) S-SO 147 ° 0 min 0,000 mm 0,0 UV-I 0 W/m² -11,2 °C -9,9 °C 0,0 km/h (0 Bft)
13.02.2018 21:47 -10,0 °C 90 % 1013,2 hPa 0,0 mm 0,0 km/h (0 Bft) S-SO 147 ° 0 min 0,000 mm 0,0 UV-I 0 W/m² -11,3 °C -10,0 °C 0,0 km/h (0 Bft)
13.02.2018 21:48 -10,1 °C 90 % 1013,1 hPa 0,0 mm 0,0 km/h (0 Bft) S-SO 147 ° 0 min 0,000 mm 0,0 UV-I 0 W/m² -11,4 °C -10,1 °C 0,0 km/h (0 Bft)
13.02.2018 21:49 -10,2 °C 89 % 1013,1 hPa 0,0 mm 0,0 km/h (0 Bft) S-SO 147 ° 0 min 0,000 mm 0,0 UV-I 0 W/m² -11,7 °C -10,2 °C 0,0 km/h (0 Bft)
13.02.2018 21:50 -10,3 °C 89 % 1013,1 hPa 0,0 mm 0,0 km/h (0 Bft) S-SO 147 ° 0 min 0,000 mm 0,0 UV-I 0 W/m² -11,8 °C -10,3 °C 0,0 km/h (0 Bft)
13.02.2018 21:51 -10,3 °C 90 % 1013,1 hPa 0,0 mm 0,0 km/h (0 Bft) S-SO 147 ° 0 min 0,000 mm 0,0 UV-I 0 W/m² -11,6 °C -10,3 °C 0,0 km/h (0 Bft)
13.02.2018 21:52 -10,3 °C 90 % 1013,1 hPa 0,0 mm 0,0 km/h (0 Bft) S-SO 147 ° 0 min 0,000 mm 0,0 UV-I 0 W/m² -11,6 °C -10,3 °C 0,0 km/h (0 Bft)
13.02.2018 21:53 -10,4 °C 90 % 1013,1 hPa 0,0 mm 0,0 km/h (0 Bft) S-SO 147 ° 0 min 0,000 mm 0,0 UV-I 0 W/m² -11,7 °C -10,4 °C 0,0 km/h (0 Bft)
13.02.2018 21:54 -10,4 °C 90 % 1013,1 hPa 0,0 mm 0,0 km/h (0 Bft) S-SO 147 ° 0 min 0,000 mm 0,0 UV-I 0 W/m² -11,7 °C -10,4 °C 0,0 km/h (0 Bft)
13.02.2018 21:55 -10,4 °C 90 % 1013,1 hPa 0,0 mm 0,0 km/h (0 Bft) S-SO 147 ° 0 min 0,000 mm 0,0 UV-I 0 W/m² -11,7 °C -10,4 °C 0,0 km/h (0 Bft)
13.02.2018 21:56 -10,5 °C 90 % 1013,1 hPa 0,0 mm 0,0 km/h (0 Bft) S-SO 147 ° 0 min 0,000 mm 0,0 UV-I 0 W/m² -11,8 °C -10,5 °C 0,0 km/h (0 Bft)
13.02.2018 21:57 -10,5 °C 90 % 1013,1 hPa 0,0 mm 0,0 km/h (0 Bft) S-SO 147 ° 0 min 0,000 mm 0,0 UV-I 0 W/m² -11,8 °C -10,5 °C 0,0 km/h (0 Bft)
13.02.2018 21:58 -10,6 °C 90 % 1013,0 hPa 0,0 mm 0,0 km/h (0 Bft) S-SO 147 ° 0 min 0,000 mm 0,0 UV-I 0 W/m² -11,9 °C -10,6 °C 0,0 km/h (0 Bft)
13.02.2018 21:59 -10,6 °C 90 % 1013,0 hPa 0,0 mm 0,0 km/h (0 Bft) S-SO 147 ° 0 min 0,000 mm 0,0 UV-I 0 W/m² -11,9 °C -10,6 °C 0,0 km/h (0 Bft)
13.02.2018 22:00 -10,6 °C 90 % 1013,1 hPa 0,0 mm 0,0 km/h (0 Bft) S-SO 147 ° 0 min 0,000 mm 0,0 UV-I 0 W/m² -11,9 °C -10,6 °C 0,0 km/h (0 Bft)
13.02.2018 22:01 -10,6 °C 90 % 1013,1 hPa 0,0 mm 0,0 km/h (0 Bft) S-SO 147 ° 0 min 0,000 mm 0,0 UV-I 0 W/m² -11,9 °C -10,6 °C 0,0 km/h (0 Bft)
13.02.2018 22:02 -10,6 °C 90 % 1013,1 hPa 0,0 mm 0,0 km/h (0 Bft) S-SO 147 ° 0 min 0,000 mm 0,0 UV-I 0 W/m² -11,9 °C -10,6 °C 0,0 km/h (0 Bft)
13.02.2018 22:03 -10,5 °C 91 % 1013,1 hPa 0,0 mm 0,0 km/h (0 Bft) S-SO 147 ° 0 min 0,000 mm 0,0 UV-I 0 W/m² -11,7 °C -10,5 °C 0,0 km/h (0 Bft)
13.02.2018 22:04 -10,4 °C 91 % 1013,1 hPa 0,0 mm 0,0 km/h (0 Bft) S-SO 147 ° 0 min 0,000 mm 0,0 UV-I 0 W/m² -11,6 °C -10,4 °C 0,0 km/h (0 Bft)
13.02.2018 22:05 -10,4 °C 91 % 1013,1 hPa 0,0 mm 0,0 km/h (0 Bft) S-SO 147 ° 0 min 0,000 mm 0,0 UV-I 0 W/m² -11,6 °C -10,4 °C 0,0 km/h (0 Bft)
13.02.2018 22:06 -10,3 °C 91 % 1013,0 hPa 0,0 mm 0,0 km/h (0 Bft) S-SO 147 ° 0 min 0,000 mm 0,0 UV-I 0 W/m² -11,5 °C -10,3 °C 0,0 km/h (0 Bft)
13.02.2018 22:07 -10,3 °C 91 % 1013,0 hPa 0,0 mm 0,0 km/h (0 Bft) S-SO 147 ° 0 min 0,000 mm 0,0 UV-I 0 W/m² -11,5 °C -10,3 °C 0,0 km/h (0 Bft)
13.02.2018 22:08 -10,2 °C 91 % 1013,0 hPa 0,0 mm 0,0 km/h (0 Bft) S-SO 147 ° 0 min 0,000 mm 0,0 UV-I 0 W/m² -11,4 °C -10,2 °C 0,0 km/h (0 Bft)
13.02.2018 22:09 -10,2 °C 91 % 1013,1 hPa 0,0 mm 0,0 km/h (0 Bft) S-SO 147 ° 0 min 0,000 mm 0,0 UV-I 0 W/m² -11,4 °C -10,2 °C 0,0 km/h (0 Bft)
13.02.2018 22:10 -10,2 °C 91 % 1013,1 hPa 0,0 mm 0,0 km/h (0 Bft) S-SO 147 ° 0 min 0,000 mm 0,0 UV-I 0 W/m² -11,4 °C -10,2 °C 0,0 km/h (0 Bft)
13.02.2018 22:11 -10,2 °C 91 % 1013,0 hPa 0,0 mm 0,0 km/h (0 Bft) S-SO 147 ° 0 min 0,000 mm 0,0 UV-I 0 W/m² -11,4 °C -10,2 °C 0,0 km/h (0 Bft)
13.02.2018 22:12 -10,2 °C 91 % 1013,1 hPa 0,0 mm 0,0 km/h (0 Bft) S-SO 147 ° 0 min 0,000 mm 0,0 UV-I 0 W/m² -11,4 °C -10,2 °C 0,0 km/h (0 Bft)
13.02.2018 22:13 -10,2 °C 91 % 1013,1 hPa 0,0 mm 0,0 km/h (0 Bft) S-SO 147 ° 0 min 0,000 mm 0,0 UV-I 0 W/m² -11,4 °C -10,2 °C 0,0 km/h (0 Bft)
13.02.2018 22:14 -10,2 °C 91 % 1013,1 hPa 0,0 mm 0,0 km/h (0 Bft) S-SO 147 ° 0 min 0,000 mm 0,0 UV-I 0 W/m² -11,4 °C -10,2 °C 0,0 km/h (0 Bft)
13.02.2018 22:15 -10,3 °C 91 % 1013,1 hPa 0,0 mm 0,0 km/h (0 Bft) S-SO 147 ° 0 min 0,000 mm 0,0 UV-I 0 W/m² -11,5 °C -10,3 °C 0,0 km/h (0 Bft)
13.02.2018 22:16 -10,3 °C 90 % 1013,1 hPa 0,0 mm 0,0 km/h (0 Bft) S-SO 147 ° 0 min 0,000 mm 0,0 UV-I 0 W/m² -11,6 °C -10,3 °C 0,0 km/h (0 Bft)
13.02.2018 22:17 -10,4 °C 90 % 1013,0 hPa 0,0 mm 0,0 km/h (0 Bft) S-SO 147 ° 0 min 0,000 mm 0,0 UV-I 0 W/m² -11,7 °C -10,4 °C 0,0 km/h (0 Bft)
13.02.2018 22:18 -10,5 °C 90 % 1013,0 hPa 0,0 mm 0,0 km/h (0 Bft) S-SO 147 ° 0 min 0,000 mm 0,0 UV-I 0 W/m² -11,8 °C -10,5 °C 0,0 km/h (0 Bft)
13.02.2018 22:19 -10,6 °C 90 % 1013,0 hPa 0,0 mm 0,0 km/h (0 Bft) S-SO 147 ° 0 min 0,000 mm 0,0 UV-I 0 W/m² -11,9 °C -10,6 °C 0,0 km/h (0 Bft)
13.02.2018 22:20 -10,6 °C 90 % 1013,0 hPa 0,0 mm 0,0 km/h (0 Bft) S-SO 147 ° 0 min 0,000 mm 0,0 UV-I 0 W/m² -11,9 °C -10,6 °C 0,0 km/h (0 Bft)
13.02.2018 22:21 -10,7 °C 90 % 1013,0 hPa 0,0 mm 0,0 km/h (0 Bft) S-SO 147 ° 0 min 0,000 mm 0,0 UV-I 0 W/m² -12,0 °C -10,7 °C 0,0 km/h (0 Bft)
13.02.2018 22:22 -10,7 °C 91 % 1013,0 hPa 0,0 mm 0,0 km/h (0 Bft) S-SO 147 ° 0 min 0,000 mm 0,0 UV-I 0 W/m² -11,9 °C -10,7 °C 0,0 km/h (0 Bft)
13.02.2018 22:23 -10,7 °C 91 % 1013,0 hPa 0,0 mm 0,0 km/h (0 Bft) S-SO 147 ° 0 min 0,000 mm 0,0 UV-I 0 W/m² -11,9 °C -10,7 °C 0,0 km/h (0 Bft)
13.02.2018 22:24 -10,7 °C 90 % 1013,0 hPa 0,0 mm 0,0 km/h (0 Bft) S-SO 147 ° 0 min 0,000 mm 0,0 UV-I 0 W/m² -12,0 °C -10,7 °C 0,0 km/h (0 Bft)
13.02.2018 22:25 -10,7 °C 90 % 1013,0 hPa 0,0 mm 0,0 km/h (0 Bft) S-SO 147 ° 0 min 0,000 mm 0,0 UV-I 0 W/m² -12,0 °C -10,7 °C 0,0 km/h (0 Bft)
13.02.2018 22:26 -10,7 °C 90 % 1013,0 hPa 0,0 mm 0,0 km/h (0 Bft) S-SO 147 ° 0 min 0,000 mm 0,0 UV-I 0 W/m² -12,0 °C -10,7 °C 0,0 km/h (0 Bft)
13.02.2018 22:27 -10,6 °C 91 % 1013,1 hPa 0,0 mm 0,0 km/h (0 Bft) S-SO 147 ° 0 min 0,000 mm 0,0 UV-I 0 W/m² -11,8 °C -10,6 °C 0,0 km/h (0 Bft)
13.02.2018 22:28 -10,6 °C 91 % 1013,0 hPa 0,0 mm 0,0 km/h (0 Bft) S-SO 147 ° 0 min 0,000 mm 0,0 UV-I 0 W/m² -11,8 °C -10,6 °C 0,0 km/h (0 Bft)
13.02.2018 22:29 -10,4 °C 91 % 1013,0 hPa 0,0 mm 0,0 km/h (0 Bft) S-SO 147 ° 0 min 0,000 mm 0,0 UV-I 0 W/m² -11,6 °C -10,4 °C 0,0 km/h (0 Bft)
13.02.2018 22:30 -10,4 °C 91 % 1013,0 hPa 0,0 mm 0,0 km/h (0 Bft) S-SO 147 ° 0 min 0,000 mm 0,0 UV-I 0 W/m² -11,6 °C -10,4 °C 0,0 km/h (0 Bft)
13.02.2018 22:31 -10,4 °C 91 % 1013,0 hPa 0,0 mm 0,0 km/h (0 Bft) S-SO 147 ° 0 min 0,000 mm 0,0 UV-I 0 W/m² -11,6 °C -10,4 °C 0,0 km/h (0 Bft)
13.02.2018 22:32 -10,5 °C 91 % 1012,9 hPa 0,0 mm 0,0 km/h (0 Bft) S-SO 147 ° 0 min 0,000 mm 0,0 UV-I 0 W/m² -11,7 °C -10,5 °C 0,0 km/h (0 Bft)
13.02.2018 22:33 -10,6 °C 90 % 1013,0 hPa 0,0 mm 0,0 km/h (0 Bft) S-SO 147 ° 0 min 0,000 mm 0,0 UV-I 0 W/m² -11,9 °C -10,6 °C 0,0 km/h (0 Bft)
13.02.2018 22:34 -10,6 °C 90 % 1013,0 hPa 0,0 mm 0,0 km/h (0 Bft) S-SO 147 ° 0 min 0,000 mm 0,0 UV-I 0 W/m² -11,9 °C -10,6 °C 0,0 km/h (0 Bft)
13.02.2018 22:35 -10,6 °C 91 % 1013,0 hPa 0,0 mm 0,0 km/h (0 Bft) S-SO 147 ° 0 min 0,000 mm 0,0 UV-I 0 W/m² -11,8 °C -10,6 °C 0,0 km/h (0 Bft)
13.02.2018 22:36 -10,6 °C 91 % 1013,0 hPa 0,0 mm 0,0 km/h (0 Bft) S-SO 147 ° 0 min 0,000 mm 0,0 UV-I 0 W/m² -11,8 °C -10,6 °C 0,0 km/h (0 Bft)
13.02.2018 22:37 -10,6 °C 90 % 1013,0 hPa 0,0 mm 0,0 km/h (0 Bft) S-SO 147 ° 0 min 0,000 mm 0,0 UV-I 0 W/m² -11,9 °C -10,6 °C 0,0 km/h (0 Bft)
13.02.2018 22:38 -10,6 °C 91 % 1013,0 hPa 0,0 mm 0,0 km/h (0 Bft) S-SO 147 ° 0 min 0,000 mm 0,0 UV-I 0 W/m² -11,8 °C -10,6 °C 0,0 km/h (0 Bft)
13.02.2018 22:39 -10,6 °C 91 % 1013,0 hPa 0,0 mm 0,0 km/h (0 Bft) S-SO 147 ° 0 min 0,000 mm 0,0 UV-I 0 W/m² -11,8 °C -10,6 °C 0,0 km/h (0 Bft)
13.02.2018 22:40 -10,6 °C 91 % 1013,0 hPa 0,0 mm 0,0 km/h (0 Bft) S-SO 147 ° 0 min 0,000 mm 0,0 UV-I 0 W/m² -11,8 °C -10,6 °C 0,0 km/h (0 Bft)
13.02.2018 22:41 -10,6 °C 91 % 1013,0 hPa 0,0 mm 0,0 km/h (0 Bft) S-SO 147 ° 0 min 0,000 mm 0,0 UV-I 0 W/m² -11,8 °C -10,6 °C 0,0 km/h (0 Bft)
13.02.2018 22:42 -10,6 °C 90 % 1013,0 hPa 0,0 mm 0,0 km/h (0 Bft) S-SO 147 ° 0 min 0,000 mm 0,0 UV-I 0 W/m² -11,9 °C -10,6 °C 0,0 km/h (0 Bft)
13.02.2018 22:43 -10,6 °C 90 % 1012,9 hPa 0,0 mm 0,0 km/h (0 Bft) S-SO 147 ° 0 min 0,000 mm 0,0 UV-I 0 W/m² -11,9 °C -10,6 °C 0,0 km/h (0 Bft)
13.02.2018 22:44 -10,6 °C 90 % 1013,0 hPa 0,0 mm 0,0 km/h (0 Bft) S-SO 147 ° 0 min 0,000 mm 0,0 UV-I 0 W/m² -11,9 °C -10,6 °C 0,0 km/h (0 Bft)
13.02.2018 22:45 -10,7 °C 90 % 1013,0 hPa 0,0 mm 0,0 km/h (0 Bft) S-SO 147 ° 0 min 0,000 mm 0,0 UV-I 0 W/m² -12,0 °C -10,7 °C 0,0 km/h (0 Bft)
13.02.2018 22:46 -10,7 °C 90 % 1013,0 hPa 0,0 mm 0,0 km/h (0 Bft) S-SO 147 ° 0 min 0,000 mm 0,0 UV-I 0 W/m² -12,0 °C -10,7 °C 0,0 km/h (0 Bft)
13.02.2018 22:47 -10,8 °C 90 % 1012,9 hPa 0,0 mm 0,0 km/h (0 Bft) S-SO 147 ° 0 min 0,000 mm 0,0 UV-I 0 W/m² -12,1 °C -10,8 °C 0,0 km/h (0 Bft)
13.02.2018 22:48 -10,7 °C 90 % 1013,0 hPa 0,0 mm 0,0 km/h (0 Bft) S-SO 147 ° 0 min 0,000 mm 0,0 UV-I 0 W/m² -12,0 °C -10,7 °C 0,0 km/h (0 Bft)
13.02.2018 22:49 -10,7 °C 91 % 1012,9 hPa 0,0 mm 0,0 km/h (0 Bft) S-SO 147 ° 0 min 0,000 mm 0,0 UV-I 0 W/m² -11,9 °C -10,7 °C 0,0 km/h (0 Bft)
13.02.2018 22:50 -10,6 °C 91 % 1013,0 hPa 0,0 mm 0,0 km/h (0 Bft) S-SO 147 ° 0 min 0,000 mm 0,0 UV-I 0 W/m² -11,8 °C -10,6 °C 0,0 km/h (0 Bft)
13.02.2018 22:51 -10,4 °C 91 % 1012,9 hPa 0,0 mm 0,0 km/h (0 Bft) S-SO 147 ° 0 min 0,000 mm 0,0 UV-I 0 W/m² -11,6 °C -10,4 °C 0,0 km/h (0 Bft)
13.02.2018 22:52 -10,4 °C 91 % 1012,9 hPa 0,0 mm 0,0 km/h (0 Bft) S-SO 147 ° 0 min 0,000 mm 0,0 UV-I 0 W/m² -11,6 °C -10,4 °C 0,0 km/h (0 Bft)
13.02.2018 22:53 -10,4 °C 91 % 1012,9 hPa 0,0 mm 0,0 km/h (0 Bft) S-SO 147 ° 0 min 0,000 mm 0,0 UV-I 0 W/m² -11,6 °C -10,4 °C 0,0 km/h (0 Bft)
13.02.2018 22:54 -10,4 °C 91 % 1012,9 hPa 0,0 mm 0,0 km/h (0 Bft) S-SO 147 ° 0 min 0,000 mm 0,0 UV-I 0 W/m² -11,6 °C -10,4 °C 0,0 km/h (0 Bft)
13.02.2018 22:55 -10,4 °C 91 % 1012,8 hPa 0,0 mm 0,0 km/h (0 Bft) S-SO 147 ° 0 min 0,000 mm 0,0 UV-I 0 W/m² -11,6 °C -10,4 °C 0,0 km/h (0 Bft)
13.02.2018 22:56 -10,4 °C 91 % 1012,8 hPa 0,0 mm 0,0 km/h (0 Bft) S-SO 147 ° 0 min 0,000 mm 0,0 UV-I 0 W/m² -11,6 °C -10,4 °C 0,0 km/h (0 Bft)
13.02.2018 22:57 -10,4 °C 91 % 1012,8 hPa 0,0 mm 0,0 km/h (0 Bft) S-SO 147 ° 0 min 0,000 mm 0,0 UV-I 0 W/m² -11,6 °C -10,4 °C 0,0 km/h (0 Bft)
13.02.2018 22:58 -10,5 °C 90 % 1012,8 hPa 0,0 mm 0,0 km/h (0 Bft) S-SO 147 ° 0 min 0,000 mm 0,0 UV-I 0 W/m² -11,8 °C -10,5 °C 0,0 km/h (0 Bft)
13.02.2018 22:59 -10,6 °C 90 % 1012,9 hPa 0,0 mm 0,0 km/h (0 Bft) S-SO 147 ° 0 min 0,000 mm 0,0 UV-I 0 W/m² -11,9 °C -10,6 °C 0,0 km/h (0 Bft)
13.02.2018 23:00 -10,7 °C 90 % 1012,8 hPa 0,0 mm 0,0 km/h (0 Bft) S-SO 147 ° 0 min 0,000 mm 0,0 UV-I 0 W/m² -12,0 °C -10,7 °C 0,0 km/h (0 Bft)
13.02.2018 23:01 -10,8 °C 90 % 1012,8 hPa 0,0 mm 0,0 km/h (0 Bft) S-SO 147 ° 0 min 0,000 mm 0,0 UV-I 0 W/m² -12,1 °C -10,8 °C 0,0 km/h (0 Bft)
13.02.2018 23:02 -10,9 °C 90 % 1012,8 hPa 0,0 mm 0,0 km/h (0 Bft) S-SO 147 ° 0 min 0,000 mm 0,0 UV-I 0 W/m² -12,2 °C -10,9 °C 0,0 km/h (0 Bft)
13.02.2018 23:03 -10,9 °C 90 % 1012,8 hPa 0,0 mm 0,0 km/h (0 Bft) S-SO 147 ° 0 min 0,000 mm 0,0 UV-I 0 W/m² -12,2 °C -10,9 °C 0,0 km/h (0 Bft)
13.02.2018 23:04 -10,9 °C 90 % 1012,8 hPa 0,0 mm 0,0 km/h (0 Bft) S-SO 147 ° 0 min 0,000 mm 0,0 UV-I 0 W/m² -12,2 °C -10,9 °C 0,0 km/h (0 Bft)
13.02.2018 23:05 -10,9 °C 90 % 1012,8 hPa 0,0 mm 0,0 km/h (0 Bft) S-SO 147 ° 0 min 0,000 mm 0,0 UV-I 0 W/m² -12,2 °C -10,9 °C 0,0 km/h (0 Bft)
13.02.2018 23:06 -10,9 °C 90 % 1012,8 hPa 0,0 mm 0,0 km/h (0 Bft) S-SO 147 ° 0 min 0,000 mm 0,0 UV-I 0 W/m² -12,2 °C -10,9 °C 0,0 km/h (0 Bft)
13.02.2018 23:07 -11,0 °C 90 % 1012,8 hPa 0,0 mm 0,0 km/h (0 Bft) S-SO 147 ° 0 min 0,000 mm 0,0 UV-I 0 W/m² -12,3 °C -11,0 °C 0,0 km/h (0 Bft)
13.02.2018 23:08 -11,0 °C 90 % 1012,8 hPa 0,0 mm 0,0 km/h (0 Bft) S-SO 147 ° 0 min 0,000 mm 0,0 UV-I 0 W/m² -12,3 °C -11,0 °C 0,0 km/h (0 Bft)
13.02.2018 23:09 -10,9 °C 90 % 1012,8 hPa 0,0 mm 0,0 km/h (0 Bft) S-SO 147 ° 0 min 0,000 mm 0,0 UV-I 0 W/m² -12,2 °C -10,9 °C 0,0 km/h (0 Bft)
13.02.2018 23:10 -10,9 °C 91 % 1012,8 hPa 0,0 mm 0,0 km/h (0 Bft) S-SO 147 ° 0 min 0,000 mm 0,0 UV-I 0 W/m² -12,1 °C -10,9 °C 0,0 km/h (0 Bft)
13.02.2018 23:11 -10,8 °C 91 % 1012,8 hPa 0,0 mm 0,0 km/h (0 Bft) S-SO 147 ° 0 min 0,000 mm 0,0 UV-I 0 W/m² -12,0 °C -10,8 °C 0,0 km/h (0 Bft)
13.02.2018 23:12 -10,9 °C 91 % 1012,8 hPa 0,0 mm 0,0 km/h (0 Bft) S-SO 147 ° 0 min 0,000 mm 0,0 UV-I 0 W/m² -12,1 °C -10,9 °C 0,0 km/h (0 Bft)
13.02.2018 23:13 -10,9 °C 90 % 1012,8 hPa 0,0 mm 0,0 km/h (0 Bft) S-SO 147 ° 0 min 0,000 mm 0,0 UV-I 0 W/m² -12,2 °C -10,9 °C 0,0 km/h (0 Bft)
13.02.2018 23:14 -11,1 °C 90 % 1012,8 hPa 0,0 mm 0,0 km/h (0 Bft) S-SO 147 ° 0 min 0,000 mm 0,0 UV-I 0 W/m² -12,4 °C -11,1 °C 0,0 km/h (0 Bft)
13.02.2018 23:15 -11,2 °C 90 % 1012,8 hPa 0,0 mm 0,0 km/h (0 Bft) S-SO 147 ° 0 min 0,000 mm 0,0 UV-I 0 W/m² -12,5 °C -11,2 °C 0,0 km/h (0 Bft)
13.02.2018 23:16 -11,3 °C 90 % 1012,8 hPa 0,0 mm 0,0 km/h (0 Bft) S-SO 147 ° 0 min 0,000 mm 0,0 UV-I 0 W/m² -12,6 °C -11,3 °C 0,0 km/h (0 Bft)
13.02.2018 23:17 -11,3 °C 90 % 1012,8 hPa 0,0 mm 0,0 km/h (0 Bft) S-SO 147 ° 0 min 0,000 mm 0,0 UV-I 0 W/m² -12,6 °C -11,3 °C 0,0 km/h (0 Bft)
13.02.2018 23:18 -11,4 °C 90 % 1012,7 hPa 0,0 mm 0,0 km/h (0 Bft) S-SO 147 ° 0 min 0,000 mm 0,0 UV-I 0 W/m² -12,7 °C -11,4 °C 0,0 km/h (0 Bft)
13.02.2018 23:19 -11,5 °C 89 % 1012,7 hPa 0,0 mm 0,0 km/h (0 Bft) S-SO 147 ° 0 min 0,000 mm 0,0 UV-I 0 W/m² -12,9 °C -11,5 °C 0,0 km/h (0 Bft)
13.02.2018 23:20 -11,5 °C 90 % 1012,7 hPa 0,0 mm 0,0 km/h (0 Bft) S-SO 147 ° 0 min 0,000 mm 0,0 UV-I 0 W/m² -12,8 °C -11,5 °C 0,0 km/h (0 Bft)
13.02.2018 23:21 -11,6 °C 90 % 1012,7 hPa 0,0 mm 0,0 km/h (0 Bft) S-SO 147 ° 0 min 0,000 mm 0,0 UV-I 0 W/m² -12,9 °C -11,6 °C 0,0 km/h (0 Bft)
13.02.2018 23:22 -11,5 °C 90 % 1012,7 hPa 0,0 mm 0,0 km/h (0 Bft) S-SO 147 ° 0 min 0,000 mm 0,0 UV-I 0 W/m² -12,8 °C -11,5 °C 0,0 km/h (0 Bft)
13.02.2018 23:23 -11,5 °C 90 % 1012,8 hPa 0,0 mm 0,0 km/h (0 Bft) S-SO 147 ° 0 min 0,000 mm 0,0 UV-I 0 W/m² -12,8 °C -11,5 °C 0,0 km/h (0 Bft)
13.02.2018 23:24 -11,6 °C 90 % 1012,7 hPa 0,0 mm 0,0 km/h (0 Bft) S-SO 147 ° 0 min 0,000 mm 0,0 UV-I 0 W/m² -12,9 °C -11,6 °C 0,0 km/h (0 Bft)
13.02.2018 23:25 -11,6 °C 90 % 1012,8 hPa 0,0 mm 0,0 km/h (0 Bft) S-SO 147 ° 0 min 0,000 mm 0,0 UV-I 0 W/m² -12,9 °C -11,6 °C 0,0 km/h (0 Bft)
13.02.2018 23:26 -11,7 °C 90 % 1012,8 hPa 0,0 mm 0,0 km/h (0 Bft) S-SO 147 ° 0 min 0,000 mm 0,0 UV-I 0 W/m² -13,0 °C -11,7 °C 0,0 km/h (0 Bft)
13.02.2018 23:27 -11,7 °C 90 % 1012,8 hPa 0,0 mm 0,0 km/h (0 Bft) S-SO 147 ° 0 min 0,000 mm 0,0 UV-I 0 W/m² -13,0 °C -11,7 °C 0,0 km/h (0 Bft)
13.02.2018 23:28 -11,8 °C 90 % 1012,8 hPa 0,0 mm 0,0 km/h (0 Bft) S-SO 147 ° 0 min 0,000 mm 0,0 UV-I 0 W/m² -13,1 °C -11,8 °C 0,0 km/h (0 Bft)
13.02.2018 23:29 -11,8 °C 90 % 1012,8 hPa 0,0 mm 0,0 km/h (0 Bft) S-SO 147 ° 0 min 0,000 mm 0,0 UV-I 0 W/m² -13,1 °C -11,8 °C 0,0 km/h (0 Bft)
13.02.2018 23:30 -11,8 °C 90 % 1012,8 hPa 0,0 mm 0,0 km/h (0 Bft) S-SO 147 ° 0 min 0,000 mm 0,0 UV-I 0 W/m² -13,1 °C -11,8 °C 0,0 km/h (0 Bft)
13.02.2018 23:31 -11,8 °C 90 % 1012,8 hPa 0,0 mm 0,0 km/h (0 Bft) S-SO 147 ° 0 min 0,000 mm 0,0 UV-I 0 W/m² -13,1 °C -11,8 °C 0,0 km/h (0 Bft)
13.02.2018 23:32 -11,8 °C 90 % 1012,9 hPa 0,0 mm 0,0 km/h (0 Bft) S-SO 147 ° 0 min 0,000 mm 0,0 UV-I 0 W/m² -13,1 °C -11,8 °C 0,0 km/h (0 Bft)
13.02.2018 23:33 -11,8 °C 90 % 1012,9 hPa 0,0 mm 0,0 km/h (0 Bft) S-SO 147 ° 0 min 0,000 mm 0,0 UV-I 0 W/m² -13,1 °C -11,8 °C 0,0 km/h (0 Bft)
13.02.2018 23:34 -11,7 °C 90 % 1012,9 hPa 0,0 mm 0,0 km/h (0 Bft) S-SO 147 ° 0 min 0,000 mm 0,0 UV-I 0 W/m² -13,0 °C -11,7 °C 0,0 km/h (0 Bft)
13.02.2018 23:35 -11,7 °C 91 % 1012,9 hPa 0,0 mm 0,0 km/h (0 Bft) S-SO 147 ° 0 min 0,000 mm 0,0 UV-I 0 W/m² -12,9 °C -11,7 °C 0,0 km/h (0 Bft)
13.02.2018 23:36 -11,7 °C 90 % 1012,9 hPa 0,0 mm 0,0 km/h (0 Bft) S-SO 147 ° 0 min 0,000 mm 0,0 UV-I 0 W/m² -13,0 °C -11,7 °C 0,0 km/h (0 Bft)
13.02.2018 23:37 -11,7 °C 90 % 1012,9 hPa 0,0 mm 0,0 km/h (0 Bft) S-SO 147 ° 0 min 0,000 mm 0,0 UV-I 0 W/m² -13,0 °C -11,7 °C 0,0 km/h (0 Bft)
13.02.2018 23:38 -11,7 °C 90 % 1012,9 hPa 0,0 mm 0,0 km/h (0 Bft) S-SO 147 ° 0 min 0,000 mm 0,0 UV-I 0 W/m² -13,0 °C -11,7 °C 0,0 km/h (0 Bft)
13.02.2018 23:39 -11,7 °C 90 % 1012,9 hPa 0,0 mm 0,0 km/h (0 Bft) S-SO 147 ° 0 min 0,000 mm 0,0 UV-I 0 W/m² -13,0 °C -11,7 °C 0,0 km/h (0 Bft)
13.02.2018 23:40 -11,7 °C 90 % 1012,9 hPa 0,0 mm 0,0 km/h (0 Bft) S-SO 147 ° 0 min 0,000 mm 0,0 UV-I 0 W/m² -13,0 °C -11,7 °C 0,0 km/h (0 Bft)
13.02.2018 23:41 -11,7 °C 90 % 1012,9 hPa 0,0 mm 0,0 km/h (0 Bft) S-SO 147 ° 0 min 0,000 mm 0,0 UV-I 0 W/m² -13,0 °C -11,7 °C 0,0 km/h (0 Bft)
13.02.2018 23:42 -11,7 °C 90 % 1012,9 hPa 0,0 mm 0,0 km/h (0 Bft) S-SO 147 ° 0 min 0,000 mm 0,0 UV-I 0 W/m² -13,0 °C -11,7 °C 0,0 km/h (0 Bft)
13.02.2018 23:43 -11,8 °C 90 % 1013,0 hPa 0,0 mm 0,0 km/h (0 Bft) S-SO 147 ° 0 min 0,000 mm 0,0 UV-I 0 W/m² -13,1 °C -11,8 °C 0,0 km/h (0 Bft)
13.02.2018 23:44 -11,8 °C 90 % 1013,0 hPa 0,0 mm 0,0 km/h (0 Bft) S-SO 147 ° 0 min 0,000 mm 0,0 UV-I 0 W/m² -13,1 °C -11,8 °C 0,0 km/h (0 Bft)
13.02.2018 23:45 -11,7 °C 90 % 1013,0 hPa 0,0 mm 0,0 km/h (0 Bft) S-SO 147 ° 0 min 0,000 mm 0,0 UV-I 0 W/m² -13,0 °C -11,7 °C 0,0 km/h (0 Bft)
13.02.2018 23:46 -11,7 °C 90 % 1013,0 hPa 0,0 mm 0,0 km/h (0 Bft) S-SO 147 ° 0 min 0,000 mm 0,0 UV-I 0 W/m² -13,0 °C -11,7 °C 0,0 km/h (0 Bft)
13.02.2018 23:47 -11,7 °C 90 % 1012,9 hPa 0,0 mm 0,0 km/h (0 Bft) S-SO 147 ° 0 min 0,000 mm 0,0 UV-I 0 W/m² -13,0 °C -11,7 °C 0,0 km/h (0 Bft)
13.02.2018 23:48 -11,7 °C 90 % 1012,9 hPa 0,0 mm 0,0 km/h (0 Bft) S-SO 147 ° 0 min 0,000 mm 0,0 UV-I 0 W/m² -13,0 °C -11,7 °C 0,0 km/h (0 Bft)
13.02.2018 23:49 -11,7 °C 90 % 1012,9 hPa 0,0 mm 0,0 km/h (0 Bft) S-SO 147 ° 0 min 0,000 mm 0,0 UV-I 0 W/m² -13,0 °C -11,7 °C 0,0 km/h (0 Bft)
13.02.2018 23:50 -11,8 °C 90 % 1012,9 hPa 0,0 mm 0,0 km/h (0 Bft) S-SO 147 ° 0 min 0,000 mm 0,0 UV-I 0 W/m² -13,1 °C -11,8 °C 0,0 km/h (0 Bft)
13.02.2018 23:51 -11,8 °C 90 % 1012,9 hPa 0,0 mm 0,0 km/h (0 Bft) S-SO 147 ° 0 min 0,000 mm 0,0 UV-I 0 W/m² -13,1 °C -11,8 °C 0,0 km/h (0 Bft)
13.02.2018 23:52 -11,9 °C 90 % 1013,0 hPa 0,0 mm 0,0 km/h (0 Bft) S-SO 147 ° 0 min 0,000 mm 0,0 UV-I 0 W/m² -13,2 °C -11,9 °C 0,0 km/h (0 Bft)
13.02.2018 23:53 -12,0 °C 89 % 1012,9 hPa 0,0 mm 0,0 km/h (0 Bft) S-SO 147 ° 0 min 0,000 mm 0,0 UV-I 0 W/m² -13,4 °C -12,0 °C 0,0 km/h (0 Bft)
13.02.2018 23:54 -12,1 °C 89 % 1012,9 hPa 0,0 mm 0,0 km/h (0 Bft) S-SO 147 ° 0 min 0,000 mm 0,0 UV-I 0 W/m² -13,5 °C -12,1 °C 0,0 km/h (0 Bft)
13.02.2018 23:55 -12,2 °C 89 % 1012,9 hPa 0,0 mm 0,0 km/h (0 Bft) S-SO 147 ° 0 min 0,000 mm 0,0 UV-I 0 W/m² -13,6 °C -12,2 °C 0,0 km/h (0 Bft)
13.02.2018 23:56 -12,2 °C 89 % 1012,9 hPa 0,0 mm 0,0 km/h (0 Bft) S-SO 147 ° 0 min 0,000 mm 0,0 UV-I 0 W/m² -13,6 °C -12,2 °C 0,0 km/h (0 Bft)
13.02.2018 23:57 -12,2 °C 90 % 1012,9 hPa 0,0 mm 0,0 km/h (0 Bft) S-SO 147 ° 0 min 0,000 mm 0,0 UV-I 0 W/m² -13,5 °C -12,2 °C 0,0 km/h (0 Bft)
13.02.2018 23:58 -12,2 °C 90 % 1012,9 hPa 0,0 mm 0,0 km/h (0 Bft) S-SO 147 ° 0 min 0,000 mm 0,0 UV-I 0 W/m² -13,5 °C -12,2 °C 0,0 km/h (0 Bft)
13.02.2018 23:59 -12,3 °C 90 % 1012,9 hPa 0,0 mm 0,0 km/h (0 Bft) S-SO 147 ° 0 min 0,000 mm 0,0 UV-I 0 W/m² -13,6 °C -12,3 °C 0,0 km/h (0 Bft)
_ Min-Zeit 23:59 14:53 19:38 - 23:59 - - - - - - 23:56 23:59 23:59
Minimum _ -12,3 °C 75 % 1012,6 hPa - 0,0 km/h (0 Bft) - - - - - - -13,6 °C -12,3 °C 0,0 km/h (0 Bft)
_ Max-Zeit 15:39 09:16 01:05 14:30 13:09 - - 15:23 15:01 14:58 14:04 12:07 15:12 13:09
Maximum _ -2,1 °C 92 % 1019,3 hPa 0,2 mm 12,7 km/h
NO (3 Bft)
- - 1 min 0,127 mm 1,5 UV-I 578 W/m² -5,2 °C -2,1 °C 19,3 km/h
O-NO (3 Bft)
Durchschnitt _ -5,9 °C 87 % 1016,0 hPa #0,2 mm 2,0 km/h (1 Bft) O-NO - #1:32 h #0,356 mm 1,0 UV-I 48 W/m² -7,8 °C -6,5 °C 3,5 km/h (1 Bft)